<?xml version='1.0' encoding='UTF-8'?><gpx version="1.1" creator="JPX - https://github.com/jenetics/jpx" xmlns="http://www.topografix.com/GPX/1/1"><trk><trkseg><trkpt lat="45.603426962933064" lon="10.013114531449142"><ele>252.0</ele><time>2026-03-22T15:07:16Z</time></trkpt><trkpt lat="45.60344205945611" lon="10.013233961799191"><ele>252.0</ele><time>2026-03-22T15:07:18Z</time></trkpt><trkpt lat="45.60358143582764" lon="10.01328862916155"><ele>252.0</ele><time>2026-03-22T15:07:22Z</time></trkpt><trkpt lat="45.60364536906746" lon="10.013357132973132"><ele>252.0</ele><time>2026-03-22T15:07:23Z</time></trkpt><trkpt lat="45.603729294982436" lon="10.013401691336622"><ele>252.0</ele><time>2026-03-22T15:07:24Z</time></trkpt><trkpt lat="45.60380241835607" lon="10.013524449736616"><ele>249.75</ele><time>2026-03-22T15:07:25Z</time></trkpt><trkpt lat="45.60387678879438" lon="10.01357058696013"><ele>247.5</ele><time>2026-03-22T15:07:26Z</time></trkpt><trkpt lat="45.604029622576576" lon="10.01356642767594"><ele>245.25</ele><time>2026-03-22T15:07:27Z</time></trkpt><trkpt lat="45.60415688037477" lon="10.013577471453248"><ele>243.0</ele><time>2026-03-22T15:07:28Z</time></trkpt><trkpt lat="45.60428636515764" lon="10.013567887683141"><ele>243.0</ele><time>2026-03-22T15:07:29Z</time></trkpt><trkpt lat="45.60441468875442" lon="10.01356059664553"><ele>243.0</ele><time>2026-03-22T15:07:30Z</time></trkpt><trkpt lat="45.60451338018054" lon="10.013552903153847"><ele>243.0</ele><time>2026-03-22T15:07:31Z</time></trkpt><trkpt lat="45.60467594407901" lon="10.013669709738545"><ele>243.0</ele><time>2026-03-22T15:07:33Z</time></trkpt><trkpt lat="45.60476187125589" lon="10.013761832036316"><ele>241.75</ele><time>2026-03-22T15:07:34Z</time></trkpt><trkpt lat="45.60483177872269" lon="10.013928330886413"><ele>240.5</ele><time>2026-03-22T15:07:35Z</time></trkpt><trkpt lat="45.60495219063326" lon="10.014036225778206"><ele>239.25</ele><time>2026-03-22T15:07:36Z</time></trkpt><trkpt lat="45.60504219757716" lon="10.014135829260669"><ele>238.0</ele><time>2026-03-22T15:07:37Z</time></trkpt><trkpt lat="45.60508991100847" lon="10.01432874912953"><ele>238.0</ele><time>2026-03-22T15:07:39Z</time></trkpt><trkpt lat="45.60504484997926" lon="10.014592230138227"><ele>238.0</ele><time>2026-03-22T15:07:41Z</time></trkpt><trkpt lat="45.60500985559814" lon="10.014749532646773"><ele>238.0</ele><time>2026-03-22T15:07:42Z</time></trkpt><trkpt lat="45.604963893320374" lon="10.014890788096942"><ele>238.0</ele><time>2026-03-22T15:07:43Z</time></trkpt><trkpt lat="45.60489482017137" lon="10.015049842402162"><ele>237.33333333333331</ele><time>2026-03-22T15:07:44Z</time></trkpt><trkpt lat="45.60478631795034" lon="10.015168162795772"><ele>236.66666666666669</ele><time>2026-03-22T15:07:45Z</time></trkpt><trkpt lat="45.604647300511196" lon="10.015318975857616"><ele>236.0</ele><time>2026-03-22T15:07:46Z</time></trkpt><trkpt lat="45.60451154485395" lon="10.015503033968619"><ele>237.0</ele><time>2026-03-22T15:07:47Z</time></trkpt><trkpt lat="45.604412327546406" lon="10.015668104081996"><ele>238.0</ele><time>2026-03-22T15:07:48Z</time></trkpt><trkpt lat="45.604334200059775" lon="10.015788299923502"><ele>239.0</ele><time>2026-03-22T15:07:49Z</time></trkpt><trkpt lat="45.60425373053993" lon="10.015898929081128"><ele>240.0</ele><time>2026-03-22T15:07:50Z</time></trkpt><trkpt lat="45.60418786487698" lon="10.015940372773942"><ele>240.0</ele><time>2026-03-22T15:07:51Z</time></trkpt><trkpt lat="45.60412791592737" lon="10.015983303060754"><ele>240.0</ele><time>2026-03-22T15:07:52Z</time></trkpt><trkpt lat="45.604305775319254" lon="10.016667976587733"><ele>238.5</ele><time>2026-03-22T15:07:54Z</time></trkpt><trkpt lat="45.60432752512374" lon="10.016859807502067"><ele>237.0</ele><time>2026-03-22T15:07:55Z</time></trkpt><trkpt lat="45.604341876869896" lon="10.017073073760194"><ele>235.5</ele><time>2026-03-22T15:07:56Z</time></trkpt><trkpt lat="45.604335416791464" lon="10.01728209214216"><ele>234.0</ele><time>2026-03-22T15:07:57Z</time></trkpt><trkpt lat="45.60430314116181" lon="10.017485878628491"><ele>233.5</ele><time>2026-03-22T15:07:58Z</time></trkpt><trkpt lat="45.604272140837615" lon="10.017686947430144"><ele>233.0</ele><time>2026-03-22T15:07:59Z</time></trkpt><trkpt lat="45.604258581790525" lon="10.017899448415989"><ele>232.5</ele><time>2026-03-22T15:08:00Z</time></trkpt><trkpt lat="45.60426523116519" lon="10.0181004756109"><ele>232.0</ele><time>2026-03-22T15:08:01Z</time></trkpt><trkpt lat="45.604274396021395" lon="10.018308829280258"><ele>232.0</ele><time>2026-03-22T15:08:02Z</time></trkpt><trkpt lat="45.604278169745896" lon="10.018515097020838"><ele>232.0</ele><time>2026-03-22T15:08:03Z</time></trkpt><trkpt lat="45.60428153819171" lon="10.018729322940379"><ele>232.0</ele><time>2026-03-22T15:08:04Z</time></trkpt><trkpt lat="45.604289298891324" lon="10.018933937614939"><ele>232.0</ele><time>2026-03-22T15:08:05Z</time></trkpt><trkpt lat="45.60428945640921" lon="10.019104363036115"><ele>232.16666666666666</ele><time>2026-03-22T15:08:06Z</time></trkpt><trkpt lat="45.60428656363473" lon="10.019236933339894"><ele>232.33333333333331</ele><time>2026-03-22T15:08:07Z</time></trkpt><trkpt lat="45.60426298987266" lon="10.019325159619685"><ele>232.5</ele><time>2026-03-22T15:08:08Z</time></trkpt><trkpt lat="45.604209910257154" lon="10.019376572169328"><ele>232.66666666666669</ele><time>2026-03-22T15:08:09Z</time></trkpt><trkpt lat="45.6041276722787" lon="10.01939576799684"><ele>232.83333333333334</ele><time>2026-03-22T15:08:10Z</time></trkpt><trkpt lat="45.60402635358817" lon="10.019400641608211"><ele>233.0</ele><time>2026-03-22T15:08:11Z</time></trkpt><trkpt lat="45.603910766478045" lon="10.019402908050921"><ele>233.0</ele><time>2026-03-22T15:08:12Z</time></trkpt><trkpt lat="45.60378365884336" lon="10.019396511212905"><ele>233.0</ele><time>2026-03-22T15:08:13Z</time></trkpt><trkpt lat="45.603650100463554" lon="10.019385445391732"><ele>233.0</ele><time>2026-03-22T15:08:14Z</time></trkpt><trkpt lat="45.60350643341087" lon="10.01936314347277"><ele>233.0</ele><time>2026-03-22T15:08:15Z</time></trkpt><trkpt lat="45.603351564368495" lon="10.019336583414066"><ele>233.66666666666669</ele><time>2026-03-22T15:08:16Z</time></trkpt><trkpt lat="45.60318875443907" lon="10.019294472727951"><ele>234.33333333333331</ele><time>2026-03-22T15:08:17Z</time></trkpt><trkpt lat="45.60303094747903" lon="10.019241593151484"><ele>235.0</ele><time>2026-03-22T15:08:18Z</time></trkpt><trkpt lat="45.60289864864164" lon="10.0192202279388"><ele>235.33333333333331</ele><time>2026-03-22T15:08:19Z</time></trkpt><trkpt lat="45.60275410697356" lon="10.019229548268422"><ele>235.66666666666669</ele><time>2026-03-22T15:08:20Z</time></trkpt><trkpt lat="45.60260482214824" lon="10.01925963671309"><ele>236.0</ele><time>2026-03-22T15:08:21Z</time></trkpt><trkpt lat="45.602429206687766" lon="10.019329504803334"><ele>236.0</ele><time>2026-03-22T15:08:22Z</time></trkpt><trkpt lat="45.60224922341428" lon="10.019412423937744"><ele>236.0</ele><time>2026-03-22T15:08:23Z</time></trkpt><trkpt lat="45.60208064386854" lon="10.019490494301454"><ele>236.0</ele><time>2026-03-22T15:08:24Z</time></trkpt><trkpt lat="45.60192389698225" lon="10.01952751268911"><ele>236.66666666666669</ele><time>2026-03-22T15:08:25Z</time></trkpt><trkpt lat="45.60176873564569" lon="10.019571030579279"><ele>237.33333333333331</ele><time>2026-03-22T15:08:26Z</time></trkpt><trkpt lat="45.601613101406755" lon="10.019604725616901"><ele>238.0</ele><time>2026-03-22T15:08:27Z</time></trkpt><trkpt lat="45.60145572753068" lon="10.019633950144351"><ele>238.0</ele><time>2026-03-22T15:08:28Z</time></trkpt><trkpt lat="45.60128920394483" lon="10.019655592530427"><ele>238.0</ele><time>2026-03-22T15:08:29Z</time></trkpt><trkpt lat="45.601132005765855" lon="10.019678259677107"><ele>238.0</ele><time>2026-03-22T15:08:30Z</time></trkpt><trkpt lat="45.60098545734525" lon="10.019732957154789"><ele>238.0</ele><time>2026-03-22T15:08:31Z</time></trkpt><trkpt lat="45.60082526351484" lon="10.019807938017708"><ele>238.0</ele><time>2026-03-22T15:08:32Z</time></trkpt><trkpt lat="45.60066565407736" lon="10.019912871044244"><ele>238.0</ele><time>2026-03-22T15:08:33Z</time></trkpt><trkpt lat="45.600507762185465" lon="10.020035157414949"><ele>238.0</ele><time>2026-03-22T15:08:34Z</time></trkpt><trkpt lat="45.60035062768941" lon="10.020177397161481"><ele>238.0</ele><time>2026-03-22T15:08:35Z</time></trkpt><trkpt lat="45.60017901980593" lon="10.020312926872585"><ele>238.0</ele><time>2026-03-22T15:08:36Z</time></trkpt><trkpt lat="45.60000808336958" lon="10.0204099379845"><ele>238.66666666666666</ele><time>2026-03-22T15:08:37Z</time></trkpt><trkpt lat="45.59986729061297" lon="10.020495080159417"><ele>239.33333333333331</ele><time>2026-03-22T15:08:38Z</time></trkpt><trkpt lat="45.599727395885424" lon="10.020599115796252"><ele>240.0</ele><time>2026-03-22T15:08:39Z</time></trkpt><trkpt lat="45.599583666713485" lon="10.020694054635138"><ele>240.33333333333331</ele><time>2026-03-22T15:08:40Z</time></trkpt><trkpt lat="45.5994333121645" lon="10.020781940818818"><ele>240.66666666666666</ele><time>2026-03-22T15:08:41Z</time></trkpt><trkpt lat="45.59926875790567" lon="10.02085951207471"><ele>241.0</ele><time>2026-03-22T15:08:42Z</time></trkpt><trkpt lat="45.5990923396979" lon="10.020933072131541"><ele>241.0</ele><time>2026-03-22T15:08:43Z</time></trkpt><trkpt lat="45.59892008247526" lon="10.021006087269424"><ele>241.0</ele><time>2026-03-22T15:08:44Z</time></trkpt><trkpt lat="45.598754429492274" lon="10.021064214259642"><ele>241.0</ele><time>2026-03-22T15:08:45Z</time></trkpt><trkpt lat="45.59858017615551" lon="10.021077593784796"><ele>241.0</ele><time>2026-03-22T15:08:46Z</time></trkpt><trkpt lat="45.59839191894842" lon="10.021070509600275"><ele>241.0</ele><time>2026-03-22T15:08:47Z</time></trkpt><trkpt lat="45.59819105302482" lon="10.021061380101008"><ele>241.0</ele><time>2026-03-22T15:08:48Z</time></trkpt><trkpt lat="45.59798951865066" lon="10.021055398131441"><ele>241.0</ele><time>2026-03-22T15:08:49Z</time></trkpt><trkpt lat="45.597800375662196" lon="10.021035552399681"><ele>241.0</ele><time>2026-03-22T15:08:50Z</time></trkpt><trkpt lat="45.59763255501155" lon="10.021025918949974"><ele>241.0</ele><time>2026-03-22T15:08:51Z</time></trkpt><trkpt lat="45.597477933985246" lon="10.02103009490495"><ele>241.0</ele><time>2026-03-22T15:08:52Z</time></trkpt><trkpt lat="45.597329466063805" lon="10.021049794756593"><ele>241.0</ele><time>2026-03-22T15:08:53Z</time></trkpt><trkpt lat="45.597186461287244" lon="10.021067144235015"><ele>241.0</ele><time>2026-03-22T15:08:54Z</time></trkpt><trkpt lat="45.5970276543376" lon="10.021083006057575"><ele>239.66666666666666</ele><time>2026-03-22T15:08:55Z</time></trkpt><trkpt lat="45.59685553964845" lon="10.02109740613671"><ele>238.33333333333331</ele><time>2026-03-22T15:08:56Z</time></trkpt><trkpt lat="45.59667573621887" lon="10.021071307935395"><ele>237.0</ele><time>2026-03-22T15:08:57Z</time></trkpt><trkpt lat="45.59648490488302" lon="10.02106819700572"><ele>237.0</ele><time>2026-03-22T15:08:58Z</time></trkpt><trkpt lat="45.59628624418693" lon="10.021057870384158"><ele>237.0</ele><time>2026-03-22T15:08:59Z</time></trkpt><trkpt lat="45.59608815989777" lon="10.021047141547433"><ele>237.0</ele><time>2026-03-22T15:09:00Z</time></trkpt><trkpt lat="45.59589420203439" lon="10.021040379764996"><ele>235.33333333333331</ele><time>2026-03-22T15:09:01Z</time></trkpt><trkpt lat="45.59572128778243" lon="10.0210427169717"><ele>233.66666666666666</ele><time>2026-03-22T15:09:02Z</time></trkpt><trkpt lat="45.59555901123228" lon="10.021067668165031"><ele>232.0</ele><time>2026-03-22T15:09:03Z</time></trkpt><trkpt lat="45.595392054139424" lon="10.021080907833676"><ele>231.0</ele><time>2026-03-22T15:09:04Z</time></trkpt><trkpt lat="45.595225400102116" lon="10.021109166208264"><ele>230.0</ele><time>2026-03-22T15:09:05Z</time></trkpt><trkpt lat="45.59506188920664" lon="10.02115354689681"><ele>229.0</ele><time>2026-03-22T15:09:06Z</time></trkpt><trkpt lat="45.59490625885718" lon="10.021200979519037"><ele>229.0</ele><time>2026-03-22T15:09:07Z</time></trkpt><trkpt lat="45.59475466564252" lon="10.021273141520338"><ele>229.0</ele><time>2026-03-22T15:09:08Z</time></trkpt><trkpt lat="45.59462851424876" lon="10.021402184143335"><ele>229.0</ele><time>2026-03-22T15:09:09Z</time></trkpt><trkpt lat="45.59452932289168" lon="10.021549931968087"><ele>229.0</ele><time>2026-03-22T15:09:10Z</time></trkpt><trkpt lat="45.59442423608252" lon="10.02165318926199"><ele>229.0</ele><time>2026-03-22T15:09:11Z</time></trkpt><trkpt lat="45.59433242941737" lon="10.021774567970947"><ele>229.0</ele><time>2026-03-22T15:09:12Z</time></trkpt><trkpt lat="45.594238212208516" lon="10.021861484851568"><ele>229.0</ele><time>2026-03-22T15:09:13Z</time></trkpt><trkpt lat="45.59416066641608" lon="10.021947448631272"><ele>229.0</ele><time>2026-03-22T15:09:14Z</time></trkpt><trkpt lat="45.59408147111902" lon="10.022042874964246"><ele>229.0</ele><time>2026-03-22T15:09:16Z</time></trkpt><trkpt lat="45.59418245742959" lon="10.022208001979912"><ele>229.0</ele><time>2026-03-22T15:09:20Z</time></trkpt><trkpt lat="45.59426670893699" lon="10.022262175577369"><ele>229.0</ele><time>2026-03-22T15:09:21Z</time></trkpt><trkpt lat="45.59437112449206" lon="10.02233079995085"><ele>229.0</ele><time>2026-03-22T15:09:22Z</time></trkpt><trkpt lat="45.59449239144093" lon="10.022431952207244"><ele>229.0</ele><time>2026-03-22T15:09:23Z</time></trkpt><trkpt lat="45.59462130288233" lon="10.022531031558664"><ele>229.0</ele><time>2026-03-22T15:09:24Z</time></trkpt><trkpt lat="45.59474638163198" lon="10.022637972878716"><ele>229.0</ele><time>2026-03-22T15:09:25Z</time></trkpt><trkpt lat="45.59484091867135" lon="10.022714246282336"><ele>229.79999999999998</ele><time>2026-03-22T15:09:26Z</time></trkpt><trkpt lat="45.59491553620224" lon="10.022776500488362"><ele>230.59999999999997</ele><time>2026-03-22T15:09:28Z</time></trkpt><trkpt lat="45.59485329396795" lon="10.02293481743033"><ele>231.4</ele><time>2026-03-22T15:09:30Z</time></trkpt><trkpt lat="45.594828659694194" lon="10.02308634955358"><ele>232.2</ele><time>2026-03-22T15:09:31Z</time></trkpt><trkpt lat="45.59480139041459" lon="10.023259877698276"><ele>233.0</ele><time>2026-03-22T15:09:32Z</time></trkpt><trkpt lat="45.59477071228058" lon="10.023457971195068"><ele>233.5</ele><time>2026-03-22T15:09:33Z</time></trkpt><trkpt lat="45.59474288729277" lon="10.023645805704838"><ele>234.0</ele><time>2026-03-22T15:09:34Z</time></trkpt><trkpt lat="45.594722818904835" lon="10.023768026910961"><ele>234.5</ele><time>2026-03-22T15:09:35Z</time></trkpt><trkpt lat="45.59462443082908" lon="10.023910516990323"><ele>235.0</ele><time>2026-03-22T15:09:37Z</time></trkpt><trkpt lat="45.59455755791754" lon="10.024011420556063"><ele>234.6</ele><time>2026-03-22T15:09:38Z</time></trkpt><trkpt lat="45.59453151905358" lon="10.024154355500928"><ele>234.2</ele><time>2026-03-22T15:09:39Z</time></trkpt><trkpt lat="45.59452094699339" lon="10.024269003322043"><ele>233.8</ele><time>2026-03-22T15:09:40Z</time></trkpt><trkpt lat="45.594545904297135" lon="10.02439923950445"><ele>233.4</ele><time>2026-03-22T15:09:41Z</time></trkpt><trkpt lat="45.59461079348164" lon="10.024498276961756"><ele>233.0</ele><time>2026-03-22T15:09:42Z</time></trkpt><trkpt lat="45.5947066749236" lon="10.0245886091475"><ele>233.0</ele><time>2026-03-22T15:09:43Z</time></trkpt><trkpt lat="45.59482936177362" lon="10.024700624293187"><ele>233.0</ele><time>2026-03-22T15:09:44Z</time></trkpt><trkpt lat="45.59497708201333" lon="10.024851272702055"><ele>233.0</ele><time>2026-03-22T15:09:45Z</time></trkpt><trkpt lat="45.595139494990946" lon="10.025023965984293"><ele>234.66666666666669</ele><time>2026-03-22T15:09:46Z</time></trkpt><trkpt lat="45.59531508765063" lon="10.025205534577495"><ele>236.33333333333331</ele><time>2026-03-22T15:09:47Z</time></trkpt><trkpt lat="45.59549918499165" lon="10.025398045558843"><ele>238.0</ele><time>2026-03-22T15:09:48Z</time></trkpt><trkpt lat="45.59567785905956" lon="10.025611929962079"><ele>230.5</ele><time>2026-03-22T15:09:49Z</time></trkpt><trkpt lat="45.5958241481568" lon="10.025872928504688"><ele>223.0</ele><time>2026-03-22T15:09:50Z</time></trkpt><trkpt lat="45.59599224138532" lon="10.02610106643498"><ele>223.0</ele><time>2026-03-22T15:09:51Z</time></trkpt><trkpt lat="45.59615592029013" lon="10.026323764631679"><ele>223.0</ele><time>2026-03-22T15:09:52Z</time></trkpt><trkpt lat="45.59633374116811" lon="10.026520900029869"><ele>223.0</ele><time>2026-03-22T15:09:53Z</time></trkpt><trkpt lat="45.59652016295509" lon="10.026700753846686"><ele>223.0</ele><time>2026-03-22T15:09:54Z</time></trkpt><trkpt lat="45.59670649662814" lon="10.026873188534795"><ele>223.0</ele><time>2026-03-22T15:09:55Z</time></trkpt><trkpt lat="45.596896759997065" lon="10.027037035272093"><ele>228.0</ele><time>2026-03-22T15:09:56Z</time></trkpt><trkpt lat="45.597084418718275" lon="10.027194791639271"><ele>233.0</ele><time>2026-03-22T15:09:57Z</time></trkpt><trkpt lat="45.59728315729361" lon="10.02730553069025"><ele>238.0</ele><time>2026-03-22T15:09:58Z</time></trkpt><trkpt lat="45.597486590698686" lon="10.02739046282329"><ele>232.0</ele><time>2026-03-22T15:09:59Z</time></trkpt><trkpt lat="45.59769331701932" lon="10.027477804492015"><ele>226.0</ele><time>2026-03-22T15:10:00Z</time></trkpt><trkpt lat="45.59790999289" lon="10.027558383109957"><ele>220.0</ele><time>2026-03-22T15:10:01Z</time></trkpt><trkpt lat="45.59811751872484" lon="10.027635451009933"><ele>220.0</ele><time>2026-03-22T15:10:02Z</time></trkpt><trkpt lat="45.59832458939218" lon="10.027725728952833"><ele>220.0</ele><time>2026-03-22T15:10:03Z</time></trkpt><trkpt lat="45.598526528389144" lon="10.027828441417713"><ele>220.0</ele><time>2026-03-22T15:10:04Z</time></trkpt><trkpt lat="45.59870865608893" lon="10.027911453916044"><ele>222.33333333333331</ele><time>2026-03-22T15:10:05Z</time></trkpt><trkpt lat="45.59888214796006" lon="10.028002305155562"><ele>224.66666666666669</ele><time>2026-03-22T15:10:06Z</time></trkpt><trkpt lat="45.59901398762824" lon="10.028049098605683"><ele>227.0</ele><time>2026-03-22T15:10:07Z</time></trkpt><trkpt lat="45.59915540714748" lon="10.028103114377096"><ele>227.0</ele><time>2026-03-22T15:10:08Z</time></trkpt><trkpt lat="45.59928960591655" lon="10.028165025243467"><ele>227.0</ele><time>2026-03-22T15:10:09Z</time></trkpt><trkpt lat="45.599413989186615" lon="10.02822595716605"><ele>227.0</ele><time>2026-03-22T15:10:10Z</time></trkpt><trkpt lat="45.59953992036815" lon="10.028279199987427"><ele>227.0</ele><time>2026-03-22T15:10:11Z</time></trkpt><trkpt lat="45.59966821164925" lon="10.028334209789254"><ele>221.0</ele><time>2026-03-22T15:10:12Z</time></trkpt><trkpt lat="45.59980627979487" lon="10.028396439258012"><ele>215.0</ele><time>2026-03-22T15:10:13Z</time></trkpt><trkpt lat="45.599950924045906" lon="10.028461417561996"><ele>209.0</ele><time>2026-03-22T15:10:14Z</time></trkpt><trkpt lat="45.600097374078686" lon="10.028530360010574"><ele>209.0</ele><time>2026-03-22T15:10:15Z</time></trkpt><trkpt lat="45.600250485093916" lon="10.028598373035921"><ele>209.0</ele><time>2026-03-22T15:10:16Z</time></trkpt><trkpt lat="45.60040144872312" lon="10.02867122386065"><ele>209.0</ele><time>2026-03-22T15:10:17Z</time></trkpt><trkpt lat="45.60055261573095" lon="10.028743106992673"><ele>210.0</ele><time>2026-03-22T15:10:18Z</time></trkpt><trkpt lat="45.600703488686854" lon="10.028819746856529"><ele>211.0</ele><time>2026-03-22T15:10:19Z</time></trkpt><trkpt lat="45.6008527657043" lon="10.028891379019312"><ele>212.0</ele><time>2026-03-22T15:10:20Z</time></trkpt><trkpt lat="45.60098143392555" lon="10.028956386988007"><ele>212.0</ele><time>2026-03-22T15:10:21Z</time></trkpt><trkpt lat="45.60109497130376" lon="10.029011273720835"><ele>212.0</ele><time>2026-03-22T15:10:22Z</time></trkpt><trkpt lat="45.60120033475694" lon="10.029063334458518"><ele>212.0</ele><time>2026-03-22T15:10:23Z</time></trkpt><trkpt lat="45.601291144366556" lon="10.029110088170167"><ele>212.0</ele><time>2026-03-22T15:10:24Z</time></trkpt><trkpt lat="45.60136368011151" lon="10.029145773817062"><ele>212.0</ele><time>2026-03-22T15:10:25Z</time></trkpt><trkpt lat="45.60146064687669" lon="10.029215502453106"><ele>209.5</ele><time>2026-03-22T15:10:27Z</time></trkpt><trkpt lat="45.60153708929514" lon="10.029264104839456"><ele>207.0</ele><time>2026-03-22T15:10:30Z</time></trkpt><trkpt lat="45.601656109453394" lon="10.029294326112044"><ele>204.5</ele><time>2026-03-22T15:10:44Z</time></trkpt><trkpt lat="45.60187854979727" lon="10.029328968576069"><ele>202.0</ele><time>2026-03-22T15:10:51Z</time></trkpt><trkpt lat="45.60193782102237" lon="10.029261618626293"><ele>202.0</ele><time>2026-03-22T15:10:53Z</time></trkpt><trkpt lat="45.60196298736141" lon="10.029147032766701"><ele>202.0</ele><time>2026-03-22T15:10:55Z</time></trkpt><trkpt lat="45.602006578866956" lon="10.028999669841372"><ele>202.0</ele><time>2026-03-22T15:10:56Z</time></trkpt><trkpt lat="45.60208184132812" lon="10.028843256028287"><ele>202.0</ele><time>2026-03-22T15:10:57Z</time></trkpt><trkpt lat="45.602158085026616" lon="10.028684315839456"><ele>202.0</ele><time>2026-03-22T15:10:58Z</time></trkpt><trkpt lat="45.60224785740867" lon="10.028510385647518"><ele>202.0</ele><time>2026-03-22T15:10:59Z</time></trkpt><trkpt lat="45.60234585310636" lon="10.028334176877555"><ele>202.0</ele><time>2026-03-22T15:11:00Z</time></trkpt><trkpt lat="45.60244254936593" lon="10.028163822346178"><ele>205.0</ele><time>2026-03-22T15:11:01Z</time></trkpt><trkpt lat="45.60250980638502" lon="10.02804274247747"><ele>208.0</ele><time>2026-03-22T15:11:02Z</time></trkpt><trkpt lat="45.602570244203555" lon="10.027969685205578"><ele>211.0</ele><time>2026-03-22T15:11:03Z</time></trkpt><trkpt lat="45.60272432614032" lon="10.028045918696916"><ele>214.0</ele><time>2026-03-22T15:11:05Z</time></trkpt><trkpt lat="45.602825705373704" lon="10.028142335520005"><ele>208.0</ele><time>2026-03-22T15:11:06Z</time></trkpt><trkpt lat="45.60296353506293" lon="10.028257329283317"><ele>202.0</ele><time>2026-03-22T15:11:07Z</time></trkpt><trkpt lat="45.60311169175825" lon="10.028406281675432"><ele>196.0</ele><time>2026-03-22T15:11:08Z</time></trkpt><trkpt lat="45.60326781889319" lon="10.028564506414734"><ele>196.0</ele><time>2026-03-22T15:11:09Z</time></trkpt><trkpt lat="45.60342973046525" lon="10.02875362441413"><ele>196.0</ele><time>2026-03-22T15:11:10Z</time></trkpt><trkpt lat="45.60356762777711" lon="10.028940572119067"><ele>196.0</ele><time>2026-03-22T15:11:11Z</time></trkpt><trkpt lat="45.603681913269696" lon="10.029105361812409"><ele>197.4</ele><time>2026-03-22T15:11:12Z</time></trkpt><trkpt lat="45.603779371744466" lon="10.029230887532892"><ele>198.8</ele><time>2026-03-22T15:11:13Z</time></trkpt><trkpt lat="45.60385963866815" lon="10.029323528949472"><ele>200.20000000000002</ele><time>2026-03-22T15:11:14Z</time></trkpt><trkpt lat="45.60392471263929" lon="10.029402502653717"><ele>201.60000000000002</ele><time>2026-03-22T15:11:15Z</time></trkpt><trkpt lat="45.60399261746086" lon="10.02947242780261"><ele>203.0</ele><time>2026-03-22T15:11:16Z</time></trkpt><trkpt lat="45.60415046532056" lon="10.02936585624691"><ele>203.0</ele><time>2026-03-22T15:11:17Z</time></trkpt><trkpt lat="45.6042865076591" lon="10.029289997655349"><ele>203.0</ele><time>2026-03-22T15:11:18Z</time></trkpt><trkpt lat="45.60443814166673" lon="10.029203250123734"><ele>203.0</ele><time>2026-03-22T15:11:19Z</time></trkpt><trkpt lat="45.604613330173244" lon="10.029112206202681"><ele>204.33333333333334</ele><time>2026-03-22T15:11:20Z</time></trkpt><trkpt lat="45.60480464058929" lon="10.029005784249529"><ele>205.66666666666669</ele><time>2026-03-22T15:11:21Z</time></trkpt><trkpt lat="45.605001434360105" lon="10.028888974315919"><ele>207.0</ele><time>2026-03-22T15:11:22Z</time></trkpt><trkpt lat="45.60518271232778" lon="10.028765610171654"><ele>209.25</ele><time>2026-03-22T15:11:23Z</time></trkpt><trkpt lat="45.60532951263583" lon="10.02866679086157"><ele>211.5</ele><time>2026-03-22T15:11:24Z</time></trkpt><trkpt lat="45.60546089780133" lon="10.028604744997924"><ele>213.75</ele><time>2026-03-22T15:11:25Z</time></trkpt><trkpt lat="45.60559971101932" lon="10.028608857673571"><ele>216.0</ele><time>2026-03-22T15:11:26Z</time></trkpt><trkpt lat="45.60575076106077" lon="10.028625414970927"><ele>216.0</ele><time>2026-03-22T15:11:27Z</time></trkpt><trkpt lat="45.60591231476341" lon="10.028688452076446"><ele>216.0</ele><time>2026-03-22T15:11:28Z</time></trkpt><trkpt lat="45.60607302076687" lon="10.028729723909125"><ele>216.0</ele><time>2026-03-22T15:11:29Z</time></trkpt><trkpt lat="45.60619217112733" lon="10.028745963962084"><ele>216.4</ele><time>2026-03-22T15:11:30Z</time></trkpt><trkpt lat="45.60629477501864" lon="10.028705163559918"><ele>216.8</ele><time>2026-03-22T15:11:31Z</time></trkpt><trkpt lat="45.60637020641496" lon="10.028654242503679"><ele>217.20000000000002</ele><time>2026-03-22T15:11:32Z</time></trkpt><trkpt lat="45.606490600071915" lon="10.028581557382928"><ele>217.60000000000002</ele><time>2026-03-22T15:11:34Z</time></trkpt><trkpt lat="45.60654764847949" lon="10.028530218986438"><ele>218.0</ele><time>2026-03-22T15:11:35Z</time></trkpt><trkpt lat="45.60661905922255" lon="10.028483915005598"><ele>218.0</ele><time>2026-03-22T15:11:37Z</time></trkpt><trkpt lat="45.60675218958557" lon="10.028724514322645"><ele>218.0</ele><time>2026-03-22T15:11:39Z</time></trkpt><trkpt lat="45.60682785318328" lon="10.028859716164186"><ele>218.0</ele><time>2026-03-22T15:11:40Z</time></trkpt><trkpt lat="45.6069065070503" lon="10.02896631125173"><ele>218.0</ele><time>2026-03-22T15:11:41Z</time></trkpt><trkpt lat="45.606976113787205" lon="10.029035427507146"><ele>217.83333333333334</ele><time>2026-03-22T15:11:42Z</time></trkpt><trkpt lat="45.607034225761005" lon="10.029085059046647"><ele>217.66666666666669</ele><time>2026-03-22T15:11:43Z</time></trkpt><trkpt lat="45.607063429468994" lon="10.029180629260429"><ele>217.5</ele><time>2026-03-22T15:11:45Z</time></trkpt><trkpt lat="45.60704356870365" lon="10.029364257203676"><ele>217.33333333333331</ele><time>2026-03-22T15:11:47Z</time></trkpt><trkpt lat="45.60702386995435" lon="10.029472312238417"><ele>217.16666666666666</ele><time>2026-03-22T15:11:48Z</time></trkpt><trkpt lat="45.606999511363654" lon="10.029580002512738"><ele>217.0</ele><time>2026-03-22T15:11:49Z</time></trkpt><trkpt lat="45.60697664457106" lon="10.029681092319288"><ele>216.99999999999997</ele><time>2026-03-22T15:11:50Z</time></trkpt><trkpt lat="45.60694389770956" lon="10.029834939642393"><ele>217.0</ele><time>2026-03-22T15:11:52Z</time></trkpt><trkpt lat="45.606914053104674" lon="10.029925591768254"><ele>217.0</ele><time>2026-03-22T15:11:54Z</time></trkpt><trkpt lat="45.606841288606596" lon="10.029944609042428"><ele>217.0</ele><time>2026-03-22T15:11:56Z</time></trkpt><trkpt lat="45.606757110497036" lon="10.029925246775235"><ele>216.99999999999997</ele><time>2026-03-22T15:11:58Z</time></trkpt><trkpt lat="45.60666883646566" lon="10.029951169629436"><ele>217.0</ele><time>2026-03-22T15:12:00Z</time></trkpt><trkpt lat="45.60655246422937" lon="10.02996327432304"><ele>217.25</ele><time>2026-03-22T15:12:02Z</time></trkpt><trkpt lat="45.60643715931402" lon="10.02999381853938"><ele>217.5</ele><time>2026-03-22T15:12:04Z</time></trkpt><trkpt lat="45.60631938130772" lon="10.030022284666714"><ele>217.75</ele><time>2026-03-22T15:12:06Z</time></trkpt><trkpt lat="45.6062196529562" lon="10.030062169452957"><ele>218.0</ele><time>2026-03-22T15:12:08Z</time></trkpt><trkpt lat="45.606180452974655" lon="10.03023136227763"><ele>218.0</ele><time>2026-03-22T15:12:10Z</time></trkpt><trkpt lat="45.60617592859706" lon="10.030323599958452"><ele>218.0</ele><time>2026-03-22T15:12:11Z</time></trkpt><trkpt lat="45.60616884840613" lon="10.030420503876186"><ele>218.0</ele><time>2026-03-22T15:12:12Z</time></trkpt><trkpt lat="45.60614536788495" lon="10.03051702302653"><ele>218.0</ele><time>2026-03-22T15:12:13Z</time></trkpt><trkpt lat="45.60612113981723" lon="10.030610886834268"><ele>218.0</ele><time>2026-03-22T15:12:14Z</time></trkpt><trkpt lat="45.60609614384097" lon="10.030705964870045"><ele>218.0</ele><time>2026-03-22T15:12:15Z</time></trkpt><trkpt lat="45.6060688935925" lon="10.030799222187465"><ele>218.0</ele><time>2026-03-22T15:12:16Z</time></trkpt><trkpt lat="45.60603473785179" lon="10.030885399251785"><ele>218.42857142857144</ele><time>2026-03-22T15:12:17Z</time></trkpt><trkpt lat="45.60600192153047" lon="10.030967830608603"><ele>218.85714285714286</ele><time>2026-03-22T15:12:18Z</time></trkpt><trkpt lat="45.60596446701176" lon="10.031045339635803"><ele>219.28571428571428</ele><time>2026-03-22T15:12:19Z</time></trkpt><trkpt lat="45.60592782851842" lon="10.031125221065723"><ele>219.71428571428572</ele><time>2026-03-22T15:12:20Z</time></trkpt><trkpt lat="45.605894156317696" lon="10.031206461483977"><ele>220.14285714285714</ele><time>2026-03-22T15:12:21Z</time></trkpt><trkpt lat="45.6058661787385" lon="10.031293755211824"><ele>220.57142857142858</ele><time>2026-03-22T15:12:22Z</time></trkpt><trkpt lat="45.60583682409042" lon="10.03137634257248"><ele>221.0</ele><time>2026-03-22T15:12:23Z</time></trkpt><trkpt lat="45.60581065853056" lon="10.031458807578273"><ele>221.00000000000003</ele><time>2026-03-22T15:12:24Z</time></trkpt><trkpt lat="45.60573625760827" lon="10.031594382935586"><ele>221.0</ele><time>2026-03-22T15:12:26Z</time></trkpt><trkpt lat="45.605698507713726" lon="10.031683038153611"><ele>221.0</ele><time>2026-03-22T15:12:27Z</time></trkpt><trkpt lat="45.605666194048425" lon="10.031778119866361"><ele>221.0</ele><time>2026-03-22T15:12:28Z</time></trkpt><trkpt lat="45.60565198448356" lon="10.031876549529253"><ele>221.00000000000003</ele><time>2026-03-22T15:12:29Z</time></trkpt><trkpt lat="45.60567187108461" lon="10.031990081401995"><ele>221.0</ele><time>2026-03-22T15:12:30Z</time></trkpt><trkpt lat="45.60574139637014" lon="10.032069419828657"><ele>221.60000000000002</ele><time>2026-03-22T15:12:31Z</time></trkpt><trkpt lat="45.605809383109296" lon="10.032140623640963"><ele>222.20000000000002</ele><time>2026-03-22T15:12:32Z</time></trkpt><trkpt lat="45.60588203979922" lon="10.03221945859628"><ele>222.79999999999998</ele><time>2026-03-22T15:12:33Z</time></trkpt><trkpt lat="45.605956434528295" lon="10.032307455541922"><ele>223.39999999999998</ele><time>2026-03-22T15:12:34Z</time></trkpt><trkpt lat="45.60603424646453" lon="10.032384883491535"><ele>224.0</ele><time>2026-03-22T15:12:35Z</time></trkpt><trkpt lat="45.60611137860345" lon="10.032452886536323"><ele>224.2</ele><time>2026-03-22T15:12:36Z</time></trkpt><trkpt lat="45.606176968568555" lon="10.03249397587544"><ele>224.39999999999998</ele><time>2026-03-22T15:12:37Z</time></trkpt><trkpt lat="45.606250180430045" lon="10.032538705723228"><ele>224.6</ele><time>2026-03-22T15:12:39Z</time></trkpt><trkpt lat="45.60618273671288" lon="10.032730218078843"><ele>224.8</ele><time>2026-03-22T15:12:41Z</time></trkpt><trkpt lat="45.60614692236165" lon="10.032820743040618"><ele>225.0</ele><time>2026-03-22T15:12:42Z</time></trkpt><trkpt lat="45.60609818496955" lon="10.032968812941592"><ele>226.0</ele><time>2026-03-22T15:12:43Z</time></trkpt><trkpt lat="45.60604690564989" lon="10.033133890238576"><ele>227.0</ele><time>2026-03-22T15:12:44Z</time></trkpt><trkpt lat="45.60601535961855" lon="10.033327558537097"><ele>228.0</ele><time>2026-03-22T15:12:45Z</time></trkpt><trkpt lat="45.605967362315674" lon="10.033547397262982"><ele>229.0</ele><time>2026-03-22T15:12:46Z</time></trkpt><trkpt lat="45.60587297261795" lon="10.033677171981626"><ele>229.5</ele><time>2026-03-22T15:12:47Z</time></trkpt><trkpt lat="45.605792529846" lon="10.033863377183328"><ele>230.0</ele><time>2026-03-22T15:12:48Z</time></trkpt><trkpt lat="45.60570092371636" lon="10.034060150442217"><ele>230.5</ele><time>2026-03-22T15:12:49Z</time></trkpt><trkpt lat="45.60561195310109" lon="10.034195166321147"><ele>231.0</ele><time>2026-03-22T15:12:50Z</time></trkpt><trkpt lat="45.60554438980438" lon="10.034296013920995"><ele>231.60000000000002</ele><time>2026-03-22T15:12:51Z</time></trkpt><trkpt lat="45.605455912322434" lon="10.034365592895877"><ele>232.20000000000002</ele><time>2026-03-22T15:12:52Z</time></trkpt><trkpt lat="45.60535515004028" lon="10.034407050479825"><ele>232.79999999999998</ele><time>2026-03-22T15:12:53Z</time></trkpt><trkpt lat="45.60524696739724" lon="10.034442997506932"><ele>233.39999999999998</ele><time>2026-03-22T15:12:54Z</time></trkpt><trkpt lat="45.6051461308161" lon="10.03449799125353"><ele>234.0</ele><time>2026-03-22T15:12:55Z</time></trkpt><trkpt lat="45.60508060401981" lon="10.034588539247224"><ele>235.25</ele><time>2026-03-22T15:12:56Z</time></trkpt><trkpt lat="45.605058431775376" lon="10.03473918215815"><ele>236.5</ele><time>2026-03-22T15:12:57Z</time></trkpt><trkpt lat="45.60499109915409" lon="10.034896924703851"><ele>237.75</ele><time>2026-03-22T15:12:58Z</time></trkpt><trkpt lat="45.60493221541571" lon="10.035078269638333"><ele>239.0</ele><time>2026-03-22T15:12:59Z</time></trkpt><trkpt lat="45.604885188876" lon="10.035250069776234"><ele>239.83333333333334</ele><time>2026-03-22T15:13:00Z</time></trkpt><trkpt lat="45.604860932479994" lon="10.035410908081353"><ele>240.66666666666669</ele><time>2026-03-22T15:13:01Z</time></trkpt><trkpt lat="45.60486877740967" lon="10.035518578201916"><ele>241.5</ele><time>2026-03-22T15:13:02Z</time></trkpt><trkpt lat="45.60492194525832" lon="10.035572942001576"><ele>242.33333333333331</ele><time>2026-03-22T15:13:03Z</time></trkpt><trkpt lat="45.604949277036575" lon="10.035656218573457"><ele>243.16666666666666</ele><time>2026-03-22T15:13:04Z</time></trkpt><trkpt lat="45.60501280032035" lon="10.03576094747745"><ele>244.0</ele><time>2026-03-22T15:13:05Z</time></trkpt><trkpt lat="45.60507950555684" lon="10.035901019492574"><ele>244.5</ele><time>2026-03-22T15:13:06Z</time></trkpt><trkpt lat="45.60514643991981" lon="10.036056652612519"><ele>245.0</ele><time>2026-03-22T15:13:07Z</time></trkpt><trkpt lat="45.60520018152565" lon="10.036233359813052"><ele>245.5</ele><time>2026-03-22T15:13:08Z</time></trkpt><trkpt lat="45.60528654515754" lon="10.036387149266336"><ele>246.0</ele><time>2026-03-22T15:13:09Z</time></trkpt><trkpt lat="45.60536179633646" lon="10.036521982491267"><ele>247.20000000000002</ele><time>2026-03-22T15:13:10Z</time></trkpt><trkpt lat="45.60545446184905" lon="10.036649986603155"><ele>248.40000000000003</ele><time>2026-03-22T15:13:11Z</time></trkpt><trkpt lat="45.605530775066235" lon="10.036781862848178"><ele>249.6</ele><time>2026-03-22T15:13:12Z</time></trkpt><trkpt lat="45.60560651122726" lon="10.036892569087922"><ele>250.8</ele><time>2026-03-22T15:13:13Z</time></trkpt><trkpt lat="45.60565312179748" lon="10.037002065582868"><ele>252.0</ele><time>2026-03-22T15:13:14Z</time></trkpt><trkpt lat="45.60571765769073" lon="10.037109510957043"><ele>252.0</ele><time>2026-03-22T15:13:15Z</time></trkpt><trkpt lat="45.605798595685606" lon="10.037212284047458"><ele>252.0</ele><time>2026-03-22T15:13:16Z</time></trkpt><trkpt lat="45.605856855216075" lon="10.037324739995624"><ele>252.0</ele><time>2026-03-22T15:13:17Z</time></trkpt><trkpt lat="45.60591090806005" lon="10.037418223953235"><ele>252.0</ele><time>2026-03-22T15:13:18Z</time></trkpt><trkpt lat="45.60596335498514" lon="10.037522863501366"><ele>252.0</ele><time>2026-03-22T15:13:19Z</time></trkpt><trkpt lat="45.60601564673534" lon="10.037603827723187"><ele>252.5</ele><time>2026-03-22T15:13:20Z</time></trkpt><trkpt lat="45.60605781116695" lon="10.037671142254228"><ele>253.0</ele><time>2026-03-22T15:13:21Z</time></trkpt><trkpt lat="45.60605551209886" lon="10.037778561193699"><ele>253.5</ele><time>2026-03-22T15:13:24Z</time></trkpt><trkpt lat="45.605977956536655" lon="10.037814520838458"><ele>254.0</ele><time>2026-03-22T15:13:25Z</time></trkpt><trkpt lat="45.605916883552545" lon="10.037880654129157"><ele>254.5</ele><time>2026-03-22T15:13:26Z</time></trkpt><trkpt lat="45.605920134247796" lon="10.03806259915006"><ele>255.0</ele><time>2026-03-22T15:13:28Z</time></trkpt><trkpt lat="45.60600229594545" lon="10.038146470418535"><ele>255.0</ele><time>2026-03-22T15:13:29Z</time></trkpt><trkpt lat="45.606080198592835" lon="10.038259663758728"><ele>255.0</ele><time>2026-03-22T15:13:30Z</time></trkpt><trkpt lat="45.60618270083072" lon="10.038389678435045"><ele>255.0</ele><time>2026-03-22T15:13:31Z</time></trkpt><trkpt lat="45.60628853625982" lon="10.038534085689218"><ele>255.0</ele><time>2026-03-22T15:13:32Z</time></trkpt><trkpt lat="45.60639695161367" lon="10.03868403749128"><ele>254.0</ele><time>2026-03-22T15:13:33Z</time></trkpt><trkpt lat="45.606510015519774" lon="10.038829116706326"><ele>253.0</ele><time>2026-03-22T15:13:34Z</time></trkpt><trkpt lat="45.60660127355817" lon="10.038959055458951"><ele>252.0</ele><time>2026-03-22T15:13:35Z</time></trkpt><trkpt lat="45.60666468154177" lon="10.039076270824573"><ele>251.0</ele><time>2026-03-22T15:13:36Z</time></trkpt><trkpt lat="45.60672863627785" lon="10.039173456440428"><ele>251.0</ele><time>2026-03-22T15:13:37Z</time></trkpt><trkpt lat="45.60678504282886" lon="10.039256266115856"><ele>251.0</ele><time>2026-03-22T15:13:38Z</time></trkpt><trkpt lat="45.60683807550163" lon="10.039370987209795"><ele>251.0</ele><time>2026-03-22T15:13:40Z</time></trkpt><trkpt lat="45.606859812018165" lon="10.03962664563759"><ele>251.0</ele><time>2026-03-22T15:13:42Z</time></trkpt><trkpt lat="45.60687693047866" lon="10.03980015099716"><ele>251.0</ele><time>2026-03-22T15:13:43Z</time></trkpt><trkpt lat="45.60690381099799" lon="10.039987087277462"><ele>251.0</ele><time>2026-03-22T15:13:44Z</time></trkpt><trkpt lat="45.60692289331814" lon="10.040181065106797"><ele>251.0</ele><time>2026-03-22T15:13:45Z</time></trkpt><trkpt lat="45.606930863201434" lon="10.04036723222242"><ele>251.0</ele><time>2026-03-22T15:13:46Z</time></trkpt><trkpt lat="45.60692224049894" lon="10.04051894084345"><ele>251.0</ele><time>2026-03-22T15:13:47Z</time></trkpt><trkpt lat="45.60685042880866" lon="10.040654239411946"><ele>251.0</ele><time>2026-03-22T15:13:48Z</time></trkpt><trkpt lat="45.6068007182398" lon="10.040837617378836"><ele>251.0</ele><time>2026-03-22T15:13:49Z</time></trkpt><trkpt lat="45.606741057277425" lon="10.041027470195399"><ele>251.0</ele><time>2026-03-22T15:13:50Z</time></trkpt><trkpt lat="45.60667329011848" lon="10.041212826224555"><ele>251.5</ele><time>2026-03-22T15:13:51Z</time></trkpt><trkpt lat="45.606595857782594" lon="10.04139441474174"><ele>252.0</ele><time>2026-03-22T15:13:52Z</time></trkpt><trkpt lat="45.60651028667518" lon="10.041563239002038"><ele>252.5</ele><time>2026-03-22T15:13:53Z</time></trkpt><trkpt lat="45.60641578233899" lon="10.04173288903347"><ele>253.0</ele><time>2026-03-22T15:13:54Z</time></trkpt><trkpt lat="45.60632120659182" lon="10.041902993964834"><ele>253.75</ele><time>2026-03-22T15:13:55Z</time></trkpt><trkpt lat="45.606235131137566" lon="10.042068124815168"><ele>254.5</ele><time>2026-03-22T15:13:56Z</time></trkpt><trkpt lat="45.60615152766777" lon="10.042228513328743"><ele>255.25</ele><time>2026-03-22T15:13:57Z</time></trkpt><trkpt lat="45.60606896028442" lon="10.042386914154914"><ele>256.0</ele><time>2026-03-22T15:13:58Z</time></trkpt><trkpt lat="45.605992971384154" lon="10.042534851122365"><ele>257.0</ele><time>2026-03-22T15:13:59Z</time></trkpt><trkpt lat="45.60595058442297" lon="10.042673111573368"><ele>258.0</ele><time>2026-03-22T15:14:00Z</time></trkpt><trkpt lat="45.6059059020706" lon="10.042760745295034"><ele>259.0</ele><time>2026-03-22T15:14:01Z</time></trkpt><trkpt lat="45.60577315617384" lon="10.042769214446578"><ele>260.0</ele><time>2026-03-22T15:14:04Z</time></trkpt><trkpt lat="45.60570693989646" lon="10.042764052789954"><ele>261.0</ele><time>2026-03-22T15:14:05Z</time></trkpt><trkpt lat="45.60560818124332" lon="10.042756393221321"><ele>261.0</ele><time>2026-03-22T15:14:06Z</time></trkpt><trkpt lat="45.605507506164194" lon="10.042763241975704"><ele>261.0</ele><time>2026-03-22T15:14:07Z</time></trkpt><trkpt lat="45.605418212239606" lon="10.042778310904268"><ele>261.0</ele><time>2026-03-22T15:14:08Z</time></trkpt><trkpt lat="45.60533659407175" lon="10.042796249946962"><ele>261.0</ele><time>2026-03-22T15:14:09Z</time></trkpt><trkpt lat="45.605253640604026" lon="10.042814564527214"><ele>261.0</ele><time>2026-03-22T15:14:10Z</time></trkpt><trkpt lat="45.60516372667199" lon="10.042836380108877"><ele>261.0</ele><time>2026-03-22T15:14:11Z</time></trkpt><trkpt lat="45.605081933636235" lon="10.042857002043544"><ele>262.0</ele><time>2026-03-22T15:14:12Z</time></trkpt><trkpt lat="45.6049964593112" lon="10.042882425358286"><ele>263.0</ele><time>2026-03-22T15:14:13Z</time></trkpt><trkpt lat="45.604910495882194" lon="10.042923911628582"><ele>264.0</ele><time>2026-03-22T15:14:14Z</time></trkpt><trkpt lat="45.60482713253562" lon="10.042972215761305"><ele>265.0</ele><time>2026-03-22T15:14:15Z</time></trkpt><trkpt lat="45.60474364735713" lon="10.042986136633067"><ele>266.0</ele><time>2026-03-22T15:14:16Z</time></trkpt><trkpt lat="45.60464994813886" lon="10.043005218316512"><ele>267.0</ele><time>2026-03-22T15:14:17Z</time></trkpt><trkpt lat="45.60457490750924" lon="10.043257293665173"><ele>269.0</ele><time>2026-03-22T15:14:18Z</time></trkpt><trkpt lat="45.60446917738871" lon="10.043355544154775"><ele>271.0</ele><time>2026-03-22T15:14:19Z</time></trkpt><trkpt lat="45.60436418369064" lon="10.043473463127995"><ele>273.0</ele><time>2026-03-22T15:14:20Z</time></trkpt><trkpt lat="45.604265604649754" lon="10.043613496281436"><ele>275.0</ele><time>2026-03-22T15:14:21Z</time></trkpt><trkpt lat="45.60417125101463" lon="10.043760519235086"><ele>275.0</ele><time>2026-03-22T15:14:22Z</time></trkpt><trkpt lat="45.60409476897864" lon="10.043893777922225"><ele>275.0</ele><time>2026-03-22T15:14:23Z</time></trkpt><trkpt lat="45.60402112976246" lon="10.044009121510854"><ele>275.0</ele><time>2026-03-22T15:14:24Z</time></trkpt><trkpt lat="45.60396396244986" lon="10.044128609896498"><ele>275.0</ele><time>2026-03-22T15:14:25Z</time></trkpt><trkpt lat="45.60391386585721" lon="10.044286048727688"><ele>274.6</ele><time>2026-03-22T15:14:26Z</time></trkpt><trkpt lat="45.60385991924381" lon="10.04445086389326"><ele>274.2</ele><time>2026-03-22T15:14:27Z</time></trkpt><trkpt lat="45.60380289849026" lon="10.044581782258875"><ele>273.8</ele><time>2026-03-22T15:14:28Z</time></trkpt><trkpt lat="45.60374555482307" lon="10.044709921733448"><ele>273.4</ele><time>2026-03-22T15:14:29Z</time></trkpt><trkpt lat="45.603692240050975" lon="10.044818148592855"><ele>273.0</ele><time>2026-03-22T15:14:30Z</time></trkpt><trkpt lat="45.60365069533974" lon="10.044916456100953"><ele>273.8</ele><time>2026-03-22T15:14:31Z</time></trkpt><trkpt lat="45.603590471174215" lon="10.045068973961254"><ele>274.6</ele><time>2026-03-22T15:14:33Z</time></trkpt><trkpt lat="45.603563313173005" lon="10.045203158566736"><ele>275.4</ele><time>2026-03-22T15:14:34Z</time></trkpt><trkpt lat="45.603535414384005" lon="10.045359285129408"><ele>276.2</ele><time>2026-03-22T15:14:35Z</time></trkpt><trkpt lat="45.60351551166461" lon="10.045454989414129"><ele>277.0</ele><time>2026-03-22T15:14:36Z</time></trkpt><trkpt lat="45.60345761200537" lon="10.0455273423638"><ele>277.0</ele><time>2026-03-22T15:14:38Z</time></trkpt><trkpt lat="45.60341395990553" lon="10.045633975618156"><ele>277.0</ele><time>2026-03-22T15:14:39Z</time></trkpt><trkpt lat="45.60337171405725" lon="10.045728203998486"><ele>277.0</ele><time>2026-03-22T15:14:40Z</time></trkpt><trkpt lat="45.603335104303476" lon="10.04580910982837"><ele>277.0</ele><time>2026-03-22T15:14:41Z</time></trkpt><trkpt lat="45.6033112719874" lon="10.045896057229879"><ele>277.0</ele><time>2026-03-22T15:14:42Z</time></trkpt><trkpt lat="45.60327917641361" lon="10.045977187258586"><ele>277.0</ele><time>2026-03-22T15:14:43Z</time></trkpt><trkpt lat="45.60323925356473" lon="10.046079818232991"><ele>277.0</ele><time>2026-03-22T15:14:45Z</time></trkpt><trkpt lat="45.60334207418545" lon="10.046149249988062"><ele>274.6</ele><time>2026-03-22T15:14:47Z</time></trkpt><trkpt lat="45.603441720115434" lon="10.046184564554594"><ele>272.2</ele><time>2026-03-22T15:14:49Z</time></trkpt><trkpt lat="45.60353969587534" lon="10.046262150059318"><ele>269.8</ele><time>2026-03-22T15:14:51Z</time></trkpt><trkpt lat="45.60361030507196" lon="10.046324104027667"><ele>267.4</ele><time>2026-03-22T15:14:53Z</time></trkpt><trkpt lat="45.603650917743806" lon="10.046395621499935"><ele>265.0</ele><time>2026-03-22T15:14:55Z</time></trkpt><trkpt lat="45.603598890993936" lon="10.046614739252611"><ele>263.8</ele><time>2026-03-22T15:14:58Z</time></trkpt><trkpt lat="45.603554248650994" lon="10.046752705854404"><ele>262.6</ele><time>2026-03-22T15:14:59Z</time></trkpt><trkpt lat="45.603526814267795" lon="10.046904360380163"><ele>261.4</ele><time>2026-03-22T15:15:00Z</time></trkpt><trkpt lat="45.60353760931901" lon="10.047014356354124"><ele>260.2</ele><time>2026-03-22T15:15:01Z</time></trkpt><trkpt lat="45.603597139443764" lon="10.04719338759262"><ele>259.0</ele><time>2026-03-22T15:15:02Z</time></trkpt><trkpt lat="45.60365027827586" lon="10.047394694811713"><ele>258.0</ele><time>2026-03-22T15:15:03Z</time></trkpt><trkpt lat="45.60368903011815" lon="10.047554934818239"><ele>257.0</ele><time>2026-03-22T15:15:04Z</time></trkpt><trkpt lat="45.60372103029367" lon="10.047665354556996"><ele>256.0</ele><time>2026-03-22T15:15:05Z</time></trkpt><trkpt lat="45.60374239821987" lon="10.047768984556427"><ele>255.0</ele><time>2026-03-22T15:15:06Z</time></trkpt><trkpt lat="45.60371180536938" lon="10.047907246599731"><ele>253.99999999999997</ele><time>2026-03-22T15:15:08Z</time></trkpt><trkpt lat="45.603655989513534" lon="10.047954149642992"><ele>253.0</ele><time>2026-03-22T15:15:09Z</time></trkpt><trkpt lat="45.60356872574952" lon="10.047989545363688"><ele>253.0</ele><time>2026-03-22T15:15:10Z</time></trkpt><trkpt lat="45.60349741419728" lon="10.048006984403651"><ele>253.0</ele><time>2026-03-22T15:15:11Z</time></trkpt><trkpt lat="45.60339149215603" lon="10.048033097247462"><ele>253.0</ele><time>2026-03-22T15:15:13Z</time></trkpt><trkpt lat="45.603376513612446" lon="10.048134416618849"><ele>253.0</ele><time>2026-03-22T15:15:15Z</time></trkpt><trkpt lat="45.60347592607579" lon="10.048246048644815"><ele>253.0</ele><time>2026-03-22T15:15:18Z</time></trkpt><trkpt lat="45.603572608159524" lon="10.04833211209189"><ele>255.5</ele><time>2026-03-22T15:15:19Z</time></trkpt><trkpt lat="45.60368976131765" lon="10.048451115316725"><ele>258.0</ele><time>2026-03-22T15:15:20Z</time></trkpt><trkpt lat="45.60380907781909" lon="10.048579461593647"><ele>260.5</ele><time>2026-03-22T15:15:21Z</time></trkpt><trkpt lat="45.60392495817994" lon="10.048704433464147"><ele>263.0</ele><time>2026-03-22T15:15:22Z</time></trkpt><trkpt lat="45.60404167015081" lon="10.048813377506095"><ele>263.0</ele><time>2026-03-22T15:15:23Z</time></trkpt><trkpt lat="45.604159630339524" lon="10.04892888388704"><ele>263.0</ele><time>2026-03-22T15:15:24Z</time></trkpt><trkpt lat="45.604284879297836" lon="10.049053791183304"><ele>263.0</ele><time>2026-03-22T15:15:25Z</time></trkpt><trkpt lat="45.604399170125866" lon="10.049181587087721"><ele>263.0</ele><time>2026-03-22T15:15:26Z</time></trkpt><trkpt lat="45.604506149891435" lon="10.0493024527065"><ele>262.6666666666667</ele><time>2026-03-22T15:15:27Z</time></trkpt><trkpt lat="45.60459314712335" lon="10.049379058923346"><ele>262.33333333333337</ele><time>2026-03-22T15:15:28Z</time></trkpt><trkpt lat="45.60466510092034" lon="10.049434204042804"><ele>262.0</ele><time>2026-03-22T15:15:29Z</time></trkpt><trkpt lat="45.60472241309084" lon="10.04947520251865"><ele>261.6666666666667</ele><time>2026-03-22T15:15:30Z</time></trkpt><trkpt lat="45.60472899392891" lon="10.049615957775776"><ele>261.3333333333333</ele><time>2026-03-22T15:15:33Z</time></trkpt><trkpt lat="45.60471682886425" lon="10.049759975314382"><ele>261.0</ele><time>2026-03-22T15:15:34Z</time></trkpt><trkpt lat="45.60473569666099" lon="10.049880284447648"><ele>261.0</ele><time>2026-03-22T15:15:35Z</time></trkpt><trkpt lat="45.604799780192394" lon="10.049999585956682"><ele>261.0</ele><time>2026-03-22T15:15:37Z</time></trkpt><trkpt lat="45.604850012690605" lon="10.049836880083713"><ele>261.0</ele><time>2026-03-22T15:15:40Z</time></trkpt><trkpt lat="45.6049255355692" lon="10.049793830444733"><ele>261.0</ele><time>2026-03-22T15:15:42Z</time></trkpt><trkpt lat="45.605002232962576" lon="10.049877805439401"><ele>261.0</ele><time>2026-03-22T15:15:43Z</time></trkpt><trkpt lat="45.60512400435625" lon="10.049995239453361"><ele>260.6666666666667</ele><time>2026-03-22T15:15:44Z</time></trkpt><trkpt lat="45.605262178580894" lon="10.050099149469508"><ele>260.33333333333337</ele><time>2026-03-22T15:15:45Z</time></trkpt><trkpt lat="45.60534597955087" lon="10.050153746429059"><ele>260.0</ele><time>2026-03-22T15:15:46Z</time></trkpt><trkpt lat="45.605548992716926" lon="10.0502247152683"><ele>260.0</ele><time>2026-03-22T15:15:51Z</time></trkpt><trkpt lat="45.605681348238235" lon="10.05031497972897"><ele>260.0</ele><time>2026-03-22T15:15:52Z</time></trkpt><trkpt lat="45.60582811459953" lon="10.050423711508916"><ele>260.0</ele><time>2026-03-22T15:15:53Z</time></trkpt><trkpt lat="45.605980751497135" lon="10.050535481674387"><ele>260.0</ele><time>2026-03-22T15:15:54Z</time></trkpt><trkpt lat="45.60609309888449" lon="10.050630898205226"><ele>260.0</ele><time>2026-03-22T15:15:55Z</time></trkpt><trkpt lat="45.606185399261605" lon="10.050687848407515"><ele>260.0</ele><time>2026-03-22T15:15:56Z</time></trkpt><trkpt lat="45.60629860001127" lon="10.050724890112493"><ele>260.0</ele><time>2026-03-22T15:15:57Z</time></trkpt><trkpt lat="45.60642483154146" lon="10.050770049904084"><ele>260.4</ele><time>2026-03-22T15:15:58Z</time></trkpt><trkpt lat="45.60652608169572" lon="10.050842364969066"><ele>260.8</ele><time>2026-03-22T15:15:59Z</time></trkpt><trkpt lat="45.60659160459001" lon="10.0509072830574"><ele>261.2</ele><time>2026-03-22T15:16:00Z</time></trkpt><trkpt lat="45.60668858420902" lon="10.050945727134707"><ele>261.6</ele><time>2026-03-22T15:16:02Z</time></trkpt><trkpt lat="45.60677147841773" lon="10.050918187947111"><ele>262.0</ele><time>2026-03-22T15:16:03Z</time></trkpt><trkpt lat="45.60688796609028" lon="10.050944471630745"><ele>268.0</ele><time>2026-03-22T15:16:04Z</time></trkpt><trkpt lat="45.60702530265498" lon="10.051073548786015"><ele>274.0</ele><time>2026-03-22T15:16:05Z</time></trkpt><trkpt lat="45.607176015799794" lon="10.05119619919405"><ele>280.0</ele><time>2026-03-22T15:16:06Z</time></trkpt><trkpt lat="45.60736224190246" lon="10.051321847420454"><ele>280.0</ele><time>2026-03-22T15:16:07Z</time></trkpt><trkpt lat="45.60751181318387" lon="10.051422337949944"><ele>280.0</ele><time>2026-03-22T15:16:08Z</time></trkpt><trkpt lat="45.60762448892457" lon="10.051480472439573"><ele>280.0</ele><time>2026-03-22T15:16:09Z</time></trkpt><trkpt lat="45.60774834340037" lon="10.051560976262989"><ele>280.0</ele><time>2026-03-22T15:16:10Z</time></trkpt><trkpt lat="45.607848127844754" lon="10.051616581875809"><ele>277.0</ele><time>2026-03-22T15:16:11Z</time></trkpt><trkpt lat="45.60792214926648" lon="10.05166096211877"><ele>274.0</ele><time>2026-03-22T15:16:12Z</time></trkpt><trkpt lat="45.607977128526" lon="10.051774562881908"><ele>271.0</ele><time>2026-03-22T15:16:14Z</time></trkpt><trkpt lat="45.607992266941984" lon="10.05194110388679"><ele>268.0</ele><time>2026-03-22T15:16:16Z</time></trkpt><trkpt lat="45.60803802470154" lon="10.052123896587446"><ele>265.0</ele><time>2026-03-22T15:16:18Z</time></trkpt><trkpt lat="45.60808622089735" lon="10.052200676116334"><ele>265.0</ele><time>2026-03-22T15:16:19Z</time></trkpt><trkpt lat="45.6081509127894" lon="10.052261620812367"><ele>265.0</ele><time>2026-03-22T15:16:20Z</time></trkpt><trkpt lat="45.60822466775384" lon="10.052308332063701"><ele>265.0</ele><time>2026-03-22T15:16:21Z</time></trkpt><trkpt lat="45.60831615350681" lon="10.052337881681535"><ele>265.0</ele><time>2026-03-22T15:16:22Z</time></trkpt><trkpt lat="45.608449814357186" lon="10.052337427085192"><ele>265.0</ele><time>2026-03-22T15:16:23Z</time></trkpt><trkpt lat="45.608587731482075" lon="10.052360233388622"><ele>265.6</ele><time>2026-03-22T15:16:24Z</time></trkpt><trkpt lat="45.608687536321156" lon="10.052398982963695"><ele>266.2</ele><time>2026-03-22T15:16:25Z</time></trkpt><trkpt lat="45.60877331541798" lon="10.05243484985244"><ele>266.8</ele><time>2026-03-22T15:16:26Z</time></trkpt><trkpt lat="45.608873632726215" lon="10.052480833135872"><ele>267.4</ele><time>2026-03-22T15:16:27Z</time></trkpt><trkpt lat="45.608971381479385" lon="10.052518616284685"><ele>268.0</ele><time>2026-03-22T15:16:28Z</time></trkpt><trkpt lat="45.609074013529614" lon="10.052558799171516"><ele>266.0</ele><time>2026-03-22T15:16:29Z</time></trkpt><trkpt lat="45.60917208340419" lon="10.052592984122368"><ele>264.0</ele><time>2026-03-22T15:16:30Z</time></trkpt><trkpt lat="45.60926883374176" lon="10.052626485996008"><ele>262.0</ele><time>2026-03-22T15:16:31Z</time></trkpt><trkpt lat="45.60937512531696" lon="10.052673098624707"><ele>260.0</ele><time>2026-03-22T15:16:32Z</time></trkpt><trkpt lat="45.60947057538232" lon="10.052705594338772"><ele>258.0</ele><time>2026-03-22T15:16:33Z</time></trkpt><trkpt lat="45.609540235408595" lon="10.052757039286131"><ele>258.0</ele><time>2026-03-22T15:16:34Z</time></trkpt><trkpt lat="45.609593080760355" lon="10.052817864602591"><ele>258.0</ele><time>2026-03-22T15:16:35Z</time></trkpt><trkpt lat="45.60964251208713" lon="10.052895837521332"><ele>258.0</ele><time>2026-03-22T15:16:37Z</time></trkpt><trkpt lat="45.60965395781508" lon="10.053012486428663"><ele>258.0</ele><time>2026-03-22T15:16:40Z</time></trkpt><trkpt lat="45.609789761923" lon="10.052941015812515"><ele>258.0</ele><time>2026-03-22T15:16:41Z</time></trkpt><trkpt lat="45.60986336766489" lon="10.052869825695776"><ele>258.0</ele><time>2026-03-22T15:16:42Z</time></trkpt><trkpt lat="45.60994564619794" lon="10.052775535680247"><ele>258.0</ele><time>2026-03-22T15:16:43Z</time></trkpt><trkpt lat="45.610011006844644" lon="10.05266456716442"><ele>258.0</ele><time>2026-03-22T15:16:44Z</time></trkpt><trkpt lat="45.610059676378924" lon="10.052601888360535"><ele>258.0</ele><time>2026-03-22T15:16:45Z</time></trkpt><trkpt lat="45.610109903147034" lon="10.052529348514591"><ele>258.0</ele><time>2026-03-22T15:16:47Z</time></trkpt><trkpt lat="45.61033310377197" lon="10.052786226434856"><ele>261.25</ele><time>2026-03-22T15:16:49Z</time></trkpt><trkpt lat="45.61044223862451" lon="10.052889155304175"><ele>264.5</ele><time>2026-03-22T15:16:50Z</time></trkpt><trkpt lat="45.610564113259194" lon="10.053009454315289"><ele>267.75</ele><time>2026-03-22T15:16:51Z</time></trkpt><trkpt lat="45.61068369200199" lon="10.053128289052603"><ele>271.0</ele><time>2026-03-22T15:16:52Z</time></trkpt><trkpt lat="45.61081064230824" lon="10.053243183919363"><ele>270.75</ele><time>2026-03-22T15:16:53Z</time></trkpt><trkpt lat="45.61092081124597" lon="10.053355435137307"><ele>270.5</ele><time>2026-03-22T15:16:54Z</time></trkpt><trkpt lat="45.611014654744054" lon="10.05344196668374"><ele>270.25</ele><time>2026-03-22T15:16:55Z</time></trkpt><trkpt lat="45.61110683958499" lon="10.05353753464533"><ele>270.0</ele><time>2026-03-22T15:16:56Z</time></trkpt><trkpt lat="45.61118597653381" lon="10.053612887293832"><ele>270.0</ele><time>2026-03-22T15:16:57Z</time></trkpt><trkpt lat="45.61125799228458" lon="10.053661695786039"><ele>270.0</ele><time>2026-03-22T15:16:59Z</time></trkpt><trkpt lat="45.611317142856585" lon="10.053496525454216"><ele>270.0</ele><time>2026-03-22T15:17:03Z</time></trkpt><trkpt lat="45.61136959411986" lon="10.053375078310133"><ele>270.0</ele><time>2026-03-22T15:17:04Z</time></trkpt><trkpt lat="45.611448643578775" lon="10.053261469756105"><ele>270.0</ele><time>2026-03-22T15:17:05Z</time></trkpt><trkpt lat="45.61151450692512" lon="10.053230683717931"><ele>270.0</ele><time>2026-03-22T15:17:06Z</time></trkpt><trkpt lat="45.611597605655504" lon="10.053225496369008"><ele>270.0</ele><time>2026-03-22T15:17:07Z</time></trkpt><trkpt lat="45.61169958638585" lon="10.053247555261454"><ele>270.0</ele><time>2026-03-22T15:17:08Z</time></trkpt><trkpt lat="45.611799966999826" lon="10.053285047883888"><ele>270.0</ele><time>2026-03-22T15:17:09Z</time></trkpt><trkpt lat="45.61189196160675" lon="10.053341071683315"><ele>270.0</ele><time>2026-03-22T15:17:10Z</time></trkpt><trkpt lat="45.61198577505847" lon="10.053384437583228"><ele>272.4</ele><time>2026-03-22T15:17:11Z</time></trkpt><trkpt lat="45.612078525764694" lon="10.053397662352978"><ele>274.8</ele><time>2026-03-22T15:17:12Z</time></trkpt><trkpt lat="45.61217194051814" lon="10.053384272187307"><ele>277.2</ele><time>2026-03-22T15:17:13Z</time></trkpt><trkpt lat="45.61227099001292" lon="10.05335322128962"><ele>279.6</ele><time>2026-03-22T15:17:14Z</time></trkpt><trkpt lat="45.61236973192049" lon="10.053327344879428"><ele>282.0</ele><time>2026-03-22T15:17:15Z</time></trkpt><trkpt lat="45.61247039994363" lon="10.053292334486235"><ele>284.2</ele><time>2026-03-22T15:17:16Z</time></trkpt><trkpt lat="45.61255831339196" lon="10.053248573104632"><ele>286.4</ele><time>2026-03-22T15:17:17Z</time></trkpt><trkpt lat="45.612629596728986" lon="10.05315318570364"><ele>288.6</ele><time>2026-03-22T15:17:19Z</time></trkpt><trkpt lat="45.61266674295676" lon="10.053034482146368"><ele>290.8</ele><time>2026-03-22T15:17:20Z</time></trkpt><trkpt lat="45.61268978926765" lon="10.052873374135228"><ele>293.0</ele><time>2026-03-22T15:17:21Z</time></trkpt><trkpt lat="45.61271865632318" lon="10.052693837005538"><ele>293.0</ele><time>2026-03-22T15:17:22Z</time></trkpt><trkpt lat="45.612761409475425" lon="10.052592234740727"><ele>293.0</ele><time>2026-03-22T15:17:23Z</time></trkpt><trkpt lat="45.61283707612277" lon="10.052543562109937"><ele>293.0</ele><time>2026-03-22T15:17:25Z</time></trkpt><trkpt lat="45.612879882486794" lon="10.052663945854867"><ele>293.0</ele><time>2026-03-22T15:17:27Z</time></trkpt><trkpt lat="45.61290319120573" lon="10.052750867567513"><ele>293.0</ele><time>2026-03-22T15:17:28Z</time></trkpt><trkpt lat="45.612973910814894" lon="10.052792764279705"><ele>293.0</ele><time>2026-03-22T15:17:29Z</time></trkpt><trkpt lat="45.613052542066086" lon="10.05271511637426"><ele>293.25</ele><time>2026-03-22T15:17:30Z</time></trkpt><trkpt lat="45.61317027480998" lon="10.052581313020038"><ele>293.5</ele><time>2026-03-22T15:17:31Z</time></trkpt><trkpt lat="45.613278727516644" lon="10.052450971744355"><ele>293.75</ele><time>2026-03-22T15:17:32Z</time></trkpt><trkpt lat="45.61337904605902" lon="10.052341781559287"><ele>294.0</ele><time>2026-03-22T15:17:33Z</time></trkpt><trkpt lat="45.613468723403074" lon="10.052248566600356"><ele>293.5</ele><time>2026-03-22T15:17:34Z</time></trkpt><trkpt lat="45.61352428212545" lon="10.052168892088721"><ele>293.0</ele><time>2026-03-22T15:17:35Z</time></trkpt><trkpt lat="45.61359022143287" lon="10.052091141742707"><ele>292.5</ele><time>2026-03-22T15:17:36Z</time></trkpt><trkpt lat="45.61365091609053" lon="10.052004590539607"><ele>292.0</ele><time>2026-03-22T15:17:37Z</time></trkpt><trkpt lat="45.61371765594845" lon="10.051918080752147"><ele>291.5</ele><time>2026-03-22T15:17:38Z</time></trkpt><trkpt lat="45.61378550308916" lon="10.051837328124133"><ele>291.0</ele><time>2026-03-22T15:17:39Z</time></trkpt><trkpt lat="45.61385974756247" lon="10.051757030895"><ele>292.1666666666667</ele><time>2026-03-22T15:17:40Z</time></trkpt><trkpt lat="45.613940790952455" lon="10.051722705540831"><ele>293.3333333333333</ele><time>2026-03-22T15:17:41Z</time></trkpt><trkpt lat="45.614017946768676" lon="10.051694871062356"><ele>294.5</ele><time>2026-03-22T15:17:42Z</time></trkpt><trkpt lat="45.61409454889413" lon="10.05167405595115"><ele>295.66666666666663</ele><time>2026-03-22T15:17:43Z</time></trkpt><trkpt lat="45.61418142877758" lon="10.05165424335475"><ele>296.8333333333333</ele><time>2026-03-22T15:17:44Z</time></trkpt><trkpt lat="45.614263960156464" lon="10.051639185079026"><ele>298.0</ele><time>2026-03-22T15:17:45Z</time></trkpt><trkpt lat="45.61435673108615" lon="10.051603868470217"><ele>298.0</ele><time>2026-03-22T15:17:46Z</time></trkpt><trkpt lat="45.61445960465806" lon="10.051600895210914"><ele>298.0</ele><time>2026-03-22T15:17:47Z</time></trkpt><trkpt lat="45.6145675072078" lon="10.051602250232577"><ele>298.0</ele><time>2026-03-22T15:17:48Z</time></trkpt><trkpt lat="45.61466431932387" lon="10.051617476425715"><ele>298.0</ele><time>2026-03-22T15:17:49Z</time></trkpt><trkpt lat="45.61474423013432" lon="10.051617818489182"><ele>298.0</ele><time>2026-03-22T15:17:50Z</time></trkpt><trkpt lat="45.61481956809773" lon="10.051622251558193"><ele>300.3333333333333</ele><time>2026-03-22T15:17:51Z</time></trkpt><trkpt lat="45.61490333704135" lon="10.051628887607746"><ele>302.6666666666667</ele><time>2026-03-22T15:17:53Z</time></trkpt><trkpt lat="45.61497035574893" lon="10.052086907255513"><ele>305.0</ele><time>2026-03-22T15:17:56Z</time></trkpt><trkpt lat="45.615012544049314" lon="10.052195884115006"><ele>305.0</ele><time>2026-03-22T15:17:57Z</time></trkpt><trkpt lat="45.61509111426133" lon="10.052287016705757"><ele>305.0</ele><time>2026-03-22T15:17:58Z</time></trkpt><trkpt lat="45.61520214137858" lon="10.052405093749199"><ele>305.0</ele><time>2026-03-22T15:17:59Z</time></trkpt><trkpt lat="45.61528604383919" lon="10.05252076109931"><ele>305.0</ele><time>2026-03-22T15:18:00Z</time></trkpt><trkpt lat="45.61537222446417" lon="10.05260860760969"><ele>304.6</ele><time>2026-03-22T15:18:01Z</time></trkpt><trkpt lat="45.61543879237955" lon="10.052701065049854"><ele>304.2</ele><time>2026-03-22T15:18:02Z</time></trkpt><trkpt lat="45.61550685712166" lon="10.052790290009835"><ele>303.8</ele><time>2026-03-22T15:18:04Z</time></trkpt><trkpt lat="45.6156149189806" lon="10.052898951163296"><ele>303.4</ele><time>2026-03-22T15:18:06Z</time></trkpt><trkpt lat="45.61568547053203" lon="10.052986652161085"><ele>303.0</ele><time>2026-03-22T15:18:07Z</time></trkpt><trkpt lat="45.615751688230716" lon="10.053084693626575"><ele>303.0</ele><time>2026-03-22T15:18:08Z</time></trkpt><trkpt lat="45.61580842353701" lon="10.053199555372027"><ele>303.0</ele><time>2026-03-22T15:18:09Z</time></trkpt><trkpt lat="45.61585383493994" lon="10.05327671781882"><ele>303.0</ele><time>2026-03-22T15:18:10Z</time></trkpt><trkpt lat="45.61592823001624" lon="10.05329758769239"><ele>303.0</ele><time>2026-03-22T15:18:11Z</time></trkpt><trkpt lat="45.616026507795276" lon="10.053335648732206"><ele>303.0</ele><time>2026-03-22T15:18:12Z</time></trkpt><trkpt lat="45.61612591072906" lon="10.05333295757875"><ele>303.0</ele><time>2026-03-22T15:18:13Z</time></trkpt><trkpt lat="45.61619559322469" lon="10.05336714590561"><ele>305.0</ele><time>2026-03-22T15:18:14Z</time></trkpt><trkpt lat="45.61624946711186" lon="10.053453941533087"><ele>307.0</ele><time>2026-03-22T15:18:16Z</time></trkpt><trkpt lat="45.61629860753799" lon="10.053512097291183"><ele>309.0</ele><time>2026-03-22T15:18:17Z</time></trkpt><trkpt lat="45.61638655151546" lon="10.053547352230863"><ele>311.0</ele><time>2026-03-22T15:18:18Z</time></trkpt><trkpt lat="45.61649203354136" lon="10.053620907443312"><ele>313.0</ele><time>2026-03-22T15:18:19Z</time></trkpt><trkpt lat="45.61663737153993" lon="10.05375129467657"><ele>313.0</ele><time>2026-03-22T15:18:20Z</time></trkpt><trkpt lat="45.61676590717655" lon="10.053826338229767"><ele>313.0</ele><time>2026-03-22T15:18:21Z</time></trkpt><trkpt lat="45.616884557056174" lon="10.053859976298746"><ele>313.0</ele><time>2026-03-22T15:18:22Z</time></trkpt><trkpt lat="45.61696627130724" lon="10.053910330054785"><ele>313.0</ele><time>2026-03-22T15:18:23Z</time></trkpt><trkpt lat="45.61703037955782" lon="10.053962611739356"><ele>313.0</ele><time>2026-03-22T15:18:25Z</time></trkpt><trkpt lat="45.617102840933335" lon="10.054071172802368"><ele>313.5</ele><time>2026-03-22T15:18:27Z</time></trkpt><trkpt lat="45.61716382967144" lon="10.054172616549176"><ele>314.0</ele><time>2026-03-22T15:18:31Z</time></trkpt><trkpt lat="45.61720342665841" lon="10.054271418350872"><ele>314.5</ele><time>2026-03-22T15:18:34Z</time></trkpt><trkpt lat="45.617245356704245" lon="10.05437519125768"><ele>315.0</ele><time>2026-03-22T15:18:35Z</time></trkpt><trkpt lat="45.61729264104128" lon="10.054438825258712"><ele>315.5</ele><time>2026-03-22T15:18:38Z</time></trkpt><trkpt lat="45.61734275522905" lon="10.054540030955817"><ele>316.0</ele><time>2026-03-22T15:18:41Z</time></trkpt><trkpt lat="45.61767751374397" lon="10.055004142969763"><ele>315.0</ele><time>2026-03-22T15:18:47Z</time></trkpt><trkpt lat="45.61775521638723" lon="10.055116804318931"><ele>314.0</ele><time>2026-03-22T15:18:48Z</time></trkpt><trkpt lat="45.61783426247277" lon="10.055221291373789"><ele>313.0</ele><time>2026-03-22T15:18:49Z</time></trkpt><trkpt lat="45.61790269801317" lon="10.055355736554594"><ele>312.0</ele><time>2026-03-22T15:18:50Z</time></trkpt><trkpt lat="45.61794989584953" lon="10.05549070369082"><ele>311.0</ele><time>2026-03-22T15:18:51Z</time></trkpt><trkpt lat="45.6180128166417" lon="10.055657354858573"><ele>304.33333333333337</ele><time>2026-03-22T15:18:52Z</time></trkpt><trkpt lat="45.61813425315068" lon="10.055823585562447"><ele>297.6666666666667</ele><time>2026-03-22T15:18:53Z</time></trkpt><trkpt lat="45.61827382765642" lon="10.055978533348538"><ele>291.0</ele><time>2026-03-22T15:18:54Z</time></trkpt><trkpt lat="45.618426164447776" lon="10.05613496951346"><ele>291.0</ele><time>2026-03-22T15:18:55Z</time></trkpt><trkpt lat="45.61856737230297" lon="10.056320777727672"><ele>291.0</ele><time>2026-03-22T15:18:56Z</time></trkpt><trkpt lat="45.61868286991212" lon="10.05643014389077"><ele>291.0</ele><time>2026-03-22T15:18:57Z</time></trkpt><trkpt lat="45.61876972242314" lon="10.056513784583338"><ele>291.0</ele><time>2026-03-22T15:18:58Z</time></trkpt><trkpt lat="45.61883578755632" lon="10.056602338518884"><ele>288.2</ele><time>2026-03-22T15:18:59Z</time></trkpt><trkpt lat="45.61892267016905" lon="10.056702379420653"><ele>285.40000000000003</ele><time>2026-03-22T15:19:01Z</time></trkpt><trkpt lat="45.61899505809541" lon="10.05671021517004"><ele>282.6</ele><time>2026-03-22T15:19:02Z</time></trkpt><trkpt lat="45.619080381617024" lon="10.056730543890543"><ele>279.8</ele><time>2026-03-22T15:19:03Z</time></trkpt><trkpt lat="45.61917972347241" lon="10.05675530228249"><ele>277.0</ele><time>2026-03-22T15:19:04Z</time></trkpt><trkpt lat="45.6192989444467" lon="10.056809948315795"><ele>277.0</ele><time>2026-03-22T15:19:05Z</time></trkpt><trkpt lat="45.61941420754817" lon="10.056854618147641"><ele>277.0</ele><time>2026-03-22T15:19:06Z</time></trkpt><trkpt lat="45.619519752412856" lon="10.056883748833743"><ele>277.0</ele><time>2026-03-22T15:19:07Z</time></trkpt><trkpt lat="45.619610590302756" lon="10.056920568622298"><ele>277.0</ele><time>2026-03-22T15:19:08Z</time></trkpt><trkpt lat="45.619760479659845" lon="10.056975819411903"><ele>278.5</ele><time>2026-03-22T15:19:10Z</time></trkpt><trkpt lat="45.619844603665896" lon="10.056997522708881"><ele>280.0</ele><time>2026-03-22T15:19:11Z</time></trkpt><trkpt lat="45.619930067206525" lon="10.057002750148397"><ele>281.5</ele><time>2026-03-22T15:19:12Z</time></trkpt><trkpt lat="45.62001558318752" lon="10.057010820953927"><ele>283.0</ele><time>2026-03-22T15:19:13Z</time></trkpt><trkpt lat="45.62009936205711" lon="10.05701758251611"><ele>284.5</ele><time>2026-03-22T15:19:14Z</time></trkpt><trkpt lat="45.620180991800765" lon="10.057029681584282"><ele>286.0</ele><time>2026-03-22T15:19:15Z</time></trkpt><trkpt lat="45.6202666541377" lon="10.057040319512675"><ele>287.6</ele><time>2026-03-22T15:19:16Z</time></trkpt><trkpt lat="45.62035637875569" lon="10.057020961923431"><ele>289.20000000000005</ele><time>2026-03-22T15:19:17Z</time></trkpt><trkpt lat="45.62045768830166" lon="10.057003400829792"><ele>290.79999999999995</ele><time>2026-03-22T15:19:18Z</time></trkpt><trkpt lat="45.62057782559113" lon="10.057010651577182"><ele>292.4</ele><time>2026-03-22T15:19:19Z</time></trkpt><trkpt lat="45.62070797755866" lon="10.057007639415103"><ele>294.0</ele><time>2026-03-22T15:19:20Z</time></trkpt><trkpt lat="45.62082481364668" lon="10.057048549190428"><ele>294.0</ele><time>2026-03-22T15:19:21Z</time></trkpt><trkpt lat="45.62094551550475" lon="10.057084852523598"><ele>294.0</ele><time>2026-03-22T15:19:22Z</time></trkpt><trkpt lat="45.621044453334804" lon="10.057065318415606"><ele>294.0</ele><time>2026-03-22T15:19:23Z</time></trkpt><trkpt lat="45.621145244901115" lon="10.05702668122076"><ele>294.0</ele><time>2026-03-22T15:19:24Z</time></trkpt><trkpt lat="45.62124034042884" lon="10.057030828182961"><ele>294.0</ele><time>2026-03-22T15:19:25Z</time></trkpt><trkpt lat="45.62133922818948" lon="10.057096885339234"><ele>294.5</ele><time>2026-03-22T15:19:26Z</time></trkpt><trkpt lat="45.62149695977841" lon="10.057063209649195"><ele>295.0</ele><time>2026-03-22T15:19:28Z</time></trkpt><trkpt lat="45.621614994663545" lon="10.057022946707658"><ele>295.5</ele><time>2026-03-22T15:19:29Z</time></trkpt><trkpt lat="45.62173774684737" lon="10.057026327022452"><ele>296.0</ele><time>2026-03-22T15:19:30Z</time></trkpt><trkpt lat="45.62187122008333" lon="10.057050751958615"><ele>298.0</ele><time>2026-03-22T15:19:31Z</time></trkpt><trkpt lat="45.6219984321703" lon="10.057068711384819"><ele>300.0</ele><time>2026-03-22T15:19:32Z</time></trkpt><trkpt lat="45.62214058345558" lon="10.057108116412108"><ele>302.0</ele><time>2026-03-22T15:19:33Z</time></trkpt><trkpt lat="45.62225082031722" lon="10.057112085634408"><ele>304.0</ele><time>2026-03-22T15:19:34Z</time></trkpt><trkpt lat="45.62235166435017" lon="10.057098248088952"><ele>304.0</ele><time>2026-03-22T15:19:35Z</time></trkpt><trkpt lat="45.622468027498655" lon="10.057065789345724"><ele>304.0</ele><time>2026-03-22T15:19:36Z</time></trkpt><trkpt lat="45.622577217844366" lon="10.0570500744251"><ele>304.0</ele><time>2026-03-22T15:19:37Z</time></trkpt><trkpt lat="45.62269208828557" lon="10.057060442263177"><ele>304.0</ele><time>2026-03-22T15:19:38Z</time></trkpt><trkpt lat="45.62284555260619" lon="10.057025797974871"><ele>305.0</ele><time>2026-03-22T15:19:39Z</time></trkpt><trkpt lat="45.62302595339341" lon="10.05694840245774"><ele>306.0</ele><time>2026-03-22T15:19:40Z</time></trkpt><trkpt lat="45.62320900557203" lon="10.05686686034934"><ele>307.0</ele><time>2026-03-22T15:19:41Z</time></trkpt><trkpt lat="45.62334247608722" lon="10.056840323543696"><ele>307.0</ele><time>2026-03-22T15:19:42Z</time></trkpt><trkpt lat="45.623426805738184" lon="10.056820318468306"><ele>307.0</ele><time>2026-03-22T15:19:43Z</time></trkpt><trkpt lat="45.623491178735314" lon="10.05681814406842"><ele>307.0</ele><time>2026-03-22T15:19:44Z</time></trkpt><trkpt lat="45.62358025258036" lon="10.056819804434324"><ele>307.0</ele><time>2026-03-22T15:19:46Z</time></trkpt><trkpt lat="45.62373618253544" lon="10.056983221926059"><ele>307.0</ele><time>2026-03-22T15:19:48Z</time></trkpt><trkpt lat="45.62383539751152" lon="10.057044626698234"><ele>306.66666666666663</ele><time>2026-03-22T15:19:49Z</time></trkpt><trkpt lat="45.62392834400593" lon="10.057080886884496"><ele>306.3333333333333</ele><time>2026-03-22T15:19:50Z</time></trkpt><trkpt lat="45.62400204431004" lon="10.057102610325996"><ele>306.0</ele><time>2026-03-22T15:19:51Z</time></trkpt><trkpt lat="45.624089341356495" lon="10.057121876642267"><ele>305.6666666666667</ele><time>2026-03-22T15:19:52Z</time></trkpt><trkpt lat="45.62416020779979" lon="10.057173798902186"><ele>305.33333333333337</ele><time>2026-03-22T15:19:53Z</time></trkpt><trkpt lat="45.62422685689866" lon="10.057240995834047"><ele>305.0</ele><time>2026-03-22T15:19:54Z</time></trkpt><trkpt lat="45.62428606475195" lon="10.057275253341135"><ele>305.0</ele><time>2026-03-22T15:19:55Z</time></trkpt><trkpt lat="45.624379175899165" lon="10.057315543041325"><ele>305.0</ele><time>2026-03-22T15:19:57Z</time></trkpt><trkpt lat="45.62445129043165" lon="10.057356041751735"><ele>305.0</ele><time>2026-03-22T15:19:58Z</time></trkpt><trkpt lat="45.624552689196314" lon="10.057463307811673"><ele>305.0</ele><time>2026-03-22T15:20:00Z</time></trkpt><trkpt lat="45.62459836341392" lon="10.057602473060127"><ele>305.0</ele><time>2026-03-22T15:20:02Z</time></trkpt><trkpt lat="45.6245935163138" lon="10.057751448647107"><ele>303.5</ele><time>2026-03-22T15:20:04Z</time></trkpt><trkpt lat="45.624629609028766" lon="10.057841405826906"><ele>302.0</ele><time>2026-03-22T15:20:07Z</time></trkpt><trkpt lat="45.62468221153188" lon="10.057922549784116"><ele>300.5</ele><time>2026-03-22T15:20:10Z</time></trkpt><trkpt lat="45.62462740201597" lon="10.058058295829078"><ele>299.0</ele><time>2026-03-22T15:20:12Z</time></trkpt><trkpt lat="45.62461420087071" lon="10.058192370997432"><ele>297.5</ele><time>2026-03-22T15:20:13Z</time></trkpt><trkpt lat="45.624582052126584" lon="10.058309783446667"><ele>296.0</ele><time>2026-03-22T15:20:14Z</time></trkpt><trkpt lat="45.62468506260676" lon="10.058408257337641"><ele>292.6</ele><time>2026-03-22T15:20:17Z</time></trkpt><trkpt lat="45.62475941590064" lon="10.058445302528254"><ele>289.20000000000005</ele><time>2026-03-22T15:20:18Z</time></trkpt><trkpt lat="45.624837121391046" lon="10.05848886425252"><ele>285.79999999999995</ele><time>2026-03-22T15:20:19Z</time></trkpt><trkpt lat="45.62492922618169" lon="10.05855907145232"><ele>282.4</ele><time>2026-03-22T15:20:20Z</time></trkpt><trkpt lat="45.625008089367626" lon="10.058613451069105"><ele>279.0</ele><time>2026-03-22T15:20:21Z</time></trkpt><trkpt lat="45.625029259420415" lon="10.058777758210429"><ele>279.0</ele><time>2026-03-22T15:20:23Z</time></trkpt><trkpt lat="45.624963257190544" lon="10.058971882326096"><ele>279.0</ele><time>2026-03-22T15:20:24Z</time></trkpt><trkpt lat="45.62493627964504" lon="10.059204222191664"><ele>279.0</ele><time>2026-03-22T15:20:25Z</time></trkpt><trkpt lat="45.624934227735245" lon="10.059391142200909"><ele>279.0</ele><time>2026-03-22T15:20:26Z</time></trkpt><trkpt lat="45.62494619912619" lon="10.059550268620667"><ele>276.6666666666667</ele><time>2026-03-22T15:20:27Z</time></trkpt><trkpt lat="45.62495182473576" lon="10.059684043218322"><ele>274.3333333333333</ele><time>2026-03-22T15:20:28Z</time></trkpt><trkpt lat="45.624974171242606" lon="10.059770409104786"><ele>272.0</ele><time>2026-03-22T15:20:29Z</time></trkpt><trkpt lat="45.62500882879078" lon="10.059863740622456"><ele>269.66666666666663</ele><time>2026-03-22T15:20:30Z</time></trkpt><trkpt lat="45.625016161086386" lon="10.059972359470729"><ele>267.3333333333333</ele><time>2026-03-22T15:20:31Z</time></trkpt><trkpt lat="45.62499890738763" lon="10.060097362739434"><ele>265.0</ele><time>2026-03-22T15:20:32Z</time></trkpt><trkpt lat="45.62497500055656" lon="10.060205908834456"><ele>263.2</ele><time>2026-03-22T15:20:33Z</time></trkpt><trkpt lat="45.62496911038226" lon="10.060351192669708"><ele>261.4</ele><time>2026-03-22T15:20:35Z</time></trkpt><trkpt lat="45.625071932932485" lon="10.060418730679158"><ele>259.6</ele><time>2026-03-22T15:20:37Z</time></trkpt><trkpt lat="45.62513683563369" lon="10.060410881674965"><ele>257.8</ele><time>2026-03-22T15:20:38Z</time></trkpt><trkpt lat="45.62520678662622" lon="10.060424311906658"><ele>256.0</ele><time>2026-03-22T15:20:39Z</time></trkpt><trkpt lat="45.62528615349919" lon="10.060510801105593"><ele>257.2</ele><time>2026-03-22T15:20:40Z</time></trkpt><trkpt lat="45.625378792229675" lon="10.060624221275177"><ele>258.40000000000003</ele><time>2026-03-22T15:20:41Z</time></trkpt><trkpt lat="45.62544087784711" lon="10.060670443129117"><ele>259.6</ele><time>2026-03-22T15:20:42Z</time></trkpt><trkpt lat="45.62552800921592" lon="10.060685992400266"><ele>260.8</ele><time>2026-03-22T15:20:43Z</time></trkpt><trkpt lat="45.6256433835747" lon="10.060688787324784"><ele>262.0</ele><time>2026-03-22T15:20:44Z</time></trkpt><trkpt lat="45.62575446846322" lon="10.060711766622775"><ele>262.0</ele><time>2026-03-22T15:20:45Z</time></trkpt><trkpt lat="45.6258581443174" lon="10.06070233547694"><ele>262.0</ele><time>2026-03-22T15:20:46Z</time></trkpt><trkpt lat="45.62593148198964" lon="10.060665232540458"><ele>262.0</ele><time>2026-03-22T15:20:47Z</time></trkpt><trkpt lat="45.6260121217165" lon="10.060589674066662"><ele>262.0</ele><time>2026-03-22T15:20:48Z</time></trkpt><trkpt lat="45.62611736952003" lon="10.060560518452148"><ele>262.0</ele><time>2026-03-22T15:20:49Z</time></trkpt><trkpt lat="45.62624749300918" lon="10.060566494275971"><ele>263.5</ele><time>2026-03-22T15:20:50Z</time></trkpt><trkpt lat="45.6263788384175" lon="10.060582229259532"><ele>265.0</ele><time>2026-03-22T15:20:51Z</time></trkpt><trkpt lat="45.62651756802925" lon="10.060557656677187"><ele>266.5</ele><time>2026-03-22T15:20:52Z</time></trkpt><trkpt lat="45.626607244793945" lon="10.06056652602218"><ele>268.0</ele><time>2026-03-22T15:20:53Z</time></trkpt><trkpt lat="45.62671040654397" lon="10.060602057719496"><ele>268.0</ele><time>2026-03-22T15:20:54Z</time></trkpt><trkpt lat="45.626835068996485" lon="10.06063718134518"><ele>268.0</ele><time>2026-03-22T15:20:55Z</time></trkpt><trkpt lat="45.62694881500822" lon="10.060663490562238"><ele>268.0</ele><time>2026-03-22T15:20:56Z</time></trkpt><trkpt lat="45.62706015806264" lon="10.060704298800083"><ele>268.0</ele><time>2026-03-22T15:20:57Z</time></trkpt><trkpt lat="45.62717885085673" lon="10.060711289275051"><ele>269.2</ele><time>2026-03-22T15:20:58Z</time></trkpt><trkpt lat="45.62728999551061" lon="10.060685295622505"><ele>270.4</ele><time>2026-03-22T15:20:59Z</time></trkpt><trkpt lat="45.62739227437991" lon="10.06070006092695"><ele>271.59999999999997</ele><time>2026-03-22T15:21:00Z</time></trkpt><trkpt lat="45.62750392807792" lon="10.060729456826857"><ele>272.8</ele><time>2026-03-22T15:21:01Z</time></trkpt><trkpt lat="45.62760843871259" lon="10.060790766484066"><ele>274.0</ele><time>2026-03-22T15:21:02Z</time></trkpt><trkpt lat="45.62771277738324" lon="10.060839533489556"><ele>271.25</ele><time>2026-03-22T15:21:03Z</time></trkpt><trkpt lat="45.627803387209134" lon="10.060887255695706"><ele>268.5</ele><time>2026-03-22T15:21:04Z</time></trkpt><trkpt lat="45.62791432219541" lon="10.060967864983523"><ele>265.75</ele><time>2026-03-22T15:21:05Z</time></trkpt><trkpt lat="45.62803677919691" lon="10.060946895364916"><ele>263.0</ele><time>2026-03-22T15:21:06Z</time></trkpt><trkpt lat="45.62816189528488" lon="10.06095126306454"><ele>263.0</ele><time>2026-03-22T15:21:07Z</time></trkpt><trkpt lat="45.62827525062298" lon="10.060958545355172"><ele>263.0</ele><time>2026-03-22T15:21:08Z</time></trkpt><trkpt lat="45.62837521846301" lon="10.060968871435"><ele>263.0</ele><time>2026-03-22T15:21:09Z</time></trkpt><trkpt lat="45.628450972467675" lon="10.060980589337033"><ele>263.0</ele><time>2026-03-22T15:21:10Z</time></trkpt><trkpt lat="45.62856320975637" lon="10.06099476668732"><ele>263.0</ele><time>2026-03-22T15:21:12Z</time></trkpt><trkpt lat="45.628676189751395" lon="10.061026559726976"><ele>262.1428571428571</ele><time>2026-03-22T15:21:14Z</time></trkpt><trkpt lat="45.62874199363758" lon="10.061056775103843"><ele>261.2857142857143</ele><time>2026-03-22T15:21:15Z</time></trkpt><trkpt lat="45.62881259072499" lon="10.061077481766628"><ele>260.42857142857144</ele><time>2026-03-22T15:21:16Z</time></trkpt><trkpt lat="45.62887702017276" lon="10.061071961497193"><ele>259.57142857142856</ele><time>2026-03-22T15:21:17Z</time></trkpt><trkpt lat="45.62894300020851" lon="10.061047770572227"><ele>258.7142857142857</ele><time>2026-03-22T15:21:18Z</time></trkpt><trkpt lat="45.62894881750549" lon="10.061165026080335"><ele>257.85714285714283</ele><time>2026-03-22T15:21:21Z</time></trkpt><trkpt lat="45.628890813223485" lon="10.06125842505722"><ele>257.0</ele><time>2026-03-22T15:21:22Z</time></trkpt><trkpt lat="45.62878282194402" lon="10.061360934173944"><ele>257.0</ele><time>2026-03-22T15:21:23Z</time></trkpt><trkpt lat="45.628670221746454" lon="10.061491359911779"><ele>257.0</ele><time>2026-03-22T15:21:24Z</time></trkpt><trkpt lat="45.62855526095686" lon="10.061654115803218"><ele>257.0</ele><time>2026-03-22T15:21:25Z</time></trkpt><trkpt lat="45.62844980852654" lon="10.061816452991778"><ele>256.0</ele><time>2026-03-22T15:21:26Z</time></trkpt><trkpt lat="45.62834638185459" lon="10.061960480686016"><ele>255.0</ele><time>2026-03-22T15:21:27Z</time></trkpt><trkpt lat="45.62826005537443" lon="10.062081550660347"><ele>254.0</ele><time>2026-03-22T15:21:28Z</time></trkpt><trkpt lat="45.62819166173563" lon="10.06221261866907"><ele>253.0</ele><time>2026-03-22T15:21:29Z</time></trkpt><trkpt lat="45.62812650884124" lon="10.062373297747015"><ele>251.66666666666666</ele><time>2026-03-22T15:21:30Z</time></trkpt><trkpt lat="45.62806296005379" lon="10.062533550999103"><ele>250.33333333333331</ele><time>2026-03-22T15:21:31Z</time></trkpt><trkpt lat="45.628007059351845" lon="10.062738639742001"><ele>249.0</ele><time>2026-03-22T15:21:32Z</time></trkpt><trkpt lat="45.627961163569246" lon="10.062998422408759"><ele>247.66666666666669</ele><time>2026-03-22T15:21:33Z</time></trkpt><trkpt lat="45.62792166424873" lon="10.063304897882253"><ele>246.33333333333334</ele><time>2026-03-22T15:21:34Z</time></trkpt><trkpt lat="45.627887230744285" lon="10.06355516623096"><ele>245.0</ele><time>2026-03-22T15:21:35Z</time></trkpt><trkpt lat="45.627850050030126" lon="10.063752059507399"><ele>245.0</ele><time>2026-03-22T15:21:36Z</time></trkpt><trkpt lat="45.627819871372665" lon="10.063929246304909"><ele>245.0</ele><time>2026-03-22T15:21:37Z</time></trkpt><trkpt lat="45.627796230770834" lon="10.064090007969659"><ele>245.0</ele><time>2026-03-22T15:21:38Z</time></trkpt><trkpt lat="45.62778785622855" lon="10.064258281969432"><ele>245.0</ele><time>2026-03-22T15:21:39Z</time></trkpt><trkpt lat="45.62777392131031" lon="10.064408709852843"><ele>244.6</ele><time>2026-03-22T15:21:40Z</time></trkpt><trkpt lat="45.62774542301777" lon="10.064544588336723"><ele>244.2</ele><time>2026-03-22T15:21:41Z</time></trkpt><trkpt lat="45.62770776117568" lon="10.06467557422277"><ele>243.8</ele><time>2026-03-22T15:21:42Z</time></trkpt><trkpt lat="45.62766048078119" lon="10.064805337894686"><ele>243.4</ele><time>2026-03-22T15:21:43Z</time></trkpt><trkpt lat="45.62762104340811" lon="10.06491273560779"><ele>243.0</ele><time>2026-03-22T15:21:44Z</time></trkpt><trkpt lat="45.62759229281819" lon="10.064999782592745"><ele>243.0</ele><time>2026-03-22T15:21:45Z</time></trkpt><trkpt lat="45.627650058078345" lon="10.065178052195689"><ele>243.0</ele><time>2026-03-22T15:21:54Z</time></trkpt><trkpt lat="45.627735052755895" lon="10.065224053905867"><ele>243.0</ele><time>2026-03-22T15:21:55Z</time></trkpt><trkpt lat="45.62782736422782" lon="10.065224500967819"><ele>243.0</ele><time>2026-03-22T15:21:56Z</time></trkpt><trkpt lat="45.62790784821011" lon="10.065123220402137"><ele>243.0</ele><time>2026-03-22T15:21:57Z</time></trkpt><trkpt lat="45.62800479801926" lon="10.065058894984523"><ele>243.0</ele><time>2026-03-22T15:21:58Z</time></trkpt><trkpt lat="45.62811131033861" lon="10.064999967508568"><ele>243.0</ele><time>2026-03-22T15:21:59Z</time></trkpt><trkpt lat="45.62822092949349" lon="10.064915935404995"><ele>243.0</ele><time>2026-03-22T15:22:00Z</time></trkpt><trkpt lat="45.62833572334395" lon="10.064838793528656"><ele>243.0</ele><time>2026-03-22T15:22:01Z</time></trkpt><trkpt lat="45.62844857770957" lon="10.06476518294805"><ele>243.0</ele><time>2026-03-22T15:22:02Z</time></trkpt><trkpt lat="45.628576142292225" lon="10.06473331150194"><ele>243.0</ele><time>2026-03-22T15:22:03Z</time></trkpt><trkpt lat="45.628708978389035" lon="10.064690593633038"><ele>243.0</ele><time>2026-03-22T15:22:04Z</time></trkpt><trkpt lat="45.628840112469575" lon="10.064653335324136"><ele>243.0</ele><time>2026-03-22T15:22:05Z</time></trkpt><trkpt lat="45.62898265352717" lon="10.064597480076397"><ele>244.25</ele><time>2026-03-22T15:22:06Z</time></trkpt><trkpt lat="45.62912096955852" lon="10.06459835144024"><ele>245.5</ele><time>2026-03-22T15:22:07Z</time></trkpt><trkpt lat="45.62925526653972" lon="10.064588560532316"><ele>246.75</ele><time>2026-03-22T15:22:08Z</time></trkpt><trkpt lat="45.62939213471723" lon="10.064586722898309"><ele>248.0</ele><time>2026-03-22T15:22:09Z</time></trkpt><trkpt lat="45.629530739069985" lon="10.06458834102591"><ele>248.5</ele><time>2026-03-22T15:22:10Z</time></trkpt><trkpt lat="45.62967658923574" lon="10.064587930253708"><ele>249.0</ele><time>2026-03-22T15:22:11Z</time></trkpt><trkpt lat="45.629830344897826" lon="10.064563148095093"><ele>249.5</ele><time>2026-03-22T15:22:12Z</time></trkpt><trkpt lat="45.629969889322986" lon="10.064572951013341"><ele>250.0</ele><time>2026-03-22T15:22:13Z</time></trkpt><trkpt lat="45.630079566925176" lon="10.0645662869606"><ele>249.99999999999997</ele><time>2026-03-22T15:22:14Z</time></trkpt><trkpt lat="45.63014684382219" lon="10.06452365086092"><ele>250.0</ele><time>2026-03-22T15:22:15Z</time></trkpt><trkpt lat="45.63022977883928" lon="10.064457740539416"><ele>250.0</ele><time>2026-03-22T15:22:16Z</time></trkpt><trkpt lat="45.63032791484446" lon="10.064428439652682"><ele>250.0</ele><time>2026-03-22T15:22:17Z</time></trkpt><trkpt lat="45.63041555611918" lon="10.064406003290367"><ele>249.99999999999997</ele><time>2026-03-22T15:22:18Z</time></trkpt><trkpt lat="45.63048183475351" lon="10.06442796986929"><ele>250.0</ele><time>2026-03-22T15:22:19Z</time></trkpt><trkpt lat="45.63060307488213" lon="10.064454707823542"><ele>250.6</ele><time>2026-03-22T15:22:21Z</time></trkpt><trkpt lat="45.63069856776035" lon="10.064485820465796"><ele>251.2</ele><time>2026-03-22T15:22:22Z</time></trkpt><trkpt lat="45.630785154948384" lon="10.064504689644819"><ele>251.8</ele><time>2026-03-22T15:22:23Z</time></trkpt><trkpt lat="45.6308917352851" lon="10.064513170062096"><ele>252.4</ele><time>2026-03-22T15:22:24Z</time></trkpt><trkpt lat="45.63100853048065" lon="10.06448024959037"><ele>253.0</ele><time>2026-03-22T15:22:25Z</time></trkpt><trkpt lat="45.6311363766156" lon="10.064455094580758"><ele>257.25</ele><time>2026-03-22T15:22:26Z</time></trkpt><trkpt lat="45.63125686855283" lon="10.064401851337244"><ele>261.5</ele><time>2026-03-22T15:22:27Z</time></trkpt><trkpt lat="45.63136291331399" lon="10.064321516314815"><ele>265.75</ele><time>2026-03-22T15:22:28Z</time></trkpt><trkpt lat="45.631475823355565" lon="10.064234373141876"><ele>270.0</ele><time>2026-03-22T15:22:29Z</time></trkpt><trkpt lat="45.63159142313206" lon="10.064150795040035"><ele>269.0</ele><time>2026-03-22T15:22:30Z</time></trkpt><trkpt lat="45.6317037989184" lon="10.064070431735708"><ele>268.0</ele><time>2026-03-22T15:22:31Z</time></trkpt><trkpt lat="45.63181839064876" lon="10.063998108862423"><ele>267.0</ele><time>2026-03-22T15:22:32Z</time></trkpt><trkpt lat="45.63192868869795" lon="10.06391644268874"><ele>266.0</ele><time>2026-03-22T15:22:33Z</time></trkpt><trkpt lat="45.632041949304536" lon="10.063889066363565"><ele>266.0</ele><time>2026-03-22T15:22:34Z</time></trkpt><trkpt lat="45.63214659145076" lon="10.063850816753313"><ele>266.0</ele><time>2026-03-22T15:22:35Z</time></trkpt><trkpt lat="45.63223534463728" lon="10.063835268663778"><ele>266.0</ele><time>2026-03-22T15:22:36Z</time></trkpt><trkpt lat="45.63232877788533" lon="10.063840933101543"><ele>266.0</ele><time>2026-03-22T15:22:37Z</time></trkpt><trkpt lat="45.6324239509901" lon="10.063877455256852"><ele>266.0</ele><time>2026-03-22T15:22:38Z</time></trkpt><trkpt lat="45.63250861700671" lon="10.063943460933531"><ele>266.0</ele><time>2026-03-22T15:22:39Z</time></trkpt><trkpt lat="45.63259090602054" lon="10.064020311958002"><ele>266.0</ele><time>2026-03-22T15:22:40Z</time></trkpt><trkpt lat="45.63266856077208" lon="10.064092578068836"><ele>266.0</ele><time>2026-03-22T15:22:41Z</time></trkpt><trkpt lat="45.63273812928431" lon="10.064135422067906"><ele>266.0</ele><time>2026-03-22T15:22:42Z</time></trkpt><trkpt lat="45.63280098299194" lon="10.064240306055783"><ele>266.0</ele><time>2026-03-22T15:22:44Z</time></trkpt><trkpt lat="45.63286431852078" lon="10.064318988556337"><ele>266.0</ele><time>2026-03-22T15:22:45Z</time></trkpt><trkpt lat="45.632908601491486" lon="10.064464606540529"><ele>271.5</ele><time>2026-03-22T15:22:46Z</time></trkpt><trkpt lat="45.63296875692154" lon="10.06460086988885"><ele>277.0</ele><time>2026-03-22T15:22:47Z</time></trkpt><trkpt lat="45.63310602077036" lon="10.064638602634604"><ele>282.5</ele><time>2026-03-22T15:22:48Z</time></trkpt><trkpt lat="45.6332069018604" lon="10.064691253420493"><ele>288.0</ele><time>2026-03-22T15:22:49Z</time></trkpt><trkpt lat="45.633329867903406" lon="10.064717712735694"><ele>288.0</ele><time>2026-03-22T15:22:50Z</time></trkpt><trkpt lat="45.63347380478202" lon="10.0647240588883"><ele>288.0</ele><time>2026-03-22T15:22:51Z</time></trkpt><trkpt lat="45.633624526965285" lon="10.064747941762336"><ele>288.0</ele><time>2026-03-22T15:22:52Z</time></trkpt><trkpt lat="45.633780939453366" lon="10.06477024914359"><ele>288.75</ele><time>2026-03-22T15:22:53Z</time></trkpt><trkpt lat="45.6339319435574" lon="10.064770879348869"><ele>289.5</ele><time>2026-03-22T15:22:54Z</time></trkpt><trkpt lat="45.634060168752626" lon="10.064731001238844"><ele>290.25</ele><time>2026-03-22T15:22:55Z</time></trkpt><trkpt lat="45.6341671129336" lon="10.064687850642622"><ele>291.0</ele><time>2026-03-22T15:22:56Z</time></trkpt><trkpt lat="45.634254472821574" lon="10.064652870025316"><ele>291.0</ele><time>2026-03-22T15:22:57Z</time></trkpt><trkpt lat="45.63438204893436" lon="10.064600127751746"><ele>291.0</ele><time>2026-03-22T15:22:59Z</time></trkpt><trkpt lat="45.63444550801581" lon="10.064689530591348"><ele>291.0</ele><time>2026-03-22T15:23:00Z</time></trkpt><trkpt lat="45.634524451929316" lon="10.06475425474843"><ele>291.0</ele><time>2026-03-22T15:23:01Z</time></trkpt><trkpt lat="45.63457378608981" lon="10.064877936660107"><ele>291.0</ele><time>2026-03-22T15:23:02Z</time></trkpt><trkpt lat="45.63466468612618" lon="10.064904138481317"><ele>289.5</ele><time>2026-03-22T15:23:03Z</time></trkpt><trkpt lat="45.63475902209309" lon="10.064912505748937"><ele>288.0</ele><time>2026-03-22T15:23:04Z</time></trkpt><trkpt lat="45.63486710667798" lon="10.064873470373263"><ele>286.5</ele><time>2026-03-22T15:23:05Z</time></trkpt><trkpt lat="45.63498558171259" lon="10.064841904995701"><ele>285.0</ele><time>2026-03-22T15:23:06Z</time></trkpt><trkpt lat="45.63510570123518" lon="10.064799294018222"><ele>285.0</ele><time>2026-03-22T15:23:07Z</time></trkpt><trkpt lat="45.63523390689767" lon="10.064744175388125"><ele>285.0</ele><time>2026-03-22T15:23:08Z</time></trkpt><trkpt lat="45.635353025621626" lon="10.064658062278125"><ele>285.0</ele><time>2026-03-22T15:23:09Z</time></trkpt><trkpt lat="45.63547167559647" lon="10.064588867187092"><ele>285.0</ele><time>2026-03-22T15:23:10Z</time></trkpt><trkpt lat="45.6355886259066" lon="10.064536839391101"><ele>286.2</ele><time>2026-03-22T15:23:11Z</time></trkpt><trkpt lat="45.635686289439995" lon="10.064506464453139"><ele>287.4</ele><time>2026-03-22T15:23:12Z</time></trkpt><trkpt lat="45.635747565079726" lon="10.064476277177407"><ele>288.6</ele><time>2026-03-22T15:23:13Z</time></trkpt><trkpt lat="45.6357638238142" lon="10.064698496116396"><ele>289.8</ele><time>2026-03-22T15:23:17Z</time></trkpt><trkpt lat="45.635776594616814" lon="10.064819824280656"><ele>291.0</ele><time>2026-03-22T15:23:18Z</time></trkpt><trkpt lat="45.63578461929291" lon="10.064933194161595"><ele>291.0</ele><time>2026-03-22T15:23:19Z</time></trkpt><trkpt lat="45.63580352645767" lon="10.06509220684114"><ele>291.0</ele><time>2026-03-22T15:23:21Z</time></trkpt><trkpt lat="45.63582289907413" lon="10.065205380654588"><ele>291.0</ele><time>2026-03-22T15:23:23Z</time></trkpt><trkpt lat="45.63587438763885" lon="10.065304899585247"><ele>291.0</ele><time>2026-03-22T15:23:25Z</time></trkpt><trkpt lat="45.636012245934374" lon="10.065269781101776"><ele>291.0</ele><time>2026-03-22T15:23:27Z</time></trkpt><trkpt lat="45.636101358367995" lon="10.06527387190713"><ele>292.0</ele><time>2026-03-22T15:23:28Z</time></trkpt><trkpt lat="45.636182122016" lon="10.065259869794081"><ele>293.0</ele><time>2026-03-22T15:23:29Z</time></trkpt><trkpt lat="45.63626331353073" lon="10.065252210848648"><ele>294.0</ele><time>2026-03-22T15:23:30Z</time></trkpt><trkpt lat="45.636358372950404" lon="10.065267081964395"><ele>295.0</ele><time>2026-03-22T15:23:31Z</time></trkpt><trkpt lat="45.63643990692061" lon="10.065264536254006"><ele>296.0</ele><time>2026-03-22T15:23:32Z</time></trkpt><trkpt lat="45.63652084715243" lon="10.065263168033372"><ele>297.0</ele><time>2026-03-22T15:23:33Z</time></trkpt><trkpt lat="45.63659750471975" lon="10.065252038826875"><ele>297.0</ele><time>2026-03-22T15:23:34Z</time></trkpt><trkpt lat="45.63669083062246" lon="10.065238489702912"><ele>297.0</ele><time>2026-03-22T15:23:35Z</time></trkpt><trkpt lat="45.63678194744434" lon="10.065240346547705"><ele>297.0</ele><time>2026-03-22T15:23:36Z</time></trkpt><trkpt lat="45.63686140686487" lon="10.065258665370715"><ele>297.0</ele><time>2026-03-22T15:23:37Z</time></trkpt><trkpt lat="45.63695716348313" lon="10.065284345791056"><ele>297.0</ele><time>2026-03-22T15:23:39Z</time></trkpt><trkpt lat="45.63700932169345" lon="10.065127106798867"><ele>299.0</ele><time>2026-03-22T15:23:40Z</time></trkpt><trkpt lat="45.63706420040883" lon="10.0650384255549"><ele>301.0</ele><time>2026-03-22T15:23:41Z</time></trkpt><trkpt lat="45.63714383338785" lon="10.06494207432869"><ele>303.0</ele><time>2026-03-22T15:23:42Z</time></trkpt><trkpt lat="45.6372548791352" lon="10.064821088662969"><ele>305.0</ele><time>2026-03-22T15:23:43Z</time></trkpt><trkpt lat="45.637366379486636" lon="10.064697898691552"><ele>306.6</ele><time>2026-03-22T15:23:44Z</time></trkpt><trkpt lat="45.637487971053254" lon="10.06458624587253"><ele>308.2</ele><time>2026-03-22T15:23:45Z</time></trkpt><trkpt lat="45.63753811826848" lon="10.064488039821036"><ele>309.8</ele><time>2026-03-22T15:23:46Z</time></trkpt><trkpt lat="45.63757015594521" lon="10.064388693151667"><ele>311.4</ele><time>2026-03-22T15:23:47Z</time></trkpt><trkpt lat="45.63761658059316" lon="10.064300240235792"><ele>313.0</ele><time>2026-03-22T15:23:48Z</time></trkpt><trkpt lat="45.63766627943277" lon="10.064232195007621"><ele>313.0</ele><time>2026-03-22T15:23:49Z</time></trkpt><trkpt lat="45.6377480870113" lon="10.064185213205082"><ele>313.0</ele><time>2026-03-22T15:23:51Z</time></trkpt><trkpt lat="45.637800426645725" lon="10.064269825273636"><ele>313.0</ele><time>2026-03-22T15:23:52Z</time></trkpt><trkpt lat="45.63788191837501" lon="10.064308538953743"><ele>313.0</ele><time>2026-03-22T15:23:53Z</time></trkpt><trkpt lat="45.63803302782372" lon="10.064271441309748"><ele>313.0</ele><time>2026-03-22T15:23:55Z</time></trkpt><trkpt lat="45.63811121377063" lon="10.06413861536735"><ele>317.4</ele><time>2026-03-22T15:23:56Z</time></trkpt><trkpt lat="45.63818646039331" lon="10.06398077540854"><ele>321.8</ele><time>2026-03-22T15:23:57Z</time></trkpt><trkpt lat="45.638241691787584" lon="10.063829254233983"><ele>326.2</ele><time>2026-03-22T15:23:58Z</time></trkpt><trkpt lat="45.63825939090458" lon="10.06368916372786"><ele>330.6</ele><time>2026-03-22T15:23:59Z</time></trkpt><trkpt lat="45.63828030211694" lon="10.063562250279057"><ele>335.0</ele><time>2026-03-22T15:24:00Z</time></trkpt><trkpt lat="45.63830454989924" lon="10.06341508663485"><ele>343.0</ele><time>2026-03-22T15:24:02Z</time></trkpt><trkpt lat="45.63872263624939" lon="10.063552221178064"><ele>351.0</ele><time>2026-03-22T15:24:04Z</time></trkpt><trkpt lat="45.638866540890554" lon="10.063581837889991"><ele>351.0</ele><time>2026-03-22T15:24:05Z</time></trkpt><trkpt lat="45.63896840279103" lon="10.06355609716939"><ele>351.0</ele><time>2026-03-22T15:24:06Z</time></trkpt><trkpt lat="45.639076198576056" lon="10.06350462188472"><ele>351.0</ele><time>2026-03-22T15:24:08Z</time></trkpt><trkpt lat="45.639220211917774" lon="10.06356214856447"><ele>351.0</ele><time>2026-03-22T15:24:10Z</time></trkpt><trkpt lat="45.63931252605704" lon="10.063585513620247"><ele>351.0</ele><time>2026-03-22T15:24:11Z</time></trkpt><trkpt lat="45.63940610033508" lon="10.06364954328989"><ele>351.0</ele><time>2026-03-22T15:24:12Z</time></trkpt><trkpt lat="45.6395024949159" lon="10.063737791138516"><ele>351.0</ele><time>2026-03-22T15:24:13Z</time></trkpt><trkpt lat="45.63959245538553" lon="10.063841900681947"><ele>351.0</ele><time>2026-03-22T15:24:14Z</time></trkpt><trkpt lat="45.63969776837725" lon="10.063917065674277"><ele>354.0</ele><time>2026-03-22T15:24:15Z</time></trkpt><trkpt lat="45.63982198475669" lon="10.06399258687324"><ele>357.0</ele><time>2026-03-22T15:24:16Z</time></trkpt><trkpt lat="45.63993956146716" lon="10.06406819464063"><ele>360.0</ele><time>2026-03-22T15:24:17Z</time></trkpt><trkpt lat="45.64002414011837" lon="10.064121548677054"><ele>363.0</ele><time>2026-03-22T15:24:18Z</time></trkpt><trkpt lat="45.64016350689429" lon="10.064177442629775"><ele>363.0</ele><time>2026-03-22T15:24:20Z</time></trkpt><trkpt lat="45.64026101943279" lon="10.06414074869377"><ele>363.0</ele><time>2026-03-22T15:24:21Z</time></trkpt><trkpt lat="45.64033639791031" lon="10.064123757262477"><ele>363.0</ele><time>2026-03-22T15:24:22Z</time></trkpt><trkpt lat="45.64041018959046" lon="10.064113771800688"><ele>363.0</ele><time>2026-03-22T15:24:23Z</time></trkpt><trkpt lat="45.640435131188426" lon="10.06420531899801"><ele>363.0</ele><time>2026-03-22T15:24:25Z</time></trkpt><trkpt lat="45.64037546545482" lon="10.064263020677274"><ele>363.0</ele><time>2026-03-22T15:24:26Z</time></trkpt><trkpt lat="45.640265923729885" lon="10.064311253334626"><ele>363.0</ele><time>2026-03-22T15:24:27Z</time></trkpt><trkpt lat="45.64016900053666" lon="10.064391674290617"><ele>363.0</ele><time>2026-03-22T15:24:28Z</time></trkpt><trkpt lat="45.640092809356645" lon="10.06451542835018"><ele>363.0</ele><time>2026-03-22T15:24:29Z</time></trkpt><trkpt lat="45.64003261169985" lon="10.064666919926468"><ele>363.0</ele><time>2026-03-22T15:24:30Z</time></trkpt><trkpt lat="45.639946735973766" lon="10.064795119928064"><ele>363.0</ele><time>2026-03-22T15:24:31Z</time></trkpt><trkpt lat="45.63984652393754" lon="10.064943218002654"><ele>363.0</ele><time>2026-03-22T15:24:32Z</time></trkpt><trkpt lat="45.63975263236116" lon="10.06510146332608"><ele>363.0</ele><time>2026-03-22T15:24:33Z</time></trkpt><trkpt lat="45.639662655394254" lon="10.065253022687006"><ele>363.0</ele><time>2026-03-22T15:24:34Z</time></trkpt><trkpt lat="45.6395726428082" lon="10.065420046531427"><ele>364.0</ele><time>2026-03-22T15:24:35Z</time></trkpt><trkpt lat="45.63947786794562" lon="10.065570006158147"><ele>365.0</ele><time>2026-03-22T15:24:36Z</time></trkpt><trkpt lat="45.639384379528174" lon="10.065686008450694"><ele>366.0</ele><time>2026-03-22T15:24:37Z</time></trkpt><trkpt lat="45.63932265493947" lon="10.065814516206945"><ele>367.0</ele><time>2026-03-22T15:24:38Z</time></trkpt><trkpt lat="45.63927729869471" lon="10.065935985668556"><ele>367.0</ele><time>2026-03-22T15:24:39Z</time></trkpt><trkpt lat="45.639247951728706" lon="10.066061315482896"><ele>367.0</ele><time>2026-03-22T15:24:40Z</time></trkpt><trkpt lat="45.63924454454398" lon="10.066162276206537"><ele>367.0</ele><time>2026-03-22T15:24:41Z</time></trkpt><trkpt lat="45.63930043183713" lon="10.06629958921149"><ele>367.0</ele><time>2026-03-22T15:24:43Z</time></trkpt><trkpt lat="45.63937677726246" lon="10.066389466815428"><ele>367.0</ele><time>2026-03-22T15:24:45Z</time></trkpt><trkpt lat="45.639501352072735" lon="10.06650018989776"><ele>373.8</ele><time>2026-03-22T15:24:47Z</time></trkpt><trkpt lat="45.639596511230856" lon="10.066562534739615"><ele>380.6</ele><time>2026-03-22T15:24:48Z</time></trkpt><trkpt lat="45.63970005842578" lon="10.066609277168439"><ele>387.40000000000003</ele><time>2026-03-22T15:24:49Z</time></trkpt><trkpt lat="45.63979870173814" lon="10.06665438186994"><ele>394.20000000000005</ele><time>2026-03-22T15:24:50Z</time></trkpt><trkpt lat="45.63989265918027" lon="10.066696044329758"><ele>401.0</ele><time>2026-03-22T15:24:51Z</time></trkpt><trkpt lat="45.63999399313271" lon="10.066718727637154"><ele>401.0</ele><time>2026-03-22T15:24:52Z</time></trkpt><trkpt lat="45.640087015815325" lon="10.066756356859731"><ele>401.0</ele><time>2026-03-22T15:24:53Z</time></trkpt><trkpt lat="45.640168947885016" lon="10.066816425347382"><ele>401.0</ele><time>2026-03-22T15:24:54Z</time></trkpt><trkpt lat="45.64025263679661" lon="10.066819538750034"><ele>401.0</ele><time>2026-03-22T15:24:55Z</time></trkpt><trkpt lat="45.64035246569669" lon="10.066812120674886"><ele>401.0</ele><time>2026-03-22T15:24:56Z</time></trkpt><trkpt lat="45.64046658442075" lon="10.066785418173822"><ele>404.0</ele><time>2026-03-22T15:24:57Z</time></trkpt><trkpt lat="45.64058691816009" lon="10.066726988436544"><ele>407.0</ele><time>2026-03-22T15:24:58Z</time></trkpt><trkpt lat="45.64070101538825" lon="10.06663883289176"><ele>410.0</ele><time>2026-03-22T15:24:59Z</time></trkpt><trkpt lat="45.6408068839499" lon="10.066600681737366"><ele>413.0</ele><time>2026-03-22T15:25:00Z</time></trkpt><trkpt lat="45.64089400282592" lon="10.066647969458925"><ele>417.4</ele><time>2026-03-22T15:25:01Z</time></trkpt><trkpt lat="45.64102147754096" lon="10.066603735703309"><ele>421.79999999999995</ele><time>2026-03-22T15:25:02Z</time></trkpt><trkpt lat="45.64113819409968" lon="10.066568896658252"><ele>426.2</ele><time>2026-03-22T15:25:03Z</time></trkpt><trkpt lat="45.64123267745583" lon="10.066581685406566"><ele>430.6</ele><time>2026-03-22T15:25:04Z</time></trkpt><trkpt lat="45.64129770163345" lon="10.066581326161879"><ele>435.0</ele><time>2026-03-22T15:25:05Z</time></trkpt><trkpt lat="45.64136186665351" lon="10.066554926535902"><ele>433.8333333333333</ele><time>2026-03-22T15:25:06Z</time></trkpt><trkpt lat="45.64144388629289" lon="10.066496274849985"><ele>432.66666666666663</ele><time>2026-03-22T15:25:07Z</time></trkpt><trkpt lat="45.64152305576824" lon="10.066475895440496"><ele>431.5</ele><time>2026-03-22T15:25:08Z</time></trkpt><trkpt lat="45.64159165411566" lon="10.066527971468782"><ele>430.3333333333333</ele><time>2026-03-22T15:25:09Z</time></trkpt><trkpt lat="45.64167508525661" lon="10.066649444019285"><ele>429.16666666666663</ele><time>2026-03-22T15:25:10Z</time></trkpt><trkpt lat="45.64173433643399" lon="10.066683860023037"><ele>428.0</ele><time>2026-03-22T15:25:11Z</time></trkpt><trkpt lat="45.64181334963696" lon="10.066677210084096"><ele>427.99999999999994</ele><time>2026-03-22T15:25:12Z</time></trkpt><trkpt lat="45.641883771603936" lon="10.066649974640033"><ele>428.0</ele><time>2026-03-22T15:25:13Z</time></trkpt><trkpt lat="45.64192951214217" lon="10.066586195667858"><ele>428.0</ele><time>2026-03-22T15:25:14Z</time></trkpt><trkpt lat="45.64199032014955" lon="10.066491887668391"><ele>428.0</ele><time>2026-03-22T15:25:15Z</time></trkpt><trkpt lat="45.64204680882878" lon="10.066420784022348"><ele>427.99999999999994</ele><time>2026-03-22T15:25:16Z</time></trkpt><trkpt lat="45.642120313973564" lon="10.066450698701104"><ele>428.0</ele><time>2026-03-22T15:25:17Z</time></trkpt><trkpt lat="45.642221641659646" lon="10.066532407518775"><ele>432.99999999999994</ele><time>2026-03-22T15:25:18Z</time></trkpt><trkpt lat="45.64227714566743" lon="10.066613752481148"><ele>438.0</ele><time>2026-03-22T15:25:19Z</time></trkpt><trkpt lat="45.64229575773612" lon="10.066738129790409"><ele>443.0</ele><time>2026-03-22T15:25:20Z</time></trkpt><trkpt lat="45.642322339553644" lon="10.066848679688636"><ele>448.0</ele><time>2026-03-22T15:25:21Z</time></trkpt><trkpt lat="45.64236633776647" lon="10.06694973715031"><ele>452.99999999999994</ele><time>2026-03-22T15:25:22Z</time></trkpt><trkpt lat="45.64243061278111" lon="10.067015358356112"><ele>458.0</ele><time>2026-03-22T15:25:23Z</time></trkpt><trkpt lat="45.64253860494941" lon="10.067010567220807"><ele>457.99999999999994</ele><time>2026-03-22T15:25:25Z</time></trkpt><trkpt lat="45.6426084200347" lon="10.066926786907201"><ele>458.0</ele><time>2026-03-22T15:25:26Z</time></trkpt><trkpt lat="45.6427011157276" lon="10.066868752495099"><ele>458.0</ele><time>2026-03-22T15:25:27Z</time></trkpt><trkpt lat="45.642771689998895" lon="10.066843000921898"><ele>458.0</ele><time>2026-03-22T15:25:28Z</time></trkpt><trkpt lat="45.64277635968202" lon="10.066704148880875"><ele>457.99999999999994</ele><time>2026-03-22T15:25:29Z</time></trkpt><trkpt lat="45.64276176052447" lon="10.066590217318737"><ele>458.0</ele><time>2026-03-22T15:25:30Z</time></trkpt><trkpt lat="45.64283979267488" lon="10.066504162885185"><ele>462.2</ele><time>2026-03-22T15:25:31Z</time></trkpt><trkpt lat="45.64289857090084" lon="10.066394436694702"><ele>466.4</ele><time>2026-03-22T15:25:32Z</time></trkpt><trkpt lat="45.64292610099271" lon="10.066272166705648"><ele>470.59999999999997</ele><time>2026-03-22T15:25:33Z</time></trkpt><trkpt lat="45.642872120511825" lon="10.066155914895127"><ele>474.79999999999995</ele><time>2026-03-22T15:25:35Z</time></trkpt><trkpt lat="45.6428372582922" lon="10.06603422838446"><ele>479.0</ele><time>2026-03-22T15:25:36Z</time></trkpt><trkpt lat="45.64283913046511" lon="10.065850483171218"><ele>482.0</ele><time>2026-03-22T15:25:37Z</time></trkpt><trkpt lat="45.642772623135016" lon="10.065670610093266"><ele>485.0</ele><time>2026-03-22T15:25:38Z</time></trkpt><trkpt lat="45.642705713744164" lon="10.065495813363388"><ele>488.0</ele><time>2026-03-22T15:25:39Z</time></trkpt><trkpt lat="45.64267274981151" lon="10.065326316167845"><ele>491.0</ele><time>2026-03-22T15:25:40Z</time></trkpt><trkpt lat="45.642652287482925" lon="10.065212872060235"><ele>491.0</ele><time>2026-03-22T15:25:41Z</time></trkpt><trkpt lat="45.64275046044515" lon="10.065084673228432"><ele>491.0</ele><time>2026-03-22T15:25:43Z</time></trkpt><trkpt lat="45.64279197565507" lon="10.064977137389981"><ele>491.0</ele><time>2026-03-22T15:25:44Z</time></trkpt><trkpt lat="45.64284123223758" lon="10.06488611399752"><ele>491.0</ele><time>2026-03-22T15:25:45Z</time></trkpt><trkpt lat="45.6429134968862" lon="10.06484711414123"><ele>491.0</ele><time>2026-03-22T15:25:46Z</time></trkpt><trkpt lat="45.642985706193215" lon="10.064816955750329"><ele>494.49999999999994</ele><time>2026-03-22T15:25:47Z</time></trkpt><trkpt lat="45.64302637213094" lon="10.064721255386024"><ele>498.0</ele><time>2026-03-22T15:25:48Z</time></trkpt><trkpt lat="45.6430760671338" lon="10.064648609405687"><ele>501.5</ele><time>2026-03-22T15:25:49Z</time></trkpt><trkpt lat="45.643126102916206" lon="10.064570631642825"><ele>505.0</ele><time>2026-03-22T15:25:51Z</time></trkpt><trkpt lat="45.643167552903805" lon="10.064482674118738"><ele>508.49999999999994</ele><time>2026-03-22T15:25:52Z</time></trkpt><trkpt lat="45.64321243556957" lon="10.064412933087551"><ele>512.0</ele><time>2026-03-22T15:25:53Z</time></trkpt><trkpt lat="45.64326809491323" lon="10.06423562002027"><ele>512.0</ele><time>2026-03-22T15:25:55Z</time></trkpt><trkpt lat="45.64332358419204" lon="10.064158938366992"><ele>512.0</ele><time>2026-03-22T15:25:56Z</time></trkpt><trkpt lat="45.64340727498929" lon="10.064101490743893"><ele>512.0</ele><time>2026-03-22T15:25:57Z</time></trkpt><trkpt lat="45.64349962870605" lon="10.064029798028423"><ele>512.0</ele><time>2026-03-22T15:25:58Z</time></trkpt><trkpt lat="45.64358163932929" lon="10.063925013359656"><ele>512.0</ele><time>2026-03-22T15:25:59Z</time></trkpt><trkpt lat="45.643679785309764" lon="10.063781495083166"><ele>516.0</ele><time>2026-03-22T15:26:00Z</time></trkpt><trkpt lat="45.64375639311045" lon="10.063650417190038"><ele>520.0</ele><time>2026-03-22T15:26:01Z</time></trkpt><trkpt lat="45.643806983019516" lon="10.063507287663489"><ele>524.0</ele><time>2026-03-22T15:26:02Z</time></trkpt><trkpt lat="45.6438507835828" lon="10.063358484168772"><ele>528.0</ele><time>2026-03-22T15:26:03Z</time></trkpt><trkpt lat="45.64389876066594" lon="10.063282035872879"><ele>532.0</ele><time>2026-03-22T15:26:04Z</time></trkpt><trkpt lat="45.6439651318876" lon="10.063247643250916"><ele>535.75</ele><time>2026-03-22T15:26:05Z</time></trkpt><trkpt lat="45.64407044568241" lon="10.063252937107746"><ele>539.5</ele><time>2026-03-22T15:26:06Z</time></trkpt><trkpt lat="45.644187166983905" lon="10.063166391586448"><ele>543.25</ele><time>2026-03-22T15:26:07Z</time></trkpt><trkpt lat="45.64431557701846" lon="10.063106676147699"><ele>547.0</ele><time>2026-03-22T15:26:08Z</time></trkpt><trkpt lat="45.64447420777769" lon="10.06306704716717"><ele>547.0</ele><time>2026-03-22T15:26:09Z</time></trkpt><trkpt lat="45.64457286669366" lon="10.063025668561451"><ele>547.0</ele><time>2026-03-22T15:26:10Z</time></trkpt><trkpt lat="45.64465821632666" lon="10.062911052554444"><ele>547.0</ele><time>2026-03-22T15:26:11Z</time></trkpt><trkpt lat="45.644717255637396" lon="10.062845692640833"><ele>547.0</ele><time>2026-03-22T15:26:12Z</time></trkpt><trkpt lat="45.64480544399312" lon="10.062762360042747"><ele>547.0</ele><time>2026-03-22T15:26:13Z</time></trkpt><trkpt lat="45.64483916932802" lon="10.062587309898603"><ele>547.0</ele><time>2026-03-22T15:26:15Z</time></trkpt><trkpt lat="45.644900794285746" lon="10.062468325709947"><ele>547.0</ele><time>2026-03-22T15:26:17Z</time></trkpt><trkpt lat="45.64495467286089" lon="10.062395160271345"><ele>547.0</ele><time>2026-03-22T15:26:19Z</time></trkpt><trkpt lat="45.64503201475811" lon="10.062259814487756"><ele>547.0</ele><time>2026-03-22T15:26:21Z</time></trkpt><trkpt lat="45.64497456744604" lon="10.062317694623585"><ele>547.0</ele><time>2026-03-22T15:26:39Z</time></trkpt><trkpt lat="45.6449160695029" lon="10.062385326592736"><ele>547.0</ele><time>2026-03-22T15:26:43Z</time></trkpt><trkpt lat="45.64489154773888" lon="10.06249134252313"><ele>547.0</ele><time>2026-03-22T15:26:45Z</time></trkpt><trkpt lat="45.64497538396702" lon="10.062513911807969"><ele>547.0</ele><time>2026-03-22T15:26:48Z</time></trkpt><trkpt lat="45.64507938100235" lon="10.062454173723806"><ele>547.0</ele><time>2026-03-22T15:26:51Z</time></trkpt><trkpt lat="45.64516181892252" lon="10.062395069395889"><ele>547.0</ele><time>2026-03-22T15:26:52Z</time></trkpt><trkpt lat="45.64524286702782" lon="10.06238496761032"><ele>547.0</ele><time>2026-03-22T15:26:54Z</time></trkpt><trkpt lat="45.64531292345294" lon="10.0624162330472"><ele>547.0</ele><time>2026-03-22T15:26:55Z</time></trkpt><trkpt lat="45.64535230253161" lon="10.06251667852207"><ele>550.4</ele><time>2026-03-22T15:26:57Z</time></trkpt><trkpt lat="45.6454383043926" lon="10.062668416641097"><ele>553.8000000000001</ele><time>2026-03-22T15:26:59Z</time></trkpt><trkpt lat="45.645522898668716" lon="10.06272867245928"><ele>557.2</ele><time>2026-03-22T15:27:00Z</time></trkpt><trkpt lat="45.645632322766836" lon="10.062784381068827"><ele>560.6</ele><time>2026-03-22T15:27:01Z</time></trkpt><trkpt lat="45.64568270754898" lon="10.062853808677273"><ele>564.0</ele><time>2026-03-22T15:27:02Z</time></trkpt><trkpt lat="45.64566620863615" lon="10.062991860971097"><ele>564.0</ele><time>2026-03-22T15:27:04Z</time></trkpt><trkpt lat="45.64562242882696" lon="10.06306962743473"><ele>564.0</ele><time>2026-03-22T15:27:05Z</time></trkpt><trkpt lat="45.64556594608243" lon="10.063145859875899"><ele>564.0</ele><time>2026-03-22T15:27:06Z</time></trkpt><trkpt lat="45.64552085669932" lon="10.063219000988658"><ele>564.0</ele><time>2026-03-22T15:27:07Z</time></trkpt><trkpt lat="45.645527864704235" lon="10.063325448343573"><ele>564.0</ele><time>2026-03-22T15:27:08Z</time></trkpt><trkpt lat="45.64557222398864" lon="10.063435260388204"><ele>564.0</ele><time>2026-03-22T15:27:09Z</time></trkpt><trkpt lat="45.64558292210355" lon="10.063532929025872"><ele>564.0</ele><time>2026-03-22T15:27:10Z</time></trkpt><trkpt lat="45.645599505190596" lon="10.063693611485167"><ele>562.6</ele><time>2026-03-22T15:27:12Z</time></trkpt><trkpt lat="45.645673227558625" lon="10.063764776405407"><ele>561.2</ele><time>2026-03-22T15:27:13Z</time></trkpt><trkpt lat="45.64571849342255" lon="10.063873630560723"><ele>559.8000000000001</ele><time>2026-03-22T15:27:14Z</time></trkpt><trkpt lat="45.64575690630585" lon="10.063962954887518"><ele>558.4</ele><time>2026-03-22T15:27:15Z</time></trkpt><trkpt lat="45.64580920797193" lon="10.064021663594579"><ele>557.0</ele><time>2026-03-22T15:27:16Z</time></trkpt><trkpt lat="45.64595435326963" lon="10.063998550242495"><ele>557.0</ele><time>2026-03-22T15:27:18Z</time></trkpt><trkpt lat="45.646024821675404" lon="10.063930374847478"><ele>557.0</ele><time>2026-03-22T15:27:19Z</time></trkpt><trkpt lat="45.64611924356209" lon="10.063834422230917"><ele>557.0</ele><time>2026-03-22T15:27:20Z</time></trkpt><trkpt lat="45.64620903642993" lon="10.063805734070263"><ele>557.0</ele><time>2026-03-22T15:27:21Z</time></trkpt><trkpt lat="45.64627938135002" lon="10.063804792990739"><ele>557.0</ele><time>2026-03-22T15:27:22Z</time></trkpt><trkpt lat="45.64634952332371" lon="10.063836194371204"><ele>557.0</ele><time>2026-03-22T15:27:23Z</time></trkpt><trkpt lat="45.64639139629513" lon="10.063914285533043"><ele>559.2</ele><time>2026-03-22T15:27:24Z</time></trkpt><trkpt lat="45.646464745329816" lon="10.064072028198638"><ele>561.4000000000001</ele><time>2026-03-22T15:27:25Z</time></trkpt><trkpt lat="45.64652945020862" lon="10.064168670542323"><ele>563.5999999999999</ele><time>2026-03-22T15:27:26Z</time></trkpt><trkpt lat="45.64657540929218" lon="10.06428134214614"><ele>565.8</ele><time>2026-03-22T15:27:27Z</time></trkpt><trkpt lat="45.64659730674185" lon="10.06445086689836"><ele>568.0</ele><time>2026-03-22T15:27:28Z</time></trkpt><trkpt lat="45.64666176663347" lon="10.064517921086207"><ele>568.0</ele><time>2026-03-22T15:27:30Z</time></trkpt><trkpt lat="45.64672779012531" lon="10.064665914769343"><ele>568.0</ele><time>2026-03-22T15:27:32Z</time></trkpt><trkpt lat="45.64678817835651" lon="10.0647815587862"><ele>568.0</ele><time>2026-03-22T15:27:33Z</time></trkpt><trkpt lat="45.64684549813166" lon="10.064927008363341"><ele>568.0</ele><time>2026-03-22T15:27:34Z</time></trkpt><trkpt lat="45.64687530492632" lon="10.065061152946926"><ele>568.0</ele><time>2026-03-22T15:27:35Z</time></trkpt><trkpt lat="45.646935010081265" lon="10.065155052661595"><ele>569.1999999999999</ele><time>2026-03-22T15:27:36Z</time></trkpt><trkpt lat="45.64702559156771" lon="10.065273529793952"><ele>570.4</ele><time>2026-03-22T15:27:37Z</time></trkpt><trkpt lat="45.64712954730487" lon="10.065360541191968"><ele>571.5999999999999</ele><time>2026-03-22T15:27:38Z</time></trkpt><trkpt lat="45.64721246484204" lon="10.065410555823336"><ele>572.8</ele><time>2026-03-22T15:27:39Z</time></trkpt><trkpt lat="45.64730279370023" lon="10.06544064229994"><ele>574.0</ele><time>2026-03-22T15:27:40Z</time></trkpt><trkpt lat="45.64740752189815" lon="10.065478930478772"><ele>574.0</ele><time>2026-03-22T15:27:41Z</time></trkpt><trkpt lat="45.64748562458057" lon="10.065462703002455"><ele>574.0</ele><time>2026-03-22T15:27:42Z</time></trkpt><trkpt lat="45.64755464809796" lon="10.065439113576735"><ele>574.0</ele><time>2026-03-22T15:27:43Z</time></trkpt><trkpt lat="45.64763250329171" lon="10.065421693836441"><ele>574.0</ele><time>2026-03-22T15:27:44Z</time></trkpt><trkpt lat="45.64770134005519" lon="10.06547194902143"><ele>574.0</ele><time>2026-03-22T15:27:45Z</time></trkpt><trkpt lat="45.647801659715356" lon="10.065497575859569"><ele>574.0</ele><time>2026-03-22T15:27:47Z</time></trkpt><trkpt lat="45.64787665206865" lon="10.06548946209313"><ele>574.3333333333334</ele><time>2026-03-22T15:27:48Z</time></trkpt><trkpt lat="45.647921745826565" lon="10.065620279522172"><ele>574.6666666666667</ele><time>2026-03-22T15:27:50Z</time></trkpt><trkpt lat="45.647928207910894" lon="10.065720970786534"><ele>575.0</ele><time>2026-03-22T15:27:51Z</time></trkpt><trkpt lat="45.647969860916305" lon="10.06581029499855"><ele>575.3333333333334</ele><time>2026-03-22T15:27:52Z</time></trkpt><trkpt lat="45.648072372040446" lon="10.065855003727558"><ele>575.6666666666666</ele><time>2026-03-22T15:27:54Z</time></trkpt><trkpt lat="45.6481380888212" lon="10.065845832567863"><ele>576.0</ele><time>2026-03-22T15:27:55Z</time></trkpt><trkpt lat="45.64821236288957" lon="10.065836816104486"><ele>576.0</ele><time>2026-03-22T15:27:56Z</time></trkpt><trkpt lat="45.6482977459288" lon="10.065833167642891"><ele>576.0</ele><time>2026-03-22T15:27:57Z</time></trkpt><trkpt lat="45.64839074136208" lon="10.065829101730039"><ele>576.0</ele><time>2026-03-22T15:27:58Z</time></trkpt><trkpt lat="45.64846080266032" lon="10.065835513051246"><ele>576.0</ele><time>2026-03-22T15:27:59Z</time></trkpt><trkpt lat="45.64853659263465" lon="10.065886398020952"><ele>576.0</ele><time>2026-03-22T15:28:01Z</time></trkpt><trkpt lat="45.648560586906164" lon="10.06600013503751"><ele>576.0</ele><time>2026-03-22T15:28:02Z</time></trkpt><trkpt lat="45.64857658929064" lon="10.066115687220684"><ele>576.0</ele><time>2026-03-22T15:28:03Z</time></trkpt><trkpt lat="45.64857240487019" lon="10.066231470590422"><ele>576.0</ele><time>2026-03-22T15:28:04Z</time></trkpt><trkpt lat="45.64857840884893" lon="10.066339520172379"><ele>576.0</ele><time>2026-03-22T15:28:05Z</time></trkpt><trkpt lat="45.64858507946053" lon="10.066444330467792"><ele>576.0</ele><time>2026-03-22T15:28:06Z</time></trkpt><trkpt lat="45.64862397791707" lon="10.066529643105769"><ele>576.0</ele><time>2026-03-22T15:28:07Z</time></trkpt><trkpt lat="45.64867198996756" lon="10.06661079603354"><ele>576.0</ele><time>2026-03-22T15:28:08Z</time></trkpt><trkpt lat="45.64872093487113" lon="10.066719524465034"><ele>577.8</ele><time>2026-03-22T15:28:09Z</time></trkpt><trkpt lat="45.64876446392128" lon="10.066870637376423"><ele>579.6</ele><time>2026-03-22T15:28:10Z</time></trkpt><trkpt lat="45.64882328851976" lon="10.06698327088597"><ele>581.4</ele><time>2026-03-22T15:28:11Z</time></trkpt><trkpt lat="45.64888560772314" lon="10.06709811220959"><ele>583.2</ele><time>2026-03-22T15:28:12Z</time></trkpt><trkpt lat="45.64893613077006" lon="10.067212806940464"><ele>585.0</ele><time>2026-03-22T15:28:13Z</time></trkpt><trkpt lat="45.64899868365246" lon="10.067351481243655"><ele>585.0</ele><time>2026-03-22T15:28:14Z</time></trkpt><trkpt lat="45.649065527343" lon="10.067509276253887"><ele>585.0</ele><time>2026-03-22T15:28:15Z</time></trkpt><trkpt lat="45.64909911584343" lon="10.06761750511436"><ele>585.0</ele><time>2026-03-22T15:28:16Z</time></trkpt><trkpt lat="45.64917004940909" lon="10.06761897349881"><ele>585.0</ele><time>2026-03-22T15:28:19Z</time></trkpt><trkpt lat="45.649187290849945" lon="10.067513123426407"><ele>585.0</ele><time>2026-03-22T15:28:21Z</time></trkpt><trkpt lat="45.649167613966995" lon="10.06741467051219"><ele>585.0</ele><time>2026-03-22T15:28:22Z</time></trkpt><trkpt lat="45.649141830972205" lon="10.067280401927952"><ele>585.0</ele><time>2026-03-22T15:28:23Z</time></trkpt><trkpt lat="45.649129593072054" lon="10.067146480394475"><ele>585.0</ele><time>2026-03-22T15:28:24Z</time></trkpt><trkpt lat="45.649130415821666" lon="10.067003919506176"><ele>585.0</ele><time>2026-03-22T15:28:25Z</time></trkpt><trkpt lat="45.64914901235862" lon="10.066862201013057"><ele>585.0</ele><time>2026-03-22T15:28:26Z</time></trkpt><trkpt lat="45.64918798514966" lon="10.066706315149322"><ele>585.0</ele><time>2026-03-22T15:28:27Z</time></trkpt><trkpt lat="45.64920569630947" lon="10.066520029614564"><ele>588.3333333333334</ele><time>2026-03-22T15:28:28Z</time></trkpt><trkpt lat="45.649218902208" lon="10.066298878743142"><ele>591.6666666666667</ele><time>2026-03-22T15:28:29Z</time></trkpt><trkpt lat="45.64921245805069" lon="10.066078566191585"><ele>595.0</ele><time>2026-03-22T15:28:30Z</time></trkpt><trkpt lat="45.64921936064005" lon="10.06586992536335"><ele>595.0</ele><time>2026-03-22T15:28:31Z</time></trkpt><trkpt lat="45.649235313916826" lon="10.065709105238147"><ele>595.0</ele><time>2026-03-22T15:28:32Z</time></trkpt><trkpt lat="45.649244214095894" lon="10.065585195660956"><ele>595.0</ele><time>2026-03-22T15:28:33Z</time></trkpt><trkpt lat="45.6492303116897" lon="10.06544127718458"><ele>595.0</ele><time>2026-03-22T15:28:34Z</time></trkpt><trkpt lat="45.649199143839745" lon="10.06526771839696"><ele>595.0</ele><time>2026-03-22T15:28:35Z</time></trkpt><trkpt lat="45.649147000121054" lon="10.065097793214838"><ele>595.0</ele><time>2026-03-22T15:28:36Z</time></trkpt><trkpt lat="45.64909933194222" lon="10.064940243028207"><ele>595.0</ele><time>2026-03-22T15:28:37Z</time></trkpt><trkpt lat="45.64906464704722" lon="10.064769594446277"><ele>595.0</ele><time>2026-03-22T15:28:38Z</time></trkpt><trkpt lat="45.64903248247205" lon="10.064577946629251"><ele>595.0</ele><time>2026-03-22T15:28:39Z</time></trkpt><trkpt lat="45.64900765174245" lon="10.064361138454679"><ele>595.0</ele><time>2026-03-22T15:28:40Z</time></trkpt><trkpt lat="45.648982374290945" lon="10.06416828048607"><ele>595.0</ele><time>2026-03-22T15:28:41Z</time></trkpt><trkpt lat="45.64896101438493" lon="10.06401417184964"><ele>595.0</ele><time>2026-03-22T15:28:42Z</time></trkpt><trkpt lat="45.648895686965886" lon="10.063877653460887"><ele>595.0</ele><time>2026-03-22T15:28:43Z</time></trkpt><trkpt lat="45.64883729777392" lon="10.063756667429171"><ele>596.1666666666667</ele><time>2026-03-22T15:28:44Z</time></trkpt><trkpt lat="45.64876917653196" lon="10.063659770956022"><ele>597.3333333333334</ele><time>2026-03-22T15:28:46Z</time></trkpt><trkpt lat="45.64870574525402" lon="10.063565986687037"><ele>598.5</ele><time>2026-03-22T15:28:48Z</time></trkpt><trkpt lat="45.6486539951846" lon="10.063493254417603"><ele>599.6666666666666</ele><time>2026-03-22T15:28:49Z</time></trkpt><trkpt lat="45.64860969278508" lon="10.0634222313596"><ele>600.8333333333333</ele><time>2026-03-22T15:28:50Z</time></trkpt><trkpt lat="45.64856540155075" lon="10.06335348696838"><ele>602.0</ele><time>2026-03-22T15:28:51Z</time></trkpt><trkpt lat="45.64849550459759" lon="10.06328672343552"><ele>603.6</ele><time>2026-03-22T15:28:52Z</time></trkpt><trkpt lat="45.64843202389994" lon="10.063182375877389"><ele>605.2</ele><time>2026-03-22T15:28:53Z</time></trkpt><trkpt lat="45.6483736025316" lon="10.063109086555821"><ele>606.8</ele><time>2026-03-22T15:28:54Z</time></trkpt><trkpt lat="45.648306215736035" lon="10.063020115452867"><ele>608.4</ele><time>2026-03-22T15:28:55Z</time></trkpt><trkpt lat="45.64825184473273" lon="10.06292836955704"><ele>610.0</ele><time>2026-03-22T15:28:56Z</time></trkpt><trkpt lat="45.64822973238337" lon="10.062753945096024"><ele>610.0</ele><time>2026-03-22T15:28:58Z</time></trkpt><trkpt lat="45.64825032796095" lon="10.062658658472145"><ele>610.0</ele><time>2026-03-22T15:28:59Z</time></trkpt><trkpt lat="45.6482594315157" lon="10.062524793218554"><ele>610.0</ele><time>2026-03-22T15:29:01Z</time></trkpt><trkpt lat="45.648312859750305" lon="10.062406664141376"><ele>610.0</ele><time>2026-03-22T15:29:03Z</time></trkpt><trkpt lat="45.64835588436657" lon="10.062268048968154"><ele>610.0</ele><time>2026-03-22T15:29:05Z</time></trkpt><trkpt lat="45.648395981303096" lon="10.06216689511872"><ele>610.0</ele><time>2026-03-22T15:29:07Z</time></trkpt><trkpt lat="45.64845749575231" lon="10.062088014576172"><ele>606.6</ele><time>2026-03-22T15:29:09Z</time></trkpt><trkpt lat="45.648503610545994" lon="10.061945694994817"><ele>603.2</ele><time>2026-03-22T15:29:11Z</time></trkpt><trkpt lat="45.648533190828815" lon="10.061853680616306"><ele>599.8</ele><time>2026-03-22T15:29:12Z</time></trkpt><trkpt lat="45.6485671160932" lon="10.061697984425773"><ele>596.4</ele><time>2026-03-22T15:29:14Z</time></trkpt><trkpt lat="45.64861851129477" lon="10.06158616619363"><ele>593.0</ele><time>2026-03-22T15:29:16Z</time></trkpt><trkpt lat="45.648647083343654" lon="10.061500591683508"><ele>593.0</ele><time>2026-03-22T15:29:18Z</time></trkpt><trkpt lat="45.64871113643708" lon="10.061425507346279"><ele>593.0</ele><time>2026-03-22T15:29:21Z</time></trkpt><trkpt lat="45.64874196792138" lon="10.061294938946551"><ele>593.0</ele><time>2026-03-22T15:29:23Z</time></trkpt><trkpt lat="45.64876231612334" lon="10.061128135383221"><ele>593.0</ele><time>2026-03-22T15:29:25Z</time></trkpt><trkpt lat="45.64876590928778" lon="10.061033685877774"><ele>593.0</ele><time>2026-03-22T15:29:26Z</time></trkpt><trkpt lat="45.64879081324823" lon="10.060935479574288"><ele>593.0</ele><time>2026-03-22T15:29:27Z</time></trkpt><trkpt lat="45.648742742357896" lon="10.060851293427255"><ele>591.8333333333333</ele><time>2026-03-22T15:29:29Z</time></trkpt><trkpt lat="45.648761130683106" lon="10.060742298828368"><ele>590.6666666666666</ele><time>2026-03-22T15:29:32Z</time></trkpt><trkpt lat="45.64873454073761" lon="10.060627387624969"><ele>589.5</ele><time>2026-03-22T15:29:34Z</time></trkpt><trkpt lat="45.648693142147714" lon="10.06050717219413"><ele>588.3333333333334</ele><time>2026-03-22T15:29:36Z</time></trkpt><trkpt lat="45.64868048507791" lon="10.060405970833543"><ele>587.1666666666667</ele><time>2026-03-22T15:29:38Z</time></trkpt><trkpt lat="45.64858269278659" lon="10.060373451599878"><ele>586.0</ele><time>2026-03-22T15:29:40Z</time></trkpt><trkpt lat="45.64847096751629" lon="10.06029868558328"><ele>589.8571428571428</ele><time>2026-03-22T15:29:42Z</time></trkpt><trkpt lat="45.64840591977086" lon="10.060231715414098"><ele>593.7142857142857</ele><time>2026-03-22T15:29:44Z</time></trkpt><trkpt lat="45.648342810346946" lon="10.060158693706146"><ele>597.5714285714286</ele><time>2026-03-22T15:29:48Z</time></trkpt><trkpt lat="45.64827776932862" lon="10.06011334620653"><ele>601.4285714285713</ele><time>2026-03-22T15:29:51Z</time></trkpt><trkpt lat="45.64821595448928" lon="10.060094420019169"><ele>605.2857142857142</ele><time>2026-03-22T15:29:53Z</time></trkpt><trkpt lat="45.648136066758504" lon="10.06013754610002"><ele>609.1428571428571</ele><time>2026-03-22T15:29:56Z</time></trkpt><trkpt lat="45.648073744480236" lon="10.060168488876041"><ele>613.0</ele><time>2026-03-22T15:29:58Z</time></trkpt><trkpt lat="45.64800349604212" lon="10.060204250635083"><ele>613.0</ele><time>2026-03-22T15:30:01Z</time></trkpt><trkpt lat="45.64794013268914" lon="10.060235671749787"><ele>613.0</ele><time>2026-03-22T15:30:03Z</time></trkpt><trkpt lat="45.647839592285884" lon="10.060253551128277"><ele>613.0</ele><time>2026-03-22T15:30:06Z</time></trkpt><trkpt lat="45.64775409636355" lon="10.060289467855247"><ele>613.0</ele><time>2026-03-22T15:30:09Z</time></trkpt><trkpt lat="45.64768734058012" lon="10.06032207599976"><ele>613.0</ele><time>2026-03-22T15:30:11Z</time></trkpt><trkpt lat="45.64762448045556" lon="10.060341082632979"><ele>613.0</ele><time>2026-03-22T15:30:13Z</time></trkpt><trkpt lat="45.647563238565844" lon="10.060384656767114"><ele>614.0</ele><time>2026-03-22T15:30:16Z</time></trkpt><trkpt lat="45.647479394421765" lon="10.060341226334463"><ele>615.0</ele><time>2026-03-22T15:30:19Z</time></trkpt><trkpt lat="45.647406492495655" lon="10.060324839291088"><ele>616.0</ele><time>2026-03-22T15:30:21Z</time></trkpt><trkpt lat="45.647344188098614" lon="10.06038760602086"><ele>617.0</ele><time>2026-03-22T15:30:24Z</time></trkpt><trkpt lat="45.64730423994896" lon="10.06046540637203"><ele>618.0</ele><time>2026-03-22T15:30:27Z</time></trkpt><trkpt lat="45.64722289571193" lon="10.06057649808621"><ele>619.0</ele><time>2026-03-22T15:30:29Z</time></trkpt><trkpt lat="45.64715292196243" lon="10.060564692828894"><ele>619.0</ele><time>2026-03-22T15:30:33Z</time></trkpt><trkpt lat="45.647087880507776" lon="10.060586494902589"><ele>619.0</ele><time>2026-03-22T15:30:35Z</time></trkpt><trkpt lat="45.647013407656914" lon="10.060595801170896"><ele>619.0</ele><time>2026-03-22T15:30:39Z</time></trkpt><trkpt lat="45.64701616489843" lon="10.060497694992657"><ele>619.0</ele><time>2026-03-22T15:30:41Z</time></trkpt><trkpt lat="45.64698401027525" lon="10.060407396029499"><ele>619.0</ele><time>2026-03-22T15:30:43Z</time></trkpt><trkpt lat="45.64690325039687" lon="10.060327911201123"><ele>619.0</ele><time>2026-03-22T15:30:45Z</time></trkpt><trkpt lat="45.646877589183525" lon="10.060163601877303"><ele>620.0</ele><time>2026-03-22T15:30:48Z</time></trkpt><trkpt lat="45.64684129703673" lon="10.060073459880947"><ele>621.0</ele><time>2026-03-22T15:30:49Z</time></trkpt><trkpt lat="45.6468301095846" lon="10.05995671003418"><ele>622.0</ele><time>2026-03-22T15:30:50Z</time></trkpt><trkpt lat="45.64676271829116" lon="10.059846367802725"><ele>623.0</ele><time>2026-03-22T15:30:51Z</time></trkpt><trkpt lat="45.64663634011648" lon="10.059728001867196"><ele>624.0</ele><time>2026-03-22T15:30:53Z</time></trkpt><trkpt lat="45.646590384495" lon="10.059565080350904"><ele>623.8</ele><time>2026-03-22T15:30:55Z</time></trkpt><trkpt lat="45.64659231242021" lon="10.059437150012265"><ele>623.5999999999999</ele><time>2026-03-22T15:30:56Z</time></trkpt><trkpt lat="45.646666331449296" lon="10.059280612525937"><ele>623.4</ele><time>2026-03-22T15:30:57Z</time></trkpt><trkpt lat="45.646657624849496" lon="10.059171301232215"><ele>623.1999999999999</ele><time>2026-03-22T15:30:58Z</time></trkpt><trkpt lat="45.64657151802365" lon="10.059115048026793"><ele>623.0</ele><time>2026-03-22T15:30:59Z</time></trkpt><trkpt lat="45.64646901014576" lon="10.059035912746518"><ele>623.0</ele><time>2026-03-22T15:31:00Z</time></trkpt><trkpt lat="45.646365953457334" lon="10.058953031943638"><ele>623.0</ele><time>2026-03-22T15:31:01Z</time></trkpt><trkpt lat="45.64627844549484" lon="10.058931319737276"><ele>623.0</ele><time>2026-03-22T15:31:02Z</time></trkpt><trkpt lat="45.64619779025626" lon="10.05890407927488"><ele>623.0</ele><time>2026-03-22T15:31:03Z</time></trkpt><trkpt lat="45.646092985471256" lon="10.058859264428618"><ele>623.0</ele><time>2026-03-22T15:31:04Z</time></trkpt><trkpt lat="45.646008072175704" lon="10.058781494397866"><ele>627.6666666666666</ele><time>2026-03-22T15:31:05Z</time></trkpt><trkpt lat="45.6459679837303" lon="10.058706189797517"><ele>632.3333333333333</ele><time>2026-03-22T15:31:06Z</time></trkpt><trkpt lat="45.64590696523095" lon="10.058601526406584"><ele>637.0</ele><time>2026-03-22T15:31:07Z</time></trkpt><trkpt lat="45.645849531879016" lon="10.05849090393412"><ele>641.6666666666666</ele><time>2026-03-22T15:31:08Z</time></trkpt><trkpt lat="45.64581719143192" lon="10.058400299542166"><ele>646.3333333333334</ele><time>2026-03-22T15:31:09Z</time></trkpt><trkpt lat="45.64579469234049" lon="10.058286481353171"><ele>651.0</ele><time>2026-03-22T15:31:10Z</time></trkpt><trkpt lat="45.64577884226495" lon="10.058177284496786"><ele>651.5</ele><time>2026-03-22T15:31:11Z</time></trkpt><trkpt lat="45.64575820019584" lon="10.058025065324504"><ele>652.0</ele><time>2026-03-22T15:31:13Z</time></trkpt><trkpt lat="45.64571837596961" lon="10.057925128826918"><ele>652.5</ele><time>2026-03-22T15:31:15Z</time></trkpt><trkpt lat="45.64571825323134" lon="10.05781916815669"><ele>653.0</ele><time>2026-03-22T15:31:45Z</time></trkpt><trkpt lat="45.64570126344294" lon="10.057703964922375"><ele>653.5</ele><time>2026-03-22T15:31:48Z</time></trkpt><trkpt lat="45.645652603108076" lon="10.057593696984917"><ele>654.0</ele><time>2026-03-22T15:31:50Z</time></trkpt><trkpt lat="45.645675267112864" lon="10.057456575017895"><ele>655.0</ele><time>2026-03-22T15:31:53Z</time></trkpt><trkpt lat="45.64571586647483" lon="10.05731548568451"><ele>656.0</ele><time>2026-03-22T15:31:55Z</time></trkpt><trkpt lat="45.64575599356673" lon="10.057169662151752"><ele>657.0</ele><time>2026-03-22T15:31:57Z</time></trkpt><trkpt lat="45.64579872368942" lon="10.05707076720944"><ele>658.0</ele><time>2026-03-22T15:31:59Z</time></trkpt><trkpt lat="45.64581815315543" lon="10.056946838508155"><ele>659.0</ele><time>2026-03-22T15:32:01Z</time></trkpt><trkpt lat="45.645848990279156" lon="10.056787950277167"><ele>659.0</ele><time>2026-03-22T15:32:03Z</time></trkpt><trkpt lat="45.64584094896561" lon="10.056698270479057"><ele>659.0</ele><time>2026-03-22T15:32:04Z</time></trkpt><trkpt lat="45.645853340339436" lon="10.056539938813614"><ele>659.0</ele><time>2026-03-22T15:32:06Z</time></trkpt><trkpt lat="45.645899075073764" lon="10.05644339222404"><ele>659.0</ele><time>2026-03-22T15:32:07Z</time></trkpt><trkpt lat="45.64591359979988" lon="10.05635347066927"><ele>659.0</ele><time>2026-03-22T15:32:08Z</time></trkpt><trkpt lat="45.64597403520942" lon="10.05621664184737"><ele>659.0</ele><time>2026-03-22T15:32:10Z</time></trkpt><trkpt lat="45.64598812655852" lon="10.05611757989145"><ele>658.8333333333333</ele><time>2026-03-22T15:32:12Z</time></trkpt><trkpt lat="45.64604808965787" lon="10.056017631095578"><ele>658.6666666666666</ele><time>2026-03-22T15:32:14Z</time></trkpt><trkpt lat="45.64603736969642" lon="10.055906746889153"><ele>658.5</ele><time>2026-03-22T15:32:16Z</time></trkpt><trkpt lat="45.646070480472105" lon="10.055764882010097"><ele>658.3333333333334</ele><time>2026-03-22T15:32:20Z</time></trkpt><trkpt lat="45.64609677616563" lon="10.055636352924296"><ele>658.1666666666667</ele><time>2026-03-22T15:32:21Z</time></trkpt><trkpt lat="45.64611113567564" lon="10.055526987533431"><ele>658.0</ele><time>2026-03-22T15:32:22Z</time></trkpt><trkpt lat="45.64612382106085" lon="10.055383439672351"><ele>655.7142857142857</ele><time>2026-03-22T15:32:24Z</time></trkpt><trkpt lat="45.64614743308354" lon="10.055293404876293"><ele>653.4285714285714</ele><time>2026-03-22T15:32:26Z</time></trkpt><trkpt lat="45.64615416081782" lon="10.05515757393818"><ele>651.1428571428571</ele><time>2026-03-22T15:32:29Z</time></trkpt><trkpt lat="45.64609953070847" lon="10.05507768197948"><ele>648.8571428571429</ele><time>2026-03-22T15:32:30Z</time></trkpt><trkpt lat="45.64605184980587" lon="10.055007419593466"><ele>646.5714285714286</ele><time>2026-03-22T15:32:32Z</time></trkpt><trkpt lat="45.64599696357315" lon="10.054939760488894"><ele>644.2857142857142</ele><time>2026-03-22T15:32:34Z</time></trkpt><trkpt lat="45.645997001737385" lon="10.054848605720679"><ele>642.0</ele><time>2026-03-22T15:32:36Z</time></trkpt><trkpt lat="45.64598746369384" lon="10.054733391832768"><ele>639.1666666666666</ele><time>2026-03-22T15:32:38Z</time></trkpt><trkpt lat="45.645913752162954" lon="10.054532587244308"><ele>636.3333333333334</ele><time>2026-03-22T15:32:39Z</time></trkpt><trkpt lat="45.64593228257262" lon="10.054441391914018"><ele>633.5</ele><time>2026-03-22T15:32:40Z</time></trkpt><trkpt lat="45.64588844931312" lon="10.054372629133143"><ele>630.6666666666667</ele><time>2026-03-22T15:32:42Z</time></trkpt><trkpt lat="45.64591250859303" lon="10.054261643716464"><ele>627.8333333333334</ele><time>2026-03-22T15:32:43Z</time></trkpt><trkpt lat="45.645903954240566" lon="10.05416119985997"><ele>625.0</ele><time>2026-03-22T15:32:44Z</time></trkpt><trkpt lat="45.64591561681871" lon="10.053984621288224"><ele>621.2</ele><time>2026-03-22T15:32:46Z</time></trkpt><trkpt lat="45.64591306515017" lon="10.053893020108664"><ele>617.4</ele><time>2026-03-22T15:32:47Z</time></trkpt><trkpt lat="45.64591407097808" lon="10.053788665403037"><ele>613.6</ele><time>2026-03-22T15:32:48Z</time></trkpt><trkpt lat="45.645951426105725" lon="10.053679926108064"><ele>609.8</ele><time>2026-03-22T15:32:50Z</time></trkpt><trkpt lat="45.64600550315166" lon="10.053472350950303"><ele>606.0</ele><time>2026-03-22T15:32:52Z</time></trkpt><trkpt lat="45.64609508670022" lon="10.053460055007443"><ele>606.0</ele><time>2026-03-22T15:32:54Z</time></trkpt><trkpt lat="45.64615900114633" lon="10.053394856420296"><ele>585.0</ele><time>2026-03-22T15:32:57Z</time></trkpt><trkpt lat="45.64623010089471" lon="10.053325290517238"><ele>585.0</ele><time>2026-03-22T15:33:00Z</time></trkpt></trkseg><trkseg><trkpt lat="45.64616845524525" lon="10.05339647118326"><ele>588.5</ele><time>2026-03-22T15:47:11Z</time></trkpt><trkpt lat="45.64610936676258" lon="10.053441374559503"><ele>592.0</ele><time>2026-03-22T15:47:12Z</time></trkpt><trkpt lat="45.64602911318122" lon="10.05349685796135"><ele>595.5</ele><time>2026-03-22T15:47:14Z</time></trkpt><trkpt lat="45.645935909899976" lon="10.05350218882224"><ele>599.0</ele><time>2026-03-22T15:47:16Z</time></trkpt><trkpt lat="45.645891356531486" lon="10.053601195764875"><ele>602.5</ele><time>2026-03-22T15:47:19Z</time></trkpt><trkpt lat="45.64589896638552" lon="10.05375447235745"><ele>606.0</ele><time>2026-03-22T15:47:21Z</time></trkpt><trkpt lat="45.64589497102772" lon="10.053883754283351"><ele>606.0</ele><time>2026-03-22T15:47:23Z</time></trkpt><trkpt lat="45.645891523978825" lon="10.054017652437484"><ele>606.0</ele><time>2026-03-22T15:47:25Z</time></trkpt><trkpt lat="45.645889399825066" lon="10.05415052236347"><ele>606.0</ele><time>2026-03-22T15:47:27Z</time></trkpt><trkpt lat="45.64587028217056" lon="10.054238831909366"><ele>606.0</ele><time>2026-03-22T15:47:28Z</time></trkpt><trkpt lat="45.645876955123875" lon="10.054387747607006"><ele>606.0</ele><time>2026-03-22T15:47:30Z</time></trkpt><trkpt lat="45.645901559687545" lon="10.054517749455602"><ele>604.8333333333334</ele><time>2026-03-22T15:47:32Z</time></trkpt><trkpt lat="45.645888778535245" lon="10.054658733165594"><ele>603.6666666666666</ele><time>2026-03-22T15:47:34Z</time></trkpt><trkpt lat="45.64591924859022" lon="10.054758400690917"><ele>602.5</ele><time>2026-03-22T15:47:37Z</time></trkpt><trkpt lat="45.645978265056364" lon="10.054792866475312"><ele>601.3333333333333</ele><time>2026-03-22T15:47:38Z</time></trkpt><trkpt lat="45.64607258529623" lon="10.054867497779707"><ele>600.1666666666666</ele><time>2026-03-22T15:47:40Z</time></trkpt><trkpt lat="45.64613808374894" lon="10.05494963082738"><ele>599.0</ele><time>2026-03-22T15:47:42Z</time></trkpt><trkpt lat="45.64611979070272" lon="10.055068858062812"><ele>606.1666666666666</ele><time>2026-03-22T15:47:44Z</time></trkpt><trkpt lat="45.64609623000057" lon="10.055187229365488"><ele>613.3333333333333</ele><time>2026-03-22T15:47:46Z</time></trkpt><trkpt lat="45.64608095202843" lon="10.05527688575374"><ele>620.5</ele><time>2026-03-22T15:47:50Z</time></trkpt><trkpt lat="45.6460546363131" lon="10.055391729276275"><ele>627.6666666666666</ele><time>2026-03-22T15:47:52Z</time></trkpt><trkpt lat="45.64605590822174" lon="10.055532262545139"><ele>634.8333333333334</ele><time>2026-03-22T15:47:54Z</time></trkpt><trkpt lat="45.64607741144476" lon="10.055668219852983"><ele>642.0</ele><time>2026-03-22T15:47:56Z</time></trkpt><trkpt lat="45.646070560611506" lon="10.055854643739956"><ele>645.2</ele><time>2026-03-22T15:47:58Z</time></trkpt><trkpt lat="45.64604283903822" lon="10.055956941521616"><ele>648.4000000000001</ele><time>2026-03-22T15:48:00Z</time></trkpt><trkpt lat="45.64599314382555" lon="10.056067428344667"><ele>651.5999999999999</ele><time>2026-03-22T15:48:03Z</time></trkpt><trkpt lat="45.64594986165449" lon="10.056231030342666"><ele>654.8</ele><time>2026-03-22T15:48:05Z</time></trkpt><trkpt lat="45.64589466999701" lon="10.056354539138889"><ele>658.0</ele><time>2026-03-22T15:48:07Z</time></trkpt><trkpt lat="45.64584606640308" lon="10.05651896813733"><ele>658.1666666666667</ele><time>2026-03-22T15:48:09Z</time></trkpt><trkpt lat="45.64584025398539" lon="10.056633276513569"><ele>658.3333333333334</ele><time>2026-03-22T15:48:10Z</time></trkpt><trkpt lat="45.64584766299593" lon="10.056766886995822"><ele>658.5</ele><time>2026-03-22T15:48:11Z</time></trkpt><trkpt lat="45.64585917153643" lon="10.056895195106158"><ele>658.6666666666666</ele><time>2026-03-22T15:48:12Z</time></trkpt><trkpt lat="45.64584455912275" lon="10.056991980452947"><ele>658.8333333333333</ele><time>2026-03-22T15:48:13Z</time></trkpt><trkpt lat="45.645801189729895" lon="10.057112724628729"><ele>659.0</ele><time>2026-03-22T15:48:15Z</time></trkpt><trkpt lat="45.645757511864424" lon="10.057211752428252"><ele>659.0</ele><time>2026-03-22T15:48:16Z</time></trkpt><trkpt lat="45.64572298816332" lon="10.057311559898286"><ele>659.0</ele><time>2026-03-22T15:48:17Z</time></trkpt><trkpt lat="45.64569470830209" lon="10.05740238518763"><ele>659.0</ele><time>2026-03-22T15:48:18Z</time></trkpt><trkpt lat="45.64566865056109" lon="10.057493798351098"><ele>659.0</ele><time>2026-03-22T15:48:19Z</time></trkpt><trkpt lat="45.64568577827827" lon="10.057588182082391"><ele>659.0</ele><time>2026-03-22T15:48:23Z</time></trkpt><trkpt lat="45.64570645045376" lon="10.057684725828103"><ele>659.0</ele><time>2026-03-22T15:48:25Z</time></trkpt><trkpt lat="45.64570608880155" lon="10.057778349064947"><ele>659.0</ele><time>2026-03-22T15:48:27Z</time></trkpt><trkpt lat="45.64569403848995" lon="10.05787898310556"><ele>658.1666666666666</ele><time>2026-03-22T15:48:30Z</time></trkpt><trkpt lat="45.645682359112605" lon="10.057982286838744"><ele>657.3333333333333</ele><time>2026-03-22T15:48:34Z</time></trkpt><trkpt lat="45.64571721380976" lon="10.058095223567443"><ele>656.5</ele><time>2026-03-22T15:48:37Z</time></trkpt><trkpt lat="45.645731176409946" lon="10.058206423959962"><ele>655.6666666666666</ele><time>2026-03-22T15:48:40Z</time></trkpt><trkpt lat="45.6457397739648" lon="10.058298918291744"><ele>654.8333333333334</ele><time>2026-03-22T15:48:42Z</time></trkpt><trkpt lat="45.64579730101344" lon="10.05839164117726"><ele>654.0</ele><time>2026-03-22T15:48:45Z</time></trkpt><trkpt lat="45.645876582141604" lon="10.058426733430698"><ele>653.4000000000001</ele><time>2026-03-22T15:48:46Z</time></trkpt><trkpt lat="45.64597240758217" lon="10.05848088142414"><ele>652.8</ele><time>2026-03-22T15:48:48Z</time></trkpt><trkpt lat="45.64606604309579" lon="10.058610048028783"><ele>652.2</ele><time>2026-03-22T15:48:50Z</time></trkpt><trkpt lat="45.64614666696023" lon="10.058668636897353"><ele>651.5999999999999</ele><time>2026-03-22T15:48:51Z</time></trkpt><trkpt lat="45.64622591761624" lon="10.05873621673591"><ele>651.0</ele><time>2026-03-22T15:48:52Z</time></trkpt><trkpt lat="45.64628370627254" lon="10.058849387063617"><ele>646.5999999999999</ele><time>2026-03-22T15:48:54Z</time></trkpt><trkpt lat="45.64630009870824" lon="10.058940404021987"><ele>642.1999999999999</ele><time>2026-03-22T15:48:55Z</time></trkpt><trkpt lat="45.64636936801942" lon="10.059124582305166"><ele>637.8</ele><time>2026-03-22T15:48:57Z</time></trkpt><trkpt lat="45.64640072247395" lon="10.05924340000834"><ele>633.4</ele><time>2026-03-22T15:48:58Z</time></trkpt><trkpt lat="45.64641997805283" lon="10.059335936895602"><ele>629.0</ele><time>2026-03-22T15:48:59Z</time></trkpt><trkpt lat="45.64642523996374" lon="10.05951963757506"><ele>629.0</ele><time>2026-03-22T15:49:01Z</time></trkpt><trkpt lat="45.64644894215114" lon="10.05961854314868"><ele>629.0</ele><time>2026-03-22T15:49:02Z</time></trkpt><trkpt lat="45.646538108221186" lon="10.059773972151948"><ele>629.0</ele><time>2026-03-22T15:49:04Z</time></trkpt><trkpt lat="45.64661637971439" lon="10.059880174335477"><ele>629.0</ele><time>2026-03-22T15:49:06Z</time></trkpt><trkpt lat="45.64663182305168" lon="10.06002135323755"><ele>629.0</ele><time>2026-03-22T15:49:08Z</time></trkpt><trkpt lat="45.64663369847826" lon="10.060116521590183"><ele>628.1666666666666</ele><time>2026-03-22T15:49:10Z</time></trkpt><trkpt lat="45.64664021518027" lon="10.060211190911962"><ele>627.3333333333333</ele><time>2026-03-22T15:49:12Z</time></trkpt><trkpt lat="45.646595916661525" lon="10.060294103170426"><ele>626.5</ele><time>2026-03-22T15:49:17Z</time></trkpt><trkpt lat="45.64650013846489" lon="10.060302129418538"><ele>625.6666666666666</ele><time>2026-03-22T15:49:21Z</time></trkpt><trkpt lat="45.64642084790368" lon="10.060319125575429"><ele>624.8333333333334</ele><time>2026-03-22T15:49:23Z</time></trkpt><trkpt lat="45.64633835106107" lon="10.060307133063246"><ele>624.0</ele><time>2026-03-22T15:49:25Z</time></trkpt><trkpt lat="45.646258976595796" lon="10.06032910846308"><ele>624.0</ele><time>2026-03-22T15:49:27Z</time></trkpt><trkpt lat="45.64633250383679" lon="10.060302733680372"><ele>624.0</ele><time>2026-03-22T15:49:33Z</time></trkpt><trkpt lat="45.646405555315965" lon="10.06033345257458"><ele>624.0</ele><time>2026-03-22T15:49:34Z</time></trkpt><trkpt lat="45.646518544132206" lon="10.06041159917813"><ele>624.0</ele><time>2026-03-22T15:49:36Z</time></trkpt><trkpt lat="45.64656430937995" lon="10.060516865262732"><ele>624.0</ele><time>2026-03-22T15:49:37Z</time></trkpt><trkpt lat="45.64658500805312" lon="10.060655415958607"><ele>623.2</ele><time>2026-03-22T15:49:38Z</time></trkpt><trkpt lat="45.64658171664301" lon="10.06081605129742"><ele>622.4</ele><time>2026-03-22T15:49:39Z</time></trkpt><trkpt lat="45.64658056015797" lon="10.060974105032587"><ele>621.6</ele><time>2026-03-22T15:49:40Z</time></trkpt><trkpt lat="45.64657756730364" lon="10.061117369651576"><ele>620.8</ele><time>2026-03-22T15:49:41Z</time></trkpt><trkpt lat="45.64660747735085" lon="10.061214954252065"><ele>620.0</ele><time>2026-03-22T15:49:42Z</time></trkpt><trkpt lat="45.64665814168165" lon="10.06133731746073"><ele>620.0</ele><time>2026-03-22T15:49:43Z</time></trkpt><trkpt lat="45.64670057417857" lon="10.061436630713448"><ele>620.0</ele><time>2026-03-22T15:49:44Z</time></trkpt><trkpt lat="45.646746410333336" lon="10.061534075829064"><ele>620.0</ele><time>2026-03-22T15:49:45Z</time></trkpt><trkpt lat="45.64680597055131" lon="10.061624566129911"><ele>620.0</ele><time>2026-03-22T15:49:46Z</time></trkpt><trkpt lat="45.64689789511213" lon="10.061714315027466"><ele>620.0</ele><time>2026-03-22T15:49:47Z</time></trkpt><trkpt lat="45.646983660235335" lon="10.061808813020463"><ele>619.2</ele><time>2026-03-22T15:49:48Z</time></trkpt><trkpt lat="45.64703315478903" lon="10.061905274871716"><ele>618.4</ele><time>2026-03-22T15:49:49Z</time></trkpt><trkpt lat="45.64705731163852" lon="10.06202498001054"><ele>617.6</ele><time>2026-03-22T15:49:50Z</time></trkpt><trkpt lat="45.64706317870312" lon="10.062191513900151"><ele>616.8</ele><time>2026-03-22T15:49:51Z</time></trkpt><trkpt lat="45.647084270188934" lon="10.06235764889599"><ele>616.0</ele><time>2026-03-22T15:49:52Z</time></trkpt><trkpt lat="45.64711598200274" lon="10.06252381001012"><ele>616.0</ele><time>2026-03-22T15:49:53Z</time></trkpt><trkpt lat="45.64715689282126" lon="10.062637782074015"><ele>616.0</ele><time>2026-03-22T15:49:54Z</time></trkpt><trkpt lat="45.64721580848616" lon="10.062730295339064"><ele>616.0</ele><time>2026-03-22T15:49:55Z</time></trkpt><trkpt lat="45.64728101461474" lon="10.06282924969728"><ele>616.0</ele><time>2026-03-22T15:49:56Z</time></trkpt><trkpt lat="45.647345498305974" lon="10.062911415316819"><ele>616.0</ele><time>2026-03-22T15:49:57Z</time></trkpt><trkpt lat="45.64738776398819" lon="10.063024843082994"><ele>616.0</ele><time>2026-03-22T15:49:58Z</time></trkpt><trkpt lat="45.64741149217152" lon="10.063156512457592"><ele>613.5</ele><time>2026-03-22T15:49:59Z</time></trkpt><trkpt lat="45.64741772465518" lon="10.063281031165674"><ele>611.0</ele><time>2026-03-22T15:50:00Z</time></trkpt><trkpt lat="45.64743832971963" lon="10.063409550158996"><ele>608.5</ele><time>2026-03-22T15:50:01Z</time></trkpt><trkpt lat="45.64747757528423" lon="10.063503786900446"><ele>606.0</ele><time>2026-03-22T15:50:02Z</time></trkpt><trkpt lat="45.647521615464406" lon="10.063583292225026"><ele>603.5</ele><time>2026-03-22T15:50:03Z</time></trkpt><trkpt lat="45.64757681776449" lon="10.063637355667304"><ele>601.0</ele><time>2026-03-22T15:50:04Z</time></trkpt><trkpt lat="45.64764055304655" lon="10.063667960739302"><ele>601.0</ele><time>2026-03-22T15:50:05Z</time></trkpt><trkpt lat="45.64772227722115" lon="10.063651823581782"><ele>601.0</ele><time>2026-03-22T15:50:06Z</time></trkpt><trkpt lat="45.64781673943171" lon="10.063600120788394"><ele>601.0</ele><time>2026-03-22T15:50:07Z</time></trkpt><trkpt lat="45.64793008407741" lon="10.0635821550862"><ele>601.0</ele><time>2026-03-22T15:50:08Z</time></trkpt><trkpt lat="45.648058865930075" lon="10.06362311472985"><ele>601.0</ele><time>2026-03-22T15:50:09Z</time></trkpt><trkpt lat="45.64818144637208" lon="10.063680199084672"><ele>601.1666666666667</ele><time>2026-03-22T15:50:10Z</time></trkpt><trkpt lat="45.64826227198592" lon="10.063685374818297"><ele>601.3333333333334</ele><time>2026-03-22T15:50:11Z</time></trkpt><trkpt lat="45.64833904854085" lon="10.06364827298063"><ele>601.5</ele><time>2026-03-22T15:50:12Z</time></trkpt><trkpt lat="45.648439956137274" lon="10.06355528451984"><ele>601.6666666666666</ele><time>2026-03-22T15:50:13Z</time></trkpt><trkpt lat="45.64853111530818" lon="10.063507157968802"><ele>601.8333333333333</ele><time>2026-03-22T15:50:14Z</time></trkpt><trkpt lat="45.64859734474685" lon="10.063515607068465"><ele>602.0</ele><time>2026-03-22T15:50:15Z</time></trkpt><trkpt lat="45.648678123266805" lon="10.063580402771352"><ele>600.6</ele><time>2026-03-22T15:50:16Z</time></trkpt><trkpt lat="45.64873865929412" lon="10.063685418779498"><ele>599.2</ele><time>2026-03-22T15:50:17Z</time></trkpt><trkpt lat="45.64882092872427" lon="10.06379925644669"><ele>597.8</ele><time>2026-03-22T15:50:18Z</time></trkpt><trkpt lat="45.64888977453545" lon="10.06388992653112"><ele>596.4</ele><time>2026-03-22T15:50:19Z</time></trkpt><trkpt lat="45.64894132090673" lon="10.063999385814672"><ele>595.0</ele><time>2026-03-22T15:50:20Z</time></trkpt><trkpt lat="45.648990186871714" lon="10.064145139670154"><ele>595.0</ele><time>2026-03-22T15:50:21Z</time></trkpt><trkpt lat="45.649021217745684" lon="10.06433811110075"><ele>595.0</ele><time>2026-03-22T15:50:22Z</time></trkpt><trkpt lat="45.64904525603194" lon="10.064586032489087"><ele>595.0</ele><time>2026-03-22T15:50:23Z</time></trkpt><trkpt lat="45.64907454063931" lon="10.064826808961628"><ele>595.0</ele><time>2026-03-22T15:50:24Z</time></trkpt><trkpt lat="45.64912585898512" lon="10.065055542781595"><ele>595.0</ele><time>2026-03-22T15:50:25Z</time></trkpt><trkpt lat="45.64917781020308" lon="10.065264671772637"><ele>595.0</ele><time>2026-03-22T15:50:26Z</time></trkpt><trkpt lat="45.64922438073194" lon="10.065446622905796"><ele>595.0</ele><time>2026-03-22T15:50:27Z</time></trkpt><trkpt lat="45.649243407458584" lon="10.065606752661324"><ele>595.0</ele><time>2026-03-22T15:50:28Z</time></trkpt><trkpt lat="45.64924659867054" lon="10.065749341018302"><ele>595.0</ele><time>2026-03-22T15:50:29Z</time></trkpt><trkpt lat="45.64923780713047" lon="10.065898826656596"><ele>595.0</ele><time>2026-03-22T15:50:30Z</time></trkpt><trkpt lat="45.64921926449586" lon="10.066095380175302"><ele>595.0</ele><time>2026-03-22T15:50:31Z</time></trkpt><trkpt lat="45.64920479757436" lon="10.066309288294029"><ele>595.0</ele><time>2026-03-22T15:50:32Z</time></trkpt><trkpt lat="45.649197012991685" lon="10.066468691956931"><ele>595.0</ele><time>2026-03-22T15:50:33Z</time></trkpt><trkpt lat="45.64920252634518" lon="10.06661652840133"><ele>595.0</ele><time>2026-03-22T15:50:34Z</time></trkpt><trkpt lat="45.649198023086456" lon="10.066770235315516"><ele>593.0</ele><time>2026-03-22T15:50:35Z</time></trkpt><trkpt lat="45.64917903551991" lon="10.06691960977427"><ele>591.0</ele><time>2026-03-22T15:50:36Z</time></trkpt><trkpt lat="45.649141756376004" lon="10.067057307525523"><ele>589.0</ele><time>2026-03-22T15:50:37Z</time></trkpt><trkpt lat="45.649131041729596" lon="10.067208995633976"><ele>587.0</ele><time>2026-03-22T15:50:38Z</time></trkpt><trkpt lat="45.64914143007709" lon="10.067336690138198"><ele>585.0</ele><time>2026-03-22T15:50:39Z</time></trkpt><trkpt lat="45.649158970155504" lon="10.067475610515555"><ele>585.0</ele><time>2026-03-22T15:50:40Z</time></trkpt><trkpt lat="45.64917233366086" lon="10.06757372406802"><ele>585.0</ele><time>2026-03-22T15:50:41Z</time></trkpt><trkpt lat="45.64912929650807" lon="10.067652350583447"><ele>585.0</ele><time>2026-03-22T15:50:43Z</time></trkpt><trkpt lat="45.64903528696932" lon="10.067487151233372"><ele>585.0</ele><time>2026-03-22T15:50:46Z</time></trkpt><trkpt lat="45.648977623951474" lon="10.067308364341896"><ele>585.0</ele><time>2026-03-22T15:50:47Z</time></trkpt><trkpt lat="45.64891644436898" lon="10.06713650754944"><ele>585.0</ele><time>2026-03-22T15:50:48Z</time></trkpt><trkpt lat="45.64886433184262" lon="10.067010597504824"><ele>585.0</ele><time>2026-03-22T15:50:49Z</time></trkpt><trkpt lat="45.64880813095831" lon="10.066885847628233"><ele>585.0</ele><time>2026-03-22T15:50:50Z</time></trkpt><trkpt lat="45.648756698467366" lon="10.066755741756158"><ele>585.0</ele><time>2026-03-22T15:50:51Z</time></trkpt><trkpt lat="45.648709000717474" lon="10.066647167467426"><ele>585.0</ele><time>2026-03-22T15:50:52Z</time></trkpt><trkpt lat="45.64866701655602" lon="10.06654247848183"><ele>583.2</ele><time>2026-03-22T15:50:53Z</time></trkpt><trkpt lat="45.64864202060104" lon="10.066423998154736"><ele>581.4</ele><time>2026-03-22T15:50:54Z</time></trkpt><trkpt lat="45.648606934806175" lon="10.066327465474698"><ele>579.6</ele><time>2026-03-22T15:50:55Z</time></trkpt><trkpt lat="45.648584543378625" lon="10.066196665286872"><ele>577.8</ele><time>2026-03-22T15:50:56Z</time></trkpt><trkpt lat="45.64857889254436" lon="10.066029809251487"><ele>576.0</ele><time>2026-03-22T15:50:57Z</time></trkpt><trkpt lat="45.64856012443892" lon="10.06589243093845"><ele>576.0</ele><time>2026-03-22T15:50:58Z</time></trkpt><trkpt lat="45.648513433442375" lon="10.065816748226096"><ele>576.0</ele><time>2026-03-22T15:50:59Z</time></trkpt><trkpt lat="45.6484173004233" lon="10.06578657273132"><ele>576.0</ele><time>2026-03-22T15:51:00Z</time></trkpt><trkpt lat="45.64830602837628" lon="10.065781895882933"><ele>576.0</ele><time>2026-03-22T15:51:01Z</time></trkpt><trkpt lat="45.64817489040546" lon="10.065844387927884"><ele>576.0</ele><time>2026-03-22T15:51:02Z</time></trkpt><trkpt lat="45.648058369526964" lon="10.065869248081748"><ele>576.0</ele><time>2026-03-22T15:51:03Z</time></trkpt><trkpt lat="45.6479963592984" lon="10.06584430931327"><ele>576.0</ele><time>2026-03-22T15:51:04Z</time></trkpt><trkpt lat="45.647891641618855" lon="10.065699846563"><ele>576.0</ele><time>2026-03-22T15:51:06Z</time></trkpt><trkpt lat="45.64788893401696" lon="10.065492150054103"><ele>576.0</ele><time>2026-03-22T15:51:08Z</time></trkpt><trkpt lat="45.64780850176225" lon="10.06546230939701"><ele>576.0</ele><time>2026-03-22T15:51:10Z</time></trkpt><trkpt lat="45.647737317047266" lon="10.065495983303977"><ele>575.6666666666666</ele><time>2026-03-22T15:51:11Z</time></trkpt><trkpt lat="45.647664273075556" lon="10.0654911562096"><ele>575.3333333333334</ele><time>2026-03-22T15:51:12Z</time></trkpt><trkpt lat="45.64760042093953" lon="10.065448687750044"><ele>575.0</ele><time>2026-03-22T15:51:13Z</time></trkpt><trkpt lat="45.64751125761676" lon="10.065440284666185"><ele>574.6666666666667</ele><time>2026-03-22T15:51:14Z</time></trkpt><trkpt lat="45.647415158046414" lon="10.065469091317391"><ele>574.3333333333334</ele><time>2026-03-22T15:51:15Z</time></trkpt><trkpt lat="45.647335386869365" lon="10.065429914406286"><ele>574.0</ele><time>2026-03-22T15:51:16Z</time></trkpt><trkpt lat="45.647236204660395" lon="10.065393540932936"><ele>574.0</ele><time>2026-03-22T15:51:17Z</time></trkpt><trkpt lat="45.64712695711156" lon="10.06531707776135"><ele>574.0</ele><time>2026-03-22T15:51:18Z</time></trkpt><trkpt lat="45.64702767390312" lon="10.065239208431782"><ele>574.0</ele><time>2026-03-22T15:51:19Z</time></trkpt><trkpt lat="45.64695046433627" lon="10.06513833985089"><ele>574.0</ele><time>2026-03-22T15:51:20Z</time></trkpt><trkpt lat="45.64688903927609" lon="10.065033417889444"><ele>574.0</ele><time>2026-03-22T15:51:21Z</time></trkpt><trkpt lat="45.64683365305527" lon="10.064905826002942"><ele>572.8</ele><time>2026-03-22T15:51:22Z</time></trkpt><trkpt lat="45.64679576218614" lon="10.064803121317892"><ele>571.5999999999999</ele><time>2026-03-22T15:51:23Z</time></trkpt><trkpt lat="45.64675527259951" lon="10.064694718319947"><ele>570.4</ele><time>2026-03-22T15:51:24Z</time></trkpt><trkpt lat="45.64670302494174" lon="10.064598406595046"><ele>569.1999999999999</ele><time>2026-03-22T15:51:25Z</time></trkpt><trkpt lat="45.64661725646792" lon="10.064447923921547"><ele>568.0</ele><time>2026-03-22T15:51:27Z</time></trkpt><trkpt lat="45.64655686141038" lon="10.064374069717282"><ele>568.0</ele><time>2026-03-22T15:51:28Z</time></trkpt><trkpt lat="45.646518619219144" lon="10.064270306515972"><ele>568.0</ele><time>2026-03-22T15:51:29Z</time></trkpt><trkpt lat="45.64648712023177" lon="10.064148187095036"><ele>568.0</ele><time>2026-03-22T15:51:30Z</time></trkpt><trkpt lat="45.64642779064822" lon="10.064089886214605"><ele>568.0</ele><time>2026-03-22T15:51:31Z</time></trkpt><trkpt lat="45.646346547690555" lon="10.064040101271353"><ele>568.0</ele><time>2026-03-22T15:51:32Z</time></trkpt><trkpt lat="45.646278904628346" lon="10.063995880883265"><ele>568.0</ele><time>2026-03-22T15:51:33Z</time></trkpt><trkpt lat="45.64620796669133" lon="10.063879084224354"><ele>566.1666666666667</ele><time>2026-03-22T15:51:35Z</time></trkpt><trkpt lat="45.6461264855812" lon="10.063859453480587"><ele>564.3333333333334</ele><time>2026-03-22T15:51:36Z</time></trkpt><trkpt lat="45.6460471890971" lon="10.063863682479738"><ele>562.5</ele><time>2026-03-22T15:51:37Z</time></trkpt><trkpt lat="45.6459525531459" lon="10.06392373302437"><ele>560.6666666666666</ele><time>2026-03-22T15:51:38Z</time></trkpt><trkpt lat="45.6458904877548" lon="10.064035758708282"><ele>558.8333333333333</ele><time>2026-03-22T15:51:39Z</time></trkpt><trkpt lat="45.6458312168545" lon="10.064101372762106"><ele>557.0</ele><time>2026-03-22T15:51:40Z</time></trkpt><trkpt lat="45.64575980007273" lon="10.064019681404426"><ele>557.0</ele><time>2026-03-22T15:51:42Z</time></trkpt><trkpt lat="45.64569159252887" lon="10.063927077628"><ele>557.0</ele><time>2026-03-22T15:51:43Z</time></trkpt><trkpt lat="45.6456389235367" lon="10.063822353972654"><ele>557.0</ele><time>2026-03-22T15:51:44Z</time></trkpt><trkpt lat="45.64560881641642" lon="10.063716157457462"><ele>557.0</ele><time>2026-03-22T15:51:45Z</time></trkpt><trkpt lat="45.64557730907999" lon="10.063598562673969"><ele>557.0</ele><time>2026-03-22T15:51:46Z</time></trkpt><trkpt lat="45.64557674829941" lon="10.063478938594303"><ele>557.0</ele><time>2026-03-22T15:51:48Z</time></trkpt><trkpt lat="45.64560608521115" lon="10.063173673930793"><ele>558.75</ele><time>2026-03-22T15:51:57Z</time></trkpt><trkpt lat="45.64563520967548" lon="10.063075460691374"><ele>560.5</ele><time>2026-03-22T15:51:58Z</time></trkpt><trkpt lat="45.64569673928586" lon="10.062956348905965"><ele>562.25</ele><time>2026-03-22T15:52:00Z</time></trkpt><trkpt lat="45.64589325751719" lon="10.06292083790316"><ele>564.0</ele><time>2026-03-22T15:52:06Z</time></trkpt><trkpt lat="45.64598874385837" lon="10.06290555645596"><ele>564.0</ele><time>2026-03-22T15:52:08Z</time></trkpt><trkpt lat="45.6460502122222" lon="10.062869349020566"><ele>564.0</ele><time>2026-03-22T15:52:09Z</time></trkpt><trkpt lat="45.64614194396885" lon="10.062841078771703"><ele>564.0</ele><time>2026-03-22T15:52:10Z</time></trkpt><trkpt lat="45.64618937601697" lon="10.062762602744405"><ele>564.0</ele><time>2026-03-22T15:52:11Z</time></trkpt><trkpt lat="45.64623316037487" lon="10.062686314334952"><ele>564.0</ele><time>2026-03-22T15:52:12Z</time></trkpt><trkpt lat="45.64629629282514" lon="10.062672734247714"><ele>564.0</ele><time>2026-03-22T15:52:15Z</time></trkpt><trkpt lat="45.646223082857176" lon="10.062632990322424"><ele>564.0</ele><time>2026-03-22T15:52:27Z</time></trkpt><trkpt lat="45.646180658497975" lon="10.062706625325156"><ele>564.0</ele><time>2026-03-22T15:52:29Z</time></trkpt><trkpt lat="45.646096111171936" lon="10.06282736920041"><ele>564.0</ele><time>2026-03-22T15:52:33Z</time></trkpt><trkpt lat="45.64601532974456" lon="10.062794467174845"><ele>564.0</ele><time>2026-03-22T15:52:35Z</time></trkpt><trkpt lat="45.645951746837454" lon="10.06282153626248"><ele>564.0</ele><time>2026-03-22T15:52:37Z</time></trkpt><trkpt lat="45.64588090760526" lon="10.06280565957123"><ele>564.0</ele><time>2026-03-22T15:52:39Z</time></trkpt><trkpt lat="45.645791825720984" lon="10.06275702208956"><ele>564.0</ele><time>2026-03-22T15:52:41Z</time></trkpt><trkpt lat="45.645706483995255" lon="10.06274739248761"><ele>564.0</ele><time>2026-03-22T15:52:44Z</time></trkpt><trkpt lat="45.645656807354506" lon="10.06267504826091"><ele>564.0</ele><time>2026-03-22T15:52:45Z</time></trkpt><trkpt lat="45.64557599786813" lon="10.06261203276289"><ele>564.0</ele><time>2026-03-22T15:52:46Z</time></trkpt><trkpt lat="45.645483828859945" lon="10.062531659845826"><ele>564.0</ele><time>2026-03-22T15:52:47Z</time></trkpt><trkpt lat="45.64542125277391" lon="10.062425842406807"><ele>564.0</ele><time>2026-03-22T15:52:49Z</time></trkpt><trkpt lat="45.64528632186793" lon="10.06248929033108"><ele>560.6</ele><time>2026-03-22T15:52:51Z</time></trkpt><trkpt lat="45.645188901486904" lon="10.062614952915924"><ele>557.2</ele><time>2026-03-22T15:52:53Z</time></trkpt><trkpt lat="45.645111201387266" lon="10.062643064794962"><ele>553.8000000000001</ele><time>2026-03-22T15:52:54Z</time></trkpt><trkpt lat="45.64503612046844" lon="10.062635328168023"><ele>550.4</ele><time>2026-03-22T15:52:55Z</time></trkpt><trkpt lat="45.64493446147282" lon="10.062630445012916"><ele>547.0</ele><time>2026-03-22T15:52:57Z</time></trkpt><trkpt lat="45.64488059277817" lon="10.062571558093788"><ele>547.0</ele><time>2026-03-22T15:53:17Z</time></trkpt><trkpt lat="45.64485971438974" lon="10.06267569226336"><ele>547.0</ele><time>2026-03-22T15:53:26Z</time></trkpt><trkpt lat="45.64481247546977" lon="10.06275629680505"><ele>547.0</ele><time>2026-03-22T15:53:27Z</time></trkpt><trkpt lat="45.64475222550068" lon="10.062828225941278"><ele>547.0</ele><time>2026-03-22T15:53:28Z</time></trkpt><trkpt lat="45.64464555124084" lon="10.062895355411635"><ele>547.0</ele><time>2026-03-22T15:53:29Z</time></trkpt><trkpt lat="45.644523508703685" lon="10.063000730454709"><ele>548.2</ele><time>2026-03-22T15:53:30Z</time></trkpt><trkpt lat="45.64444805050176" lon="10.06308373230814"><ele>549.4000000000001</ele><time>2026-03-22T15:53:31Z</time></trkpt><trkpt lat="45.64437691168654" lon="10.063099974053976"><ele>550.5999999999999</ele><time>2026-03-22T15:53:32Z</time></trkpt><trkpt lat="45.64424178088738" lon="10.06315566798974"><ele>551.8</ele><time>2026-03-22T15:53:33Z</time></trkpt><trkpt lat="45.64414306703995" lon="10.063200964695827"><ele>553.0</ele><time>2026-03-22T15:53:34Z</time></trkpt><trkpt lat="45.644077947160305" lon="10.06322473051341"><ele>547.75</ele><time>2026-03-22T15:53:35Z</time></trkpt><trkpt lat="45.643995891584794" lon="10.06334312501632"><ele>542.5</ele><time>2026-03-22T15:53:37Z</time></trkpt><trkpt lat="45.64389259662687" lon="10.063393825922319"><ele>537.25</ele><time>2026-03-22T15:53:38Z</time></trkpt><trkpt lat="45.643830185212515" lon="10.06346327145626"><ele>532.0</ele><time>2026-03-22T15:53:39Z</time></trkpt><trkpt lat="45.64373474604875" lon="10.063729058947038"><ele>532.0</ele><time>2026-03-22T15:53:41Z</time></trkpt><trkpt lat="45.64366415788105" lon="10.063890789457057"><ele>532.0</ele><time>2026-03-22T15:53:42Z</time></trkpt><trkpt lat="45.6435954350985" lon="10.064017006556465"><ele>532.0</ele><time>2026-03-22T15:53:43Z</time></trkpt><trkpt lat="45.6434900885533" lon="10.064129120736093"><ele>532.0</ele><time>2026-03-22T15:53:44Z</time></trkpt><trkpt lat="45.643402072713016" lon="10.064208992890253"><ele>528.6666666666667</ele><time>2026-03-22T15:53:45Z</time></trkpt><trkpt lat="45.64332834575742" lon="10.064264974257032"><ele>525.3333333333334</ele><time>2026-03-22T15:53:46Z</time></trkpt><trkpt lat="45.6432535825848" lon="10.064369763412419"><ele>522.0</ele><time>2026-03-22T15:53:48Z</time></trkpt><trkpt lat="45.64317981407866" lon="10.064478753274583"><ele>518.6666666666666</ele><time>2026-03-22T15:53:50Z</time></trkpt><trkpt lat="45.643145633788734" lon="10.064557597392389"><ele>515.3333333333333</ele><time>2026-03-22T15:53:51Z</time></trkpt><trkpt lat="45.64309228640113" lon="10.06461209618607"><ele>512.0</ele><time>2026-03-22T15:53:52Z</time></trkpt><trkpt lat="45.643032636063005" lon="10.064669362410925"><ele>511.99999999999994</ele><time>2026-03-22T15:53:53Z</time></trkpt><trkpt lat="45.64296617489124" lon="10.064744116176568"><ele>512.0</ele><time>2026-03-22T15:53:54Z</time></trkpt><trkpt lat="45.642892929958414" lon="10.06483969277356"><ele>512.0</ele><time>2026-03-22T15:53:55Z</time></trkpt><trkpt lat="45.642846920285145" lon="10.064906352572352"><ele>512.0</ele><time>2026-03-22T15:53:56Z</time></trkpt><trkpt lat="45.64278936142316" lon="10.064954481180385"><ele>511.99999999999994</ele><time>2026-03-22T15:53:57Z</time></trkpt><trkpt lat="45.64271897105459" lon="10.065036301828618"><ele>512.0</ele><time>2026-03-22T15:53:58Z</time></trkpt><trkpt lat="45.64264845883708" lon="10.065197373130513"><ele>507.8</ele><time>2026-03-22T15:54:00Z</time></trkpt><trkpt lat="45.64261719853605" lon="10.065349259849192"><ele>503.6</ele><time>2026-03-22T15:54:02Z</time></trkpt><trkpt lat="45.642644473201486" lon="10.065467385742611"><ele>499.40000000000003</ele><time>2026-03-22T15:54:03Z</time></trkpt><trkpt lat="45.64267567463002" lon="10.06564451198069"><ele>495.20000000000005</ele><time>2026-03-22T15:54:04Z</time></trkpt><trkpt lat="45.64271368356676" lon="10.065776561683231"><ele>491.0</ele><time>2026-03-22T15:54:05Z</time></trkpt><trkpt lat="45.642769366404394" lon="10.065875753262974"><ele>488.6</ele><time>2026-03-22T15:54:06Z</time></trkpt><trkpt lat="45.64278844252647" lon="10.065987266623178"><ele>486.20000000000005</ele><time>2026-03-22T15:54:07Z</time></trkpt><trkpt lat="45.642803099456536" lon="10.066096021936067"><ele>483.79999999999995</ele><time>2026-03-22T15:54:08Z</time></trkpt><trkpt lat="45.64283706925321" lon="10.066243674653155"><ele>481.4</ele><time>2026-03-22T15:54:10Z</time></trkpt><trkpt lat="45.64287925706436" lon="10.06636133331778"><ele>479.0</ele><time>2026-03-22T15:54:12Z</time></trkpt><trkpt lat="45.642767205892156" lon="10.066526806652485"><ele>475.49999999999994</ele><time>2026-03-22T15:54:14Z</time></trkpt><trkpt lat="45.642726307801894" lon="10.06663827303649"><ele>472.0</ele><time>2026-03-22T15:54:15Z</time></trkpt><trkpt lat="45.64268515551187" lon="10.066725583589445"><ele>468.5</ele><time>2026-03-22T15:54:16Z</time></trkpt><trkpt lat="45.64267373310789" lon="10.066860880983555"><ele>465.0</ele><time>2026-03-22T15:54:18Z</time></trkpt><trkpt lat="45.6426100392055" lon="10.06695527042868"><ele>461.49999999999994</ele><time>2026-03-22T15:54:20Z</time></trkpt><trkpt lat="45.642523398757916" lon="10.066965032185223"><ele>458.0</ele><time>2026-03-22T15:54:21Z</time></trkpt><trkpt lat="45.64246011847247" lon="10.067008489542795"><ele>457.99999999999994</ele><time>2026-03-22T15:54:22Z</time></trkpt><trkpt lat="45.642381902148244" lon="10.066960977153162"><ele>458.0</ele><time>2026-03-22T15:54:24Z</time></trkpt><trkpt lat="45.64233238664274" lon="10.066862288975141"><ele>458.0</ele><time>2026-03-22T15:54:25Z</time></trkpt><trkpt lat="45.64229345449408" lon="10.06675448866258"><ele>458.0</ele><time>2026-03-22T15:54:26Z</time></trkpt><trkpt lat="45.64225631953544" lon="10.066672469935583"><ele>457.99999999999994</ele><time>2026-03-22T15:54:27Z</time></trkpt><trkpt lat="45.64221942896339" lon="10.066589954893754"><ele>458.0</ele><time>2026-03-22T15:54:28Z</time></trkpt><trkpt lat="45.6421902178836" lon="10.066502404375331"><ele>457.2</ele><time>2026-03-22T15:54:29Z</time></trkpt><trkpt lat="45.64207714972812" lon="10.066426687580094"><ele>456.4</ele><time>2026-03-22T15:54:31Z</time></trkpt><trkpt lat="45.64197126645713" lon="10.066419418478883"><ele>455.59999999999997</ele><time>2026-03-22T15:54:33Z</time></trkpt><trkpt lat="45.64193982011421" lon="10.06650397418076"><ele>454.79999999999995</ele><time>2026-03-22T15:54:34Z</time></trkpt><trkpt lat="45.641888995980366" lon="10.066601799764085"><ele>454.0</ele><time>2026-03-22T15:54:35Z</time></trkpt><trkpt lat="45.64177554514403" lon="10.06662796084572"><ele>454.00000000000006</ele><time>2026-03-22T15:54:37Z</time></trkpt><trkpt lat="45.641693639153516" lon="10.066620013256975"><ele>454.0</ele><time>2026-03-22T15:54:38Z</time></trkpt><trkpt lat="45.6416117423948" lon="10.066576458982404"><ele>454.0</ele><time>2026-03-22T15:54:39Z</time></trkpt><trkpt lat="45.641562641174175" lon="10.066501891617857"><ele>454.0</ele><time>2026-03-22T15:54:40Z</time></trkpt><trkpt lat="45.641507483671454" lon="10.066439467539649"><ele>454.00000000000006</ele><time>2026-03-22T15:54:41Z</time></trkpt><trkpt lat="45.64138308623276" lon="10.066461285188666"><ele>454.0</ele><time>2026-03-22T15:54:43Z</time></trkpt><trkpt lat="45.641313276015545" lon="10.066524678112224"><ele>448.79999999999995</ele><time>2026-03-22T15:54:44Z</time></trkpt><trkpt lat="45.64124622867958" lon="10.066621306048203"><ele>443.59999999999997</ele><time>2026-03-22T15:54:45Z</time></trkpt><trkpt lat="45.64119672189085" lon="10.066694794602856"><ele>438.4</ele><time>2026-03-22T15:54:46Z</time></trkpt><trkpt lat="45.64108465571718" lon="10.06666619228359"><ele>433.2</ele><time>2026-03-22T15:54:48Z</time></trkpt><trkpt lat="45.640994790993624" lon="10.066636822670006"><ele>428.0</ele><time>2026-03-22T15:54:49Z</time></trkpt><trkpt lat="45.640913663956795" lon="10.066623624097067"><ele>425.49999999999994</ele><time>2026-03-22T15:54:50Z</time></trkpt><trkpt lat="45.64083716097667" lon="10.066635820752936"><ele>423.0</ele><time>2026-03-22T15:54:51Z</time></trkpt><trkpt lat="45.64076485704459" lon="10.066665431175853"><ele>420.5</ele><time>2026-03-22T15:54:52Z</time></trkpt><trkpt lat="45.64068105599828" lon="10.066663490094799"><ele>418.0</ele><time>2026-03-22T15:54:53Z</time></trkpt><trkpt lat="45.64059222831505" lon="10.06672301454828"><ele>415.49999999999994</ele><time>2026-03-22T15:54:54Z</time></trkpt><trkpt lat="45.64049037173033" lon="10.066789785429917"><ele>413.0</ele><time>2026-03-22T15:54:55Z</time></trkpt><trkpt lat="45.640392867903344" lon="10.066825821569289"><ele>412.99999999999994</ele><time>2026-03-22T15:54:56Z</time></trkpt><trkpt lat="45.640316412691185" lon="10.066852942734757"><ele>413.0</ele><time>2026-03-22T15:54:57Z</time></trkpt><trkpt lat="45.6402329224595" lon="10.066863685726728"><ele>413.0</ele><time>2026-03-22T15:54:58Z</time></trkpt><trkpt lat="45.64014634330302" lon="10.066854542577106"><ele>413.0</ele><time>2026-03-22T15:54:59Z</time></trkpt><trkpt lat="45.64007668395765" lon="10.066865124059495"><ele>412.99999999999994</ele><time>2026-03-22T15:55:00Z</time></trkpt><trkpt lat="45.63995983605305" lon="10.066784294639561"><ele>413.0</ele><time>2026-03-22T15:55:01Z</time></trkpt><trkpt lat="45.63979489048272" lon="10.066675043130537"><ele>410.75</ele><time>2026-03-22T15:55:02Z</time></trkpt><trkpt lat="45.639632952766014" lon="10.066614824715424"><ele>408.5</ele><time>2026-03-22T15:55:03Z</time></trkpt><trkpt lat="45.63952714017112" lon="10.066568699558053"><ele>406.25</ele><time>2026-03-22T15:55:04Z</time></trkpt><trkpt lat="45.63944558137908" lon="10.066478673241805"><ele>404.0</ele><time>2026-03-22T15:55:06Z</time></trkpt><trkpt lat="45.639537350055" lon="10.066457188215798"><ele>404.0</ele><time>2026-03-22T15:55:26Z</time></trkpt><trkpt lat="45.63980430948512" lon="10.066516936866586"><ele>404.0</ele><time>2026-03-22T15:55:33Z</time></trkpt><trkpt lat="45.63991552061738" lon="10.066530597833443"><ele>404.0</ele><time>2026-03-22T15:55:35Z</time></trkpt><trkpt lat="45.640013131696676" lon="10.066492675415288"><ele>403.99999999999994</ele><time>2026-03-22T15:55:37Z</time></trkpt><trkpt lat="45.640115324379266" lon="10.066468577760393"><ele>404.0</ele><time>2026-03-22T15:55:39Z</time></trkpt><trkpt lat="45.64016334806868" lon="10.066375831020194"><ele>404.0</ele><time>2026-03-22T15:55:42Z</time></trkpt><trkpt lat="45.64016991271091" lon="10.066264875147844"><ele>404.0</ele><time>2026-03-22T15:55:44Z</time></trkpt><trkpt lat="45.640210476711594" lon="10.066172388736554"><ele>403.99999999999994</ele><time>2026-03-22T15:55:46Z</time></trkpt><trkpt lat="45.64029163241897" lon="10.066114868479737"><ele>404.0</ele><time>2026-03-22T15:55:47Z</time></trkpt><trkpt lat="45.64035062607995" lon="10.066075918489059"><ele>410.2</ele><time>2026-03-22T15:55:48Z</time></trkpt><trkpt lat="45.64045685938315" lon="10.066097250333362"><ele>416.4</ele><time>2026-03-22T15:55:50Z</time></trkpt><trkpt lat="45.6405553737584" lon="10.066092041746455"><ele>422.6</ele><time>2026-03-22T15:55:51Z</time></trkpt><trkpt lat="45.64066571359034" lon="10.066043238278192"><ele>428.8</ele><time>2026-03-22T15:55:53Z</time></trkpt><trkpt lat="45.64072233956279" lon="10.065903598701794"><ele>435.0</ele><time>2026-03-22T15:55:55Z</time></trkpt><trkpt lat="45.64079995010688" lon="10.065786645005465"><ele>432.5</ele><time>2026-03-22T15:55:57Z</time></trkpt><trkpt lat="45.64086186061397" lon="10.065706776539336"><ele>430.0</ele><time>2026-03-22T15:55:59Z</time></trkpt><trkpt lat="45.64092440000251" lon="10.065676253673528"><ele>427.5</ele><time>2026-03-22T15:56:00Z</time></trkpt><trkpt lat="45.64102912853589" lon="10.065663915877714"><ele>425.0</ele><time>2026-03-22T15:56:02Z</time></trkpt><trkpt lat="45.641130989381345" lon="10.06570316026274"><ele>422.5</ele><time>2026-03-22T15:56:04Z</time></trkpt><trkpt lat="45.64120428948447" lon="10.065718878350333"><ele>420.0</ele><time>2026-03-22T15:56:05Z</time></trkpt><trkpt lat="45.64131973093855" lon="10.065673522594336"><ele>427.4</ele><time>2026-03-22T15:56:07Z</time></trkpt><trkpt lat="45.64138813539352" lon="10.06560860104577"><ele>434.8</ele><time>2026-03-22T15:56:09Z</time></trkpt><trkpt lat="45.64142097204379" lon="10.065522966349244"><ele>442.20000000000005</ele><time>2026-03-22T15:56:13Z</time></trkpt><trkpt lat="45.641510032969585" lon="10.065532285406178"><ele>449.6</ele><time>2026-03-22T15:56:14Z</time></trkpt><trkpt lat="45.641590222942526" lon="10.065512355990881"><ele>457.0</ele><time>2026-03-22T15:56:16Z</time></trkpt><trkpt lat="45.6418420568755" lon="10.065424809951331"><ele>457.0</ele><time>2026-03-22T15:56:17Z</time></trkpt><trkpt lat="45.64195522537006" lon="10.06545712383083"><ele>457.00000000000006</ele><time>2026-03-22T15:56:19Z</time></trkpt><trkpt lat="45.64206470107804" lon="10.065374512457163"><ele>457.00000000000006</ele><time>2026-03-22T15:56:21Z</time></trkpt><trkpt lat="45.642114307104826" lon="10.065287600279046"><ele>457.0</ele><time>2026-03-22T15:56:22Z</time></trkpt><trkpt lat="45.64215203452572" lon="10.065205538463157"><ele>457.0</ele><time>2026-03-22T15:56:23Z</time></trkpt><trkpt lat="45.6422338419504" lon="10.065110359176618"><ele>463.8</ele><time>2026-03-22T15:56:25Z</time></trkpt><trkpt lat="45.642325885836236" lon="10.06509761492691"><ele>470.6</ele><time>2026-03-22T15:56:27Z</time></trkpt><trkpt lat="45.64243681262008" lon="10.065119634998508"><ele>477.40000000000003</ele><time>2026-03-22T15:56:29Z</time></trkpt><trkpt lat="45.64253266838322" lon="10.065139125420274"><ele>484.20000000000005</ele><time>2026-03-22T15:56:31Z</time></trkpt><trkpt lat="45.64263921287232" lon="10.065092856929837"><ele>491.0</ele><time>2026-03-22T15:56:33Z</time></trkpt><trkpt lat="45.64273339173002" lon="10.06496696025555"><ele>489.49999999999994</ele><time>2026-03-22T15:56:35Z</time></trkpt><trkpt lat="45.642767912373905" lon="10.064886519671552"><ele>488.0</ele><time>2026-03-22T15:56:36Z</time></trkpt><trkpt lat="45.64284987359952" lon="10.06478817060483"><ele>486.5</ele><time>2026-03-22T15:56:38Z</time></trkpt><trkpt lat="45.64289843195148" lon="10.064718701495663"><ele>485.0</ele><time>2026-03-22T15:56:39Z</time></trkpt><trkpt lat="45.642954074529634" lon="10.064638226354852"><ele>483.49999999999994</ele><time>2026-03-22T15:56:40Z</time></trkpt><trkpt lat="45.643020135982255" lon="10.06457431249024"><ele>482.0</ele><time>2026-03-22T15:56:41Z</time></trkpt><trkpt lat="45.64307678098416" lon="10.064484511943228"><ele>486.99999999999994</ele><time>2026-03-22T15:56:42Z</time></trkpt><trkpt lat="45.64308792512974" lon="10.064636656574523"><ele>492.0</ele><time>2026-03-22T15:57:01Z</time></trkpt><trkpt lat="45.64309969344106" lon="10.06474774615933"><ele>497.0</ele><time>2026-03-22T15:57:04Z</time></trkpt><trkpt lat="45.6431578832404" lon="10.06480774585643"><ele>502.0</ele><time>2026-03-22T15:57:10Z</time></trkpt><trkpt lat="45.64322412210089" lon="10.064807806650487"><ele>506.99999999999994</ele><time>2026-03-22T15:57:12Z</time></trkpt><trkpt lat="45.64331385781042" lon="10.064804977443776"><ele>512.0</ele><time>2026-03-22T15:57:15Z</time></trkpt><trkpt lat="45.64341444964386" lon="10.064793442500434"><ele>511.99999999999994</ele><time>2026-03-22T15:57:17Z</time></trkpt><trkpt lat="45.64350953152692" lon="10.064783126085981"><ele>512.0</ele><time>2026-03-22T15:57:19Z</time></trkpt><trkpt lat="45.643571995140746" lon="10.064873545019084"><ele>512.0</ele><time>2026-03-22T15:57:22Z</time></trkpt><trkpt lat="45.64351555320742" lon="10.064979778999986"><ele>512.0</ele><time>2026-03-22T15:57:24Z</time></trkpt><trkpt lat="45.643481612657254" lon="10.0650615566668"><ele>511.99999999999994</ele><time>2026-03-22T15:57:27Z</time></trkpt><trkpt lat="45.643473744120634" lon="10.06516216380357"><ele>512.0</ele><time>2026-03-22T15:57:30Z</time></trkpt><trkpt lat="45.64343342734197" lon="10.06523251882262"><ele>509.0</ele><time>2026-03-22T15:57:33Z</time></trkpt><trkpt lat="45.643449792575105" lon="10.065340744539977"><ele>506.00000000000006</ele><time>2026-03-22T15:57:37Z</time></trkpt><trkpt lat="45.64337532168492" lon="10.065489123539038"><ele>503.00000000000006</ele><time>2026-03-22T15:57:40Z</time></trkpt><trkpt lat="45.64332069016992" lon="10.065578479734256"><ele>500.0</ele><time>2026-03-22T15:57:43Z</time></trkpt><trkpt lat="45.6432997027911" lon="10.065758925285008"><ele>497.0</ele><time>2026-03-22T15:57:45Z</time></trkpt><trkpt lat="45.64330990638296" lon="10.065865986635611"><ele>493.40000000000003</ele><time>2026-03-22T15:57:46Z</time></trkpt><trkpt lat="45.64334213217414" lon="10.066032269318654"><ele>489.80000000000007</ele><time>2026-03-22T15:57:48Z</time></trkpt><trkpt lat="45.643359489494834" lon="10.066174574754065"><ele>486.2</ele><time>2026-03-22T15:57:50Z</time></trkpt><trkpt lat="45.64341237130013" lon="10.0662282801664"><ele>482.6</ele><time>2026-03-22T15:57:51Z</time></trkpt><trkpt lat="45.64344722138648" lon="10.066356599108817"><ele>479.0</ele><time>2026-03-22T15:57:53Z</time></trkpt><trkpt lat="45.643469364900945" lon="10.066486334864084"><ele>474.0</ele><time>2026-03-22T15:57:56Z</time></trkpt><trkpt lat="45.643422656148545" lon="10.066671818169608"><ele>469.0</ele><time>2026-03-22T15:57:58Z</time></trkpt><trkpt lat="45.643295777185564" lon="10.066771144543695"><ele>464.0</ele><time>2026-03-22T15:58:00Z</time></trkpt><trkpt lat="45.64325520530368" lon="10.066890021667374"><ele>459.0</ele><time>2026-03-22T15:58:02Z</time></trkpt><trkpt lat="45.64321507973938" lon="10.066996536570148"><ele>459.0</ele><time>2026-03-22T15:58:04Z</time></trkpt><trkpt lat="45.64327948809907" lon="10.066799927890857"><ele>459.0</ele><time>2026-03-22T15:58:15Z</time></trkpt><trkpt lat="45.64335972846621" lon="10.066703663773094"><ele>459.0</ele><time>2026-03-22T15:58:17Z</time></trkpt><trkpt lat="45.64332655616461" lon="10.066581759963462"><ele>459.0</ele><time>2026-03-22T15:58:23Z</time></trkpt><trkpt lat="45.64330471693751" lon="10.066496845932217"><ele>459.0</ele><time>2026-03-22T15:58:26Z</time></trkpt><trkpt lat="45.643276734142376" lon="10.06636429919977"><ele>462.3333333333333</ele><time>2026-03-22T15:58:28Z</time></trkpt><trkpt lat="45.64328552972098" lon="10.066247884641719"><ele>465.66666666666663</ele><time>2026-03-22T15:58:29Z</time></trkpt><trkpt lat="45.643281204839035" lon="10.066153830414304"><ele>469.0</ele><time>2026-03-22T15:58:30Z</time></trkpt><trkpt lat="45.64331931846508" lon="10.066002871599288"><ele>472.3333333333333</ele><time>2026-03-22T15:58:32Z</time></trkpt><trkpt lat="45.643367730125725" lon="10.065919608057943"><ele>475.66666666666663</ele><time>2026-03-22T15:58:33Z</time></trkpt><trkpt lat="45.64340093111812" lon="10.065823341149208"><ele>479.0</ele><time>2026-03-22T15:58:34Z</time></trkpt><trkpt lat="45.64340271471603" lon="10.06569968191679"><ele>481.99999999999994</ele><time>2026-03-22T15:58:35Z</time></trkpt><trkpt lat="45.643435846968266" lon="10.06559061204441"><ele>485.0</ele><time>2026-03-22T15:58:37Z</time></trkpt><trkpt lat="45.64343608563871" lon="10.065468278166714"><ele>488.0</ele><time>2026-03-22T15:58:39Z</time></trkpt><trkpt lat="45.64345271787549" lon="10.06535585764111"><ele>491.0</ele><time>2026-03-22T15:58:41Z</time></trkpt><trkpt lat="45.64345468627743" lon="10.065231542505906"><ele>493.99999999999994</ele><time>2026-03-22T15:58:44Z</time></trkpt><trkpt lat="45.64349538239228" lon="10.06509387788977"><ele>497.0</ele><time>2026-03-22T15:58:46Z</time></trkpt><trkpt lat="45.64354887909515" lon="10.06496083173864"><ele>499.49999999999994</ele><time>2026-03-22T15:58:48Z</time></trkpt><trkpt lat="45.643571225040624" lon="10.064817072680569"><ele>502.0</ele><time>2026-03-22T15:58:50Z</time></trkpt><trkpt lat="45.64352349879836" lon="10.064728825407318"><ele>504.5</ele><time>2026-03-22T15:58:52Z</time></trkpt><trkpt lat="45.64345562603931" lon="10.064747335528725"><ele>507.0</ele><time>2026-03-22T15:58:55Z</time></trkpt><trkpt lat="45.64339271733873" lon="10.06477419960109"><ele>509.49999999999994</ele><time>2026-03-22T15:58:56Z</time></trkpt><trkpt lat="45.643330848613985" lon="10.064803328153516"><ele>512.0</ele><time>2026-03-22T15:58:57Z</time></trkpt><trkpt lat="45.64321437080574" lon="10.064824926181004"><ele>512.0</ele><time>2026-03-22T15:58:59Z</time></trkpt><trkpt lat="45.64312678200062" lon="10.064798772356895"><ele>512.0</ele><time>2026-03-22T15:59:01Z</time></trkpt><trkpt lat="45.64311875674992" lon="10.064658316674597"><ele>512.0</ele><time>2026-03-22T15:59:03Z</time></trkpt><trkpt lat="45.64313948469633" lon="10.064520464782264"><ele>512.0</ele><time>2026-03-22T15:59:05Z</time></trkpt><trkpt lat="45.64321721090701" lon="10.064405891596062"><ele>512.0</ele><time>2026-03-22T15:59:07Z</time></trkpt><trkpt lat="45.64326957259084" lon="10.064275890439642"><ele>511.99999999999994</ele><time>2026-03-22T15:59:09Z</time></trkpt><trkpt lat="45.643308126836224" lon="10.064171323581768"><ele>512.0</ele><time>2026-03-22T15:59:11Z</time></trkpt><trkpt lat="45.64339133215337" lon="10.064127366168917"><ele>512.0</ele><time>2026-03-22T15:59:13Z</time></trkpt><trkpt lat="45.64348508102817" lon="10.064052866242658"><ele>512.0</ele><time>2026-03-22T15:59:15Z</time></trkpt><trkpt lat="45.64353033504363" lon="10.063988352706625"><ele>511.99999999999994</ele><time>2026-03-22T15:59:16Z</time></trkpt><trkpt lat="45.64358535550934" lon="10.063909529361231"><ele>512.0</ele><time>2026-03-22T15:59:17Z</time></trkpt><trkpt lat="45.64364140793928" lon="10.0638306812428"><ele>511.99999999999994</ele><time>2026-03-22T15:59:18Z</time></trkpt><trkpt lat="45.64369939228376" lon="10.063774282214478"><ele>512.0</ele><time>2026-03-22T15:59:19Z</time></trkpt><trkpt lat="45.64363983768333" lon="10.063833319302809"><ele>512.0</ele><time>2026-03-22T15:59:23Z</time></trkpt><trkpt lat="45.64358899370031" lon="10.06393803451282"><ele>512.0</ele><time>2026-03-22T15:59:24Z</time></trkpt><trkpt lat="45.64351796771116" lon="10.064028652916264"><ele>511.99999999999994</ele><time>2026-03-22T15:59:26Z</time></trkpt><trkpt lat="45.64345650244202" lon="10.064075132962454"><ele>512.0</ele><time>2026-03-22T15:59:28Z</time></trkpt><trkpt lat="45.64339547382798" lon="10.0641484149425"><ele>511.99999999999994</ele><time>2026-03-22T15:59:30Z</time></trkpt><trkpt lat="45.64335297947978" lon="10.064217889167784"><ele>512.0</ele><time>2026-03-22T15:59:32Z</time></trkpt><trkpt lat="45.64329695520677" lon="10.064292140793263"><ele>512.0</ele><time>2026-03-22T15:59:35Z</time></trkpt><trkpt lat="45.64334263845375" lon="10.06416563461224"><ele>512.0</ele><time>2026-03-22T15:59:41Z</time></trkpt><trkpt lat="45.643424462272534" lon="10.064117473271507"><ele>511.99999999999994</ele><time>2026-03-22T15:59:43Z</time></trkpt><trkpt lat="45.64349915077937" lon="10.06405812891981"><ele>512.0</ele><time>2026-03-22T15:59:45Z</time></trkpt><trkpt lat="45.64356299342171" lon="10.063959664449122"><ele>514.1666666666666</ele><time>2026-03-22T15:59:47Z</time></trkpt><trkpt lat="45.64356012322534" lon="10.063851467309474"><ele>516.3333333333333</ele><time>2026-03-22T15:59:58Z</time></trkpt><trkpt lat="45.64357845037478" lon="10.063696565260166"><ele>518.5</ele><time>2026-03-22T16:00:01Z</time></trkpt><trkpt lat="45.643601555995126" lon="10.06356900972368"><ele>520.6666666666666</ele><time>2026-03-22T16:00:05Z</time></trkpt><trkpt lat="45.643608932124835" lon="10.063457889995753"><ele>522.8333333333334</ele><time>2026-03-22T16:00:06Z</time></trkpt><trkpt lat="45.64355842537089" lon="10.063365596263502"><ele>525.0</ele><time>2026-03-22T16:00:09Z</time></trkpt><trkpt lat="45.643513324460045" lon="10.063243735507738"><ele>529.4</ele><time>2026-03-22T16:00:12Z</time></trkpt><trkpt lat="45.643592000483075" lon="10.063152457405996"><ele>533.8</ele><time>2026-03-22T16:00:14Z</time></trkpt><trkpt lat="45.6436670932252" lon="10.063020872294569"><ele>538.2</ele><time>2026-03-22T16:00:16Z</time></trkpt><trkpt lat="45.64369977799272" lon="10.062924222656791"><ele>542.6</ele><time>2026-03-22T16:00:17Z</time></trkpt><trkpt lat="45.64373795946269" lon="10.062834965216512"><ele>547.0</ele><time>2026-03-22T16:00:18Z</time></trkpt><trkpt lat="45.6437562616919" lon="10.06268611256848"><ele>548.2</ele><time>2026-03-22T16:00:20Z</time></trkpt><trkpt lat="45.643786501181836" lon="10.062521289003184"><ele>549.4000000000001</ele><time>2026-03-22T16:00:22Z</time></trkpt><trkpt lat="45.64381089769552" lon="10.062360687804404"><ele>550.5999999999999</ele><time>2026-03-22T16:00:24Z</time></trkpt><trkpt lat="45.64381873580033" lon="10.062249641425286"><ele>551.8</ele><time>2026-03-22T16:00:26Z</time></trkpt><trkpt lat="45.64388066439926" lon="10.062231221161445"><ele>553.0</ele><time>2026-03-22T16:00:28Z</time></trkpt><trkpt lat="45.643957452348175" lon="10.062114693563869"><ele>556.8</ele><time>2026-03-22T16:00:31Z</time></trkpt><trkpt lat="45.64401814508373" lon="10.062070672812254"><ele>560.5999999999999</ele><time>2026-03-22T16:00:32Z</time></trkpt><trkpt lat="45.64412753576826" lon="10.062023379391052"><ele>564.4000000000001</ele><time>2026-03-22T16:00:34Z</time></trkpt><trkpt lat="45.644165154158856" lon="10.061896917468273"><ele>568.2</ele><time>2026-03-22T16:00:36Z</time></trkpt><trkpt lat="45.644196913832374" lon="10.061776520873785"><ele>572.0</ele><time>2026-03-22T16:00:39Z</time></trkpt><trkpt lat="45.644336238464234" lon="10.061675616797094"><ele>575.0</ele><time>2026-03-22T16:00:42Z</time></trkpt><trkpt lat="45.64440887578441" lon="10.06158179207556"><ele>578.0</ele><time>2026-03-22T16:00:46Z</time></trkpt><trkpt lat="45.64447279018478" lon="10.061537373339844"><ele>581.0</ele><time>2026-03-22T16:00:48Z</time></trkpt><trkpt lat="45.64453282419259" lon="10.0614727451032"><ele>584.0</ele><time>2026-03-22T16:00:49Z</time></trkpt><trkpt lat="45.64457354947619" lon="10.061403190129678"><ele>587.0</ele><time>2026-03-22T16:00:50Z</time></trkpt><trkpt lat="45.644614697907166" lon="10.061314430022378"><ele>590.0</ele><time>2026-03-22T16:00:51Z</time></trkpt><trkpt lat="45.644686127627224" lon="10.061247543580105"><ele>590.0</ele><time>2026-03-22T16:00:52Z</time></trkpt><trkpt lat="45.64475375294865" lon="10.061197555321707"><ele>590.0</ele><time>2026-03-22T16:00:53Z</time></trkpt><trkpt lat="45.64486501984035" lon="10.061081561675316"><ele>590.0</ele><time>2026-03-22T16:00:55Z</time></trkpt><trkpt lat="45.64488276933697" lon="10.060961217956654"><ele>590.0</ele><time>2026-03-22T16:00:56Z</time></trkpt><trkpt lat="45.64492373342458" lon="10.060818811393805"><ele>590.0</ele><time>2026-03-22T16:00:58Z</time></trkpt><trkpt lat="45.644961825760774" lon="10.060732640104886"><ele>594.8</ele><time>2026-03-22T16:00:59Z</time></trkpt><trkpt lat="45.64507499591389" lon="10.060691735982225"><ele>599.6</ele><time>2026-03-22T16:01:01Z</time></trkpt><trkpt lat="45.645134491895156" lon="10.060733691091949"><ele>604.4</ele><time>2026-03-22T16:01:14Z</time></trkpt><trkpt lat="45.645221619455455" lon="10.060713424635237"><ele>609.2</ele><time>2026-03-22T16:01:16Z</time></trkpt><trkpt lat="45.64529299001413" lon="10.060642157500896"><ele>614.0</ele><time>2026-03-22T16:01:18Z</time></trkpt><trkpt lat="45.64538731097993" lon="10.060601664528827"><ele>614.0</ele><time>2026-03-22T16:01:20Z</time></trkpt><trkpt lat="45.645450679634735" lon="10.060730071537657"><ele>614.0</ele><time>2026-03-22T16:01:22Z</time></trkpt><trkpt lat="45.6454679527795" lon="10.060935856197272"><ele>614.0</ele><time>2026-03-22T16:01:24Z</time></trkpt><trkpt lat="45.64549273861597" lon="10.061101721167834"><ele>614.0</ele><time>2026-03-22T16:01:26Z</time></trkpt><trkpt lat="45.64543099856765" lon="10.061259207122086"><ele>611.2</ele><time>2026-03-22T16:01:28Z</time></trkpt><trkpt lat="45.645433082414236" lon="10.061356364405139"><ele>608.4</ele><time>2026-03-22T16:01:29Z</time></trkpt><trkpt lat="45.645408783768445" lon="10.061510165781034"><ele>605.6</ele><time>2026-03-22T16:01:31Z</time></trkpt><trkpt lat="45.64539099289032" lon="10.06168598657899"><ele>602.8</ele><time>2026-03-22T16:01:33Z</time></trkpt><trkpt lat="45.64538724241626" lon="10.061844775680235"><ele>600.0</ele><time>2026-03-22T16:01:35Z</time></trkpt><trkpt lat="45.645306805129096" lon="10.061977234383214"><ele>594.1666666666666</ele><time>2026-03-22T16:01:37Z</time></trkpt><trkpt lat="45.645233447720166" lon="10.062052433438733"><ele>588.3333333333334</ele><time>2026-03-22T16:01:39Z</time></trkpt><trkpt lat="45.64517883794114" lon="10.062116924097037"><ele>582.5</ele><time>2026-03-22T16:01:40Z</time></trkpt><trkpt lat="45.64511620877888" lon="10.062226170331078"><ele>576.6666666666667</ele><time>2026-03-22T16:01:42Z</time></trkpt><trkpt lat="45.64506871292789" lon="10.062300860358052"><ele>570.8333333333334</ele><time>2026-03-22T16:01:44Z</time></trkpt><trkpt lat="45.64501513175188" lon="10.062240160455099"><ele>565.0</ele><time>2026-03-22T16:01:51Z</time></trkpt><trkpt lat="45.64502202885881" lon="10.062128856078564"><ele>565.0</ele><time>2026-03-22T16:02:04Z</time></trkpt><trkpt lat="45.64499743082155" lon="10.062011359847373"><ele>565.0</ele><time>2026-03-22T16:02:06Z</time></trkpt><trkpt lat="45.64493426714236" lon="10.061936755079083"><ele>565.0</ele><time>2026-03-22T16:02:08Z</time></trkpt><trkpt lat="45.64489213619576" lon="10.061849348012975"><ele>565.0</ele><time>2026-03-22T16:02:11Z</time></trkpt><trkpt lat="45.64493499332378" lon="10.061997029320748"><ele>565.0</ele><time>2026-03-22T16:02:55Z</time></trkpt><trkpt lat="45.6449870306449" lon="10.062104874992167"><ele>565.0</ele><time>2026-03-22T16:02:57Z</time></trkpt><trkpt lat="45.645003618980276" lon="10.06222411417594"><ele>565.0</ele><time>2026-03-22T16:02:59Z</time></trkpt><trkpt lat="45.644946045560516" lon="10.062331767514072"><ele>565.0</ele><time>2026-03-22T16:03:02Z</time></trkpt><trkpt lat="45.64487382404802" lon="10.062431119213278"><ele>565.0</ele><time>2026-03-22T16:03:06Z</time></trkpt><trkpt lat="45.6448670524087" lon="10.062534674986969"><ele>565.0</ele><time>2026-03-22T16:03:08Z</time></trkpt><trkpt lat="45.64497739340899" lon="10.062575798737491"><ele>565.0</ele><time>2026-03-22T16:03:11Z</time></trkpt><trkpt lat="45.645040599199206" lon="10.062594717540595"><ele>565.0</ele><time>2026-03-22T16:03:12Z</time></trkpt><trkpt lat="45.64515031135725" lon="10.06257103363999"><ele>564.8</ele><time>2026-03-22T16:03:14Z</time></trkpt><trkpt lat="45.64522899652653" lon="10.06245583789511"><ele>564.6</ele><time>2026-03-22T16:03:16Z</time></trkpt><trkpt lat="45.645321229154135" lon="10.062502708397886"><ele>564.4</ele><time>2026-03-22T16:03:18Z</time></trkpt><trkpt lat="45.64536354171078" lon="10.062595180145461"><ele>564.2</ele><time>2026-03-22T16:03:19Z</time></trkpt><trkpt lat="45.645445559740416" lon="10.062740527165872"><ele>564.0</ele><time>2026-03-22T16:03:21Z</time></trkpt><trkpt lat="45.64554982083506" lon="10.062813464546624"><ele>564.0</ele><time>2026-03-22T16:03:22Z</time></trkpt><trkpt lat="45.64564060284968" lon="10.06288105023984"><ele>564.0</ele><time>2026-03-22T16:03:23Z</time></trkpt><trkpt lat="45.645654184405515" lon="10.062989823924685"><ele>564.0</ele><time>2026-03-22T16:03:25Z</time></trkpt><trkpt lat="45.64561911248354" lon="10.063086284051057"><ele>564.0</ele><time>2026-03-22T16:03:26Z</time></trkpt><trkpt lat="45.64555479197187" lon="10.063197265210624"><ele>564.0</ele><time>2026-03-22T16:03:27Z</time></trkpt><trkpt lat="45.645494740255955" lon="10.063282550265198"><ele>564.0</ele><time>2026-03-22T16:03:28Z</time></trkpt><trkpt lat="45.64555213457348" lon="10.06356677590988"><ele>562.8333333333334</ele><time>2026-03-22T16:03:35Z</time></trkpt><trkpt lat="45.64560748633012" lon="10.06373796223441"><ele>561.6666666666666</ele><time>2026-03-22T16:03:37Z</time></trkpt><trkpt lat="45.645635047235125" lon="10.063834352379759"><ele>560.5</ele><time>2026-03-22T16:03:38Z</time></trkpt><trkpt lat="45.64567664192487" lon="10.063915239741608"><ele>559.3333333333333</ele><time>2026-03-22T16:03:39Z</time></trkpt><trkpt lat="45.64574010821205" lon="10.064012392284901"><ele>558.1666666666666</ele><time>2026-03-22T16:03:40Z</time></trkpt><trkpt lat="45.64581169479594" lon="10.064051467209644"><ele>557.0</ele><time>2026-03-22T16:03:41Z</time></trkpt><trkpt lat="45.645877295109635" lon="10.064028372771201"><ele>557.0</ele><time>2026-03-22T16:03:42Z</time></trkpt><trkpt lat="45.64595735435845" lon="10.063943097458983"><ele>557.0</ele><time>2026-03-22T16:03:43Z</time></trkpt><trkpt lat="45.64606260377155" lon="10.063838675789839"><ele>557.0</ele><time>2026-03-22T16:03:44Z</time></trkpt><trkpt lat="45.64614827299673" lon="10.063809667019864"><ele>557.0</ele><time>2026-03-22T16:03:45Z</time></trkpt><trkpt lat="45.64622216800572" lon="10.06380508817438"><ele>557.0</ele><time>2026-03-22T16:03:46Z</time></trkpt><trkpt lat="45.64632651131638" lon="10.06395688735784"><ele>559.2</ele><time>2026-03-22T16:03:48Z</time></trkpt><trkpt lat="45.646446008270026" lon="10.064091968627045"><ele>561.4000000000001</ele><time>2026-03-22T16:03:50Z</time></trkpt><trkpt lat="45.646513985954485" lon="10.06415029798794"><ele>563.5999999999999</ele><time>2026-03-22T16:03:51Z</time></trkpt><trkpt lat="45.64655072192925" lon="10.064294707640125"><ele>565.8</ele><time>2026-03-22T16:03:53Z</time></trkpt><trkpt lat="45.646567640634785" lon="10.064384941451063"><ele>568.0</ele><time>2026-03-22T16:03:54Z</time></trkpt><trkpt lat="45.64659567071778" lon="10.06448302908595"><ele>568.0</ele><time>2026-03-22T16:03:56Z</time></trkpt><trkpt lat="45.64654356056999" lon="10.06433909231728"><ele>568.0</ele><time>2026-03-22T16:04:00Z</time></trkpt><trkpt lat="45.64651398623817" lon="10.064241571986688"><ele>568.0</ele><time>2026-03-22T16:04:01Z</time></trkpt><trkpt lat="45.646495282893014" lon="10.064144853507194"><ele>568.0</ele><time>2026-03-22T16:04:02Z</time></trkpt><trkpt lat="45.6465071398269" lon="10.064241302391196"><ele>568.0</ele><time>2026-03-22T16:04:06Z</time></trkpt><trkpt lat="45.646535249187664" lon="10.064355696456577"><ele>568.0</ele><time>2026-03-22T16:04:08Z</time></trkpt><trkpt lat="45.64657252851496" lon="10.064455863475155"><ele>568.0</ele><time>2026-03-22T16:04:10Z</time></trkpt><trkpt lat="45.64664166256337" lon="10.064487569961557"><ele>568.0</ele><time>2026-03-22T16:04:12Z</time></trkpt><trkpt lat="45.64669704138095" lon="10.064579950380809"><ele>568.0</ele><time>2026-03-22T16:04:14Z</time></trkpt><trkpt lat="45.64673245733051" lon="10.064711915011872"><ele>568.0</ele><time>2026-03-22T16:04:16Z</time></trkpt><trkpt lat="45.646784949722694" lon="10.064768985691073"><ele>568.0</ele><time>2026-03-22T16:04:17Z</time></trkpt><trkpt lat="45.646801289669746" lon="10.06487500926566"><ele>568.0</ele><time>2026-03-22T16:04:19Z</time></trkpt><trkpt lat="45.646840624223735" lon="10.064972146625447"><ele>569.1999999999999</ele><time>2026-03-22T16:04:22Z</time></trkpt><trkpt lat="45.64688071639239" lon="10.065060949071816"><ele>570.4</ele><time>2026-03-22T16:04:24Z</time></trkpt><trkpt lat="45.64696062713187" lon="10.0651626470398"><ele>571.5999999999999</ele><time>2026-03-22T16:04:26Z</time></trkpt><trkpt lat="45.647011769138025" lon="10.06523979624444"><ele>572.8</ele><time>2026-03-22T16:04:27Z</time></trkpt><trkpt lat="45.64712140844933" lon="10.065323872769305"><ele>574.0</ele><time>2026-03-22T16:04:29Z</time></trkpt><trkpt lat="45.647196489558816" lon="10.065366720849495"><ele>574.0</ele><time>2026-03-22T16:04:30Z</time></trkpt><trkpt lat="45.64732049074311" lon="10.065428163275067"><ele>574.0</ele><time>2026-03-22T16:04:31Z</time></trkpt><trkpt lat="45.647398052347036" lon="10.065470302210922"><ele>574.0</ele><time>2026-03-22T16:04:32Z</time></trkpt><trkpt lat="45.64746289414279" lon="10.065499056095684"><ele>574.0</ele><time>2026-03-22T16:04:34Z</time></trkpt><trkpt lat="45.64746473869381" lon="10.065397162054314"><ele>574.0</ele><time>2026-03-22T16:04:40Z</time></trkpt><trkpt lat="45.64743309473475" lon="10.065288775313826"><ele>574.0</ele><time>2026-03-22T16:04:42Z</time></trkpt><trkpt lat="45.64737606166761" lon="10.06524378559158"><ele>574.0</ele><time>2026-03-22T16:04:45Z</time></trkpt><trkpt lat="45.64732616726268" lon="10.06516621356476"><ele>574.0</ele><time>2026-03-22T16:04:47Z</time></trkpt><trkpt lat="45.64726346942314" lon="10.06510510741222"><ele>574.0</ele><time>2026-03-22T16:04:50Z</time></trkpt><trkpt lat="45.64721305384216" lon="10.065044516794202"><ele>574.0</ele><time>2026-03-22T16:04:52Z</time></trkpt><trkpt lat="45.64716905728186" lon="10.064974149839113"><ele>574.0</ele><time>2026-03-22T16:05:11Z</time></trkpt><trkpt lat="45.647189670326824" lon="10.064844797472714"><ele>574.0</ele><time>2026-03-22T16:05:13Z</time></trkpt><trkpt lat="45.64714841669945" lon="10.06477597799421"><ele>574.0</ele><time>2026-03-22T16:05:16Z</time></trkpt><trkpt lat="45.64707974181505" lon="10.06464711372993"><ele>577.0</ele><time>2026-03-22T16:05:20Z</time></trkpt><trkpt lat="45.64707413826275" lon="10.064552282400802"><ele>580.0</ele><time>2026-03-22T16:05:23Z</time></trkpt><trkpt lat="45.647090276220496" lon="10.064394100749563"><ele>583.0</ele><time>2026-03-22T16:05:25Z</time></trkpt><trkpt lat="45.64704282999924" lon="10.064209239550014"><ele>586.0</ele><time>2026-03-22T16:05:27Z</time></trkpt><trkpt lat="45.647041437718535" lon="10.064078595680593"><ele>589.0</ele><time>2026-03-22T16:05:28Z</time></trkpt><trkpt lat="45.64703076987908" lon="10.063943094621006"><ele>591.4</ele><time>2026-03-22T16:05:29Z</time></trkpt><trkpt lat="45.64701780892604" lon="10.063810844815576"><ele>593.8</ele><time>2026-03-22T16:05:30Z</time></trkpt><trkpt lat="45.64702937674578" lon="10.063648298639873"><ele>596.2</ele><time>2026-03-22T16:05:32Z</time></trkpt><trkpt lat="45.64705026106572" lon="10.063518038624402"><ele>598.6</ele><time>2026-03-22T16:05:34Z</time></trkpt><trkpt lat="45.647130027623184" lon="10.063383235107931"><ele>601.0</ele><time>2026-03-22T16:05:36Z</time></trkpt><trkpt lat="45.64719269396326" lon="10.063296472571992"><ele>603.5</ele><time>2026-03-22T16:05:37Z</time></trkpt><trkpt lat="45.6472451580805" lon="10.063196249012844"><ele>606.0</ele><time>2026-03-22T16:05:38Z</time></trkpt><trkpt lat="45.647287421752615" lon="10.063110969453508"><ele>608.5</ele><time>2026-03-22T16:05:39Z</time></trkpt><trkpt lat="45.64733039176512" lon="10.063031200002847"><ele>611.0</ele><time>2026-03-22T16:05:40Z</time></trkpt><trkpt lat="45.647365208868884" lon="10.062943809506827"><ele>613.5</ele><time>2026-03-22T16:05:42Z</time></trkpt><trkpt lat="45.6474217305258" lon="10.063003331082161"><ele>616.0</ele><time>2026-03-22T16:05:44Z</time></trkpt><trkpt lat="45.647441030833235" lon="10.06315037309912"><ele>613.5</ele><time>2026-03-22T16:05:45Z</time></trkpt><trkpt lat="45.64745656669482" lon="10.063307234302489"><ele>611.0</ele><time>2026-03-22T16:05:46Z</time></trkpt><trkpt lat="45.64747872747699" lon="10.063423707014053"><ele>608.5</ele><time>2026-03-22T16:05:47Z</time></trkpt><trkpt lat="45.647508547782984" lon="10.06352055522137"><ele>606.0</ele><time>2026-03-22T16:05:48Z</time></trkpt><trkpt lat="45.647550755717475" lon="10.063590102208538"><ele>603.5</ele><time>2026-03-22T16:05:49Z</time></trkpt><trkpt lat="45.64760241839525" lon="10.063641576615534"><ele>601.0</ele><time>2026-03-22T16:05:50Z</time></trkpt><trkpt lat="45.6477426340463" lon="10.063645900761772"><ele>601.25</ele><time>2026-03-22T16:05:52Z</time></trkpt><trkpt lat="45.64785766147435" lon="10.063602040248908"><ele>601.5</ele><time>2026-03-22T16:05:53Z</time></trkpt><trkpt lat="45.64797673116274" lon="10.063583821817746"><ele>601.75</ele><time>2026-03-22T16:05:54Z</time></trkpt><trkpt lat="45.64809550793956" lon="10.063623317067842"><ele>602.0</ele><time>2026-03-22T16:05:55Z</time></trkpt><trkpt lat="45.64821144491218" lon="10.06368862217439"><ele>602.0</ele><time>2026-03-22T16:05:56Z</time></trkpt><trkpt lat="45.64828231679343" lon="10.06368394874568"><ele>602.0</ele><time>2026-03-22T16:05:57Z</time></trkpt><trkpt lat="45.648379567309775" lon="10.063634107522951"><ele>602.0</ele><time>2026-03-22T16:05:58Z</time></trkpt><trkpt lat="45.64849613157388" lon="10.063542691942251"><ele>602.0</ele><time>2026-03-22T16:05:59Z</time></trkpt><trkpt lat="45.6485905542103" lon="10.063517008661757"><ele>602.0</ele><time>2026-03-22T16:06:00Z</time></trkpt><trkpt lat="45.648707091371755" lon="10.063628460810948"><ele>600.6</ele><time>2026-03-22T16:06:02Z</time></trkpt><trkpt lat="45.64878554843908" lon="10.06375102811444"><ele>599.2</ele><time>2026-03-22T16:06:03Z</time></trkpt><trkpt lat="45.64887385998377" lon="10.063853982503536"><ele>597.8</ele><time>2026-03-22T16:06:04Z</time></trkpt><trkpt lat="45.64893128583087" lon="10.063958567724834"><ele>596.4</ele><time>2026-03-22T16:06:05Z</time></trkpt><trkpt lat="45.648977890693445" lon="10.064092183214298"><ele>595.0</ele><time>2026-03-22T16:06:06Z</time></trkpt><trkpt lat="45.64902575058463" lon="10.06431022875721"><ele>595.0</ele><time>2026-03-22T16:06:07Z</time></trkpt><trkpt lat="45.64905184228521" lon="10.064592115297824"><ele>595.0</ele><time>2026-03-22T16:06:08Z</time></trkpt><trkpt lat="45.64909195692689" lon="10.064885986786944"><ele>595.0</ele><time>2026-03-22T16:06:09Z</time></trkpt><trkpt lat="45.64913414075177" lon="10.065095918505513"><ele>595.0</ele><time>2026-03-22T16:06:10Z</time></trkpt><trkpt lat="45.64917905991102" lon="10.06527037092393"><ele>595.0</ele><time>2026-03-22T16:06:11Z</time></trkpt><trkpt lat="45.649215275186975" lon="10.065440166905862"><ele>595.0</ele><time>2026-03-22T16:06:12Z</time></trkpt><trkpt lat="45.649237487708504" lon="10.06558962014424"><ele>595.0</ele><time>2026-03-22T16:06:13Z</time></trkpt><trkpt lat="45.64924339234557" lon="10.065748621031949"><ele>595.0</ele><time>2026-03-22T16:06:14Z</time></trkpt><trkpt lat="45.64923978099243" lon="10.065920020074337"><ele>595.0</ele><time>2026-03-22T16:06:15Z</time></trkpt><trkpt lat="45.64922162441536" lon="10.066129168420838"><ele>595.0</ele><time>2026-03-22T16:06:16Z</time></trkpt><trkpt lat="45.649204218293626" lon="10.066333011007153"><ele>595.0</ele><time>2026-03-22T16:06:17Z</time></trkpt><trkpt lat="45.649196653407934" lon="10.066515158476237"><ele>593.0</ele><time>2026-03-22T16:06:18Z</time></trkpt><trkpt lat="45.64919842956072" lon="10.06667740612603"><ele>591.0</ele><time>2026-03-22T16:06:19Z</time></trkpt><trkpt lat="45.649190599908835" lon="10.06683925666627"><ele>589.0</ele><time>2026-03-22T16:06:20Z</time></trkpt><trkpt lat="45.64916389013547" lon="10.066983518759072"><ele>587.0</ele><time>2026-03-22T16:06:21Z</time></trkpt><trkpt lat="45.649144767002824" lon="10.06712187931884"><ele>585.0</ele><time>2026-03-22T16:06:22Z</time></trkpt><trkpt lat="45.6491329357373" lon="10.067271477835867"><ele>585.0</ele><time>2026-03-22T16:06:23Z</time></trkpt><trkpt lat="45.64914448052807" lon="10.067416011788623"><ele>585.0</ele><time>2026-03-22T16:06:24Z</time></trkpt><trkpt lat="45.64917513121364" lon="10.067592879032093"><ele>585.0</ele><time>2026-03-22T16:06:25Z</time></trkpt><trkpt lat="45.64918025985212" lon="10.067772307460135"><ele>585.0</ele><time>2026-03-22T16:06:26Z</time></trkpt><trkpt lat="45.64919335818334" lon="10.06795486164288"><ele>583.8333333333334</ele><time>2026-03-22T16:06:27Z</time></trkpt><trkpt lat="45.64920845094745" lon="10.06811936686773"><ele>582.6666666666666</ele><time>2026-03-22T16:06:28Z</time></trkpt><trkpt lat="45.64923036848511" lon="10.068255478411062"><ele>581.5</ele><time>2026-03-22T16:06:29Z</time></trkpt><trkpt lat="45.64925848504617" lon="10.068361834726836"><ele>580.3333333333333</ele><time>2026-03-22T16:06:30Z</time></trkpt><trkpt lat="45.64927173257752" lon="10.068465347309427"><ele>579.1666666666666</ele><time>2026-03-22T16:06:31Z</time></trkpt><trkpt lat="45.64928097321136" lon="10.068559301984433"><ele>578.0</ele><time>2026-03-22T16:06:32Z</time></trkpt><trkpt lat="45.64927434260808" lon="10.068668655668926"><ele>576.6</ele><time>2026-03-22T16:06:33Z</time></trkpt><trkpt lat="45.64922956165265" lon="10.068789779273569"><ele>575.1999999999999</ele><time>2026-03-22T16:06:34Z</time></trkpt><trkpt lat="45.64920146555036" lon="10.068924648671391"><ele>573.8</ele><time>2026-03-22T16:06:35Z</time></trkpt><trkpt lat="45.64918440613411" lon="10.069054146902557"><ele>572.4</ele><time>2026-03-22T16:06:36Z</time></trkpt><trkpt lat="45.649176099209676" lon="10.069181544952986"><ele>571.0</ele><time>2026-03-22T16:06:37Z</time></trkpt><trkpt lat="45.649172327652636" lon="10.069292392900364"><ele>570.8333333333334</ele><time>2026-03-22T16:06:38Z</time></trkpt><trkpt lat="45.64916135730356" lon="10.069410174510612"><ele>570.6666666666667</ele><time>2026-03-22T16:06:39Z</time></trkpt><trkpt lat="45.649168776576076" lon="10.069541240085671"><ele>570.5</ele><time>2026-03-22T16:06:40Z</time></trkpt><trkpt lat="45.649166702904154" lon="10.069660397855223"><ele>570.3333333333334</ele><time>2026-03-22T16:06:41Z</time></trkpt><trkpt lat="45.649162124625924" lon="10.06976415510734"><ele>570.1666666666666</ele><time>2026-03-22T16:06:42Z</time></trkpt><trkpt lat="45.649158297594084" lon="10.069871941484953"><ele>570.0</ele><time>2026-03-22T16:06:43Z</time></trkpt><trkpt lat="45.64915780483058" lon="10.06999183710866"><ele>570.6</ele><time>2026-03-22T16:06:44Z</time></trkpt><trkpt lat="45.64916421921912" lon="10.070111907222056"><ele>571.2</ele><time>2026-03-22T16:06:45Z</time></trkpt><trkpt lat="45.6491698280302" lon="10.07025397368105"><ele>571.8</ele><time>2026-03-22T16:06:46Z</time></trkpt><trkpt lat="45.649164303321314" lon="10.070438873072028"><ele>572.4</ele><time>2026-03-22T16:06:47Z</time></trkpt><trkpt lat="45.64915954868629" lon="10.070627976754544"><ele>573.0</ele><time>2026-03-22T16:06:48Z</time></trkpt><trkpt lat="45.6491401028665" lon="10.070838644605503"><ele>574.6666666666666</ele><time>2026-03-22T16:06:49Z</time></trkpt><trkpt lat="45.649141720670116" lon="10.071099929622855"><ele>576.3333333333333</ele><time>2026-03-22T16:06:50Z</time></trkpt><trkpt lat="45.649130596647275" lon="10.071351915491602"><ele>578.0</ele><time>2026-03-22T16:06:51Z</time></trkpt><trkpt lat="45.64912803956576" lon="10.07154930074128"><ele>576.6666666666666</ele><time>2026-03-22T16:06:52Z</time></trkpt><trkpt lat="45.649118723647014" lon="10.071733562390358"><ele>575.3333333333334</ele><time>2026-03-22T16:06:53Z</time></trkpt><trkpt lat="45.64914195762904" lon="10.07195123726329"><ele>574.0</ele><time>2026-03-22T16:06:54Z</time></trkpt><trkpt lat="45.64920247390417" lon="10.07218792955715"><ele>574.0</ele><time>2026-03-22T16:06:55Z</time></trkpt><trkpt lat="45.649240983716155" lon="10.07239248618398"><ele>574.0</ele><time>2026-03-22T16:06:56Z</time></trkpt><trkpt lat="45.64929395772343" lon="10.072588823893048"><ele>574.0</ele><time>2026-03-22T16:06:57Z</time></trkpt><trkpt lat="45.64933959769072" lon="10.072771534434779"><ele>574.0</ele><time>2026-03-22T16:06:58Z</time></trkpt><trkpt lat="45.649385001453524" lon="10.072925183205404"><ele>574.75</ele><time>2026-03-22T16:06:59Z</time></trkpt><trkpt lat="45.6493974130796" lon="10.073082535543739"><ele>575.5</ele><time>2026-03-22T16:07:00Z</time></trkpt><trkpt lat="45.64941417772786" lon="10.073269594237653"><ele>576.25</ele><time>2026-03-22T16:07:01Z</time></trkpt><trkpt lat="45.64940702010665" lon="10.073476273518866"><ele>577.0</ele><time>2026-03-22T16:07:02Z</time></trkpt><trkpt lat="45.6493986603973" lon="10.073621618894085"><ele>575.8000000000001</ele><time>2026-03-22T16:07:03Z</time></trkpt><trkpt lat="45.64939755318009" lon="10.073719748891342"><ele>574.6</ele><time>2026-03-22T16:07:05Z</time></trkpt><trkpt lat="45.649400856246096" lon="10.07360102706018"><ele>573.4000000000001</ele><time>2026-03-22T16:07:10Z</time></trkpt><trkpt lat="45.64928580531254" lon="10.073538372498726"><ele>572.2</ele><time>2026-03-22T16:07:12Z</time></trkpt><trkpt lat="45.64918805473683" lon="10.073447271291492"><ele>571.0</ele><time>2026-03-22T16:07:14Z</time></trkpt><trkpt lat="45.64912990849626" lon="10.073351890798493"><ele>572.2</ele><time>2026-03-22T16:07:15Z</time></trkpt><trkpt lat="45.64906205137638" lon="10.073259373646373"><ele>573.4000000000001</ele><time>2026-03-22T16:07:16Z</time></trkpt><trkpt lat="45.64899110166306" lon="10.07325399823653"><ele>574.6</ele><time>2026-03-22T16:07:17Z</time></trkpt><trkpt lat="45.648878109100984" lon="10.073245255955804"><ele>575.8000000000001</ele><time>2026-03-22T16:07:19Z</time></trkpt><trkpt lat="45.648800964563456" lon="10.073215442535664"><ele>577.0</ele><time>2026-03-22T16:07:20Z</time></trkpt><trkpt lat="45.64870760372233" lon="10.073162111614087"><ele>577.0</ele><time>2026-03-22T16:07:21Z</time></trkpt><trkpt lat="45.64864537706811" lon="10.073107279559894"><ele>577.0</ele><time>2026-03-22T16:07:22Z</time></trkpt><trkpt lat="45.64857560085372" lon="10.073039482943736"><ele>577.0</ele><time>2026-03-22T16:07:24Z</time></trkpt><trkpt lat="45.64850614237997" lon="10.073005411930355"><ele>577.0</ele><time>2026-03-22T16:07:25Z</time></trkpt><trkpt lat="45.648433510822" lon="10.072958346116094"><ele>577.0</ele><time>2026-03-22T16:07:26Z</time></trkpt><trkpt lat="45.64834263534678" lon="10.072893187559629"><ele>577.0</ele><time>2026-03-22T16:07:27Z</time></trkpt><trkpt lat="45.64825627989508" lon="10.072805530871218"><ele>577.3333333333334</ele><time>2026-03-22T16:07:28Z</time></trkpt><trkpt lat="45.64815195075334" lon="10.072760823745394"><ele>577.6666666666667</ele><time>2026-03-22T16:07:29Z</time></trkpt><trkpt lat="45.64805924220745" lon="10.07274147519804"><ele>578.0</ele><time>2026-03-22T16:07:30Z</time></trkpt><trkpt lat="45.647989947616225" lon="10.072682429846553"><ele>578.3333333333334</ele><time>2026-03-22T16:07:31Z</time></trkpt><trkpt lat="45.64792086284581" lon="10.072624218714209"><ele>578.6666666666666</ele><time>2026-03-22T16:07:32Z</time></trkpt><trkpt lat="45.6478418480179" lon="10.072587860739679"><ele>579.0</ele><time>2026-03-22T16:07:34Z</time></trkpt><trkpt lat="45.647783859391176" lon="10.072513337318272"><ele>574.8333333333334</ele><time>2026-03-22T16:07:36Z</time></trkpt><trkpt lat="45.647722208876814" lon="10.072461957609097"><ele>570.6666666666666</ele><time>2026-03-22T16:07:38Z</time></trkpt><trkpt lat="45.64764754248537" lon="10.072487048298889"><ele>566.5</ele><time>2026-03-22T16:07:41Z</time></trkpt><trkpt lat="45.64758244799326" lon="10.072473651491537"><ele>562.3333333333333</ele><time>2026-03-22T16:07:43Z</time></trkpt><trkpt lat="45.647498351970945" lon="10.072517720039764"><ele>558.1666666666666</ele><time>2026-03-22T16:07:46Z</time></trkpt><trkpt lat="45.647425153931536" lon="10.072579727087616"><ele>554.0</ele><time>2026-03-22T16:07:49Z</time></trkpt><trkpt lat="45.64734869935276" lon="10.0726029493383"><ele>554.0</ele><time>2026-03-22T16:07:52Z</time></trkpt><trkpt lat="45.64728008286732" lon="10.072606338628677"><ele>554.0</ele><time>2026-03-22T16:07:55Z</time></trkpt><trkpt lat="45.64721374031566" lon="10.072574513095635"><ele>554.0</ele><time>2026-03-22T16:07:57Z</time></trkpt><trkpt lat="45.64715904600759" lon="10.072519469710366"><ele>554.0</ele><time>2026-03-22T16:08:00Z</time></trkpt><trkpt lat="45.64708308977429" lon="10.072448312948463"><ele>554.0</ele><time>2026-03-22T16:08:03Z</time></trkpt><trkpt lat="45.64701590214308" lon="10.072407852936546"><ele>554.0</ele><time>2026-03-22T16:08:06Z</time></trkpt><trkpt lat="45.64692475229753" lon="10.072427186187252"><ele>517.0</ele><time>2026-03-22T16:08:08Z</time></trkpt><trkpt lat="45.64686464130295" lon="10.072468426414588"><ele>522.0</ele><time>2026-03-22T16:08:09Z</time></trkpt><trkpt lat="45.6467989499082" lon="10.072436253177445"><ele>517.0</ele><time>2026-03-22T16:08:19Z</time></trkpt></trkseg><trkseg><trkpt lat="45.64578004860219" lon="10.062647124833589"><ele>564.0</ele><time>2026-03-22T16:27:45Z</time></trkpt><trkpt lat="45.64570108188114" lon="10.06265515054868"><ele>564.0</ele><time>2026-03-22T16:28:48Z</time></trkpt><trkpt lat="45.64569102243515" lon="10.062765395266828"><ele>564.0</ele><time>2026-03-22T16:28:51Z</time></trkpt><trkpt lat="45.645663333364695" lon="10.062892027106665"><ele>564.0</ele><time>2026-03-22T16:28:52Z</time></trkpt><trkpt lat="45.64559286609393" lon="10.062809947007839"><ele>564.0</ele><time>2026-03-22T16:30:15Z</time></trkpt><trkpt lat="45.64554216360708" lon="10.062727182118735"><ele>564.0</ele><time>2026-03-22T16:30:17Z</time></trkpt><trkpt lat="45.64547199824402" lon="10.062679009426077"><ele>564.0</ele><time>2026-03-22T16:30:19Z</time></trkpt><trkpt lat="45.64539807156715" lon="10.062624229109018"><ele>564.0</ele><time>2026-03-22T16:30:21Z</time></trkpt><trkpt lat="45.645313689064615" lon="10.062555201972488"><ele>564.0</ele><time>2026-03-22T16:30:24Z</time></trkpt><trkpt lat="45.64525121676309" lon="10.062398177092355"><ele>564.0</ele><time>2026-03-22T16:30:26Z</time></trkpt><trkpt lat="45.64518107295783" lon="10.062403738628833"><ele>564.0</ele><time>2026-03-22T16:30:28Z</time></trkpt><trkpt lat="45.64513181591488" lon="10.062465883150802"><ele>564.0</ele><time>2026-03-22T16:30:29Z</time></trkpt><trkpt lat="45.64508797168219" lon="10.062545172376387"><ele>561.1666666666666</ele><time>2026-03-22T16:30:30Z</time></trkpt><trkpt lat="45.6450133503457" lon="10.06259169571249"><ele>558.3333333333334</ele><time>2026-03-22T16:30:32Z</time></trkpt><trkpt lat="45.64494139365237" lon="10.06255039692596"><ele>555.5</ele><time>2026-03-22T16:30:34Z</time></trkpt><trkpt lat="45.644865894593565" lon="10.062556007155955"><ele>552.6666666666667</ele><time>2026-03-22T16:30:36Z</time></trkpt><trkpt lat="45.644810131396866" lon="10.062640595109348"><ele>549.8333333333334</ele><time>2026-03-22T16:30:38Z</time></trkpt><trkpt lat="45.64479801319818" lon="10.062734611276893"><ele>547.0</ele><time>2026-03-22T16:30:40Z</time></trkpt><trkpt lat="45.64473837157569" lon="10.062810456696834"><ele>547.0</ele><time>2026-03-22T16:30:42Z</time></trkpt><trkpt lat="45.64464964170065" lon="10.062839631626822"><ele>547.0</ele><time>2026-03-22T16:30:44Z</time></trkpt><trkpt lat="45.64459013961318" lon="10.062885540672786"><ele>547.0</ele><time>2026-03-22T16:30:46Z</time></trkpt><trkpt lat="45.64453413920403" lon="10.062973066137703"><ele>547.0</ele><time>2026-03-22T16:30:48Z</time></trkpt><trkpt lat="45.64448134400419" lon="10.063050705640839"><ele>547.0</ele><time>2026-03-22T16:30:50Z</time></trkpt><trkpt lat="45.64439862408499" lon="10.063031835775979"><ele>547.0</ele><time>2026-03-22T16:30:58Z</time></trkpt><trkpt lat="45.644334808674046" lon="10.063025043116246"><ele>548.2</ele><time>2026-03-22T16:31:15Z</time></trkpt><trkpt lat="45.64427594237686" lon="10.063057311187263"><ele>549.4000000000001</ele><time>2026-03-22T16:31:16Z</time></trkpt><trkpt lat="45.64416418188604" lon="10.063121822574443"><ele>550.5999999999999</ele><time>2026-03-22T16:31:18Z</time></trkpt><trkpt lat="45.644065021653866" lon="10.063150215797696"><ele>551.8</ele><time>2026-03-22T16:31:20Z</time></trkpt><trkpt lat="45.643988738745435" lon="10.06324828058292"><ele>553.0</ele><time>2026-03-22T16:31:22Z</time></trkpt><trkpt lat="45.64389984617359" lon="10.063310650585427"><ele>548.8</ele><time>2026-03-22T16:31:24Z</time></trkpt><trkpt lat="45.64381469765907" lon="10.063362420154826"><ele>544.5999999999999</ele><time>2026-03-22T16:31:26Z</time></trkpt><trkpt lat="45.643746632452626" lon="10.063480739665104"><ele>540.4000000000001</ele><time>2026-03-22T16:31:28Z</time></trkpt><trkpt lat="45.64370379694501" lon="10.063658987557021"><ele>536.2</ele><time>2026-03-22T16:31:30Z</time></trkpt><trkpt lat="45.64366104257079" lon="10.063786937617182"><ele>532.0</ele><time>2026-03-22T16:31:31Z</time></trkpt><trkpt lat="45.64359406807494" lon="10.06388474847156"><ele>530.8333333333334</ele><time>2026-03-22T16:31:32Z</time></trkpt><trkpt lat="45.64351202191764" lon="10.063959999558287"><ele>529.6666666666667</ele><time>2026-03-22T16:31:33Z</time></trkpt><trkpt lat="45.643458669757614" lon="10.064026505622914"><ele>528.5</ele><time>2026-03-22T16:31:34Z</time></trkpt><trkpt lat="45.64340002351696" lon="10.064089354494806"><ele>527.3333333333334</ele><time>2026-03-22T16:31:35Z</time></trkpt><trkpt lat="45.64333377353549" lon="10.064149222144627"><ele>526.1666666666666</ele><time>2026-03-22T16:31:36Z</time></trkpt><trkpt lat="45.643236679156814" lon="10.0642620979906"><ele>525.0</ele><time>2026-03-22T16:31:38Z</time></trkpt><trkpt lat="45.64321664147631" lon="10.064366839913767"><ele>522.4</ele><time>2026-03-22T16:31:39Z</time></trkpt><trkpt lat="45.64318464485079" lon="10.064461289038798"><ele>519.8</ele><time>2026-03-22T16:31:40Z</time></trkpt><trkpt lat="45.64314045661008" lon="10.064538948469803"><ele>517.2</ele><time>2026-03-22T16:31:41Z</time></trkpt><trkpt lat="45.643067943318385" lon="10.064657950286682"><ele>514.6</ele><time>2026-03-22T16:31:43Z</time></trkpt><trkpt lat="45.64294736774809" lon="10.064799787044187"><ele>512.0</ele><time>2026-03-22T16:31:45Z</time></trkpt><trkpt lat="45.64288603004125" lon="10.064884813537306"><ele>511.99999999999994</ele><time>2026-03-22T16:31:46Z</time></trkpt><trkpt lat="45.64282361370814" lon="10.064942845663163"><ele>512.0</ele><time>2026-03-22T16:31:47Z</time></trkpt><trkpt lat="45.64276003736928" lon="10.06500844211357"><ele>512.0</ele><time>2026-03-22T16:31:48Z</time></trkpt><trkpt lat="45.64272282078151" lon="10.065106611454821"><ele>512.0</ele><time>2026-03-22T16:31:49Z</time></trkpt><trkpt lat="45.642686661083836" lon="10.06519917607067"><ele>511.99999999999994</ele><time>2026-03-22T16:31:50Z</time></trkpt><trkpt lat="45.64265336569674" lon="10.065308444873462"><ele>512.0</ele><time>2026-03-22T16:31:51Z</time></trkpt><trkpt lat="45.64265476463275" lon="10.06549075508237"><ele>506.75</ele><time>2026-03-22T16:31:53Z</time></trkpt><trkpt lat="45.64267937610337" lon="10.065611110809881"><ele>501.5</ele><time>2026-03-22T16:31:54Z</time></trkpt><trkpt lat="45.642731726380866" lon="10.065780675116965"><ele>496.25</ele><time>2026-03-22T16:31:55Z</time></trkpt><trkpt lat="45.642788094569624" lon="10.065958978834198"><ele>491.0</ele><time>2026-03-22T16:31:56Z</time></trkpt><trkpt lat="45.64282647928682" lon="10.066122610256809"><ele>488.6</ele><time>2026-03-22T16:31:58Z</time></trkpt><trkpt lat="45.64282668116824" lon="10.066222355995171"><ele>486.20000000000005</ele><time>2026-03-22T16:31:59Z</time></trkpt><trkpt lat="45.642875379971336" lon="10.066345064872104"><ele>483.79999999999995</ele><time>2026-03-22T16:32:01Z</time></trkpt><trkpt lat="45.642808092476365" lon="10.066566248937832"><ele>481.4</ele><time>2026-03-22T16:32:03Z</time></trkpt><trkpt lat="45.64275207397672" lon="10.066671023534045"><ele>479.0</ele><time>2026-03-22T16:32:04Z</time></trkpt><trkpt lat="45.64268889054953" lon="10.06673588746006"><ele>475.49999999999994</ele><time>2026-03-22T16:32:05Z</time></trkpt><trkpt lat="45.64267586291134" lon="10.066828194310002"><ele>472.0</ele><time>2026-03-22T16:32:06Z</time></trkpt><trkpt lat="45.64264718108764" lon="10.066946316192523"><ele>468.5</ele><time>2026-03-22T16:32:08Z</time></trkpt><trkpt lat="45.642568741124386" lon="10.066950726476438"><ele>465.0</ele><time>2026-03-22T16:32:09Z</time></trkpt><trkpt lat="45.64249419351015" lon="10.066990322622706"><ele>461.49999999999994</ele><time>2026-03-22T16:32:10Z</time></trkpt><trkpt lat="45.64238834390702" lon="10.066980408897733"><ele>458.0</ele><time>2026-03-22T16:32:12Z</time></trkpt><trkpt lat="45.64232984634959" lon="10.066900497762566"><ele>458.0</ele><time>2026-03-22T16:32:13Z</time></trkpt><trkpt lat="45.642292808015604" lon="10.066781677780597"><ele>457.99999999999994</ele><time>2026-03-22T16:32:14Z</time></trkpt><trkpt lat="45.64224901845576" lon="10.066681723166882"><ele>457.99999999999994</ele><time>2026-03-22T16:32:15Z</time></trkpt><trkpt lat="45.64222105360514" lon="10.066581836109908"><ele>458.0</ele><time>2026-03-22T16:32:16Z</time></trkpt><trkpt lat="45.642134042727974" lon="10.066446967984673"><ele>458.0</ele><time>2026-03-22T16:32:18Z</time></trkpt><trkpt lat="45.64205288760603" lon="10.06643290679469"><ele>457.3333333333333</ele><time>2026-03-22T16:32:19Z</time></trkpt><trkpt lat="45.641979656386745" lon="10.0664332943885"><ele>456.66666666666663</ele><time>2026-03-22T16:32:20Z</time></trkpt><trkpt lat="45.64189312665635" lon="10.066554274093095"><ele>456.0</ele><time>2026-03-22T16:32:22Z</time></trkpt><trkpt lat="45.64184446480814" lon="10.066617473655306"><ele>455.33333333333337</ele><time>2026-03-22T16:32:23Z</time></trkpt><trkpt lat="45.64177956721092" lon="10.066647247793313"><ele>454.6666666666667</ele><time>2026-03-22T16:32:24Z</time></trkpt><trkpt lat="45.641694624575294" lon="10.066637944533651"><ele>454.0</ele><time>2026-03-22T16:32:25Z</time></trkpt><trkpt lat="45.64162061794094" lon="10.066604047173147"><ele>454.0</ele><time>2026-03-22T16:32:26Z</time></trkpt><trkpt lat="45.64155374346262" lon="10.066527349727972"><ele>454.0</ele><time>2026-03-22T16:32:27Z</time></trkpt><trkpt lat="45.64149724852001" lon="10.066471424490118"><ele>454.0</ele><time>2026-03-22T16:32:28Z</time></trkpt><trkpt lat="45.641382750703336" lon="10.06641052572994"><ele>454.0</ele><time>2026-03-22T16:32:30Z</time></trkpt><trkpt lat="45.641290661193466" lon="10.066500353031431"><ele>454.0</ele><time>2026-03-22T16:32:31Z</time></trkpt><trkpt lat="45.64122397552467" lon="10.066602136220624"><ele>450.2</ele><time>2026-03-22T16:32:32Z</time></trkpt><trkpt lat="45.64115673762773" lon="10.066616709121448"><ele>446.4</ele><time>2026-03-22T16:32:33Z</time></trkpt><trkpt lat="45.64105522417815" lon="10.066600196414791"><ele>442.6</ele><time>2026-03-22T16:32:34Z</time></trkpt><trkpt lat="45.64092647258897" lon="10.066609063050231"><ele>438.8</ele><time>2026-03-22T16:32:35Z</time></trkpt><trkpt lat="45.6407996497255" lon="10.066645767809266"><ele>435.0</ele><time>2026-03-22T16:32:36Z</time></trkpt><trkpt lat="45.640706071403805" lon="10.066687215466589"><ele>430.6</ele><time>2026-03-22T16:32:37Z</time></trkpt><trkpt lat="45.64060260435776" lon="10.06671932421406"><ele>426.2</ele><time>2026-03-22T16:32:38Z</time></trkpt><trkpt lat="45.64049306190416" lon="10.066792187028167"><ele>421.79999999999995</ele><time>2026-03-22T16:32:39Z</time></trkpt><trkpt lat="45.64038763533176" lon="10.066837180320663"><ele>417.4</ele><time>2026-03-22T16:32:40Z</time></trkpt><trkpt lat="45.64029027768166" lon="10.066864658528107"><ele>413.0</ele><time>2026-03-22T16:32:41Z</time></trkpt><trkpt lat="45.64018865624067" lon="10.066873948328293"><ele>410.0</ele><time>2026-03-22T16:32:42Z</time></trkpt><trkpt lat="45.640110756586985" lon="10.066879276551795"><ele>407.0</ele><time>2026-03-22T16:32:43Z</time></trkpt><trkpt lat="45.640017303164974" lon="10.066864892087512"><ele>404.0</ele><time>2026-03-22T16:32:44Z</time></trkpt><trkpt lat="45.6398954998808" lon="10.066762219097827"><ele>401.0</ele><time>2026-03-22T16:32:45Z</time></trkpt><trkpt lat="45.63973743453827" lon="10.066704425115859"><ele>401.0</ele><time>2026-03-22T16:32:46Z</time></trkpt><trkpt lat="45.63958173666794" lon="10.066625781065728"><ele>401.0</ele><time>2026-03-22T16:32:47Z</time></trkpt><trkpt lat="45.63947344635021" lon="10.066559249735711"><ele>401.0</ele><time>2026-03-22T16:32:48Z</time></trkpt><trkpt lat="45.63940552428076" lon="10.066486392560702"><ele>401.0</ele><time>2026-03-22T16:32:49Z</time></trkpt><trkpt lat="45.63936378140342" lon="10.066414339854889"><ele>401.0</ele><time>2026-03-22T16:32:50Z</time></trkpt><trkpt lat="45.639285694529185" lon="10.066345413639082"><ele>394.20000000000005</ele><time>2026-03-22T16:32:52Z</time></trkpt><trkpt lat="45.6392361228324" lon="10.066190614691116"><ele>387.40000000000003</ele><time>2026-03-22T16:32:54Z</time></trkpt><trkpt lat="45.63922506115538" lon="10.066061941060926"><ele>380.6</ele><time>2026-03-22T16:32:55Z</time></trkpt><trkpt lat="45.63923977895548" lon="10.06594227105784"><ele>373.8</ele><time>2026-03-22T16:32:56Z</time></trkpt><trkpt lat="45.639260101065595" lon="10.06582468225743"><ele>367.0</ele><time>2026-03-22T16:32:57Z</time></trkpt><trkpt lat="45.63930314317544" lon="10.065689019128486"><ele>370.75</ele><time>2026-03-22T16:32:58Z</time></trkpt><trkpt lat="45.63937667011914" lon="10.065519878902668"><ele>374.5</ele><time>2026-03-22T16:32:59Z</time></trkpt><trkpt lat="45.63947179366359" lon="10.065426714115482"><ele>378.25</ele><time>2026-03-22T16:33:00Z</time></trkpt><trkpt lat="45.639564623221936" lon="10.065299558612491"><ele>382.0</ele><time>2026-03-22T16:33:01Z</time></trkpt><trkpt lat="45.63963568598592" lon="10.065201332733125"><ele>382.0</ele><time>2026-03-22T16:33:02Z</time></trkpt><trkpt lat="45.639703293912355" lon="10.065120481757361"><ele>382.0</ele><time>2026-03-22T16:33:03Z</time></trkpt><trkpt lat="45.6397654510993" lon="10.065022321255599"><ele>382.0</ele><time>2026-03-22T16:33:04Z</time></trkpt><trkpt lat="45.639829715310206" lon="10.064921785672192"><ele>382.0</ele><time>2026-03-22T16:33:05Z</time></trkpt><trkpt lat="45.63988852297506" lon="10.06484461698292"><ele>382.0</ele><time>2026-03-22T16:33:06Z</time></trkpt><trkpt lat="45.63993659636215" lon="10.064751511273258"><ele>382.0</ele><time>2026-03-22T16:33:07Z</time></trkpt><trkpt lat="45.63998469295312" lon="10.064676506730065"><ele>384.16666666666663</ele><time>2026-03-22T16:33:08Z</time></trkpt><trkpt lat="45.6400542204916" lon="10.064600949880369"><ele>386.3333333333333</ele><time>2026-03-22T16:33:09Z</time></trkpt><trkpt lat="45.64012165886913" lon="10.064506242109035"><ele>388.5</ele><time>2026-03-22T16:33:10Z</time></trkpt><trkpt lat="45.64015995115924" lon="10.064417919521283"><ele>390.66666666666663</ele><time>2026-03-22T16:33:11Z</time></trkpt><trkpt lat="45.640240595463915" lon="10.06431547705876"><ele>392.8333333333333</ele><time>2026-03-22T16:33:12Z</time></trkpt><trkpt lat="45.64030558368627" lon="10.064268639962673"><ele>395.0</ele><time>2026-03-22T16:33:13Z</time></trkpt><trkpt lat="45.640415693298216" lon="10.064194954354155"><ele>397.8333333333333</ele><time>2026-03-22T16:33:15Z</time></trkpt><trkpt lat="45.640452541673476" lon="10.064069141718909"><ele>400.66666666666663</ele><time>2026-03-22T16:33:17Z</time></trkpt><trkpt lat="45.64040251918973" lon="10.06393027185171"><ele>403.5</ele><time>2026-03-22T16:33:19Z</time></trkpt><trkpt lat="45.64034316257186" lon="10.063891874716916"><ele>406.33333333333337</ele><time>2026-03-22T16:33:20Z</time></trkpt><trkpt lat="45.64026238265898" lon="10.063888925724175"><ele>409.1666666666667</ele><time>2026-03-22T16:33:21Z</time></trkpt><trkpt lat="45.64018924120121" lon="10.063917047752993"><ele>412.0</ele><time>2026-03-22T16:33:22Z</time></trkpt><trkpt lat="45.640116144863775" lon="10.06394808617892"><ele>403.5</ele><time>2026-03-22T16:33:23Z</time></trkpt><trkpt lat="45.64004840395352" lon="10.063946803765269"><ele>395.0</ele><time>2026-03-22T16:33:24Z</time></trkpt><trkpt lat="45.63994909487406" lon="10.06391562240087"><ele>386.5</ele><time>2026-03-22T16:33:25Z</time></trkpt><trkpt lat="45.63980330187883" lon="10.063795488143258"><ele>378.0</ele><time>2026-03-22T16:33:26Z</time></trkpt><trkpt lat="45.63963850039835" lon="10.06367833006487"><ele>378.0</ele><time>2026-03-22T16:33:27Z</time></trkpt><trkpt lat="45.63947590477448" lon="10.063598045181774"><ele>378.0</ele><time>2026-03-22T16:33:28Z</time></trkpt><trkpt lat="45.63934535521087" lon="10.063510981126903"><ele>378.0</ele><time>2026-03-22T16:33:29Z</time></trkpt><trkpt lat="45.63924136927312" lon="10.063450077207687"><ele>378.0</ele><time>2026-03-22T16:33:30Z</time></trkpt><trkpt lat="45.63916612382079" lon="10.06340862643551"><ele>373.5</ele><time>2026-03-22T16:33:31Z</time></trkpt><trkpt lat="45.63909823368178" lon="10.063406308700776"><ele>369.0</ele><time>2026-03-22T16:33:32Z</time></trkpt><trkpt lat="45.639025467600206" lon="10.063446205977511"><ele>364.5</ele><time>2026-03-22T16:33:33Z</time></trkpt><trkpt lat="45.63894314722921" lon="10.06349310722466"><ele>360.0</ele><time>2026-03-22T16:33:34Z</time></trkpt><trkpt lat="45.63885564665914" lon="10.063542029890812"><ele>355.5</ele><time>2026-03-22T16:33:35Z</time></trkpt><trkpt lat="45.63876391565062" lon="10.063557811826627"><ele>351.0</ele><time>2026-03-22T16:33:36Z</time></trkpt><trkpt lat="45.638642856838786" lon="10.063548898177238"><ele>347.8</ele><time>2026-03-22T16:33:37Z</time></trkpt><trkpt lat="45.6385129349777" lon="10.063492470745624"><ele>344.6</ele><time>2026-03-22T16:33:38Z</time></trkpt><trkpt lat="45.63842861669688" lon="10.06347418966264"><ele>341.4</ele><time>2026-03-22T16:33:39Z</time></trkpt><trkpt lat="45.63831214566223" lon="10.063526884428757"><ele>338.2</ele><time>2026-03-22T16:33:41Z</time></trkpt><trkpt lat="45.63826378714814" lon="10.063596744671042"><ele>335.0</ele><time>2026-03-22T16:33:42Z</time></trkpt><trkpt lat="45.638220733222425" lon="10.063691386952463"><ele>335.0</ele><time>2026-03-22T16:33:43Z</time></trkpt><trkpt lat="45.638215654939415" lon="10.06380741950232"><ele>335.0</ele><time>2026-03-22T16:33:44Z</time></trkpt><trkpt lat="45.63820722303031" lon="10.06393351199995"><ele>335.0</ele><time>2026-03-22T16:33:45Z</time></trkpt><trkpt lat="45.63816550712068" lon="10.064040611413432"><ele>335.0</ele><time>2026-03-22T16:33:46Z</time></trkpt><trkpt lat="45.63809347860488" lon="10.06417683736565"><ele>335.0</ele><time>2026-03-22T16:33:47Z</time></trkpt><trkpt lat="45.63802087999765" lon="10.064256547711592"><ele>333.2</ele><time>2026-03-22T16:33:48Z</time></trkpt><trkpt lat="45.63795271502326" lon="10.064296849218024"><ele>331.4</ele><time>2026-03-22T16:33:49Z</time></trkpt><trkpt lat="45.63783258963668" lon="10.064267435075033"><ele>329.6</ele><time>2026-03-22T16:33:51Z</time></trkpt><trkpt lat="45.637758826560585" lon="10.064197805584877"><ele>327.8</ele><time>2026-03-22T16:33:52Z</time></trkpt><trkpt lat="45.637682307250714" lon="10.064178682726409"><ele>326.0</ele><time>2026-03-22T16:33:53Z</time></trkpt><trkpt lat="45.63759375576079" lon="10.064285708360092"><ele>323.83333333333337</ele><time>2026-03-22T16:33:55Z</time></trkpt><trkpt lat="45.63757006539381" lon="10.064400630093592"><ele>321.6666666666667</ele><time>2026-03-22T16:33:56Z</time></trkpt><trkpt lat="45.637511280032165" lon="10.06451879726487"><ele>319.5</ele><time>2026-03-22T16:33:57Z</time></trkpt><trkpt lat="45.63745165356816" lon="10.064606188568112"><ele>317.3333333333333</ele><time>2026-03-22T16:33:58Z</time></trkpt><trkpt lat="45.63738876698419" lon="10.064683142681206"><ele>315.16666666666663</ele><time>2026-03-22T16:33:59Z</time></trkpt><trkpt lat="45.637314241784026" lon="10.064763274398292"><ele>313.0</ele><time>2026-03-22T16:34:00Z</time></trkpt><trkpt lat="45.637237200258056" lon="10.064841157706576"><ele>311.66666666666663</ele><time>2026-03-22T16:34:01Z</time></trkpt><trkpt lat="45.637162166557786" lon="10.064947269187634"><ele>310.3333333333333</ele><time>2026-03-22T16:34:02Z</time></trkpt><trkpt lat="45.637082863850395" lon="10.065011477912453"><ele>309.0</ele><time>2026-03-22T16:34:03Z</time></trkpt><trkpt lat="45.63701034448566" lon="10.06509296498472"><ele>307.6666666666667</ele><time>2026-03-22T16:34:04Z</time></trkpt><trkpt lat="45.6369492530327" lon="10.06515926139188"><ele>306.33333333333337</ele><time>2026-03-22T16:34:05Z</time></trkpt><trkpt lat="45.63689644975152" lon="10.065215689462965"><ele>305.0</ele><time>2026-03-22T16:34:07Z</time></trkpt><trkpt lat="45.63680849423344" lon="10.065234674224342"><ele>303.4</ele><time>2026-03-22T16:34:09Z</time></trkpt><trkpt lat="45.636716705526325" lon="10.065213695606158"><ele>301.8</ele><time>2026-03-22T16:34:10Z</time></trkpt><trkpt lat="45.63662356115808" lon="10.06521083023939"><ele>300.2</ele><time>2026-03-22T16:34:11Z</time></trkpt><trkpt lat="45.6365246580881" lon="10.065227590297777"><ele>298.6</ele><time>2026-03-22T16:34:12Z</time></trkpt><trkpt lat="45.63644492348488" lon="10.065263663629285"><ele>297.0</ele><time>2026-03-22T16:34:13Z</time></trkpt><trkpt lat="45.636323281985916" lon="10.065272993982147"><ele>297.0</ele><time>2026-03-22T16:34:15Z</time></trkpt><trkpt lat="45.63622016859053" lon="10.065226001639163"><ele>297.0</ele><time>2026-03-22T16:34:17Z</time></trkpt><trkpt lat="45.636094728239776" lon="10.06527104643187"><ele>297.0</ele><time>2026-03-22T16:34:19Z</time></trkpt><trkpt lat="45.63602895516602" lon="10.065287457331639"><ele>297.0</ele><time>2026-03-22T16:34:20Z</time></trkpt><trkpt lat="45.63596227128924" lon="10.065300176035757"><ele>297.0</ele><time>2026-03-22T16:34:21Z</time></trkpt><trkpt lat="45.635873030109764" lon="10.065289247273212"><ele>295.8</ele><time>2026-03-22T16:34:23Z</time></trkpt><trkpt lat="45.63584981532227" lon="10.065099752943901"><ele>294.6</ele><time>2026-03-22T16:34:25Z</time></trkpt><trkpt lat="45.635843897736514" lon="10.064970153831025"><ele>293.40000000000003</ele><time>2026-03-22T16:34:26Z</time></trkpt><trkpt lat="45.635841336273586" lon="10.064837958386871"><ele>292.2</ele><time>2026-03-22T16:34:27Z</time></trkpt><trkpt lat="45.63583855084147" lon="10.064706655375147"><ele>291.0</ele><time>2026-03-22T16:34:28Z</time></trkpt><trkpt lat="45.63582130104691" lon="10.064603579674916"><ele>291.0</ele><time>2026-03-22T16:34:29Z</time></trkpt><trkpt lat="45.6357774637612" lon="10.064503385258133"><ele>291.0</ele><time>2026-03-22T16:34:31Z</time></trkpt><trkpt lat="45.63560776402113" lon="10.064538595281041"><ele>291.0</ele><time>2026-03-22T16:34:36Z</time></trkpt><trkpt lat="45.63548592429351" lon="10.064583034518778"><ele>291.0</ele><time>2026-03-22T16:34:37Z</time></trkpt><trkpt lat="45.635338525062146" lon="10.064650537340315"><ele>289.5</ele><time>2026-03-22T16:34:38Z</time></trkpt><trkpt lat="45.63520659320398" lon="10.064717169641066"><ele>288.0</ele><time>2026-03-22T16:34:39Z</time></trkpt><trkpt lat="45.63509185419095" lon="10.064776465778603"><ele>286.5</ele><time>2026-03-22T16:34:40Z</time></trkpt><trkpt lat="45.63499492808114" lon="10.064811149776466"><ele>285.0</ele><time>2026-03-22T16:34:41Z</time></trkpt><trkpt lat="45.63487126041954" lon="10.064837469135552"><ele>285.0</ele><time>2026-03-22T16:34:42Z</time></trkpt><trkpt lat="45.63477032773325" lon="10.06485189945021"><ele>285.0</ele><time>2026-03-22T16:34:43Z</time></trkpt><trkpt lat="45.63468324824514" lon="10.064857588994432"><ele>285.0</ele><time>2026-03-22T16:34:44Z</time></trkpt><trkpt lat="45.63460950404116" lon="10.064837109621825"><ele>285.0</ele><time>2026-03-22T16:34:45Z</time></trkpt><trkpt lat="45.63454020332899" lon="10.064774055045874"><ele>285.0</ele><time>2026-03-22T16:34:46Z</time></trkpt><trkpt lat="45.634473613885554" lon="10.06465411541223"><ele>286.2</ele><time>2026-03-22T16:34:47Z</time></trkpt><trkpt lat="45.63438519784302" lon="10.064569732301596"><ele>287.4</ele><time>2026-03-22T16:34:48Z</time></trkpt><trkpt lat="45.634289023735775" lon="10.064547111837879"><ele>288.6</ele><time>2026-03-22T16:34:49Z</time></trkpt><trkpt lat="45.63419467855447" lon="10.064596172569294"><ele>289.8</ele><time>2026-03-22T16:34:50Z</time></trkpt><trkpt lat="45.634099428922895" lon="10.064661221383808"><ele>291.0</ele><time>2026-03-22T16:34:51Z</time></trkpt><trkpt lat="45.633982353082665" lon="10.064701686848291"><ele>291.0</ele><time>2026-03-22T16:34:52Z</time></trkpt><trkpt lat="45.63386605140359" lon="10.064727657328936"><ele>291.0</ele><time>2026-03-22T16:34:53Z</time></trkpt><trkpt lat="45.63374247010802" lon="10.064724791520874"><ele>291.0</ele><time>2026-03-22T16:34:54Z</time></trkpt><trkpt lat="45.633611329815274" lon="10.064694510936734"><ele>291.0</ele><time>2026-03-22T16:34:55Z</time></trkpt><trkpt lat="45.63343486348467" lon="10.064668849127301"><ele>290.40000000000003</ele><time>2026-03-22T16:34:56Z</time></trkpt><trkpt lat="45.63329007503469" lon="10.064638962337272"><ele>289.8</ele><time>2026-03-22T16:34:57Z</time></trkpt><trkpt lat="45.63317333345084" lon="10.064612091734405"><ele>289.20000000000005</ele><time>2026-03-22T16:34:58Z</time></trkpt><trkpt lat="45.633093721093495" lon="10.064572540909708"><ele>288.6</ele><time>2026-03-22T16:34:59Z</time></trkpt><trkpt lat="45.633035940485186" lon="10.064524576370108"><ele>288.0</ele><time>2026-03-22T16:35:00Z</time></trkpt><trkpt lat="45.63295254499042" lon="10.064451407289216"><ele>288.0</ele><time>2026-03-22T16:35:03Z</time></trkpt><trkpt lat="45.632829603455725" lon="10.064367436801126"><ele>288.0</ele><time>2026-03-22T16:35:05Z</time></trkpt><trkpt lat="45.63279083587146" lon="10.064176584159929"><ele>288.0</ele><time>2026-03-22T16:35:06Z</time></trkpt><trkpt lat="45.63273249077715" lon="10.064082606483213"><ele>288.0</ele><time>2026-03-22T16:35:07Z</time></trkpt><trkpt lat="45.63265322069985" lon="10.064021571703055"><ele>283.6</ele><time>2026-03-22T16:35:08Z</time></trkpt><trkpt lat="45.63257493303083" lon="10.063948780347259"><ele>279.20000000000005</ele><time>2026-03-22T16:35:09Z</time></trkpt><trkpt lat="45.6324947040216" lon="10.063877744418656"><ele>274.8</ele><time>2026-03-22T16:35:10Z</time></trkpt><trkpt lat="45.632411765473556" lon="10.0638091975913"><ele>270.40000000000003</ele><time>2026-03-22T16:35:11Z</time></trkpt><trkpt lat="45.63231025542069" lon="10.06379390682662"><ele>266.0</ele><time>2026-03-22T16:35:12Z</time></trkpt><trkpt lat="45.63220763248306" lon="10.063784937403176"><ele>266.0</ele><time>2026-03-22T16:35:13Z</time></trkpt><trkpt lat="45.632114496002735" lon="10.063808499824956"><ele>266.0</ele><time>2026-03-22T16:35:14Z</time></trkpt><trkpt lat="45.63202210094152" lon="10.063855162513011"><ele>266.0</ele><time>2026-03-22T16:35:15Z</time></trkpt><trkpt lat="45.63192121962133" lon="10.063915114642258"><ele>266.0</ele><time>2026-03-22T16:35:16Z</time></trkpt><trkpt lat="45.63180130254988" lon="10.063963591327806"><ele>266.0</ele><time>2026-03-22T16:35:17Z</time></trkpt><trkpt lat="45.631690005569276" lon="10.064045576554944"><ele>267.0</ele><time>2026-03-22T16:35:18Z</time></trkpt><trkpt lat="45.63157758121635" lon="10.06414569989252"><ele>268.0</ele><time>2026-03-22T16:35:19Z</time></trkpt><trkpt lat="45.63146210038364" lon="10.064220548455683"><ele>269.0</ele><time>2026-03-22T16:35:20Z</time></trkpt><trkpt lat="45.631346597583324" lon="10.064271669307272"><ele>270.0</ele><time>2026-03-22T16:35:21Z</time></trkpt><trkpt lat="45.63124605649279" lon="10.064330570539864"><ele>270.0</ele><time>2026-03-22T16:35:22Z</time></trkpt><trkpt lat="45.63114792739363" lon="10.064381993505346"><ele>270.0</ele><time>2026-03-22T16:35:23Z</time></trkpt><trkpt lat="45.63104861040077" lon="10.064442942674985"><ele>270.0</ele><time>2026-03-22T16:35:24Z</time></trkpt><trkpt lat="45.630954455727654" lon="10.064466015446442"><ele>270.0</ele><time>2026-03-22T16:35:25Z</time></trkpt><trkpt lat="45.6308519416878" lon="10.06445740660668"><ele>270.0</ele><time>2026-03-22T16:35:26Z</time></trkpt><trkpt lat="45.6307538797376" lon="10.064452333757242"><ele>266.6</ele><time>2026-03-22T16:35:27Z</time></trkpt><trkpt lat="45.63067258647993" lon="10.064431095469768"><ele>263.2</ele><time>2026-03-22T16:35:28Z</time></trkpt><trkpt lat="45.63057751082493" lon="10.064424767846525"><ele>259.8</ele><time>2026-03-22T16:35:29Z</time></trkpt><trkpt lat="45.63051624685709" lon="10.06439375210251"><ele>256.4</ele><time>2026-03-22T16:35:30Z</time></trkpt><trkpt lat="45.63039197580722" lon="10.064370020541658"><ele>253.0</ele><time>2026-03-22T16:35:32Z</time></trkpt><trkpt lat="45.630303989024064" lon="10.064373654870481"><ele>252.4</ele><time>2026-03-22T16:35:33Z</time></trkpt><trkpt lat="45.630205015688304" lon="10.064446225150236"><ele>251.8</ele><time>2026-03-22T16:35:34Z</time></trkpt><trkpt lat="45.630104439988095" lon="10.064494366039176"><ele>251.2</ele><time>2026-03-22T16:35:35Z</time></trkpt><trkpt lat="45.629995660244404" lon="10.06453102067968"><ele>250.6</ele><time>2026-03-22T16:35:36Z</time></trkpt><trkpt lat="45.629889678909194" lon="10.06453332869744"><ele>250.0</ele><time>2026-03-22T16:35:37Z</time></trkpt><trkpt lat="45.629788445180544" lon="10.064561271455355"><ele>250.0</ele><time>2026-03-22T16:35:38Z</time></trkpt><trkpt lat="45.62969045423099" lon="10.064558176843926"><ele>250.0</ele><time>2026-03-22T16:35:39Z</time></trkpt><trkpt lat="45.62959069103491" lon="10.064550868888098"><ele>250.0</ele><time>2026-03-22T16:35:40Z</time></trkpt><trkpt lat="45.629490917697595" lon="10.064554335631545"><ele>250.0</ele><time>2026-03-22T16:35:41Z</time></trkpt><trkpt lat="45.629391064473985" lon="10.064561505129554"><ele>250.0</ele><time>2026-03-22T16:35:42Z</time></trkpt><trkpt lat="45.629285939175595" lon="10.064540022661236"><ele>249.6</ele><time>2026-03-22T16:35:43Z</time></trkpt><trkpt lat="45.62917772152663" lon="10.06454630742633"><ele>249.2</ele><time>2026-03-22T16:35:44Z</time></trkpt><trkpt lat="45.629070092859784" lon="10.064558425295333"><ele>248.8</ele><time>2026-03-22T16:35:45Z</time></trkpt><trkpt lat="45.6289677768842" lon="10.064598920380389"><ele>248.4</ele><time>2026-03-22T16:35:46Z</time></trkpt><trkpt lat="45.62886121250449" lon="10.064617725618033"><ele>248.0</ele><time>2026-03-22T16:35:47Z</time></trkpt><trkpt lat="45.62875583445069" lon="10.064628141222693"><ele>248.0</ele><time>2026-03-22T16:35:48Z</time></trkpt><trkpt lat="45.62864327497016" lon="10.064662754613"><ele>248.0</ele><time>2026-03-22T16:35:49Z</time></trkpt><trkpt lat="45.628531251551024" lon="10.064701475930981"><ele>248.0</ele><time>2026-03-22T16:35:50Z</time></trkpt><trkpt lat="45.62841698783261" lon="10.064753265984402"><ele>248.0</ele><time>2026-03-22T16:35:51Z</time></trkpt><trkpt lat="45.62830933891597" lon="10.06481411601012"><ele>247.0</ele><time>2026-03-22T16:35:52Z</time></trkpt><trkpt lat="45.62820792622948" lon="10.064875797024918"><ele>246.0</ele><time>2026-03-22T16:35:53Z</time></trkpt><trkpt lat="45.62810115137874" lon="10.064944667584845"><ele>245.0</ele><time>2026-03-22T16:35:54Z</time></trkpt><trkpt lat="45.62799926889676" lon="10.065010382505463"><ele>244.0</ele><time>2026-03-22T16:35:55Z</time></trkpt><trkpt lat="45.627909476128686" lon="10.0650682994986"><ele>243.0</ele><time>2026-03-22T16:35:56Z</time></trkpt><trkpt lat="45.62783044865265" lon="10.0651154780617"><ele>243.0</ele><time>2026-03-22T16:35:57Z</time></trkpt><trkpt lat="45.627752249029434" lon="10.065147143450123"><ele>243.0</ele><time>2026-03-22T16:35:58Z</time></trkpt><trkpt lat="45.62765384073808" lon="10.065132740516912"><ele>243.0</ele><time>2026-03-22T16:36:00Z</time></trkpt><trkpt lat="45.627561886407086" lon="10.065070045179946"><ele>243.0</ele><time>2026-03-22T16:36:04Z</time></trkpt><trkpt lat="45.62762302948314" lon="10.064846777536253"><ele>243.0</ele><time>2026-03-22T16:36:05Z</time></trkpt><trkpt lat="45.627667006216186" lon="10.064712958529368"><ele>243.0</ele><time>2026-03-22T16:36:06Z</time></trkpt><trkpt lat="45.62770543523148" lon="10.064564577158622"><ele>243.0</ele><time>2026-03-22T16:36:07Z</time></trkpt><trkpt lat="45.62775572711389" lon="10.06441337501377"><ele>243.0</ele><time>2026-03-22T16:36:08Z</time></trkpt><trkpt lat="45.627787378452545" lon="10.064232826219744"><ele>243.5</ele><time>2026-03-22T16:36:09Z</time></trkpt><trkpt lat="45.627801324216684" lon="10.064046825423095"><ele>244.0</ele><time>2026-03-22T16:36:10Z</time></trkpt><trkpt lat="45.627810558277034" lon="10.063858356707621"><ele>244.5</ele><time>2026-03-22T16:36:11Z</time></trkpt><trkpt lat="45.62787272738305" lon="10.063636956537689"><ele>245.0</ele><time>2026-03-22T16:36:12Z</time></trkpt><trkpt lat="45.62790741732406" lon="10.063359481035048"><ele>246.33333333333334</ele><time>2026-03-22T16:36:13Z</time></trkpt><trkpt lat="45.62795520921204" lon="10.063102710252636"><ele>247.66666666666669</ele><time>2026-03-22T16:36:14Z</time></trkpt><trkpt lat="45.62799461336842" lon="10.062865512900624"><ele>249.0</ele><time>2026-03-22T16:36:15Z</time></trkpt><trkpt lat="45.62804286962118" lon="10.06262339459113"><ele>250.0</ele><time>2026-03-22T16:36:16Z</time></trkpt><trkpt lat="45.6281045088691" lon="10.062441764385701"><ele>251.0</ele><time>2026-03-22T16:36:17Z</time></trkpt><trkpt lat="45.62816255404967" lon="10.062285741017755"><ele>252.0</ele><time>2026-03-22T16:36:18Z</time></trkpt><trkpt lat="45.628242806259365" lon="10.062106674256158"><ele>253.0</ele><time>2026-03-22T16:36:19Z</time></trkpt><trkpt lat="45.62834794654065" lon="10.061955076203054"><ele>253.0</ele><time>2026-03-22T16:36:20Z</time></trkpt><trkpt lat="45.62844175741082" lon="10.061831121390322"><ele>253.0</ele><time>2026-03-22T16:36:21Z</time></trkpt><trkpt lat="45.628536479830665" lon="10.061708339235883"><ele>253.0</ele><time>2026-03-22T16:36:22Z</time></trkpt><trkpt lat="45.62862504960949" lon="10.061564136204725"><ele>253.0</ele><time>2026-03-22T16:36:23Z</time></trkpt><trkpt lat="45.62873723494858" lon="10.061425337957674"><ele>254.0</ele><time>2026-03-22T16:36:24Z</time></trkpt><trkpt lat="45.62883530960697" lon="10.061293207788243"><ele>255.0</ele><time>2026-03-22T16:36:25Z</time></trkpt><trkpt lat="45.6288986427299" lon="10.061181125667549"><ele>256.0</ele><time>2026-03-22T16:36:26Z</time></trkpt><trkpt lat="45.62897825234246" lon="10.061105386010755"><ele>257.0</ele><time>2026-03-22T16:36:28Z</time></trkpt><trkpt lat="45.628796108490455" lon="10.06102182746983"><ele>257.0</ele><time>2026-03-22T16:36:32Z</time></trkpt><trkpt lat="45.628733191936426" lon="10.061028548862538"><ele>257.0</ele><time>2026-03-22T16:36:33Z</time></trkpt><trkpt lat="45.628635298174494" lon="10.061005955045504"><ele>257.0</ele><time>2026-03-22T16:36:34Z</time></trkpt><trkpt lat="45.62852436116885" lon="10.06095952832457"><ele>257.0</ele><time>2026-03-22T16:36:35Z</time></trkpt><trkpt lat="45.62842661256011" lon="10.06092322033579"><ele>257.0</ele><time>2026-03-22T16:36:36Z</time></trkpt><trkpt lat="45.62830781382717" lon="10.060915223960112"><ele>258.5</ele><time>2026-03-22T16:36:37Z</time></trkpt><trkpt lat="45.62820077085193" lon="10.060904562637035"><ele>260.0</ele><time>2026-03-22T16:36:38Z</time></trkpt><trkpt lat="45.62808192999076" lon="10.060887148175954"><ele>261.5</ele><time>2026-03-22T16:36:39Z</time></trkpt><trkpt lat="45.62796368774594" lon="10.06088141695032"><ele>263.0</ele><time>2026-03-22T16:36:40Z</time></trkpt><trkpt lat="45.62785224462758" lon="10.060869021618116"><ele>261.25</ele><time>2026-03-22T16:36:41Z</time></trkpt><trkpt lat="45.627734906210364" lon="10.060837053983978"><ele>259.5</ele><time>2026-03-22T16:36:42Z</time></trkpt><trkpt lat="45.62762424653141" lon="10.06078804238763"><ele>257.75</ele><time>2026-03-22T16:36:43Z</time></trkpt><trkpt lat="45.627501759337754" lon="10.060739648953975"><ele>256.0</ele><time>2026-03-22T16:36:44Z</time></trkpt><trkpt lat="45.62738615621856" lon="10.060685926778048"><ele>259.0</ele><time>2026-03-22T16:36:45Z</time></trkpt><trkpt lat="45.62728298012117" lon="10.060636030714925"><ele>262.0</ele><time>2026-03-22T16:36:46Z</time></trkpt><trkpt lat="45.627158941428306" lon="10.060642630380881"><ele>265.0</ele><time>2026-03-22T16:36:47Z</time></trkpt><trkpt lat="45.627032866949754" lon="10.060648304249398"><ele>268.0</ele><time>2026-03-22T16:36:48Z</time></trkpt><trkpt lat="45.6269045835966" lon="10.060638032747864"><ele>268.0</ele><time>2026-03-22T16:36:49Z</time></trkpt><trkpt lat="45.626768211550775" lon="10.06060180766507"><ele>268.0</ele><time>2026-03-22T16:36:50Z</time></trkpt><trkpt lat="45.626638446532546" lon="10.060568304912938"><ele>268.0</ele><time>2026-03-22T16:36:51Z</time></trkpt><trkpt lat="45.62651131337071" lon="10.060540102233714"><ele>268.0</ele><time>2026-03-22T16:36:52Z</time></trkpt><trkpt lat="45.626419948737954" lon="10.06053636538026"><ele>268.0</ele><time>2026-03-22T16:36:53Z</time></trkpt><trkpt lat="45.62635284724685" lon="10.060547073071367"><ele>268.0</ele><time>2026-03-22T16:36:54Z</time></trkpt><trkpt lat="45.62626473370704" lon="10.060561317200785"><ele>268.0</ele><time>2026-03-22T16:36:55Z</time></trkpt><trkpt lat="45.62616691952165" lon="10.0605716699618"><ele>268.0</ele><time>2026-03-22T16:36:56Z</time></trkpt><trkpt lat="45.626061780004605" lon="10.060571051299677"><ele>268.0</ele><time>2026-03-22T16:36:57Z</time></trkpt><trkpt lat="45.625945196673094" lon="10.060574056296696"><ele>266.8</ele><time>2026-03-22T16:36:58Z</time></trkpt><trkpt lat="45.62586621999591" lon="10.060644455320542"><ele>265.6</ele><time>2026-03-22T16:36:59Z</time></trkpt><trkpt lat="45.62578359532953" lon="10.06070540380113"><ele>264.4</ele><time>2026-03-22T16:37:00Z</time></trkpt><trkpt lat="45.62570132813909" lon="10.060714830870324"><ele>263.2</ele><time>2026-03-22T16:37:01Z</time></trkpt><trkpt lat="45.62559363988052" lon="10.06067032668102"><ele>262.0</ele><time>2026-03-22T16:37:02Z</time></trkpt><trkpt lat="45.6254780587366" lon="10.060631801679138"><ele>262.0</ele><time>2026-03-22T16:37:03Z</time></trkpt><trkpt lat="45.62538254584728" lon="10.060603823582687"><ele>262.0</ele><time>2026-03-22T16:37:04Z</time></trkpt><trkpt lat="45.62530898982042" lon="10.060562784980755"><ele>262.0</ele><time>2026-03-22T16:37:05Z</time></trkpt><trkpt lat="45.62524294904292" lon="10.060465836222539"><ele>262.0</ele><time>2026-03-22T16:37:06Z</time></trkpt><trkpt lat="45.62516007774157" lon="10.060384787129527"><ele>262.0</ele><time>2026-03-22T16:37:07Z</time></trkpt><trkpt lat="45.62506972332188" lon="10.060350564195147"><ele>262.6</ele><time>2026-03-22T16:37:08Z</time></trkpt><trkpt lat="45.62499634181102" lon="10.060356811089592"><ele>263.2</ele><time>2026-03-22T16:37:09Z</time></trkpt><trkpt lat="45.62493675754204" lon="10.060245984866993"><ele>263.8</ele><time>2026-03-22T16:37:11Z</time></trkpt><trkpt lat="45.62494825358987" lon="10.06011599438273"><ele>264.4</ele><time>2026-03-22T16:37:12Z</time></trkpt><trkpt lat="45.62498622214393" lon="10.059965908219773"><ele>265.0</ele><time>2026-03-22T16:37:13Z</time></trkpt><trkpt lat="45.62502018681274" lon="10.059832647538334"><ele>265.0</ele><time>2026-03-22T16:37:14Z</time></trkpt><trkpt lat="45.62501119622362" lon="10.059738779183492"><ele>265.0</ele><time>2026-03-22T16:37:15Z</time></trkpt><trkpt lat="45.624964859324784" lon="10.05967309610618"><ele>265.0</ele><time>2026-03-22T16:37:16Z</time></trkpt><trkpt lat="45.62492381664829" lon="10.059601413574605"><ele>265.0</ele><time>2026-03-22T16:37:17Z</time></trkpt><trkpt lat="45.62491538369088" lon="10.05949252261063"><ele>265.0</ele><time>2026-03-22T16:37:18Z</time></trkpt><trkpt lat="45.624929366586244" lon="10.059353173839098"><ele>265.0</ele><time>2026-03-22T16:37:19Z</time></trkpt><trkpt lat="45.62494448123783" lon="10.059206803287385"><ele>267.8</ele><time>2026-03-22T16:37:20Z</time></trkpt><trkpt lat="45.62493295478689" lon="10.059055210381821"><ele>270.6</ele><time>2026-03-22T16:37:21Z</time></trkpt><trkpt lat="45.62494892948321" lon="10.058898571910479"><ele>273.4</ele><time>2026-03-22T16:37:22Z</time></trkpt><trkpt lat="45.62497625670787" lon="10.0587435161921"><ele>276.2</ele><time>2026-03-22T16:37:23Z</time></trkpt><trkpt lat="45.62501171890372" lon="10.058642543749976"><ele>279.0</ele><time>2026-03-22T16:37:24Z</time></trkpt><trkpt lat="45.6249577124444" lon="10.058507753417114"><ele>279.0</ele><time>2026-03-22T16:37:26Z</time></trkpt><trkpt lat="45.624838733212165" lon="10.058474568187773"><ele>279.0</ele><time>2026-03-22T16:37:27Z</time></trkpt><trkpt lat="45.62467112170844" lon="10.058419899970087"><ele>279.0</ele><time>2026-03-22T16:37:28Z</time></trkpt><trkpt lat="45.62452376906691" lon="10.058349671611502"><ele>279.0</ele><time>2026-03-22T16:37:29Z</time></trkpt><trkpt lat="45.624419744582966" lon="10.058343530206926"><ele>278.0</ele><time>2026-03-22T16:37:30Z</time></trkpt><trkpt lat="45.624294599514535" lon="10.058397597336183"><ele>277.0</ele><time>2026-03-22T16:37:31Z</time></trkpt><trkpt lat="45.624204122399604" lon="10.058455525020445"><ele>276.0</ele><time>2026-03-22T16:37:32Z</time></trkpt><trkpt lat="45.62415987768883" lon="10.058540479452281"><ele>275.0</ele><time>2026-03-22T16:37:33Z</time></trkpt><trkpt lat="45.62414890088139" lon="10.058705516053683"><ele>274.0</ele><time>2026-03-22T16:37:34Z</time></trkpt><trkpt lat="45.624133825930336" lon="10.05891167624046"><ele>274.0</ele><time>2026-03-22T16:37:35Z</time></trkpt><trkpt lat="45.62410639548628" lon="10.059049741326708"><ele>274.0</ele><time>2026-03-22T16:37:36Z</time></trkpt><trkpt lat="45.62406018362475" lon="10.0591169286339"><ele>274.0</ele><time>2026-03-22T16:37:38Z</time></trkpt><trkpt lat="45.62391551904047" lon="10.05913297780927"><ele>274.0</ele><time>2026-03-22T16:37:40Z</time></trkpt><trkpt lat="45.62380017627218" lon="10.059097787804035"><ele>274.0</ele><time>2026-03-22T16:37:41Z</time></trkpt><trkpt lat="45.62367024125244" lon="10.059146968286157"><ele>271.8</ele><time>2026-03-22T16:37:42Z</time></trkpt><trkpt lat="45.62356598135301" lon="10.059191432610747"><ele>269.59999999999997</ele><time>2026-03-22T16:37:43Z</time></trkpt><trkpt lat="45.6234795007592" lon="10.059260313263392"><ele>267.4</ele><time>2026-03-22T16:37:44Z</time></trkpt><trkpt lat="45.623407395739626" lon="10.059338903850689"><ele>265.2</ele><time>2026-03-22T16:37:45Z</time></trkpt><trkpt lat="45.62331806373047" lon="10.05940157060137"><ele>263.0</ele><time>2026-03-22T16:37:46Z</time></trkpt><trkpt lat="45.623211736005906" lon="10.059427355333856"><ele>263.0</ele><time>2026-03-22T16:37:47Z</time></trkpt><trkpt lat="45.62312134982125" lon="10.059428912948444"><ele>263.0</ele><time>2026-03-22T16:37:48Z</time></trkpt><trkpt lat="45.623046439375095" lon="10.059426404819176"><ele>263.0</ele><time>2026-03-22T16:37:49Z</time></trkpt><trkpt lat="45.622970066731845" lon="10.059445625357636"><ele>263.0</ele><time>2026-03-22T16:37:50Z</time></trkpt><trkpt lat="45.6228884439876" lon="10.059449320057942"><ele>263.0</ele><time>2026-03-22T16:37:51Z</time></trkpt><trkpt lat="45.62281124348796" lon="10.05943613132921"><ele>263.0</ele><time>2026-03-22T16:37:52Z</time></trkpt><trkpt lat="45.62271803263425" lon="10.059385090486789"><ele>263.83333333333337</ele><time>2026-03-22T16:37:54Z</time></trkpt><trkpt lat="45.62265576194004" lon="10.059284878484254"><ele>264.6666666666667</ele><time>2026-03-22T16:37:55Z</time></trkpt><trkpt lat="45.62260942014279" lon="10.05920953562234"><ele>265.5</ele><time>2026-03-22T16:37:56Z</time></trkpt><trkpt lat="45.62259117542063" lon="10.059063259166726"><ele>266.3333333333333</ele><time>2026-03-22T16:37:58Z</time></trkpt><trkpt lat="45.62261370584519" lon="10.058970590803746"><ele>267.16666666666663</ele><time>2026-03-22T16:37:59Z</time></trkpt><trkpt lat="45.62262582232335" lon="10.058859783206833"><ele>268.0</ele><time>2026-03-22T16:38:00Z</time></trkpt><trkpt lat="45.62260992950707" lon="10.058717412366672"><ele>271.0</ele><time>2026-03-22T16:38:02Z</time></trkpt><trkpt lat="45.62255621900074" lon="10.058633224644657"><ele>274.0</ele><time>2026-03-22T16:38:03Z</time></trkpt><trkpt lat="45.622525277269254" lon="10.058539428361616"><ele>277.0</ele><time>2026-03-22T16:38:04Z</time></trkpt><trkpt lat="45.622498070822466" lon="10.058330184282429"><ele>280.0</ele><time>2026-03-22T16:38:06Z</time></trkpt><trkpt lat="45.62256648832892" lon="10.058018368985167"><ele>281.8</ele><time>2026-03-22T16:38:13Z</time></trkpt><trkpt lat="45.62255114737121" lon="10.0579258985362"><ele>283.6</ele><time>2026-03-22T16:38:14Z</time></trkpt><trkpt lat="45.62251200235912" lon="10.05785525447264"><ele>285.4</ele><time>2026-03-22T16:38:15Z</time></trkpt><trkpt lat="45.62247783293608" lon="10.05777138121535"><ele>287.2</ele><time>2026-03-22T16:38:17Z</time></trkpt><trkpt lat="45.62243952355563" lon="10.057591896127686"><ele>289.0</ele><time>2026-03-22T16:38:19Z</time></trkpt><trkpt lat="45.6223764114541" lon="10.057429117408958"><ele>292.0</ele><time>2026-03-22T16:38:21Z</time></trkpt><trkpt lat="45.622341807225524" lon="10.057346351065036"><ele>295.0</ele><time>2026-03-22T16:38:22Z</time></trkpt><trkpt lat="45.62229546214549" lon="10.057229785650451"><ele>298.0</ele><time>2026-03-22T16:38:24Z</time></trkpt><trkpt lat="45.622222758633704" lon="10.057136632113778"><ele>301.0</ele><time>2026-03-22T16:38:27Z</time></trkpt><trkpt lat="45.6221071472855" lon="10.057129731817204"><ele>304.0</ele><time>2026-03-22T16:38:29Z</time></trkpt><trkpt lat="45.62200345355434" lon="10.057125111114711"><ele>302.66666666666663</ele><time>2026-03-22T16:38:31Z</time></trkpt><trkpt lat="45.62192307756377" lon="10.0570901081395"><ele>301.3333333333333</ele><time>2026-03-22T16:38:33Z</time></trkpt><trkpt lat="45.621827542317384" lon="10.057079379870096"><ele>300.0</ele><time>2026-03-22T16:38:35Z</time></trkpt><trkpt lat="45.62175705708718" lon="10.057071835800436"><ele>298.6666666666667</ele><time>2026-03-22T16:38:36Z</time></trkpt><trkpt lat="45.62167919954782" lon="10.057071422162771"><ele>297.33333333333337</ele><time>2026-03-22T16:38:37Z</time></trkpt><trkpt lat="45.62160370749639" lon="10.057036591919289"><ele>296.0</ele><time>2026-03-22T16:38:38Z</time></trkpt><trkpt lat="45.62149017665328" lon="10.05704171759642"><ele>296.0</ele><time>2026-03-22T16:38:39Z</time></trkpt><trkpt lat="45.62137883872195" lon="10.05707453439306"><ele>296.0</ele><time>2026-03-22T16:38:40Z</time></trkpt><trkpt lat="45.62130087167318" lon="10.057104866122065"><ele>296.0</ele><time>2026-03-22T16:38:41Z</time></trkpt><trkpt lat="45.621220259468664" lon="10.05710050307483"><ele>296.0</ele><time>2026-03-22T16:38:42Z</time></trkpt><trkpt lat="45.621126909808154" lon="10.057067823122926"><ele>296.0</ele><time>2026-03-22T16:38:43Z</time></trkpt><trkpt lat="45.62103492909635" lon="10.057036259188607"><ele>295.6</ele><time>2026-03-22T16:38:44Z</time></trkpt><trkpt lat="45.6209031795913" lon="10.057097654494298"><ele>295.20000000000005</ele><time>2026-03-22T16:38:46Z</time></trkpt><trkpt lat="45.62081819041823" lon="10.057068525947134"><ele>294.79999999999995</ele><time>2026-03-22T16:38:47Z</time></trkpt><trkpt lat="45.62075389705546" lon="10.057047254232744"><ele>294.4</ele><time>2026-03-22T16:38:48Z</time></trkpt><trkpt lat="45.62066835268224" lon="10.056997782112644"><ele>294.0</ele><time>2026-03-22T16:38:50Z</time></trkpt><trkpt lat="45.62052922492996" lon="10.056978146544921"><ele>294.0</ele><time>2026-03-22T16:38:52Z</time></trkpt><trkpt lat="45.620412187064304" lon="10.056962964059208"><ele>294.0</ele><time>2026-03-22T16:38:54Z</time></trkpt><trkpt lat="45.62034520833869" lon="10.056991756809749"><ele>294.0</ele><time>2026-03-22T16:38:55Z</time></trkpt><trkpt lat="45.62027116187501" lon="10.057002858955412"><ele>294.0</ele><time>2026-03-22T16:38:56Z</time></trkpt><trkpt lat="45.620192320456795" lon="10.057007960298826"><ele>294.0</ele><time>2026-03-22T16:38:57Z</time></trkpt><trkpt lat="45.620112868960675" lon="10.057013691090335"><ele>294.0</ele><time>2026-03-22T16:38:58Z</time></trkpt><trkpt lat="45.620024549566395" lon="10.05699684813913"><ele>292.4</ele><time>2026-03-22T16:38:59Z</time></trkpt><trkpt lat="45.619905615172584" lon="10.056972965788438"><ele>290.79999999999995</ele><time>2026-03-22T16:39:00Z</time></trkpt><trkpt lat="45.61979130753199" lon="10.056944771903506"><ele>289.20000000000005</ele><time>2026-03-22T16:39:01Z</time></trkpt><trkpt lat="45.619690575775124" lon="10.056921344678885"><ele>287.6</ele><time>2026-03-22T16:39:02Z</time></trkpt><trkpt lat="45.61959119074905" lon="10.056875547847504"><ele>286.0</ele><time>2026-03-22T16:39:03Z</time></trkpt><trkpt lat="45.61948741364385" lon="10.05681921416452"><ele>284.2</ele><time>2026-03-22T16:39:04Z</time></trkpt><trkpt lat="45.619390916645976" lon="10.056776313867907"><ele>282.40000000000003</ele><time>2026-03-22T16:39:05Z</time></trkpt><trkpt lat="45.619284599132364" lon="10.056745868726205"><ele>280.6</ele><time>2026-03-22T16:39:06Z</time></trkpt><trkpt lat="45.61918055376686" lon="10.0567261860772"><ele>278.8</ele><time>2026-03-22T16:39:07Z</time></trkpt><trkpt lat="45.619085122178895" lon="10.056692472130317"><ele>277.0</ele><time>2026-03-22T16:39:08Z</time></trkpt><trkpt lat="45.618994148872574" lon="10.056636568103217"><ele>279.3333333333333</ele><time>2026-03-22T16:39:09Z</time></trkpt><trkpt lat="45.61891840034606" lon="10.056610613505104"><ele>281.66666666666663</ele><time>2026-03-22T16:39:10Z</time></trkpt><trkpt lat="45.61881315469534" lon="10.05657132492916"><ele>284.0</ele><time>2026-03-22T16:39:12Z</time></trkpt><trkpt lat="45.61876908247956" lon="10.056489893078075"><ele>286.3333333333333</ele><time>2026-03-22T16:39:13Z</time></trkpt><trkpt lat="45.618720791998875" lon="10.056411377348851"><ele>288.6666666666667</ele><time>2026-03-22T16:39:14Z</time></trkpt><trkpt lat="45.618654240091814" lon="10.056347217458345"><ele>291.0</ele><time>2026-03-22T16:39:15Z</time></trkpt><trkpt lat="45.6185873285479" lon="10.056284901496198"><ele>291.0</ele><time>2026-03-22T16:39:16Z</time></trkpt><trkpt lat="45.61851324754373" lon="10.056215441249226"><ele>291.0</ele><time>2026-03-22T16:39:17Z</time></trkpt><trkpt lat="45.61843928086421" lon="10.056142558870613"><ele>291.0</ele><time>2026-03-22T16:39:18Z</time></trkpt><trkpt lat="45.618358572123256" lon="10.056058838584024"><ele>291.0</ele><time>2026-03-22T16:39:19Z</time></trkpt><trkpt lat="45.618282494202155" lon="10.05597600479366"><ele>291.0</ele><time>2026-03-22T16:39:20Z</time></trkpt><trkpt lat="45.61820461128807" lon="10.055906803073158"><ele>291.0</ele><time>2026-03-22T16:39:21Z</time></trkpt><trkpt lat="45.61814772004324" lon="10.055850924147977"><ele>291.0</ele><time>2026-03-22T16:39:22Z</time></trkpt><trkpt lat="45.618066907039754" lon="10.055719990142212"><ele>291.0</ele><time>2026-03-22T16:39:24Z</time></trkpt><trkpt lat="45.61801321535749" lon="10.055559030721733"><ele>291.0</ele><time>2026-03-22T16:39:26Z</time></trkpt><trkpt lat="45.617946298280636" lon="10.055472639187506"><ele>291.0</ele><time>2026-03-22T16:39:27Z</time></trkpt><trkpt lat="45.61787164327003" lon="10.055396655725264"><ele>293.40000000000003</ele><time>2026-03-22T16:39:28Z</time></trkpt><trkpt lat="45.617794194749514" lon="10.055319833388412"><ele>295.8</ele><time>2026-03-22T16:39:29Z</time></trkpt><trkpt lat="45.61771926146328" lon="10.055199386591124"><ele>298.20000000000005</ele><time>2026-03-22T16:39:30Z</time></trkpt><trkpt lat="45.6176556549359" lon="10.05512314493529"><ele>300.6</ele><time>2026-03-22T16:39:31Z</time></trkpt><trkpt lat="45.61760187092027" lon="10.055035961534019"><ele>303.0</ele><time>2026-03-22T16:39:32Z</time></trkpt><trkpt lat="45.6175425233032" lon="10.054952180340472"><ele>305.6</ele><time>2026-03-22T16:39:33Z</time></trkpt><trkpt lat="45.61748661517115" lon="10.054879853388348"><ele>308.20000000000005</ele><time>2026-03-22T16:39:34Z</time></trkpt><trkpt lat="45.617411695802346" lon="10.054720524810483"><ele>310.8</ele><time>2026-03-22T16:39:36Z</time></trkpt><trkpt lat="45.61739667474594" lon="10.054537503004216"><ele>313.40000000000003</ele><time>2026-03-22T16:39:38Z</time></trkpt><trkpt lat="45.6173401001531" lon="10.054449266744108"><ele>316.0</ele><time>2026-03-22T16:39:40Z</time></trkpt><trkpt lat="45.61730475061401" lon="10.054332165721778"><ele>316.0</ele><time>2026-03-22T16:39:43Z</time></trkpt><trkpt lat="45.6172545928952" lon="10.054208129901046"><ele>316.0</ele><time>2026-03-22T16:39:45Z</time></trkpt><trkpt lat="45.61717872084221" lon="10.054117537940208"><ele>316.0</ele><time>2026-03-22T16:39:49Z</time></trkpt><trkpt lat="45.61709578491519" lon="10.054041424230633"><ele>316.0</ele><time>2026-03-22T16:39:51Z</time></trkpt><trkpt lat="45.616968434408626" lon="10.0539174981805"><ele>315.25</ele><time>2026-03-22T16:39:53Z</time></trkpt><trkpt lat="45.616900860615175" lon="10.053852593503523"><ele>314.5</ele><time>2026-03-22T16:39:54Z</time></trkpt><trkpt lat="45.61681317356748" lon="10.053781346765012"><ele>313.75</ele><time>2026-03-22T16:39:55Z</time></trkpt><trkpt lat="45.616695359514374" lon="10.053695723792325"><ele>313.0</ele><time>2026-03-22T16:39:56Z</time></trkpt><trkpt lat="45.61654294179342" lon="10.053626789370847"><ele>313.0</ele><time>2026-03-22T16:39:57Z</time></trkpt><trkpt lat="45.61642881168093" lon="10.053539902726925"><ele>313.0</ele><time>2026-03-22T16:39:58Z</time></trkpt><trkpt lat="45.6163346956733" lon="10.053476004887825"><ele>313.0</ele><time>2026-03-22T16:39:59Z</time></trkpt><trkpt lat="45.61626182767572" lon="10.053427900600646"><ele>313.0</ele><time>2026-03-22T16:40:00Z</time></trkpt><trkpt lat="45.6162002414855" lon="10.05336814875365"><ele>313.0</ele><time>2026-03-22T16:40:01Z</time></trkpt><trkpt lat="45.61610956948104" lon="10.053243546437294"><ele>311.3333333333333</ele><time>2026-03-22T16:40:03Z</time></trkpt><trkpt lat="45.616030529168874" lon="10.053218570000938"><ele>309.66666666666663</ele><time>2026-03-22T16:40:04Z</time></trkpt><trkpt lat="45.61592771279745" lon="10.053203431572523"><ele>308.0</ele><time>2026-03-22T16:40:05Z</time></trkpt><trkpt lat="45.61584301330419" lon="10.053181780655033"><ele>306.3333333333333</ele><time>2026-03-22T16:40:06Z</time></trkpt><trkpt lat="45.61577089294342" lon="10.053120338313345"><ele>304.6666666666667</ele><time>2026-03-22T16:40:07Z</time></trkpt><trkpt lat="45.6157097592131" lon="10.053045528864397"><ele>303.0</ele><time>2026-03-22T16:40:08Z</time></trkpt><trkpt lat="45.615648016514385" lon="10.05296523654718"><ele>303.0</ele><time>2026-03-22T16:40:09Z</time></trkpt><trkpt lat="45.615545126030284" lon="10.052760037066177"><ele>303.0</ele><time>2026-03-22T16:40:10Z</time></trkpt><trkpt lat="45.61542833964461" lon="10.052634555012629"><ele>303.0</ele><time>2026-03-22T16:40:11Z</time></trkpt><trkpt lat="45.615326674694515" lon="10.052512348231213"><ele>303.5</ele><time>2026-03-22T16:40:12Z</time></trkpt><trkpt lat="45.61523607306855" lon="10.05237993979487"><ele>304.0</ele><time>2026-03-22T16:40:13Z</time></trkpt><trkpt lat="45.61514604776468" lon="10.052277231863012"><ele>304.5</ele><time>2026-03-22T16:40:14Z</time></trkpt><trkpt lat="45.615063373008034" lon="10.05216174322688"><ele>305.0</ele><time>2026-03-22T16:40:15Z</time></trkpt><trkpt lat="45.614976389444564" lon="10.052044192957457"><ele>305.0</ele><time>2026-03-22T16:40:16Z</time></trkpt><trkpt lat="45.61492477288779" lon="10.051970731379404"><ele>305.0</ele><time>2026-03-22T16:40:17Z</time></trkpt><trkpt lat="45.61490327276036" lon="10.051880380157337"><ele>305.0</ele><time>2026-03-22T16:40:18Z</time></trkpt><trkpt lat="45.61488505374188" lon="10.051758004483874"><ele>305.0</ele><time>2026-03-22T16:40:19Z</time></trkpt><trkpt lat="45.61486229047892" lon="10.051671801274946"><ele>305.0</ele><time>2026-03-22T16:40:20Z</time></trkpt><trkpt lat="45.614763377252395" lon="10.051572041592634"><ele>305.0</ele><time>2026-03-22T16:40:22Z</time></trkpt><trkpt lat="45.61470202817401" lon="10.051542446520852"><ele>303.83333333333337</ele><time>2026-03-22T16:40:23Z</time></trkpt><trkpt lat="45.61463390911289" lon="10.051564167327257"><ele>302.6666666666667</ele><time>2026-03-22T16:40:24Z</time></trkpt><trkpt lat="45.61456062531513" lon="10.051563882608626"><ele>301.5</ele><time>2026-03-22T16:40:25Z</time></trkpt><trkpt lat="45.61447877973277" lon="10.051563882608951"><ele>300.3333333333333</ele><time>2026-03-22T16:40:26Z</time></trkpt><trkpt lat="45.61438782347021" lon="10.05154742891739"><ele>299.16666666666663</ele><time>2026-03-22T16:40:27Z</time></trkpt><trkpt lat="45.614283827819555" lon="10.051575231476567"><ele>298.0</ele><time>2026-03-22T16:40:28Z</time></trkpt><trkpt lat="45.614169630180264" lon="10.051600000417334"><ele>298.0</ele><time>2026-03-22T16:40:29Z</time></trkpt><trkpt lat="45.61406589657069" lon="10.051604627020485"><ele>298.0</ele><time>2026-03-22T16:40:30Z</time></trkpt><trkpt lat="45.61398235625227" lon="10.051624075033736"><ele>298.0</ele><time>2026-03-22T16:40:31Z</time></trkpt><trkpt lat="45.61390918749957" lon="10.051657075009913"><ele>298.0</ele><time>2026-03-22T16:40:32Z</time></trkpt><trkpt lat="45.613847479858514" lon="10.051730006727103"><ele>298.0</ele><time>2026-03-22T16:40:33Z</time></trkpt><trkpt lat="45.6137815978822" lon="10.05180768982239"><ele>298.0</ele><time>2026-03-22T16:40:34Z</time></trkpt><trkpt lat="45.61371340632539" lon="10.051879799765674"><ele>296.6</ele><time>2026-03-22T16:40:35Z</time></trkpt><trkpt lat="45.61363714765758" lon="10.051963705990914"><ele>295.20000000000005</ele><time>2026-03-22T16:40:36Z</time></trkpt><trkpt lat="45.61356206595026" lon="10.052043787209358"><ele>293.8</ele><time>2026-03-22T16:40:37Z</time></trkpt><trkpt lat="45.61349610250356" lon="10.052144875871855"><ele>292.40000000000003</ele><time>2026-03-22T16:40:38Z</time></trkpt><trkpt lat="45.61342434420436" lon="10.052232197863573"><ele>291.0</ele><time>2026-03-22T16:40:39Z</time></trkpt><trkpt lat="45.61335612340317" lon="10.052324509876115"><ele>291.0</ele><time>2026-03-22T16:40:40Z</time></trkpt><trkpt lat="45.61328114509581" lon="10.052418469651542"><ele>291.0</ele><time>2026-03-22T16:40:41Z</time></trkpt><trkpt lat="45.61320333013897" lon="10.052480055908372"><ele>291.0</ele><time>2026-03-22T16:40:42Z</time></trkpt><trkpt lat="45.61314665867176" lon="10.052540411556462"><ele>291.0</ele><time>2026-03-22T16:40:43Z</time></trkpt><trkpt lat="45.61308896927594" lon="10.052590850811548"><ele>291.0</ele><time>2026-03-22T16:40:44Z</time></trkpt><trkpt lat="45.612986517287844" lon="10.052691405502634"><ele>291.3333333333333</ele><time>2026-03-22T16:40:46Z</time></trkpt><trkpt lat="45.61292392024444" lon="10.052709262065877"><ele>291.6666666666667</ele><time>2026-03-22T16:40:47Z</time></trkpt><trkpt lat="45.61286296934027" lon="10.052680664438567"><ele>292.0</ele><time>2026-03-22T16:40:49Z</time></trkpt><trkpt lat="45.612829892369504" lon="10.052545676583927"><ele>292.33333333333337</ele><time>2026-03-22T16:40:51Z</time></trkpt><trkpt lat="45.612760207862074" lon="10.052568495742037"><ele>292.6666666666667</ele><time>2026-03-22T16:40:54Z</time></trkpt><trkpt lat="45.61269139632056" lon="10.052691640546353"><ele>293.0</ele><time>2026-03-22T16:40:55Z</time></trkpt><trkpt lat="45.61264718273337" lon="10.052861583255298"><ele>293.0</ele><time>2026-03-22T16:40:56Z</time></trkpt><trkpt lat="45.61262418170138" lon="10.053009987240506"><ele>293.0</ele><time>2026-03-22T16:40:57Z</time></trkpt><trkpt lat="45.612592818886526" lon="10.053122933523255"><ele>293.0</ele><time>2026-03-22T16:40:58Z</time></trkpt><trkpt lat="45.61255024249368" lon="10.053212469848903"><ele>293.0</ele><time>2026-03-22T16:40:59Z</time></trkpt><trkpt lat="45.61249547567913" lon="10.053257818509175"><ele>293.0</ele><time>2026-03-22T16:41:00Z</time></trkpt><trkpt lat="45.61242683277855" lon="10.053288368872598"><ele>293.0</ele><time>2026-03-22T16:41:01Z</time></trkpt><trkpt lat="45.61233897467189" lon="10.053325500037738"><ele>290.25</ele><time>2026-03-22T16:41:02Z</time></trkpt><trkpt lat="45.61222657719422" lon="10.053367120108788"><ele>287.5</ele><time>2026-03-22T16:41:03Z</time></trkpt><trkpt lat="45.612081185672736" lon="10.053352710602686"><ele>284.75</ele><time>2026-03-22T16:41:04Z</time></trkpt><trkpt lat="45.61196140382826" lon="10.053348755353182"><ele>282.0</ele><time>2026-03-22T16:41:05Z</time></trkpt><trkpt lat="45.61183417210674" lon="10.053327801881979"><ele>283.0</ele><time>2026-03-22T16:41:06Z</time></trkpt><trkpt lat="45.61169474128009" lon="10.05325394489462"><ele>284.0</ele><time>2026-03-22T16:41:07Z</time></trkpt><trkpt lat="45.611583206083154" lon="10.053208455425633"><ele>285.0</ele><time>2026-03-22T16:41:08Z</time></trkpt><trkpt lat="45.611502494992195" lon="10.053196911652114"><ele>286.0</ele><time>2026-03-22T16:41:09Z</time></trkpt><trkpt lat="45.6114364393587" lon="10.053223554810547"><ele>287.0</ele><time>2026-03-22T16:41:10Z</time></trkpt><trkpt lat="45.61137096541017" lon="10.053281271081223"><ele>283.6</ele><time>2026-03-22T16:41:11Z</time></trkpt><trkpt lat="45.61130151869602" lon="10.053400775369573"><ele>280.2</ele><time>2026-03-22T16:41:12Z</time></trkpt><trkpt lat="45.6112583135355" lon="10.053528907044827"><ele>276.8</ele><time>2026-03-22T16:41:13Z</time></trkpt><trkpt lat="45.61123438927806" lon="10.053624151485817"><ele>273.4</ele><time>2026-03-22T16:41:14Z</time></trkpt><trkpt lat="45.61111493831511" lon="10.053554575580808"><ele>270.0</ele><time>2026-03-22T16:41:18Z</time></trkpt><trkpt lat="45.611046378868785" lon="10.053520600589039"><ele>270.3333333333333</ele><time>2026-03-22T16:41:19Z</time></trkpt><trkpt lat="45.6109556205384" lon="10.05343495409477"><ele>270.66666666666663</ele><time>2026-03-22T16:41:20Z</time></trkpt><trkpt lat="45.610809471438905" lon="10.05329109197146"><ele>271.0</ele><time>2026-03-22T16:41:21Z</time></trkpt><trkpt lat="45.61063224061111" lon="10.05313221936364"><ele>271.0</ele><time>2026-03-22T16:41:22Z</time></trkpt><trkpt lat="45.61044275108268" lon="10.052971150131642"><ele>271.0</ele><time>2026-03-22T16:41:23Z</time></trkpt><trkpt lat="45.61030807720321" lon="10.052844760022692"><ele>271.0</ele><time>2026-03-22T16:41:24Z</time></trkpt><trkpt lat="45.610202149890284" lon="10.052749358117328"><ele>268.40000000000003</ele><time>2026-03-22T16:41:25Z</time></trkpt><trkpt lat="45.61011096979028" lon="10.052669506293705"><ele>265.8</ele><time>2026-03-22T16:41:26Z</time></trkpt><trkpt lat="45.61004478489953" lon="10.052622149753963"><ele>263.20000000000005</ele><time>2026-03-22T16:41:27Z</time></trkpt><trkpt lat="45.60993779397703" lon="10.052682826403252"><ele>260.6</ele><time>2026-03-22T16:41:29Z</time></trkpt><trkpt lat="45.60987336391033" lon="10.052761507253877"><ele>258.0</ele><time>2026-03-22T16:41:30Z</time></trkpt><trkpt lat="45.60981099059156" lon="10.052823308217818"><ele>258.0</ele><time>2026-03-22T16:41:31Z</time></trkpt><trkpt lat="45.60973144281793" lon="10.05287071711614"><ele>258.0</ele><time>2026-03-22T16:41:32Z</time></trkpt><trkpt lat="45.609664010273534" lon="10.05288525482046"><ele>258.0</ele><time>2026-03-22T16:41:33Z</time></trkpt><trkpt lat="45.60956852974701" lon="10.05281291015465"><ele>258.0</ele><time>2026-03-22T16:41:35Z</time></trkpt><trkpt lat="45.60950895393102" lon="10.052779684215896"><ele>258.0</ele><time>2026-03-22T16:41:36Z</time></trkpt><trkpt lat="45.609439087587724" lon="10.052770671679072"><ele>258.0</ele><time>2026-03-22T16:41:37Z</time></trkpt><trkpt lat="45.6093540321273" lon="10.052735384937675"><ele>257.3333333333333</ele><time>2026-03-22T16:41:38Z</time></trkpt><trkpt lat="45.60925348206465" lon="10.052701868062437"><ele>256.66666666666663</ele><time>2026-03-22T16:41:39Z</time></trkpt><trkpt lat="45.6090812921221" lon="10.052640637134528"><ele>256.0</ele><time>2026-03-22T16:41:40Z</time></trkpt><trkpt lat="45.60887999271811" lon="10.052553478842562"><ele>256.0</ele><time>2026-03-22T16:41:41Z</time></trkpt><trkpt lat="45.608693308339625" lon="10.052480110149363"><ele>256.0</ele><time>2026-03-22T16:41:42Z</time></trkpt><trkpt lat="45.60855931999814" lon="10.05241142017015"><ele>256.0</ele><time>2026-03-22T16:41:43Z</time></trkpt><trkpt lat="45.60845795070068" lon="10.05237639601352"><ele>256.0</ele><time>2026-03-22T16:41:44Z</time></trkpt><trkpt lat="45.60836591744397" lon="10.052351378767025"><ele>257.8</ele><time>2026-03-22T16:41:45Z</time></trkpt><trkpt lat="45.608254600935375" lon="10.052286022612876"><ele>259.6</ele><time>2026-03-22T16:41:47Z</time></trkpt><trkpt lat="45.608171577478004" lon="10.052217523970059"><ele>261.4</ele><time>2026-03-22T16:41:48Z</time></trkpt><trkpt lat="45.608090245559616" lon="10.052123008474354"><ele>263.2</ele><time>2026-03-22T16:41:49Z</time></trkpt><trkpt lat="45.608031391445365" lon="10.052020170151357"><ele>265.0</ele><time>2026-03-22T16:41:50Z</time></trkpt><trkpt lat="45.60795960010825" lon="10.05190257268964"><ele>265.0</ele><time>2026-03-22T16:41:51Z</time></trkpt><trkpt lat="45.60790092053634" lon="10.05179219296409"><ele>265.0</ele><time>2026-03-22T16:41:52Z</time></trkpt><trkpt lat="45.60791141516888" lon="10.051698874728446"><ele>265.0</ele><time>2026-03-22T16:41:53Z</time></trkpt><trkpt lat="45.60792967884704" lon="10.051592280745714"><ele>265.0</ele><time>2026-03-22T16:41:54Z</time></trkpt><trkpt lat="45.60778332695803" lon="10.051483666892457"><ele>265.0</ele><time>2026-03-22T16:41:56Z</time></trkpt><trkpt lat="45.6076330085555" lon="10.051429826453994"><ele>270.0</ele><time>2026-03-22T16:41:57Z</time></trkpt><trkpt lat="45.60746854300797" lon="10.051320464099721"><ele>275.0</ele><time>2026-03-22T16:41:58Z</time></trkpt><trkpt lat="45.60727384828955" lon="10.051208025847451"><ele>280.0</ele><time>2026-03-22T16:41:59Z</time></trkpt><trkpt lat="45.60708604118656" lon="10.051083120060925"><ele>276.4</ele><time>2026-03-22T16:42:00Z</time></trkpt><trkpt lat="45.60695442112756" lon="10.051012633824062"><ele>272.8</ele><time>2026-03-22T16:42:01Z</time></trkpt><trkpt lat="45.606856018530436" lon="10.05094490853501"><ele>269.2</ele><time>2026-03-22T16:42:02Z</time></trkpt><trkpt lat="45.60677815419934" lon="10.050872886718667"><ele>265.6</ele><time>2026-03-22T16:42:03Z</time></trkpt><trkpt lat="45.606712862535126" lon="10.05083246144308"><ele>262.0</ele><time>2026-03-22T16:42:04Z</time></trkpt><trkpt lat="45.606646296835216" lon="10.050850385970245"><ele>262.0</ele><time>2026-03-22T16:42:05Z</time></trkpt><trkpt lat="45.606536782337706" lon="10.050852605023259"><ele>262.0</ele><time>2026-03-22T16:42:07Z</time></trkpt><trkpt lat="45.60644209524789" lon="10.05076150808193"><ele>262.0</ele><time>2026-03-22T16:42:08Z</time></trkpt><trkpt lat="45.60629335638514" lon="10.050680738336526"><ele>262.0</ele><time>2026-03-22T16:42:09Z</time></trkpt><trkpt lat="45.606116495893936" lon="10.050609923096575"><ele>261.5</ele><time>2026-03-22T16:42:10Z</time></trkpt><trkpt lat="45.60598622793159" lon="10.050552497340107"><ele>261.0</ele><time>2026-03-22T16:42:11Z</time></trkpt><trkpt lat="45.60586970440942" lon="10.050472250807188"><ele>260.5</ele><time>2026-03-22T16:42:12Z</time></trkpt><trkpt lat="45.60574320968826" lon="10.050357496108454"><ele>260.0</ele><time>2026-03-22T16:42:13Z</time></trkpt><trkpt lat="45.60561574888349" lon="10.050251009858426"><ele>260.0</ele><time>2026-03-22T16:42:14Z</time></trkpt><trkpt lat="45.60550639131468" lon="10.050192628609487"><ele>260.0</ele><time>2026-03-22T16:42:15Z</time></trkpt><trkpt lat="45.60542607719965" lon="10.05013136470654"><ele>260.0</ele><time>2026-03-22T16:42:16Z</time></trkpt><trkpt lat="45.60534637781464" lon="10.050124776060011"><ele>260.0</ele><time>2026-03-22T16:42:18Z</time></trkpt><trkpt lat="45.60528213456999" lon="10.050101068432166"><ele>260.0</ele><time>2026-03-22T16:42:20Z</time></trkpt><trkpt lat="45.605194800739866" lon="10.050031293000186"><ele>260.33333333333337</ele><time>2026-03-22T16:42:21Z</time></trkpt><trkpt lat="45.60505729552745" lon="10.049938914742725"><ele>260.6666666666667</ele><time>2026-03-22T16:42:22Z</time></trkpt><trkpt lat="45.604904690529644" lon="10.049803653163195"><ele>261.0</ele><time>2026-03-22T16:42:23Z</time></trkpt><trkpt lat="45.60478479106738" lon="10.049698371811429"><ele>261.0</ele><time>2026-03-22T16:42:24Z</time></trkpt><trkpt lat="45.60471771239404" lon="10.04964147117692"><ele>261.0</ele><time>2026-03-22T16:42:25Z</time></trkpt><trkpt lat="45.604712480578115" lon="10.049530729394546"><ele>261.0</ele><time>2026-03-22T16:42:27Z</time></trkpt><trkpt lat="45.60471743266378" lon="10.049422872135906"><ele>261.0</ele><time>2026-03-22T16:42:28Z</time></trkpt><trkpt lat="45.60465301799205" lon="10.049351449160506"><ele>261.0</ele><time>2026-03-22T16:42:30Z</time></trkpt><trkpt lat="45.604625073095924" lon="10.049261425772857"><ele>261.0</ele><time>2026-03-22T16:42:31Z</time></trkpt><trkpt lat="45.60454129622618" lon="10.04919989021751"><ele>261.6666666666667</ele><time>2026-03-22T16:42:32Z</time></trkpt><trkpt lat="45.604458181332745" lon="10.04914254042041"><ele>262.33333333333337</ele><time>2026-03-22T16:42:33Z</time></trkpt><trkpt lat="45.604287663854365" lon="10.049077886725469"><ele>263.0</ele><time>2026-03-22T16:42:34Z</time></trkpt><trkpt lat="45.60405733269501" lon="10.048827916773705"><ele>263.0</ele><time>2026-03-22T16:42:35Z</time></trkpt><trkpt lat="45.60384491281769" lon="10.048605906894089"><ele>263.0</ele><time>2026-03-22T16:42:36Z</time></trkpt><trkpt lat="45.60370802504772" lon="10.048476888134102"><ele>263.0</ele><time>2026-03-22T16:42:37Z</time></trkpt><trkpt lat="45.60358283344568" lon="10.048334655302567"><ele>261.33333333333337</ele><time>2026-03-22T16:42:38Z</time></trkpt><trkpt lat="45.60348437686608" lon="10.04823112893248"><ele>259.6666666666667</ele><time>2026-03-22T16:42:39Z</time></trkpt><trkpt lat="45.60343726145891" lon="10.048167915975371"><ele>258.0</ele><time>2026-03-22T16:42:40Z</time></trkpt><trkpt lat="45.60338046912662" lon="10.048090853082142"><ele>256.3333333333333</ele><time>2026-03-22T16:42:41Z</time></trkpt><trkpt lat="45.60331876856897" lon="10.048041642883195"><ele>254.66666666666666</ele><time>2026-03-22T16:42:42Z</time></trkpt><trkpt lat="45.60325535691659" lon="10.047985597066123"><ele>253.0</ele><time>2026-03-22T16:42:43Z</time></trkpt><trkpt lat="45.603258981920625" lon="10.047864391771595"><ele>253.0</ele><time>2026-03-22T16:42:44Z</time></trkpt><trkpt lat="45.60326070837949" lon="10.047636000969478"><ele>253.0</ele><time>2026-03-22T16:42:45Z</time></trkpt><trkpt lat="45.60325718600173" lon="10.047480394882433"><ele>253.0</ele><time>2026-03-22T16:42:46Z</time></trkpt><trkpt lat="45.60327710802723" lon="10.047348306435936"><ele>253.0</ele><time>2026-03-22T16:42:47Z</time></trkpt><trkpt lat="45.60329980065194" lon="10.047226520943383"><ele>255.0</ele><time>2026-03-22T16:42:48Z</time></trkpt><trkpt lat="45.603362726966125" lon="10.046957606823893"><ele>257.0</ele><time>2026-03-22T16:42:49Z</time></trkpt><trkpt lat="45.60340856371411" lon="10.046739815807683"><ele>259.0</ele><time>2026-03-22T16:42:50Z</time></trkpt><trkpt lat="45.60343380682488" lon="10.046556159125561"><ele>260.2</ele><time>2026-03-22T16:42:51Z</time></trkpt><trkpt lat="45.603427720200045" lon="10.046464831881744"><ele>261.4</ele><time>2026-03-22T16:42:52Z</time></trkpt><trkpt lat="45.60336998654521" lon="10.046297236911862"><ele>262.6</ele><time>2026-03-22T16:42:54Z</time></trkpt><trkpt lat="45.603276933312586" lon="10.046196346505633"><ele>263.8</ele><time>2026-03-22T16:42:55Z</time></trkpt><trkpt lat="45.60320085880621" lon="10.046151384260487"><ele>265.0</ele><time>2026-03-22T16:42:56Z</time></trkpt><trkpt lat="45.603178918961106" lon="10.046041173089982"><ele>265.0</ele><time>2026-03-22T16:42:59Z</time></trkpt><trkpt lat="45.60321706539388" lon="10.045946986525509"><ele>265.0</ele><time>2026-03-22T16:43:00Z</time></trkpt><trkpt lat="45.60327521773119" lon="10.045795410282029"><ele>265.0</ele><time>2026-03-22T16:43:01Z</time></trkpt><trkpt lat="45.60336023222008" lon="10.04558752913683"><ele>265.0</ele><time>2026-03-22T16:43:02Z</time></trkpt><trkpt lat="45.60343126499828" lon="10.045413901847706"><ele>268.0</ele><time>2026-03-22T16:43:03Z</time></trkpt><trkpt lat="45.60347188119847" lon="10.045289180907622"><ele>271.0</ele><time>2026-03-22T16:43:04Z</time></trkpt><trkpt lat="45.603532917358514" lon="10.045149718495084"><ele>274.0</ele><time>2026-03-22T16:43:05Z</time></trkpt><trkpt lat="45.6035703624977" lon="10.044982959068777"><ele>277.0</ele><time>2026-03-22T16:43:06Z</time></trkpt><trkpt lat="45.603655562317186" lon="10.04486300559714"><ele>276.0</ele><time>2026-03-22T16:43:07Z</time></trkpt><trkpt lat="45.60376214764889" lon="10.044737824178727"><ele>275.0</ele><time>2026-03-22T16:43:08Z</time></trkpt><trkpt lat="45.60384080326504" lon="10.044592971952214"><ele>274.0</ele><time>2026-03-22T16:43:09Z</time></trkpt><trkpt lat="45.60391639858423" lon="10.044445383943179"><ele>273.0</ele><time>2026-03-22T16:43:10Z</time></trkpt><trkpt lat="45.60398578758212" lon="10.044287161333509"><ele>273.5</ele><time>2026-03-22T16:43:11Z</time></trkpt><trkpt lat="45.60404552440565" lon="10.044118388766254"><ele>274.0</ele><time>2026-03-22T16:43:12Z</time></trkpt><trkpt lat="45.60411543754276" lon="10.043963462469128"><ele>274.5</ele><time>2026-03-22T16:43:13Z</time></trkpt><trkpt lat="45.60421256221548" lon="10.0437990817282"><ele>275.0</ele><time>2026-03-22T16:43:14Z</time></trkpt><trkpt lat="45.604326859429705" lon="10.04363141958032"><ele>275.0</ele><time>2026-03-22T16:43:15Z</time></trkpt><trkpt lat="45.604430607407416" lon="10.043500209487599"><ele>275.0</ele><time>2026-03-22T16:43:16Z</time></trkpt><trkpt lat="45.60454123198632" lon="10.043375357453732"><ele>275.0</ele><time>2026-03-22T16:43:17Z</time></trkpt><trkpt lat="45.604662502581505" lon="10.043270682581777"><ele>275.0</ele><time>2026-03-22T16:43:18Z</time></trkpt><trkpt lat="45.604786017762144" lon="10.0431757264342"><ele>273.0</ele><time>2026-03-22T16:43:19Z</time></trkpt><trkpt lat="45.60489032889428" lon="10.043093565051946"><ele>271.0</ele><time>2026-03-22T16:43:20Z</time></trkpt><trkpt lat="45.604963169934045" lon="10.042946448646521"><ele>269.0</ele><time>2026-03-22T16:43:21Z</time></trkpt><trkpt lat="45.60510648159192" lon="10.042898594943127"><ele>267.0</ele><time>2026-03-22T16:43:22Z</time></trkpt><trkpt lat="45.60524210885419" lon="10.042865471614794"><ele>265.8</ele><time>2026-03-22T16:43:23Z</time></trkpt><trkpt lat="45.60535605256915" lon="10.042839960487562"><ele>264.6</ele><time>2026-03-22T16:43:24Z</time></trkpt><trkpt lat="45.60545346367996" lon="10.04281855036329"><ele>263.40000000000003</ele><time>2026-03-22T16:43:25Z</time></trkpt><trkpt lat="45.60553534306733" lon="10.04280671532007"><ele>262.2</ele><time>2026-03-22T16:43:26Z</time></trkpt><trkpt lat="45.60562224703037" lon="10.042803085846533"><ele>261.0</ele><time>2026-03-22T16:43:27Z</time></trkpt><trkpt lat="45.605700534936986" lon="10.042792276059911"><ele>261.0</ele><time>2026-03-22T16:43:28Z</time></trkpt><trkpt lat="45.605797558057134" lon="10.042814479954828"><ele>261.0</ele><time>2026-03-22T16:43:29Z</time></trkpt><trkpt lat="45.60588437538222" lon="10.042808105432222"><ele>261.0</ele><time>2026-03-22T16:43:30Z</time></trkpt><trkpt lat="45.60594849567169" lon="10.042802342010981"><ele>261.0</ele><time>2026-03-22T16:43:31Z</time></trkpt><trkpt lat="45.60602568764502" lon="10.04259216661167"><ele>261.0</ele><time>2026-03-22T16:43:33Z</time></trkpt><trkpt lat="45.606102332886834" lon="10.042440543808974"><ele>259.75</ele><time>2026-03-22T16:43:34Z</time></trkpt><trkpt lat="45.60618376037328" lon="10.042269044845513"><ele>258.5</ele><time>2026-03-22T16:43:35Z</time></trkpt><trkpt lat="45.60627705655786" lon="10.042096121934646"><ele>257.25</ele><time>2026-03-22T16:43:36Z</time></trkpt><trkpt lat="45.606355145405374" lon="10.041943248351725"><ele>256.0</ele><time>2026-03-22T16:43:37Z</time></trkpt><trkpt lat="45.606428024022556" lon="10.041807959688875"><ele>256.0</ele><time>2026-03-22T16:43:38Z</time></trkpt><trkpt lat="45.60649704450545" lon="10.041694627027917"><ele>256.0</ele><time>2026-03-22T16:43:39Z</time></trkpt><trkpt lat="45.606557184163535" lon="10.041586045277645"><ele>256.0</ele><time>2026-03-22T16:43:40Z</time></trkpt><trkpt lat="45.60660637409033" lon="10.041483319189231"><ele>256.0</ele><time>2026-03-22T16:43:41Z</time></trkpt><trkpt lat="45.60665386641504" lon="10.04137632001042"><ele>256.0</ele><time>2026-03-22T16:43:42Z</time></trkpt><trkpt lat="45.60671364556198" lon="10.041252102310606"><ele>255.4</ele><time>2026-03-22T16:43:43Z</time></trkpt><trkpt lat="45.60676967379307" lon="10.04110876319621"><ele>254.8</ele><time>2026-03-22T16:43:44Z</time></trkpt><trkpt lat="45.60682512211331" lon="10.040946459556906"><ele>254.20000000000002</ele><time>2026-03-22T16:43:45Z</time></trkpt><trkpt lat="45.60686589693746" lon="10.040814610861553"><ele>253.60000000000002</ele><time>2026-03-22T16:43:46Z</time></trkpt><trkpt lat="45.606894146158616" lon="10.040700328125252"><ele>253.0</ele><time>2026-03-22T16:43:47Z</time></trkpt><trkpt lat="45.60691451880998" lon="10.040604225049764"><ele>252.8</ele><time>2026-03-22T16:43:48Z</time></trkpt><trkpt lat="45.60697530051121" lon="10.040511158978719"><ele>252.60000000000002</ele><time>2026-03-22T16:43:50Z</time></trkpt><trkpt lat="45.60701999547887" lon="10.040397061812104"><ele>252.39999999999998</ele><time>2026-03-22T16:43:52Z</time></trkpt><trkpt lat="45.606962388913345" lon="10.04022763322348"><ele>252.2</ele><time>2026-03-22T16:43:53Z</time></trkpt><trkpt lat="45.60696123292355" lon="10.040049012742044"><ele>252.0</ele><time>2026-03-22T16:43:54Z</time></trkpt><trkpt lat="45.606921352072995" lon="10.039831832828973"><ele>251.8</ele><time>2026-03-22T16:43:55Z</time></trkpt><trkpt lat="45.60689651116679" lon="10.039630526560778"><ele>251.6</ele><time>2026-03-22T16:43:56Z</time></trkpt><trkpt lat="45.60688314101226" lon="10.039466822378516"><ele>251.40000000000003</ele><time>2026-03-22T16:43:57Z</time></trkpt><trkpt lat="45.60687910543667" lon="10.039340826070163"><ele>251.20000000000002</ele><time>2026-03-22T16:43:58Z</time></trkpt><trkpt lat="45.60685971520991" lon="10.039251127879933"><ele>251.0</ele><time>2026-03-22T16:43:59Z</time></trkpt><trkpt lat="45.60679649042275" lon="10.039138718903757"><ele>250.75</ele><time>2026-03-22T16:44:00Z</time></trkpt><trkpt lat="45.60669428476894" lon="10.039015454309814"><ele>250.5</ele><time>2026-03-22T16:44:01Z</time></trkpt><trkpt lat="45.60657994194246" lon="10.038876036357248"><ele>250.25</ele><time>2026-03-22T16:44:02Z</time></trkpt><trkpt lat="45.60647051500445" lon="10.038722867429579"><ele>250.0</ele><time>2026-03-22T16:44:03Z</time></trkpt><trkpt lat="45.606362596965816" lon="10.038566141339418"><ele>250.0</ele><time>2026-03-22T16:44:04Z</time></trkpt><trkpt lat="45.606253038165626" lon="10.038405180612372"><ele>250.0</ele><time>2026-03-22T16:44:05Z</time></trkpt><trkpt lat="45.606133701124115" lon="10.038242616599286"><ele>250.0</ele><time>2026-03-22T16:44:06Z</time></trkpt><trkpt lat="45.60603383784582" lon="10.038103937886252"><ele>251.0</ele><time>2026-03-22T16:44:07Z</time></trkpt><trkpt lat="45.605971870586544" lon="10.038006287566938"><ele>252.0</ele><time>2026-03-22T16:44:08Z</time></trkpt><trkpt lat="45.60596357193941" lon="10.037894434337872"><ele>253.0</ele><time>2026-03-22T16:44:10Z</time></trkpt><trkpt lat="45.606078378535045" lon="10.037753310143776"><ele>254.0</ele><time>2026-03-22T16:44:12Z</time></trkpt><trkpt lat="45.60612387345423" lon="10.037689487726903"><ele>255.0</ele><time>2026-03-22T16:44:14Z</time></trkpt><trkpt lat="45.606047228833845" lon="10.037595467860221"><ele>255.0</ele><time>2026-03-22T16:44:15Z</time></trkpt><trkpt lat="45.60596970605383" lon="10.03749337473389"><ele>255.0</ele><time>2026-03-22T16:44:20Z</time></trkpt><trkpt lat="45.60590444503079" lon="10.037387393081913"><ele>255.0</ele><time>2026-03-22T16:44:21Z</time></trkpt><trkpt lat="45.60582840288484" lon="10.037245568533681"><ele>255.0</ele><time>2026-03-22T16:44:22Z</time></trkpt><trkpt lat="45.60572026785919" lon="10.037051202777933"><ele>254.25</ele><time>2026-03-22T16:44:23Z</time></trkpt><trkpt lat="45.60561967779649" lon="10.036858322064347"><ele>253.5</ele><time>2026-03-22T16:44:24Z</time></trkpt><trkpt lat="45.605536215661395" lon="10.036754107673405"><ele>252.75</ele><time>2026-03-22T16:44:25Z</time></trkpt><trkpt lat="45.60546566755" lon="10.036625947003806"><ele>252.0</ele><time>2026-03-22T16:44:26Z</time></trkpt><trkpt lat="45.60535927871662" lon="10.036464846695843"><ele>250.75</ele><time>2026-03-22T16:44:27Z</time></trkpt><trkpt lat="45.60528779002202" lon="10.036278412109796"><ele>249.5</ele><time>2026-03-22T16:44:28Z</time></trkpt><trkpt lat="45.6052042424835" lon="10.036130205076367"><ele>248.25</ele><time>2026-03-22T16:44:29Z</time></trkpt><trkpt lat="45.60515012574261" lon="10.035983286175094"><ele>247.0</ele><time>2026-03-22T16:44:30Z</time></trkpt><trkpt lat="45.605082866214765" lon="10.035828187254758"><ele>246.39999999999998</ele><time>2026-03-22T16:44:31Z</time></trkpt><trkpt lat="45.605010641006444" lon="10.035687655334888"><ele>245.79999999999998</ele><time>2026-03-22T16:44:32Z</time></trkpt><trkpt lat="45.60495768925542" lon="10.035579741944964"><ele>245.2</ele><time>2026-03-22T16:44:33Z</time></trkpt><trkpt lat="45.604916941885186" lon="10.035480078795269"><ele>244.6</ele><time>2026-03-22T16:44:34Z</time></trkpt><trkpt lat="45.60489685229345" lon="10.035357566792461"><ele>244.0</ele><time>2026-03-22T16:44:35Z</time></trkpt><trkpt lat="45.60490673739548" lon="10.035215135500373"><ele>244.0</ele><time>2026-03-22T16:44:36Z</time></trkpt><trkpt lat="45.60497365761921" lon="10.035007646151511"><ele>244.0</ele><time>2026-03-22T16:44:37Z</time></trkpt><trkpt lat="45.60506787382782" lon="10.034771358410733"><ele>244.0</ele><time>2026-03-22T16:44:38Z</time></trkpt><trkpt lat="45.60512315707182" lon="10.03462305155702"><ele>242.75</ele><time>2026-03-22T16:44:39Z</time></trkpt><trkpt lat="45.60521340656484" lon="10.034494757147632"><ele>241.5</ele><time>2026-03-22T16:44:41Z</time></trkpt><trkpt lat="45.60532742537221" lon="10.03446039397944"><ele>240.25</ele><time>2026-03-22T16:44:42Z</time></trkpt><trkpt lat="45.6054854514333" lon="10.034389379301635"><ele>239.0</ele><time>2026-03-22T16:44:43Z</time></trkpt><trkpt lat="45.60561168730372" lon="10.034258699708063"><ele>236.33333333333334</ele><time>2026-03-22T16:44:44Z</time></trkpt><trkpt lat="45.60571019764692" lon="10.034124400751876"><ele>233.66666666666669</ele><time>2026-03-22T16:44:45Z</time></trkpt><trkpt lat="45.60581553933886" lon="10.033907816031244"><ele>231.0</ele><time>2026-03-22T16:44:46Z</time></trkpt><trkpt lat="45.605903841994724" lon="10.033702895748"><ele>231.0</ele><time>2026-03-22T16:44:47Z</time></trkpt><trkpt lat="45.60598521392018" lon="10.03354624916841"><ele>231.0</ele><time>2026-03-22T16:44:48Z</time></trkpt><trkpt lat="45.606030398402694" lon="10.033385376085645"><ele>231.0</ele><time>2026-03-22T16:44:49Z</time></trkpt><trkpt lat="45.60607751282262" lon="10.033223939637512"><ele>231.0</ele><time>2026-03-22T16:44:50Z</time></trkpt><trkpt lat="45.606105625973505" lon="10.03302862681796"><ele>230.60000000000002</ele><time>2026-03-22T16:44:51Z</time></trkpt><trkpt lat="45.60615394193911" lon="10.03287593795468"><ele>230.20000000000002</ele><time>2026-03-22T16:44:52Z</time></trkpt><trkpt lat="45.60620555549525" lon="10.03274846433964"><ele>229.79999999999998</ele><time>2026-03-22T16:44:53Z</time></trkpt><trkpt lat="45.60623710371033" lon="10.032653599252198"><ele>229.39999999999998</ele><time>2026-03-22T16:44:54Z</time></trkpt><trkpt lat="45.60620302006348" lon="10.032511190307654"><ele>229.0</ele><time>2026-03-22T16:44:56Z</time></trkpt><trkpt lat="45.60608816674567" lon="10.032405256916395"><ele>228.16666666666666</ele><time>2026-03-22T16:44:58Z</time></trkpt><trkpt lat="45.606007685057946" lon="10.032336042524213"><ele>227.33333333333331</ele><time>2026-03-22T16:44:59Z</time></trkpt><trkpt lat="45.60593492170237" lon="10.032260338308937"><ele>226.5</ele><time>2026-03-22T16:45:00Z</time></trkpt><trkpt lat="45.60586316693546" lon="10.032176331802274"><ele>225.66666666666669</ele><time>2026-03-22T16:45:01Z</time></trkpt><trkpt lat="45.60580327167198" lon="10.032093383377392"><ele>224.83333333333334</ele><time>2026-03-22T16:45:02Z</time></trkpt><trkpt lat="45.605753011984866" lon="10.032020333264386"><ele>224.0</ele><time>2026-03-22T16:45:03Z</time></trkpt><trkpt lat="45.605713302343055" lon="10.031941112088079"><ele>224.00000000000003</ele><time>2026-03-22T16:45:04Z</time></trkpt><trkpt lat="45.60569882169538" lon="10.03184825458415"><ele>224.0</ele><time>2026-03-22T16:45:05Z</time></trkpt><trkpt lat="45.60570646766201" lon="10.031758128478684"><ele>224.0</ele><time>2026-03-22T16:45:06Z</time></trkpt><trkpt lat="45.605737216931225" lon="10.031665544333391"><ele>224.0</ele><time>2026-03-22T16:45:07Z</time></trkpt><trkpt lat="45.6057844412073" lon="10.031556347566456"><ele>224.00000000000003</ele><time>2026-03-22T16:45:08Z</time></trkpt><trkpt lat="45.605828838697356" lon="10.031448928626698"><ele>224.0</ele><time>2026-03-22T16:45:09Z</time></trkpt><trkpt lat="45.605874348464845" lon="10.031331681778212"><ele>223.39999999999998</ele><time>2026-03-22T16:45:10Z</time></trkpt><trkpt lat="45.60591656023957" lon="10.031218798322884"><ele>222.79999999999998</ele><time>2026-03-22T16:45:11Z</time></trkpt><trkpt lat="45.60595607150952" lon="10.031102582435793"><ele>222.20000000000002</ele><time>2026-03-22T16:45:12Z</time></trkpt><trkpt lat="45.606004161746014" lon="10.030993519880953"><ele>221.60000000000002</ele><time>2026-03-22T16:45:13Z</time></trkpt><trkpt lat="45.606058249567475" lon="10.030878920412968"><ele>221.0</ele><time>2026-03-22T16:45:14Z</time></trkpt><trkpt lat="45.60609883727085" lon="10.030755932203801"><ele>220.4</ele><time>2026-03-22T16:45:15Z</time></trkpt><trkpt lat="45.60612733581728" lon="10.030625028223254"><ele>219.8</ele><time>2026-03-22T16:45:16Z</time></trkpt><trkpt lat="45.606159265624164" lon="10.030497962050438"><ele>219.20000000000002</ele><time>2026-03-22T16:45:17Z</time></trkpt><trkpt lat="45.606180345136096" lon="10.030372161574943"><ele>218.60000000000002</ele><time>2026-03-22T16:45:18Z</time></trkpt><trkpt lat="45.606196629892196" lon="10.03023869035977"><ele>218.0</ele><time>2026-03-22T16:45:19Z</time></trkpt><trkpt lat="45.6062114196768" lon="10.030120537472065"><ele>218.00000000000003</ele><time>2026-03-22T16:45:20Z</time></trkpt><trkpt lat="45.60624405730805" lon="10.030032319609575"><ele>218.0</ele><time>2026-03-22T16:45:21Z</time></trkpt><trkpt lat="45.60630586124685" lon="10.029983918232501"><ele>218.0</ele><time>2026-03-22T16:45:22Z</time></trkpt><trkpt lat="45.60640278831857" lon="10.029993577854482"><ele>218.0</ele><time>2026-03-22T16:45:23Z</time></trkpt><trkpt lat="45.606486997723586" lon="10.029988241730367"><ele>218.00000000000003</ele><time>2026-03-22T16:45:24Z</time></trkpt><trkpt lat="45.60656393687184" lon="10.029968553929727"><ele>218.0</ele><time>2026-03-22T16:45:25Z</time></trkpt><trkpt lat="45.60664006777518" lon="10.029953104123376"><ele>217.83333333333334</ele><time>2026-03-22T16:45:26Z</time></trkpt><trkpt lat="45.60671835800921" lon="10.029949200313888"><ele>217.66666666666669</ele><time>2026-03-22T16:45:27Z</time></trkpt><trkpt lat="45.6068064144689" lon="10.02994732287133"><ele>217.5</ele><time>2026-03-22T16:45:28Z</time></trkpt><trkpt lat="45.60688632329356" lon="10.029948061502042"><ele>217.33333333333331</ele><time>2026-03-22T16:45:29Z</time></trkpt><trkpt lat="45.60694710683201" lon="10.029910564266489"><ele>217.16666666666666</ele><time>2026-03-22T16:45:30Z</time></trkpt><trkpt lat="45.606985444424986" lon="10.029825260473201"><ele>217.0</ele><time>2026-03-22T16:45:31Z</time></trkpt><trkpt lat="45.60698843908297" lon="10.029670740061682"><ele>216.8</ele><time>2026-03-22T16:45:32Z</time></trkpt><trkpt lat="45.60700535769949" lon="10.029482936239926"><ele>216.6</ele><time>2026-03-22T16:45:33Z</time></trkpt><trkpt lat="45.60704533812316" lon="10.029304221687338"><ele>216.40000000000003</ele><time>2026-03-22T16:45:34Z</time></trkpt><trkpt lat="45.607060885842785" lon="10.029182412502555"><ele>216.20000000000002</ele><time>2026-03-22T16:45:35Z</time></trkpt><trkpt lat="45.6070433165578" lon="10.029080194994375"><ele>216.0</ele><time>2026-03-22T16:45:36Z</time></trkpt><trkpt lat="45.60700002156924" lon="10.02899751239011"><ele>216.4</ele><time>2026-03-22T16:45:37Z</time></trkpt><trkpt lat="45.60691196453364" lon="10.028914514580253"><ele>216.8</ele><time>2026-03-22T16:45:38Z</time></trkpt><trkpt lat="45.606809270724774" lon="10.028824260207953"><ele>217.20000000000002</ele><time>2026-03-22T16:45:39Z</time></trkpt><trkpt lat="45.6067296968133" lon="10.028711590569978"><ele>217.60000000000002</ele><time>2026-03-22T16:45:40Z</time></trkpt><trkpt lat="45.60666774961987" lon="10.028594917472912"><ele>218.0</ele><time>2026-03-22T16:45:41Z</time></trkpt><trkpt lat="45.60662005300588" lon="10.028519964215246"><ele>218.0</ele><time>2026-03-22T16:45:42Z</time></trkpt><trkpt lat="45.606499551426985" lon="10.028514741851938"><ele>218.0</ele><time>2026-03-22T16:45:44Z</time></trkpt><trkpt lat="45.60641509428055" lon="10.028565690674517"><ele>218.0</ele><time>2026-03-22T16:45:45Z</time></trkpt><trkpt lat="45.60631279736672" lon="10.028627600210717"><ele>218.0</ele><time>2026-03-22T16:45:46Z</time></trkpt><trkpt lat="45.60618895478277" lon="10.02867280221745"><ele>217.5</ele><time>2026-03-22T16:45:47Z</time></trkpt><trkpt lat="45.60606704700383" lon="10.028694142829657"><ele>217.0</ele><time>2026-03-22T16:45:48Z</time></trkpt><trkpt lat="45.60594727186033" lon="10.028674851201407"><ele>216.5</ele><time>2026-03-22T16:45:49Z</time></trkpt><trkpt lat="45.60581662318535" lon="10.028610089726067"><ele>216.0</ele><time>2026-03-22T16:45:50Z</time></trkpt><trkpt lat="45.60567748735853" lon="10.028555615828008"><ele>216.0</ele><time>2026-03-22T16:45:51Z</time></trkpt><trkpt lat="45.60554011846508" lon="10.028555581747423"><ele>216.0</ele><time>2026-03-22T16:45:52Z</time></trkpt><trkpt lat="45.60540513811063" lon="10.028577995698676"><ele>216.0</ele><time>2026-03-22T16:45:53Z</time></trkpt><trkpt lat="45.605267611761036" lon="10.028647742743678"><ele>216.0</ele><time>2026-03-22T16:45:54Z</time></trkpt><trkpt lat="45.6051158563192" lon="10.02875440440906"><ele>213.0</ele><time>2026-03-22T16:45:55Z</time></trkpt><trkpt lat="45.60493246502367" lon="10.028887101003614"><ele>210.0</ele><time>2026-03-22T16:45:56Z</time></trkpt><trkpt lat="45.604711104438245" lon="10.028993297670407"><ele>207.0</ele><time>2026-03-22T16:45:57Z</time></trkpt><trkpt lat="45.60451551204433" lon="10.02912275530094"><ele>205.66666666666669</ele><time>2026-03-22T16:45:58Z</time></trkpt><trkpt lat="45.60434379846961" lon="10.02920090431501"><ele>204.33333333333334</ele><time>2026-03-22T16:45:59Z</time></trkpt><trkpt lat="45.604200608642714" lon="10.029274820821776"><ele>203.0</ele><time>2026-03-22T16:46:00Z</time></trkpt><trkpt lat="45.60407808110523" lon="10.029336946720296"><ele>203.0</ele><time>2026-03-22T16:46:01Z</time></trkpt><trkpt lat="45.60398416021242" lon="10.029365990380356"><ele>203.0</ele><time>2026-03-22T16:46:02Z</time></trkpt><trkpt lat="45.60390522722635" lon="10.029394147471024"><ele>203.0</ele><time>2026-03-22T16:46:03Z</time></trkpt><trkpt lat="45.603820439390596" lon="10.029230932601088"><ele>203.0</ele><time>2026-03-22T16:46:04Z</time></trkpt><trkpt lat="45.60372238327725" lon="10.029104918471383"><ele>201.25</ele><time>2026-03-22T16:46:05Z</time></trkpt><trkpt lat="45.60361807232158" lon="10.028970635367703"><ele>199.5</ele><time>2026-03-22T16:46:06Z</time></trkpt><trkpt lat="45.60351183736457" lon="10.02883005250739"><ele>197.75</ele><time>2026-03-22T16:46:07Z</time></trkpt><trkpt lat="45.603405426906406" lon="10.028694700802713"><ele>196.0</ele><time>2026-03-22T16:46:08Z</time></trkpt><trkpt lat="45.60329952735567" lon="10.028566392522023"><ele>196.0</ele><time>2026-03-22T16:46:09Z</time></trkpt><trkpt lat="45.603187631075066" lon="10.0284311421106"><ele>196.0</ele><time>2026-03-22T16:46:10Z</time></trkpt><trkpt lat="45.60306967127429" lon="10.028307267328302"><ele>196.0</ele><time>2026-03-22T16:46:11Z</time></trkpt><trkpt lat="45.60294052413402" lon="10.028197061703482"><ele>196.0</ele><time>2026-03-22T16:46:12Z</time></trkpt><trkpt lat="45.60282419824169" lon="10.02810098569334"><ele>199.60000000000002</ele><time>2026-03-22T16:46:13Z</time></trkpt><trkpt lat="45.60272386095825" lon="10.028013039618333"><ele>203.2</ele><time>2026-03-22T16:46:14Z</time></trkpt><trkpt lat="45.602633979846594" lon="10.027951558391196"><ele>206.79999999999998</ele><time>2026-03-22T16:46:15Z</time></trkpt><trkpt lat="45.60255314642431" lon="10.027951854167537"><ele>210.39999999999998</ele><time>2026-03-22T16:46:16Z</time></trkpt><trkpt lat="45.60248031577871" lon="10.027991916043778"><ele>214.0</ele><time>2026-03-22T16:46:17Z</time></trkpt><trkpt lat="45.60242240810441" lon="10.02814500378933"><ele>214.0</ele><time>2026-03-22T16:46:18Z</time></trkpt><trkpt lat="45.60234534589517" lon="10.028278076123465"><ele>214.0</ele><time>2026-03-22T16:46:19Z</time></trkpt><trkpt lat="45.60226980299918" lon="10.028422273658029"><ele>214.0</ele><time>2026-03-22T16:46:20Z</time></trkpt><trkpt lat="45.60219797725089" lon="10.028559378195084"><ele>214.0</ele><time>2026-03-22T16:46:21Z</time></trkpt><trkpt lat="45.60213987011155" lon="10.028672042138583"><ele>213.99999999999997</ele><time>2026-03-22T16:46:22Z</time></trkpt><trkpt lat="45.602092619405184" lon="10.02876482646371"><ele>214.0</ele><time>2026-03-22T16:46:23Z</time></trkpt><trkpt lat="45.602048557660694" lon="10.02885458925971"><ele>214.0</ele><time>2026-03-22T16:46:24Z</time></trkpt><trkpt lat="45.60200972807714" lon="10.028941611177146"><ele>214.0</ele><time>2026-03-22T16:46:25Z</time></trkpt><trkpt lat="45.60197215016215" lon="10.02902711813348"><ele>213.99999999999997</ele><time>2026-03-22T16:46:26Z</time></trkpt><trkpt lat="45.60191932578287" lon="10.029147317634633"><ele>214.0</ele><time>2026-03-22T16:46:28Z</time></trkpt><trkpt lat="45.60186465505017" lon="10.029236461717495"><ele>211.0</ele><time>2026-03-22T16:46:33Z</time></trkpt><trkpt lat="45.6017615123412" lon="10.029318793027132"><ele>208.0</ele><time>2026-03-22T16:46:35Z</time></trkpt><trkpt lat="45.60164352712907" lon="10.029279550048216"><ele>205.0</ele><time>2026-03-22T16:46:37Z</time></trkpt><trkpt lat="45.601567686851574" lon="10.029202414558274"><ele>202.0</ele><time>2026-03-22T16:46:39Z</time></trkpt><trkpt lat="45.60144092286319" lon="10.029152258453228"><ele>204.5</ele><time>2026-03-22T16:46:41Z</time></trkpt><trkpt lat="45.601344567927086" lon="10.029105340840669"><ele>207.0</ele><time>2026-03-22T16:46:42Z</time></trkpt><trkpt lat="45.60122395945186" lon="10.029041467046895"><ele>209.5</ele><time>2026-03-22T16:46:43Z</time></trkpt><trkpt lat="45.60108395122362" lon="10.028973029785906"><ele>212.0</ele><time>2026-03-22T16:46:44Z</time></trkpt><trkpt lat="45.600935112186" lon="10.028896073874575"><ele>212.0</ele><time>2026-03-22T16:46:45Z</time></trkpt><trkpt lat="45.60077617546637" lon="10.028814995883764"><ele>212.0</ele><time>2026-03-22T16:46:46Z</time></trkpt><trkpt lat="45.600603895597516" lon="10.02873610728975"><ele>212.0</ele><time>2026-03-22T16:46:47Z</time></trkpt><trkpt lat="45.60042378879957" lon="10.028651652100793"><ele>211.0</ele><time>2026-03-22T16:46:48Z</time></trkpt><trkpt lat="45.6002413126399" lon="10.028564171006913"><ele>210.0</ele><time>2026-03-22T16:46:49Z</time></trkpt><trkpt lat="45.60006330849408" lon="10.028477760585124"><ele>209.0</ele><time>2026-03-22T16:46:50Z</time></trkpt><trkpt lat="45.59988412722897" lon="10.028395504028662"><ele>209.0</ele><time>2026-03-22T16:46:51Z</time></trkpt><trkpt lat="45.59970553536244" lon="10.028315129522612"><ele>209.0</ele><time>2026-03-22T16:46:52Z</time></trkpt><trkpt lat="45.59952646903347" lon="10.028237988245667"><ele>209.0</ele><time>2026-03-22T16:46:53Z</time></trkpt><trkpt lat="45.59934879811991" lon="10.028160443046573"><ele>215.0</ele><time>2026-03-22T16:46:54Z</time></trkpt><trkpt lat="45.599171729402634" lon="10.028078318336892"><ele>221.0</ele><time>2026-03-22T16:46:55Z</time></trkpt><trkpt lat="45.59899560038053" lon="10.028000015964636"><ele>227.0</ele><time>2026-03-22T16:46:56Z</time></trkpt><trkpt lat="45.59881790047035" lon="10.027922665767491"><ele>224.66666666666669</ele><time>2026-03-22T16:46:57Z</time></trkpt><trkpt lat="45.59864330871651" lon="10.027839498378347"><ele>222.33333333333331</ele><time>2026-03-22T16:46:58Z</time></trkpt><trkpt lat="45.59846945349468" lon="10.027754917767867"><ele>220.0</ele><time>2026-03-22T16:46:59Z</time></trkpt><trkpt lat="45.59829965679671" lon="10.027652266716714"><ele>220.0</ele><time>2026-03-22T16:47:00Z</time></trkpt><trkpt lat="45.5981236517866" lon="10.027568392729181"><ele>220.0</ele><time>2026-03-22T16:47:01Z</time></trkpt><trkpt lat="45.59793666054164" lon="10.027489586982025"><ele>220.0</ele><time>2026-03-22T16:47:02Z</time></trkpt><trkpt lat="45.59774409671202" lon="10.027415641307007"><ele>226.0</ele><time>2026-03-22T16:47:03Z</time></trkpt><trkpt lat="45.597554591676236" lon="10.027348856119266"><ele>232.0</ele><time>2026-03-22T16:47:04Z</time></trkpt><trkpt lat="45.597369942001265" lon="10.027275630418213"><ele>238.0</ele><time>2026-03-22T16:47:05Z</time></trkpt><trkpt lat="45.59718900534637" lon="10.02720014855446"><ele>238.0</ele><time>2026-03-22T16:47:06Z</time></trkpt><trkpt lat="45.59702470297238" lon="10.027068417819311"><ele>238.0</ele><time>2026-03-22T16:47:07Z</time></trkpt><trkpt lat="45.59685014942925" lon="10.026948764599668"><ele>238.0</ele><time>2026-03-22T16:47:08Z</time></trkpt><trkpt lat="45.59667283271119" lon="10.02679199408442"><ele>239.0</ele><time>2026-03-22T16:47:09Z</time></trkpt><trkpt lat="45.596519941044946" lon="10.026626668578858"><ele>240.0</ele><time>2026-03-22T16:47:10Z</time></trkpt><trkpt lat="45.59636084984281" lon="10.026469433424056"><ele>241.0</ele><time>2026-03-22T16:47:11Z</time></trkpt><trkpt lat="45.596198861250315" lon="10.026326362521104"><ele>240.0</ele><time>2026-03-22T16:47:12Z</time></trkpt><trkpt lat="45.596050641095395" lon="10.026152831925385"><ele>239.0</ele><time>2026-03-22T16:47:13Z</time></trkpt><trkpt lat="45.59592125928887" lon="10.025948667749624"><ele>238.0</ele><time>2026-03-22T16:47:14Z</time></trkpt><trkpt lat="45.595785896484685" lon="10.025743607645778"><ele>238.0</ele><time>2026-03-22T16:47:15Z</time></trkpt><trkpt lat="45.59565734398281" lon="10.025531584995495"><ele>238.0</ele><time>2026-03-22T16:47:16Z</time></trkpt><trkpt lat="45.59549564240683" lon="10.02536004915861"><ele>238.0</ele><time>2026-03-22T16:47:17Z</time></trkpt><trkpt lat="45.59532971694348" lon="10.025182739448434"><ele>236.33333333333331</ele><time>2026-03-22T16:47:18Z</time></trkpt><trkpt lat="45.59515980871438" lon="10.025013098554185"><ele>234.66666666666669</ele><time>2026-03-22T16:47:19Z</time></trkpt><trkpt lat="45.59499469223021" lon="10.024846734095751"><ele>233.0</ele><time>2026-03-22T16:47:20Z</time></trkpt><trkpt lat="45.59485777033834" lon="10.024693251708285"><ele>233.0</ele><time>2026-03-22T16:47:21Z</time></trkpt><trkpt lat="45.59474237602193" lon="10.024567055069804"><ele>233.0</ele><time>2026-03-22T16:47:22Z</time></trkpt><trkpt lat="45.59465562955288" lon="10.024454710212733"><ele>233.0</ele><time>2026-03-22T16:47:23Z</time></trkpt><trkpt lat="45.594590363465564" lon="10.024358739080055"><ele>233.0</ele><time>2026-03-22T16:47:24Z</time></trkpt><trkpt lat="45.59455616899393" lon="10.024260065030674"><ele>233.0</ele><time>2026-03-22T16:47:25Z</time></trkpt><trkpt lat="45.59456213424924" lon="10.024121243904489"><ele>233.4</ele><time>2026-03-22T16:47:26Z</time></trkpt><trkpt lat="45.59460076759766" lon="10.023971730213734"><ele>233.8</ele><time>2026-03-22T16:47:27Z</time></trkpt><trkpt lat="45.59470219541079" lon="10.023884245926839"><ele>234.2</ele><time>2026-03-22T16:47:28Z</time></trkpt><trkpt lat="45.594760954819535" lon="10.023770259543097"><ele>234.6</ele><time>2026-03-22T16:47:29Z</time></trkpt><trkpt lat="45.59480286594992" lon="10.023647940366585"><ele>235.0</ele><time>2026-03-22T16:47:30Z</time></trkpt><trkpt lat="45.59480944997999" lon="10.023478494880997"><ele>234.5</ele><time>2026-03-22T16:47:31Z</time></trkpt><trkpt lat="45.59482488737108" lon="10.023298923002313"><ele>234.0</ele><time>2026-03-22T16:47:32Z</time></trkpt><trkpt lat="45.59485558447736" lon="10.023108638774893"><ele>233.5</ele><time>2026-03-22T16:47:33Z</time></trkpt><trkpt lat="45.59488678307866" lon="10.022941641884524"><ele>233.0</ele><time>2026-03-22T16:47:34Z</time></trkpt><trkpt lat="45.59491309631099" lon="10.022803821854636"><ele>233.0</ele><time>2026-03-22T16:47:35Z</time></trkpt><trkpt lat="45.59492610754788" lon="10.022710913027831"><ele>233.0</ele><time>2026-03-22T16:47:36Z</time></trkpt><trkpt lat="45.594850154817465" lon="10.022599868940237"><ele>233.0</ele><time>2026-03-22T16:47:38Z</time></trkpt><trkpt lat="45.594749713183916" lon="10.022554679805758"><ele>233.0</ele><time>2026-03-22T16:47:39Z</time></trkpt><trkpt lat="45.594645326152836" lon="10.022496622152117"><ele>233.0</ele><time>2026-03-22T16:47:40Z</time></trkpt><trkpt lat="45.59454106417218" lon="10.022408320969003"><ele>232.2</ele><time>2026-03-22T16:47:41Z</time></trkpt><trkpt lat="45.59443921207686" lon="10.022329596306337"><ele>231.4</ele><time>2026-03-22T16:47:42Z</time></trkpt><trkpt lat="45.594340216737635" lon="10.022251721131749"><ele>230.59999999999997</ele><time>2026-03-22T16:47:43Z</time></trkpt><trkpt lat="45.594256091644496" lon="10.022182631215582"><ele>229.79999999999998</ele><time>2026-03-22T16:47:44Z</time></trkpt><trkpt lat="45.594187389310775" lon="10.022119030065024"><ele>229.0</ele><time>2026-03-22T16:47:45Z</time></trkpt><trkpt lat="45.594131602161326" lon="10.022044885717099"><ele>229.0</ele><time>2026-03-22T16:47:47Z</time></trkpt><trkpt lat="45.59417769529313" lon="10.021947478721014"><ele>228.99999999999997</ele><time>2026-03-22T16:47:48Z</time></trkpt><trkpt lat="45.59425742538615" lon="10.021895812314304"><ele>228.99999999999997</ele><time>2026-03-22T16:47:49Z</time></trkpt><trkpt lat="45.59433617002534" lon="10.021803164492319"><ele>229.0</ele><time>2026-03-22T16:47:50Z</time></trkpt><trkpt lat="45.59442989363013" lon="10.021700954934172"><ele>229.0</ele><time>2026-03-22T16:47:51Z</time></trkpt><trkpt lat="45.594529564101165" lon="10.02157893972985"><ele>229.0</ele><time>2026-03-22T16:47:52Z</time></trkpt><trkpt lat="45.59464290815761" lon="10.021444352773601"><ele>229.0</ele><time>2026-03-22T16:47:53Z</time></trkpt><trkpt lat="45.59477807543096" lon="10.021304033663984"><ele>229.0</ele><time>2026-03-22T16:47:54Z</time></trkpt><trkpt lat="45.594950703558965" lon="10.02122112772142"><ele>229.0</ele><time>2026-03-22T16:47:55Z</time></trkpt><trkpt lat="45.59513419390988" lon="10.021178140208264"><ele>229.0</ele><time>2026-03-22T16:47:56Z</time></trkpt><trkpt lat="45.59533491489952" lon="10.02113818074391"><ele>229.0</ele><time>2026-03-22T16:47:57Z</time></trkpt><trkpt lat="45.59554234421183" lon="10.02108964169306"><ele>230.0</ele><time>2026-03-22T16:47:58Z</time></trkpt><trkpt lat="45.595747403775434" lon="10.021067452242372"><ele>231.0</ele><time>2026-03-22T16:47:59Z</time></trkpt><trkpt lat="45.595951796460916" lon="10.02108943874302"><ele>232.0</ele><time>2026-03-22T16:48:00Z</time></trkpt><trkpt lat="45.596158149091664" lon="10.021076517313556"><ele>233.66666666666666</ele><time>2026-03-22T16:48:01Z</time></trkpt><trkpt lat="45.59636380657284" lon="10.021089740610348"><ele>235.33333333333331</ele><time>2026-03-22T16:48:02Z</time></trkpt><trkpt lat="45.59657977480218" lon="10.021098407175186"><ele>237.0</ele><time>2026-03-22T16:48:03Z</time></trkpt><trkpt lat="45.59677813769338" lon="10.021104159412294"><ele>237.0</ele><time>2026-03-22T16:48:04Z</time></trkpt><trkpt lat="45.59694311153879" lon="10.021117837843983"><ele>237.0</ele><time>2026-03-22T16:48:05Z</time></trkpt><trkpt lat="45.597043667456234" lon="10.021117292204691"><ele>237.0</ele><time>2026-03-22T16:48:06Z</time></trkpt><trkpt lat="45.597145330721084" lon="10.021083157137472"><ele>237.0</ele><time>2026-03-22T16:48:08Z</time></trkpt><trkpt lat="45.597199224895995" lon="10.021035725700441"><ele>237.0</ele><time>2026-03-22T16:48:09Z</time></trkpt><trkpt lat="45.597269849263405" lon="10.020910833225026"><ele>238.8</ele><time>2026-03-22T16:48:10Z</time></trkpt><trkpt lat="45.59732768722708" lon="10.02079445528941"><ele>240.6</ele><time>2026-03-22T16:48:11Z</time></trkpt><trkpt lat="45.597403588789355" lon="10.020664464401824"><ele>242.40000000000003</ele><time>2026-03-22T16:48:12Z</time></trkpt><trkpt lat="45.59747175191315" lon="10.02055063567937"><ele>244.20000000000002</ele><time>2026-03-22T16:48:13Z</time></trkpt><trkpt lat="45.59752855792718" lon="10.020436971727628"><ele>246.0</ele><time>2026-03-22T16:48:14Z</time></trkpt><trkpt lat="45.59772648596224" lon="10.020386964683798"><ele>245.33333333333331</ele><time>2026-03-22T16:48:17Z</time></trkpt><trkpt lat="45.59792656112356" lon="10.020163210267429"><ele>244.66666666666666</ele><time>2026-03-22T16:48:18Z</time></trkpt><trkpt lat="45.59805984288978" lon="10.019974664414459"><ele>244.0</ele><time>2026-03-22T16:48:19Z</time></trkpt><trkpt lat="45.598210728590594" lon="10.01976218449228"><ele>247.0</ele><time>2026-03-22T16:48:20Z</time></trkpt><trkpt lat="45.59838777550996" lon="10.019513594892821"><ele>250.0</ele><time>2026-03-22T16:48:21Z</time></trkpt><trkpt lat="45.598542841008985" lon="10.019296608565073"><ele>252.0</ele><time>2026-03-22T16:48:22Z</time></trkpt><trkpt lat="45.59872896827526" lon="10.019122620969464"><ele>254.0</ele><time>2026-03-22T16:48:24Z</time></trkpt><trkpt lat="45.59895836975214" lon="10.018034056433445"><ele>255.66666666666669</ele><time>2026-03-22T16:48:32Z</time></trkpt><trkpt lat="45.5989724586616" lon="10.017762671464203"><ele>257.3333333333333</ele><time>2026-03-22T16:48:33Z</time></trkpt><trkpt lat="45.59898347226322" lon="10.017488870429613"><ele>259.0</ele><time>2026-03-22T16:48:34Z</time></trkpt><trkpt lat="45.599007614354754" lon="10.017152407390359"><ele>260.66666666666663</ele><time>2026-03-22T16:48:35Z</time></trkpt><trkpt lat="45.599029827505674" lon="10.016841250186491"><ele>262.3333333333333</ele><time>2026-03-22T16:48:36Z</time></trkpt><trkpt lat="45.59904133366944" lon="10.016617363010004"><ele>264.0</ele><time>2026-03-22T16:48:37Z</time></trkpt><trkpt lat="45.59904649195851" lon="10.016442492096536"><ele>264.8</ele><time>2026-03-22T16:48:38Z</time></trkpt><trkpt lat="45.599056788322635" lon="10.01631232692232"><ele>265.59999999999997</ele><time>2026-03-22T16:48:39Z</time></trkpt><trkpt lat="45.599126099619376" lon="10.016230241399478"><ele>266.4</ele><time>2026-03-22T16:48:41Z</time></trkpt><trkpt lat="45.59921188236322" lon="10.016243856049984"><ele>267.2</ele><time>2026-03-22T16:48:42Z</time></trkpt><trkpt lat="45.5993410363139" lon="10.016284031848349"><ele>268.0</ele><time>2026-03-22T16:48:43Z</time></trkpt><trkpt lat="45.599473354041" lon="10.01629157694451"><ele>268.0</ele><time>2026-03-22T16:48:44Z</time></trkpt><trkpt lat="45.599597951893294" lon="10.016283253303904"><ele>268.0</ele><time>2026-03-22T16:48:45Z</time></trkpt><trkpt lat="45.59970886918393" lon="10.016281705669916"><ele>268.0</ele><time>2026-03-22T16:48:46Z</time></trkpt><trkpt lat="45.599799577307586" lon="10.016284614504173"><ele>268.0</ele><time>2026-03-22T16:48:47Z</time></trkpt><trkpt lat="45.59986141667184" lon="10.016263461432631"><ele>268.0</ele><time>2026-03-22T16:48:49Z</time></trkpt><trkpt lat="45.59990844732757" lon="10.016356253133562"><ele>268.0</ele><time>2026-03-22T16:50:49Z</time></trkpt><trkpt lat="45.59985317216698" lon="10.016505599657421"><ele>268.0</ele><time>2026-03-22T16:50:54Z</time></trkpt><trkpt lat="45.59982502864844" lon="10.016399313917306"><ele>268.0</ele><time>2026-03-22T16:51:09Z</time></trkpt><trkpt lat="45.59984002260503" lon="10.016259185607188"><ele>268.0</ele><time>2026-03-22T16:51:18Z</time></trkpt><trkpt lat="45.599774404009985" lon="10.016276178668724"><ele>268.0</ele><time>2026-03-22T16:51:24Z</time></trkpt><trkpt lat="45.59985920044398" lon="10.01629334664884"><ele>268.0</ele><time>2026-03-22T16:51:30Z</time></trkpt></trkseg></trk></gpx>